<?xml version="1.0" encoding="utf-8"?>
<gpx xmlns:xsi="http://www.w3.org/2001/XMLSchema-instance" xmlns:xsd="http://www.w3.org/2001/XMLSchema" version="1.1" creator="http://www.runthemap.com/" xmlns="http://www.topografix.com/GPX/1/1">
	<metadata>
		<name>2012.04.21-09:54:09</name>
	</metadata>
	<trk>
		<name>Sequence 1</name>
		<desc></desc>
		<trkseg>
			<trkpt lat="52.1649520844707" lon="7.53033114597903">
				<ele>47</ele>
				<time>2012-04-21T09:54:38</time>
			</trkpt>
			<trkpt lat="52.1649142820874" lon="7.53030977212594">
				<ele>50.0999984741211</ele>
				<time>2012-04-21T09:54:43</time>
			</trkpt>
			<trkpt lat="52.1648501186186" lon="7.53024682403312">
				<ele>38.4000015258789</ele>
				<time>2012-04-21T09:54:47</time>
			</trkpt>
			<trkpt lat="52.1649213228861" lon="7.53027180210457">
				<ele>36.3000030517578</ele>
				<time>2012-04-21T09:56:00</time>
			</trkpt>
			<trkpt lat="52.1648546448463" lon="7.53031161614464">
				<ele>34.5999984741211</ele>
				<time>2012-04-21T09:56:18</time>
			</trkpt>
			<trkpt lat="52.1648843167835" lon="7.5303585548024">
				<ele>38.4000015258789</ele>
				<time>2012-04-21T09:56:21</time>
			</trkpt>
			<trkpt lat="52.1649804572129" lon="7.53043675795899">
				<ele>43.4000015258789</ele>
				<time>2012-04-21T09:56:25</time>
			</trkpt>
			<trkpt lat="52.1652085287982" lon="7.5307264365326">
				<ele>38</ele>
				<time>2012-04-21T09:56:32</time>
			</trkpt>
			<trkpt lat="52.1653732751051" lon="7.53082081676231">
				<ele>42.1999969482422</ele>
				<time>2012-04-21T09:56:36</time>
			</trkpt>
			<trkpt lat="52.1658683103064" lon="7.53078226000772">
				<ele>38.8000030517578</ele>
				<time>2012-04-21T09:56:43</time>
			</trkpt>
			<trkpt lat="52.1660398459548" lon="7.53082970157967">
				<ele>43.5999984741211</ele>
				<time>2012-04-21T09:56:46</time>
			</trkpt>
			<trkpt lat="52.166229318876" lon="7.53090329468952">
				<ele>40.8000030517578</ele>
				<time>2012-04-21T09:56:49</time>
			</trkpt>
			<trkpt lat="52.1666873479748" lon="7.5312013551663">
				<ele>42.5</ele>
				<time>2012-04-21T09:56:56</time>
			</trkpt>
			<trkpt lat="52.167034107309" lon="7.53148474731253">
				<ele>51.0999984741211</ele>
				<time>2012-04-21T09:57:03</time>
			</trkpt>
			<trkpt lat="52.1670764778295" lon="7.53152447753356">
				<ele>52.8000030517578</ele>
				<time>2012-04-21T09:57:04</time>
			</trkpt>
			<trkpt lat="52.1675228560829" lon="7.53172036261068">
				<ele>50.5</ele>
				<time>2012-04-21T09:57:12</time>
			</trkpt>
			<trkpt lat="52.1675977483878" lon="7.53175606951819">
				<ele>50.0999984741211</ele>
				<time>2012-04-21T09:57:15</time>
			</trkpt>
			<trkpt lat="52.1676476626211" lon="7.5318900961499">
				<ele>45.1999969482422</ele>
				<time>2012-04-21T09:57:26</time>
			</trkpt>
			<trkpt lat="52.1675350098425" lon="7.53229175694988">
				<ele>36.5999984741211</ele>
				<time>2012-04-21T09:57:31</time>
			</trkpt>
			<trkpt lat="52.1674293978626" lon="7.5327379256557">
				<ele>37.5999984741211</ele>
				<time>2012-04-21T09:57:36</time>
			</trkpt>
			<trkpt lat="52.1673674975076" lon="7.53321024589942">
				<ele>35.9000015258789</ele>
				<time>2012-04-21T09:57:40</time>
			</trkpt>
			<trkpt lat="52.1672244184205" lon="7.53407115117417">
				<ele>32.9000015258789</ele>
				<time>2012-04-21T09:57:48</time>
			</trkpt>
			<trkpt lat="52.1671862807611" lon="7.53450348973976">
				<ele>34.5</ele>
				<time>2012-04-21T09:57:52</time>
			</trkpt>
			<trkpt lat="52.1671753423774" lon="7.53480833955811">
				<ele>37.5999984741211</ele>
				<time>2012-04-21T09:57:55</time>
			</trkpt>
			<trkpt lat="52.1671677986646" lon="7.53529801034139">
				<ele>38.5</ele>
				<time>2012-04-21T09:57:59</time>
			</trkpt>
			<trkpt lat="52.1670138650128" lon="7.53620912321614">
				<ele>35</ele>
				<time>2012-04-21T09:58:08</time>
			</trkpt>
			<trkpt lat="52.1667837817708" lon="7.53624147736238">
				<ele>34.5999984741211</ele>
				<time>2012-04-21T09:58:12</time>
			</trkpt>
			<trkpt lat="52.1665165666977" lon="7.53624851816104">
				<ele>35.0999984741211</ele>
				<time>2012-04-21T09:58:17</time>
			</trkpt>
			<trkpt lat="52.1661081165561" lon="7.5363786891173">
				<ele>34.0999984741211</ele>
				<time>2012-04-21T09:58:23</time>
			</trkpt>
			<trkpt lat="52.1658372134456" lon="7.53644683399008">
				<ele>34.4000015258789</ele>
				<time>2012-04-21T09:58:27</time>
			</trkpt>
			<trkpt lat="52.1655358840266" lon="7.53652662970828">
				<ele>38.6999969482422</ele>
				<time>2012-04-21T09:58:32</time>
			</trkpt>
			<trkpt lat="52.1650879551211" lon="7.53673366271661">
				<ele>33.9000015258789</ele>
				<time>2012-04-21T09:58:38</time>
			</trkpt>
			<trkpt lat="52.1649599215502" lon="7.53672955558406">
				<ele>33.5</ele>
				<time>2012-04-21T09:58:40</time>
			</trkpt>
			<trkpt lat="52.1647148347014" lon="7.53688914702045">
				<ele>32.9000015258789</ele>
				<time>2012-04-21T09:58:44</time>
			</trkpt>
			<trkpt lat="52.1643024450654" lon="7.53765659407483">
				<ele>31.9000015258789</ele>
				<time>2012-04-21T09:58:53</time>
			</trkpt>
			<trkpt lat="52.1640907181913" lon="7.53805859015094">
				<ele>35.1999969482422</ele>
				<time>2012-04-21T09:58:58</time>
			</trkpt>
			<trkpt lat="52.1638953779379" lon="7.53829630092488">
				<ele>33.0999984741211</ele>
				<time>2012-04-21T09:59:02</time>
			</trkpt>
			<trkpt lat="52.1635425836334" lon="7.53863057122337">
				<ele>38.0999984741211</ele>
				<time>2012-04-21T09:59:08</time>
			</trkpt>
			<trkpt lat="52.1633366402724" lon="7.53880491480933">
				<ele>39</ele>
				<time>2012-04-21T09:59:11</time>
			</trkpt>
			<trkpt lat="52.1630009031409" lon="7.53907690756725">
				<ele>41.0999984741211</ele>
				<time>2012-04-21T09:59:16</time>
			</trkpt>
			<trkpt lat="52.162705105778" lon="7.53930523060964">
				<ele>40.6999969482422</ele>
				<time>2012-04-21T09:59:21</time>
			</trkpt>
			<trkpt lat="52.1625250624979" lon="7.53942769021498">
				<ele>42.5</ele>
				<time>2012-04-21T09:59:24</time>
			</trkpt>
			<trkpt lat="52.162077426959" lon="7.53980906680929">
				<ele>38.8000030517578</ele>
				<time>2012-04-21T09:59:31</time>
			</trkpt>
			<trkpt lat="52.1617559809724" lon="7.54007728771077">
				<ele>42.8000030517578</ele>
				<time>2012-04-21T09:59:37</time>
			</trkpt>
			<trkpt lat="52.1615142049754" lon="7.54019304179357">
				<ele>42.5999984741211</ele>
				<time>2012-04-21T09:59:41</time>
			</trkpt>
			<trkpt lat="52.1613089740762" lon="7.54031893797921">
				<ele>39.1999969482422</ele>
				<time>2012-04-21T09:59:44</time>
			</trkpt>
			<trkpt lat="52.1608417667934" lon="7.54062001594113">
				<ele>37.6999969482422</ele>
				<time>2012-04-21T09:59:51</time>
			</trkpt>
			<trkpt lat="52.1606573230141" lon="7.54071917385565">
				<ele>38.3000030517578</ele>
				<time>2012-04-21T09:59:54</time>
			</trkpt>
			<trkpt lat="52.1600974118823" lon="7.54108755850004">
				<ele>28.6999969482422</ele>
				<time>2012-04-21T10:00:02</time>
			</trkpt>
			<trkpt lat="52.1598704299444" lon="7.54121647217082">
				<ele>28.1999969482422</ele>
				<time>2012-04-21T10:00:06</time>
			</trkpt>
			<trkpt lat="52.1595240897053" lon="7.54145703279184">
				<ele>24.3000030517578</ele>
				<time>2012-04-21T10:00:12</time>
			</trkpt>
			<trkpt lat="52.159196734477" lon="7.54162039608466">
				<ele>23.3000030517578</ele>
				<time>2012-04-21T10:00:17</time>
			</trkpt>
			<trkpt lat="52.1589806071037" lon="7.54169348628031">
				<ele>24.8000030517578</ele>
				<time>2012-04-21T10:00:20</time>
			</trkpt>
			<trkpt lat="52.158570438672" lon="7.54195575603055">
				<ele>30.0999984741211</ele>
				<time>2012-04-21T10:00:27</time>
			</trkpt>
			<trkpt lat="52.1583274053895" lon="7.54208927974807">
				<ele>31</ele>
				<time>2012-04-21T10:00:31</time>
			</trkpt>
			<trkpt lat="52.157945274424" lon="7.54232916981684">
				<ele>31.5999984741211</ele>
				<time>2012-04-21T10:00:37</time>
			</trkpt>
			<trkpt lat="52.1578345494831" lon="7.54239086062418">
				<ele>33.3000030517578</ele>
				<time>2012-04-21T10:00:39</time>
			</trkpt>
			<trkpt lat="52.1573325153926" lon="7.54269051366257">
				<ele>27.5999984741211</ele>
				<time>2012-04-21T10:00:48</time>
			</trkpt>
			<trkpt lat="52.1572630294153" lon="7.54272253253268">
				<ele>26.6999969482422</ele>
				<time>2012-04-21T10:00:49</time>
			</trkpt>
			<trkpt lat="52.1565955365562" lon="7.54321798682915">
				<ele>36.0999984741211</ele>
				<time>2012-04-21T10:00:58</time>
			</trkpt>
			<trkpt lat="52.1562798740828" lon="7.54347220995235">
				<ele>39.0999984741211</ele>
				<time>2012-04-21T10:01:03</time>
			</trkpt>
			<trkpt lat="52.156050377574" lon="7.54369550385284">
				<ele>40.6999969482422</ele>
				<time>2012-04-21T10:01:07</time>
			</trkpt>
			<trkpt lat="52.1557597350815" lon="7.54383405671226">
				<ele>39.6999969482422</ele>
				<time>2012-04-21T10:01:11</time>
			</trkpt>
			<trkpt lat="52.1552797034869" lon="7.54390211776601">
				<ele>34</ele>
				<time>2012-04-21T10:01:17</time>
			</trkpt>
			<trkpt lat="52.1549885161707" lon="7.54397881218003">
				<ele>33.1999969482422</ele>
				<time>2012-04-21T10:01:21</time>
			</trkpt>
			<trkpt lat="52.1548438445219" lon="7.54404678941476">
				<ele>34.8000030517578</ele>
				<time>2012-04-21T10:01:24</time>
			</trkpt>
			<trkpt lat="52.1547087282428" lon="7.54444669001507">
				<ele>39.3000030517578</ele>
				<time>2012-04-21T10:01:32</time>
			</trkpt>
			<trkpt lat="52.1547529846916" lon="7.54477065057265">
				<ele>46.3000030517578</ele>
				<time>2012-04-21T10:01:36</time>
			</trkpt>
			<trkpt lat="52.1548380610087" lon="7.54577631131517">
				<ele>49.9000015258789</ele>
				<time>2012-04-21T10:01:44</time>
			</trkpt>
			<trkpt lat="52.1549170604461" lon="7.54622356966841">
				<ele>52.8000030517578</ele>
				<time>2012-04-21T10:01:48</time>
			</trkpt>
			<trkpt lat="52.1549505880588" lon="7.54694801755952">
				<ele>47.0999984741211</ele>
				<time>2012-04-21T10:01:54</time>
			</trkpt>
			<trkpt lat="52.154970746536" lon="7.54717097618389">
				<ele>47.0999984741211</ele>
				<time>2012-04-21T10:01:56</time>
			</trkpt>
			<trkpt lat="52.1552553959677" lon="7.548125339679">
				<ele>48.5</ele>
				<time>2012-04-21T10:02:04</time>
			</trkpt>
			<trkpt lat="52.1552888397613" lon="7.5481943227421">
				<ele>47.9000015258789</ele>
				<time>2012-04-21T10:02:05</time>
			</trkpt>
			<trkpt lat="52.1554436535129" lon="7.5485399924289">
				<ele>51.8000030517578</ele>
				<time>2012-04-21T10:02:10</time>
			</trkpt>
			<trkpt lat="52.1556626726428" lon="7.54906201735842">
				<ele>55.0999984741211</ele>
				<time>2012-04-21T10:02:16</time>
			</trkpt>
			<trkpt lat="52.1559304744491" lon="7.54952168092835">
				<ele>54.8000030517578</ele>
				<time>2012-04-21T10:02:21</time>
			</trkpt>
			<trkpt lat="52.156297517989" lon="7.55022986792731">
				<ele>52.8000030517578</ele>
				<time>2012-04-21T10:02:29</time>
			</trkpt>
			<trkpt lat="52.1564018726835" lon="7.55051954650092">
				<ele>53.6999969482422</ele>
				<time>2012-04-21T10:02:32</time>
			</trkpt>
			<trkpt lat="52.1565437363946" lon="7.55076865666318">
				<ele>54</ele>
				<time>2012-04-21T10:02:35</time>
			</trkpt>
			<trkpt lat="52.1567229414844" lon="7.55117936991858">
				<ele>56.6999969482422</ele>
				<time>2012-04-21T10:02:40</time>
			</trkpt>
			<trkpt lat="52.1570022684076" lon="7.55181522109318">
				<ele>56.4000015258789</ele>
				<time>2012-04-21T10:02:47</time>
			</trkpt>
			<trkpt lat="52.1572118159869" lon="7.55222073756862">
				<ele>49.9000015258789</ele>
				<time>2012-04-21T10:02:52</time>
			</trkpt>
			<trkpt lat="52.1573714493328" lon="7.55251837895024">
				<ele>50.1999969482422</ele>
				<time>2012-04-21T10:02:55</time>
			</trkpt>
			<trkpt lat="52.1578208031619" lon="7.55342856981564">
				<ele>51.5999984741211</ele>
				<time>2012-04-21T10:03:04</time>
			</trkpt>
			<trkpt lat="52.1579686180243" lon="7.55376284011412">
				<ele>50.6999969482422</ele>
				<time>2012-04-21T10:03:08</time>
			</trkpt>
			<trkpt lat="52.1581787104273" lon="7.55416500382829">
				<ele>49.6999969482422</ele>
				<time>2012-04-21T10:03:13</time>
			</trkpt>
			<trkpt lat="52.1581500862279" lon="7.554663727067">
				<ele>46.3000030517578</ele>
				<time>2012-04-21T10:03:19</time>
			</trkpt>
			<trkpt lat="52.1579977451378" lon="7.5548326224159">
				<ele>43.9000015258789</ele>
				<time>2012-04-21T10:03:22</time>
			</trkpt>
			<trkpt lat="52.1577109164113" lon="7.55520905368734">
				<ele>41</ele>
				<time>2012-04-21T10:03:27</time>
			</trkpt>
			<trkpt lat="52.157533052426" lon="7.55540401675511">
				<ele>36.6999969482422</ele>
				<time>2012-04-21T10:03:30</time>
			</trkpt>
			<trkpt lat="52.1570144221672" lon="7.55603433587361">
				<ele>33.1999969482422</ele>
				<time>2012-04-21T10:03:39</time>
			</trkpt>
			<trkpt lat="52.1567982528844" lon="7.55637019873369">
				<ele>36.5</ele>
				<time>2012-04-21T10:03:43</time>
			</trkpt>
			<trkpt lat="52.1565708518514" lon="7.55666448735404">
				<ele>35.1999969482422</ele>
				<time>2012-04-21T10:03:47</time>
			</trkpt>
			<trkpt lat="52.1564113023245" lon="7.55690446124185">
				<ele>34.5999984741211</ele>
				<time>2012-04-21T10:03:50</time>
			</trkpt>
			<trkpt lat="52.1560958074892" lon="7.55741676316369">
				<ele>32.1999969482422</ele>
				<time>2012-04-21T10:03:56</time>
			</trkpt>
			<trkpt lat="52.1558448952177" lon="7.55781398155499">
				<ele>29.5</ele>
				<time>2012-04-21T10:04:01</time>
			</trkpt>
			<trkpt lat="52.1555101639146" lon="7.5581448990922">
				<ele>31.5999984741211</ele>
				<time>2012-04-21T10:04:07</time>
			</trkpt>
			<trkpt lat="52.1553464653456" lon="7.55834380165446">
				<ele>32.1999969482422</ele>
				<time>2012-04-21T10:04:10</time>
			</trkpt>
			<trkpt lat="52.1549151745179" lon="7.55894428119767">
				<ele>35</ele>
				<time>2012-04-21T10:04:19</time>
			</trkpt>
			<trkpt lat="52.1547521465012" lon="7.55929472856928">
				<ele>38.5999984741211</ele>
				<time>2012-04-21T10:04:23</time>
			</trkpt>
			<trkpt lat="52.1544593666235" lon="7.5597789511155">
				<ele>41.6999969482422</ele>
				<time>2012-04-21T10:04:29</time>
			</trkpt>
			<trkpt lat="52.1544088237473" lon="7.55985304713953">
				<ele>41.3000030517578</ele>
				<time>2012-04-21T10:04:30</time>
			</trkpt>
			<trkpt lat="52.1539796283954" lon="7.5604227650981">
				<ele>43.5999984741211</ele>
				<time>2012-04-21T10:04:38</time>
			</trkpt>
			<trkpt lat="52.1537072584519" lon="7.56080917083431">
				<ele>45.9000015258789</ele>
				<time>2012-04-21T10:04:43</time>
			</trkpt>
			<trkpt lat="52.1534797735998" lon="7.56104193628538">
				<ele>45.3000030517578</ele>
				<time>2012-04-21T10:04:47</time>
			</trkpt>
			<trkpt lat="52.1531374147648" lon="7.56143404171575">
				<ele>48.1999969482422</ele>
				<time>2012-04-21T10:04:53</time>
			</trkpt>
			<trkpt lat="52.1528626978883" lon="7.56165029481758">
				<ele>45.0999984741211</ele>
				<time>2012-04-21T10:04:57</time>
			</trkpt>
			<trkpt lat="52.1524671977872" lon="7.56199571304728">
				<ele>44.1999969482422</ele>
				<time>2012-04-21T10:05:03</time>
			</trkpt>
			<trkpt lat="52.1521995217094" lon="7.56218137220252">
				<ele>44.5</ele>
				<time>2012-04-21T10:05:07</time>
			</trkpt>
			<trkpt lat="52.1518182708436" lon="7.56238413044024">
				<ele>48.3000030517578</ele>
				<time>2012-04-21T10:05:13</time>
			</trkpt>
			<trkpt lat="52.1514880657682" lon="7.56257372908999">
				<ele>47.4000015258789</ele>
				<time>2012-04-21T10:05:18</time>
			</trkpt>
			<trkpt lat="52.1511395881438" lon="7.56274824031402">
				<ele>42.4000015258789</ele>
				<time>2012-04-21T10:05:23</time>
			</trkpt>
			<trkpt lat="52.1508059045786" lon="7.56290037185658">
				<ele>39.9000015258789</ele>
				<time>2012-04-21T10:05:28</time>
			</trkpt>
			<trkpt lat="52.1504200017565" lon="7.56306314841617">
				<ele>38.0999984741211</ele>
				<time>2012-04-21T10:05:33</time>
			</trkpt>
			<trkpt lat="52.1502748271936" lon="7.56315669045557">
				<ele>36.9000015258789</ele>
				<time>2012-04-21T10:05:35</time>
			</trkpt>
			<trkpt lat="52.1498776926213" lon="7.56333824247826">
				<ele>39.1999969482422</ele>
				<time>2012-04-21T10:05:41</time>
			</trkpt>
			<trkpt lat="52.1494206274414" lon="7.56352297962416">
				<ele>41.6999969482422</ele>
				<time>2012-04-21T10:05:48</time>
			</trkpt>
			<trkpt lat="52.1490139374995" lon="7.56374660880078">
				<ele>46.6999969482422</ele>
				<time>2012-04-21T10:05:54</time>
			</trkpt>
			<trkpt lat="52.1488654520848" lon="7.56382883527089">
				<ele>45</ele>
				<time>2012-04-21T10:05:56</time>
			</trkpt>
			<trkpt lat="52.148448284764" lon="7.56404492073465">
				<ele>50.3000030517578</ele>
				<time>2012-04-21T10:06:03</time>
			</trkpt>
			<trkpt lat="52.1480913833269" lon="7.56442042999674">
				<ele>47.8000030517578</ele>
				<time>2012-04-21T10:06:09</time>
			</trkpt>
			<trkpt lat="52.1478687180692" lon="7.56463567727019">
				<ele>44.8000030517578</ele>
				<time>2012-04-21T10:06:13</time>
			</trkpt>
			<trkpt lat="52.1475641616174" lon="7.56489509717334">
				<ele>43.8000030517578</ele>
				<time>2012-04-21T10:06:18</time>
			</trkpt>
			<trkpt lat="52.1471544960999" lon="7.56527848542441">
				<ele>47.8000030517578</ele>
				<time>2012-04-21T10:06:24</time>
			</trkpt>
			<trkpt lat="52.146988115322" lon="7.56546020508517">
				<ele>48</ele>
				<time>2012-04-21T10:06:27</time>
			</trkpt>
			<trkpt lat="52.146627483938" lon="7.5658228900354">
				<ele>47.9000015258789</ele>
				<time>2012-04-21T10:06:33</time>
			</trkpt>
			<trkpt lat="52.14651650754" lon="7.56591609679867">
				<ele>47.9000015258789</ele>
				<time>2012-04-21T10:06:35</time>
			</trkpt>
			<trkpt lat="52.1461254079381" lon="7.56630736403872">
				<ele>48.5</ele>
				<time>2012-04-21T10:06:42</time>
			</trkpt>
			<trkpt lat="52.1459368151167" lon="7.56665152498294">
				<ele>49.5</ele>
				<time>2012-04-21T10:06:48</time>
			</trkpt>
			<trkpt lat="52.1460909164065" lon="7.56720816717256">
				<ele>48.5999984741211</ele>
				<time>2012-04-21T10:06:53</time>
			</trkpt>
			<trkpt lat="52.1461699996629" lon="7.56741696038057">
				<ele>47.9000015258789</ele>
				<time>2012-04-21T10:06:55</time>
			</trkpt>
			<trkpt lat="52.1465424076208" lon="7.56833687425365">
				<ele>46.5</ele>
				<time>2012-04-21T10:07:04</time>
			</trkpt>
			<trkpt lat="52.14656411675" lon="7.56844265387167">
				<ele>45.8000030517578</ele>
				<time>2012-04-21T10:07:05</time>
			</trkpt>
			<trkpt lat="52.1468460001537" lon="7.56912401878049">
				<ele>44.6999969482422</ele>
				<time>2012-04-21T10:07:12</time>
			</trkpt>
			<trkpt lat="52.1470612474272" lon="7.56959751249065">
				<ele>41.5</ele>
				<time>2012-04-21T10:07:17</time>
			</trkpt>
			<trkpt lat="52.147215516355" lon="7.56995265372802">
				<ele>43.8000030517578</ele>
				<time>2012-04-21T10:07:20</time>
			</trkpt>
			<trkpt lat="52.1476244694108" lon="7.57099946961512">
				<ele>40.5999984741211</ele>
				<time>2012-04-21T10:07:29</time>
			</trkpt>
			<trkpt lat="52.1477276925483" lon="7.57126651705016">
				<ele>42.9000015258789</ele>
				<time>2012-04-21T10:07:32</time>
			</trkpt>
			<trkpt lat="52.1479245415443" lon="7.57173682563712">
				<ele>39.9000015258789</ele>
				<time>2012-04-21T10:07:37</time>
			</trkpt>
			<trkpt lat="52.1480949037263" lon="7.572119710974">
				<ele>43.4000015258789</ele>
				<time>2012-04-21T10:07:42</time>
			</trkpt>
			<trkpt lat="52.1483423794174" lon="7.57273368538131">
				<ele>43.9000015258789</ele>
				<time>2012-04-21T10:07:47</time>
			</trkpt>
			<trkpt lat="52.1485139988848" lon="7.57317708805909">
				<ele>43.9000015258789</ele>
				<time>2012-04-21T10:07:51</time>
			</trkpt>
			<trkpt lat="52.148855393801" lon="7.57404855453183">
				<ele>45.3000030517578</ele>
				<time>2012-04-21T10:07:58</time>
			</trkpt>
			<trkpt lat="52.1491451981032" lon="7.57474224083831">
				<ele>44.3000030517578</ele>
				<time>2012-04-21T10:08:05</time>
			</trkpt>
			<trkpt lat="52.1492973296457" lon="7.57518421859255">
				<ele>43.8000030517578</ele>
				<time>2012-04-21T10:08:09</time>
			</trkpt>
			<trkpt lat="52.1494263690451" lon="7.57552913390805">
				<ele>45.3000030517578</ele>
				<time>2012-04-21T10:08:12</time>
			</trkpt>
			<trkpt lat="52.1496644570047" lon="7.57612860762288">
				<ele>45.5</ele>
				<time>2012-04-21T10:08:18</time>
			</trkpt>
			<trkpt lat="52.1498930315041" lon="7.57675264031401">
				<ele>49</ele>
				<time>2012-04-21T10:08:24</time>
			</trkpt>
			<trkpt lat="52.1500635194147" lon="7.57711876184454">
				<ele>49</ele>
				<time>2012-04-21T10:08:28</time>
			</trkpt>
			<trkpt lat="52.1501888707766" lon="7.57749427110662">
				<ele>44.6999969482422</ele>
				<time>2012-04-21T10:08:33</time>
			</trkpt>
			<trkpt lat="52.1500033792594" lon="7.57792032324483">
				<ele>45.5999984741211</ele>
				<time>2012-04-21T10:08:38</time>
			</trkpt>
			<trkpt lat="52.1497745533028" lon="7.5783467944782">
				<ele>45.8000030517578</ele>
				<time>2012-04-21T10:08:43</time>
			</trkpt>
			<trkpt lat="52.1495233057552" lon="7.57875968702843">
				<ele>47</ele>
				<time>2012-04-21T10:08:48</time>
			</trkpt>
			<trkpt lat="52.1493171528467" lon="7.57907576859703">
				<ele>47.5999984741211</ele>
				<time>2012-04-21T10:08:52</time>
			</trkpt>
			<trkpt lat="52.1490185894558" lon="7.57946938276997">
				<ele>42.9000015258789</ele>
				<time>2012-04-21T10:08:57</time>
			</trkpt>
			<trkpt lat="52.1486512106398" lon="7.58008981124273">
				<ele>41.0999984741211</ele>
				<time>2012-04-21T10:09:04</time>
			</trkpt>
			<trkpt lat="52.1484882245326" lon="7.58038133383503">
				<ele>39.6999969482422</ele>
				<time>2012-04-21T10:09:08</time>
			</trkpt>
			<trkpt lat="52.1481673233697" lon="7.58094551973751">
				<ele>48.5</ele>
				<time>2012-04-21T10:09:15</time>
			</trkpt>
			<trkpt lat="52.1479051374385" lon="7.581393448643">
				<ele>49.0999984741211</ele>
				<time>2012-04-21T10:09:20</time>
			</trkpt>
			<trkpt lat="52.1477036364862" lon="7.58173107170275">
				<ele>48.5</ele>
				<time>2012-04-21T10:09:24</time>
			</trkpt>
			<trkpt lat="52.1474360442275" lon="7.58217338473311">
				<ele>46.5</ele>
				<time>2012-04-21T10:09:29</time>
			</trkpt>
			<trkpt lat="52.1472088946515" lon="7.58273740299752">
				<ele>42.6999969482422</ele>
				<time>2012-04-21T10:09:34</time>
			</trkpt>
			<trkpt lat="52.1469746623674" lon="7.58339580149165">
				<ele>39.1999969482422</ele>
				<time>2012-04-21T10:09:40</time>
			</trkpt>
			<trkpt lat="52.1469175396973" lon="7.58375890553704">
				<ele>35.3000030517578</ele>
				<time>2012-04-21T10:09:43</time>
			</trkpt>
			<trkpt lat="52.1469037514666" lon="7.58409652859679">
				<ele>34.1999969482422</ele>
				<time>2012-04-21T10:09:46</time>
			</trkpt>
			<trkpt lat="52.1469263406956" lon="7.5848695915263">
				<ele>31.0999984741211</ele>
				<time>2012-04-21T10:09:52</time>
			</trkpt>
			<trkpt lat="52.1468987223247" lon="7.58529279381743">
				<ele>28</ele>
				<time>2012-04-21T10:09:56</time>
			</trkpt>
			<trkpt lat="52.1468978841343" lon="7.58617825806847">
				<ele>31.8000030517578</ele>
				<time>2012-04-21T10:10:04</time>
			</trkpt>
			<trkpt lat="52.1468968363964" lon="7.58633751422873">
				<ele>31.5999984741211</ele>
				<time>2012-04-21T10:10:06</time>
			</trkpt>
			<trkpt lat="52.1469832538181" lon="7.5873200409185">
				<ele>29.8000030517578</ele>
				<time>2012-04-21T10:10:14</time>
			</trkpt>
			<trkpt lat="52.1470190864542" lon="7.58755221963635">
				<ele>30.5999984741211</ele>
				<time>2012-04-21T10:10:16</time>
			</trkpt>
			<trkpt lat="52.1470860578605" lon="7.58858487010709">
				<ele>30.4000015258789</ele>
				<time>2012-04-21T10:10:25</time>
			</trkpt>
			<trkpt lat="52.1470257081577" lon="7.58902609349004">
				<ele>31.0999984741211</ele>
				<time>2012-04-21T10:10:29</time>
			</trkpt>
			<trkpt lat="52.146873241339" lon="7.58951199241689">
				<ele>32.5999984741211</ele>
				<time>2012-04-21T10:10:34</time>
			</trkpt>
			<trkpt lat="52.1467423160115" lon="7.58991088718883">
				<ele>33</ele>
				<time>2012-04-21T10:10:38</time>
			</trkpt>
			<trkpt lat="52.1464911941925" lon="7.59062753990999">
				<ele>32.3000030517578</ele>
				<time>2012-04-21T10:10:45</time>
			</trkpt>
			<trkpt lat="52.1463138750309" lon="7.59113581851832">
				<ele>33.1999969482422</ele>
				<time>2012-04-21T10:10:50</time>
			</trkpt>
			<trkpt lat="52.1461840393507" lon="7.59155407548658">
				<ele>33.9000015258789</ele>
				<time>2012-04-21T10:10:54</time>
			</trkpt>
			<trkpt lat="52.1460775472709" lon="7.592131337158">
				<ele>33.3000030517578</ele>
				<time>2012-04-21T10:10:59</time>
			</trkpt>
			<trkpt lat="52.146001020495" lon="7.59271631018034">
				<ele>32</ele>
				<time>2012-04-21T10:11:04</time>
			</trkpt>
			<trkpt lat="52.1459724801147" lon="7.59296416305713">
				<ele>32.1999969482422</ele>
				<time>2012-04-21T10:11:06</time>
			</trkpt>
			<trkpt lat="52.1458877390736" lon="7.59354653768949">
				<ele>29.3000030517578</ele>
				<time>2012-04-21T10:11:11</time>
			</trkpt>
			<trkpt lat="52.1457729070002" lon="7.59452529252283">
				<ele>30.0999984741211</ele>
				<time>2012-04-21T10:11:19</time>
			</trkpt>
			<trkpt lat="52.1456773952135" lon="7.59506676346771">
				<ele>30</ele>
				<time>2012-04-21T10:11:24</time>
			</trkpt>
			<trkpt lat="52.1455889661351" lon="7.59574837983362">
				<ele>27.5</ele>
				<time>2012-04-21T10:11:30</time>
			</trkpt>
			<trkpt lat="52.145559797112" lon="7.59597158991508">
				<ele>28.1999969482422</ele>
				<time>2012-04-21T10:11:32</time>
			</trkpt>
			<trkpt lat="52.1454176819438" lon="7.59680978023223">
				<ele>27.4000015258789</ele>
				<time>2012-04-21T10:11:40</time>
			</trkpt>
			<trkpt lat="52.1453717491144" lon="7.5973691884499">
				<ele>31</ele>
				<time>2012-04-21T10:11:45</time>
			</trkpt>
			<trkpt lat="52.145364079673" lon="7.59748469107561">
				<ele>31.4000015258789</ele>
				<time>2012-04-21T10:11:46</time>
			</trkpt>
			<trkpt lat="52.1454299614319" lon="7.59845523164384">
				<ele>30.0999984741211</ele>
				<time>2012-04-21T10:11:54</time>
			</trkpt>
			<trkpt lat="52.1454950050005" lon="7.59889905341677">
				<ele>32.6999969482422</ele>
				<time>2012-04-21T10:11:58</time>
			</trkpt>
			<trkpt lat="52.1458962886149" lon="7.5992292165827">
				<ele>38.0999984741211</ele>
				<time>2012-04-21T10:12:05</time>
			</trkpt>
			<trkpt lat="52.1461477038005" lon="7.59943817742877">
				<ele>39.6999969482422</ele>
				<time>2012-04-21T10:12:09</time>
			</trkpt>
			<trkpt lat="52.1463119471931" lon="7.59962341748886">
				<ele>40.0999984741211</ele>
				<time>2012-04-21T10:12:12</time>
			</trkpt>
			<trkpt lat="52.1466742968672" lon="7.60000269860737">
				<ele>38.8000030517578</ele>
				<time>2012-04-21T10:12:18</time>
			</trkpt>
			<trkpt lat="52.1469706809634" lon="7.60036270134859">
				<ele>37.5</ele>
				<time>2012-04-21T10:12:23</time>
			</trkpt>
			<trkpt lat="52.1472137980649" lon="7.60058909655325">
				<ele>35.3000030517578</ele>
				<time>2012-04-21T10:12:28</time>
			</trkpt>
			<trkpt lat="52.1475898940602" lon="7.60112553835623">
				<ele>39.0999984741211</ele>
				<time>2012-04-21T10:12:35</time>
			</trkpt>
			<trkpt lat="52.147738630932" lon="7.60130742565505">
				<ele>37.6999969482422</ele>
				<time>2012-04-21T10:12:37</time>
			</trkpt>
			<trkpt lat="52.1482180338839" lon="7.60177874007039">
				<ele>38.0999984741211</ele>
				<time>2012-04-21T10:12:44</time>
			</trkpt>
			<trkpt lat="52.1484912001082" lon="7.6019180473011">
				<ele>38.9000015258789</ele>
				<time>2012-04-21T10:12:48</time>
			</trkpt>
			<trkpt lat="52.1488535916918" lon="7.60212399066203">
				<ele>39.3000030517578</ele>
				<time>2012-04-21T10:12:53</time>
			</trkpt>
			<trkpt lat="52.1492916718611" lon="7.60235256516151">
				<ele>40.4000015258789</ele>
				<time>2012-04-21T10:12:59</time>
			</trkpt>
			<trkpt lat="52.149564963814" lon="7.60249874555282">
				<ele>41.0999984741211</ele>
				<time>2012-04-21T10:13:03</time>
			</trkpt>
			<trkpt lat="52.1497726254651" lon="7.60263620876484">
				<ele>44.5</ele>
				<time>2012-04-21T10:13:06</time>
			</trkpt>
			<trkpt lat="52.1502530342454" lon="7.60287433863394">
				<ele>46.4000015258789</ele>
				<time>2012-04-21T10:13:12</time>
			</trkpt>
			<trkpt lat="52.1507717902326" lon="7.6032254565578">
				<ele>46.3000030517578</ele>
				<time>2012-04-21T10:13:20</time>
			</trkpt>
			<trkpt lat="52.1510803699979" lon="7.60340533219986">
				<ele>45.4000015258789</ele>
				<time>2012-04-21T10:13:24</time>
			</trkpt>
			<trkpt lat="52.1514460724333" lon="7.603622423492">
				<ele>44</ele>
				<time>2012-04-21T10:13:29</time>
			</trkpt>
			<trkpt lat="52.1516529797131" lon="7.60376835242622">
				<ele>43.1999969482422</ele>
				<time>2012-04-21T10:13:32</time>
			</trkpt>
			<trkpt lat="52.1520481445381" lon="7.604076974101">
				<ele>41.1999969482422</ele>
				<time>2012-04-21T10:13:38</time>
			</trkpt>
			<trkpt lat="52.1520670876393" lon="7.60443873704188">
				<ele>38.5999984741211</ele>
				<time>2012-04-21T10:13:43</time>
			</trkpt>
			<trkpt lat="52.1518079191932" lon="7.60497082025521">
				<ele>40</ele>
				<time>2012-04-21T10:13:49</time>
			</trkpt>
			<trkpt lat="52.151623643052" lon="7.60535395704918">
				<ele>38.8000030517578</ele>
				<time>2012-04-21T10:13:53</time>
			</trkpt>
			<trkpt lat="52.1513576014453" lon="7.60597078130357">
				<ele>34.1999969482422</ele>
				<time>2012-04-21T10:13:59</time>
			</trkpt>
			<trkpt lat="52.151194196243" lon="7.60652616620772">
				<ele>33.8000030517578</ele>
				<time>2012-04-21T10:14:04</time>
			</trkpt>
			<trkpt lat="52.1510918951148" lon="7.60683948174827">
				<ele>30.9000015258789</ele>
				<time>2012-04-21T10:14:07</time>
			</trkpt>
			<trkpt lat="52.1508724568897" lon="7.60756250471585">
				<ele>33.8000030517578</ele>
				<time>2012-04-21T10:14:14</time>
			</trkpt>
			<trkpt lat="52.1507129073629" lon="7.60819860734754">
				<ele>36.0999984741211</ele>
				<time>2012-04-21T10:14:20</time>
			</trkpt>
			<trkpt lat="52.1506531443933" lon="7.60841276497357">
				<ele>36</ele>
				<time>2012-04-21T10:14:22</time>
			</trkpt>
			<trkpt lat="52.1504429681712" lon="7.60898214765602">
				<ele>38</ele>
				<time>2012-04-21T10:14:30</time>
			</trkpt>
			<trkpt lat="52.1500738710651" lon="7.60916881263965">
				<ele>38.5</ele>
				<time>2012-04-21T10:14:36</time>
			</trkpt>
			<trkpt lat="52.1496536862591" lon="7.60938229971343">
				<ele>34.1999969482422</ele>
				<time>2012-04-21T10:14:41</time>
			</trkpt>
			<trkpt lat="52.1493756166214" lon="7.60931004770809">
				<ele>38.5</ele>
				<time>2012-04-21T10:14:45</time>
			</trkpt>
			<trkpt lat="52.1489758836591" lon="7.60942244902962">
				<ele>36.5999984741211</ele>
				<time>2012-04-21T10:14:51</time>
			</trkpt>
			<trkpt lat="52.148750997197" lon="7.60946067050808">
				<ele>36.4000015258789</ele>
				<time>2012-04-21T10:14:54</time>
			</trkpt>
			<trkpt lat="52.1482755756491" lon="7.60933745653146">
				<ele>35.0999984741211</ele>
				<time>2012-04-21T10:15:00</time>
			</trkpt>
			<trkpt lat="52.1478795307243" lon="7.60919211433046">
				<ele>36.4000015258789</ele>
				<time>2012-04-21T10:15:05</time>
			</trkpt>
			<trkpt lat="52.1474966453874" lon="7.60912514292412">
				<ele>33.1999969482422</ele>
				<time>2012-04-21T10:15:10</time>
			</trkpt>
			<trkpt lat="52.1471333737039" lon="7.60909915902429">
				<ele>30.9000015258789</ele>
				<time>2012-04-21T10:15:15</time>
			</trkpt>
			<trkpt lat="52.1468133945504" lon="7.6090590097081">
				<ele>33.1999969482422</ele>
				<time>2012-04-21T10:15:20</time>
			</trkpt>
			<trkpt lat="52.1464572055751" lon="7.60903512128406">
				<ele>33.6999969482422</ele>
				<time>2012-04-21T10:15:25</time>
			</trkpt>
			<trkpt lat="52.146126623314" lon="7.60903771967404">
				<ele>36.3000030517578</ele>
				<time>2012-04-21T10:15:30</time>
			</trkpt>
			<trkpt lat="52.1458193427437" lon="7.60919337161594">
				<ele>36.9000015258789</ele>
				<time>2012-04-21T10:15:35</time>
			</trkpt>
			<trkpt lat="52.1455724956953" lon="7.60958648287469">
				<ele>34.5999984741211</ele>
				<time>2012-04-21T10:15:40</time>
			</trkpt>
			<trkpt lat="52.1454928676152" lon="7.61002535932475">
				<ele>33.4000015258789</ele>
				<time>2012-04-21T10:15:44</time>
			</trkpt>
			<trkpt lat="52.1454141196349" lon="7.61061443947964">
				<ele>34.5</ele>
				<time>2012-04-21T10:15:49</time>
			</trkpt>
			<trkpt lat="52.1453002095708" lon="7.61131080799514">
				<ele>31.4000015258789</ele>
				<time>2012-04-21T10:15:56</time>
			</trkpt>
			<trkpt lat="52.1451664763057" lon="7.61165689677709">
				<ele>39</ele>
				<time>2012-04-21T10:16:00</time>
			</trkpt>
			<trkpt lat="52.1451146342346" lon="7.61227992363983">
				<ele>37.6999969482422</ele>
				<time>2012-04-21T10:16:05</time>
			</trkpt>
			<trkpt lat="52.1450527338797" lon="7.61271796189958">
				<ele>35.9000015258789</ele>
				<time>2012-04-21T10:16:09</time>
			</trkpt>
			<trkpt lat="52.1450083936119" lon="7.61339421384746">
				<ele>35.1999969482422</ele>
				<time>2012-04-21T10:16:14</time>
			</trkpt>
			<trkpt lat="52.1448789351174" lon="7.61389293708616">
				<ele>32.1999969482422</ele>
				<time>2012-04-21T10:16:19</time>
			</trkpt>
			<trkpt lat="52.1448279731461" lon="7.61439308524841">
				<ele>34.1999969482422</ele>
				<time>2012-04-21T10:16:24</time>
			</trkpt>
			<trkpt lat="52.1447302820647" lon="7.61497110129112">
				<ele>28.4000015258789</ele>
				<time>2012-04-21T10:16:30</time>
			</trkpt>
			<trkpt lat="52.1447312459835" lon="7.6154523063522">
				<ele>27.9000015258789</ele>
				<time>2012-04-21T10:16:34</time>
			</trkpt>
			<trkpt lat="52.1448016539702" lon="7.61603250168973">
				<ele>33.9000015258789</ele>
				<time>2012-04-21T10:16:39</time>
			</trkpt>
			<trkpt lat="52.144945194062" lon="7.6166299637478">
				<ele>41.8000030517578</ele>
				<time>2012-04-21T10:16:46</time>
			</trkpt>
			<trkpt lat="52.1449494688326" lon="7.61671319604629">
				<ele>43.3000030517578</ele>
				<time>2012-04-21T10:16:47</time>
			</trkpt>
			<trkpt lat="52.1450034063795" lon="7.61714905501121">
				<ele>42.8000030517578</ele>
				<time>2012-04-21T10:16:52</time>
			</trkpt>
			<trkpt lat="52.1451433003434" lon="7.61811356060916">
				<ele>40.5</ele>
				<time>2012-04-21T10:16:59</time>
			</trkpt>
			<trkpt lat="52.145288684454" lon="7.61885862798208">
				<ele>33.6999969482422</ele>
				<time>2012-04-21T10:17:05</time>
			</trkpt>
			<trkpt lat="52.1453366289401" lon="7.61911394075269">
				<ele>33.5</ele>
				<time>2012-04-21T10:17:07</time>
			</trkpt>
			<trkpt lat="52.1455046441892" lon="7.62005204335565">
				<ele>34.8000030517578</ele>
				<time>2012-04-21T10:17:15</time>
			</trkpt>
			<trkpt lat="52.1455984795952" lon="7.62061329559201">
				<ele>37.3000030517578</ele>
				<time>2012-04-21T10:17:20</time>
			</trkpt>
			<trkpt lat="52.1457066899651" lon="7.62113699690217">
				<ele>39</ele>
				<time>2012-04-21T10:17:25</time>
			</trkpt>
			<trkpt lat="52.1458048420513" lon="7.62144427747244">
				<ele>37.0999984741211</ele>
				<time>2012-04-21T10:17:28</time>
			</trkpt>
			<trkpt lat="52.1459980030098" lon="7.62186429464037">
				<ele>35.9000015258789</ele>
				<time>2012-04-21T10:17:32</time>
			</trkpt>
			<trkpt lat="52.146126707133" lon="7.62225220911915">
				<ele>36.6999969482422</ele>
				<time>2012-04-21T10:17:39</time>
			</trkpt>
			<trkpt lat="52.1464050701374" lon="7.62280801311845">
				<ele>39.5</ele>
				<time>2012-04-21T10:17:45</time>
			</trkpt>
			<trkpt lat="52.1465337323511" lon="7.62311546132678">
				<ele>40.4000015258789</ele>
				<time>2012-04-21T10:17:48</time>
			</trkpt>
			<trkpt lat="52.1467865305507" lon="7.62405716814811">
				<ele>41.8000030517578</ele>
				<time>2012-04-21T10:17:56</time>
			</trkpt>
			<trkpt lat="52.1468774322906" lon="7.62436738238449">
				<ele>43.5999984741211</ele>
				<time>2012-04-21T10:17:59</time>
			</trkpt>
			<trkpt lat="52.1469811164328" lon="7.62508286163921">
				<ele>37.3000030517578</ele>
				<time>2012-04-21T10:18:05</time>
			</trkpt>
			<trkpt lat="52.14712419552" lon="7.62557345443184">
				<ele>35.4000015258789</ele>
				<time>2012-04-21T10:18:09</time>
			</trkpt>
			<trkpt lat="52.1474090544993" lon="7.62649923563714">
				<ele>35</ele>
				<time>2012-04-21T10:18:16</time>
			</trkpt>
			<trkpt lat="52.1475424943977" lon="7.62684037909622">
				<ele>34.4000015258789</ele>
				<time>2012-04-21T10:18:19</time>
			</trkpt>
			<trkpt lat="52.1476583322996" lon="7.62748779729719">
				<ele>33.5</ele>
				<time>2012-04-21T10:18:24</time>
			</trkpt>
			<trkpt lat="52.1477649920174" lon="7.62817963958497">
				<ele>33.8000030517578</ele>
				<time>2012-04-21T10:18:30</time>
			</trkpt>
			<trkpt lat="52.1478005731964" lon="7.62849194929714">
				<ele>35.9000015258789</ele>
				<time>2012-04-21T10:18:33</time>
			</trkpt>
			<trkpt lat="52.1479390841463" lon="7.62931915932114">
				<ele>35.1999969482422</ele>
				<time>2012-04-21T10:18:40</time>
			</trkpt>
			<trkpt lat="52.1480484260732" lon="7.6299237459969">
				<ele>33.0999984741211</ele>
				<time>2012-04-21T10:18:45</time>
			</trkpt>
			<trkpt lat="52.1481153974795" lon="7.63055096381123">
				<ele>35.0999984741211</ele>
				<time>2012-04-21T10:18:51</time>
			</trkpt>
			<trkpt lat="52.1481591929236" lon="7.63097533956881">
				<ele>36.0999984741211</ele>
				<time>2012-04-21T10:18:55</time>
			</trkpt>
			<trkpt lat="52.1482647210845" lon="7.63156265952404">
				<ele>35</ele>
				<time>2012-04-21T10:19:00</time>
			</trkpt>
			<trkpt lat="52.1483575506621" lon="7.63227118179913">
				<ele>34.4000015258789</ele>
				<time>2012-04-21T10:19:06</time>
			</trkpt>
			<trkpt lat="52.1484067105242" lon="7.63278214261647">
				<ele>32.3000030517578</ele>
				<time>2012-04-21T10:19:10</time>
			</trkpt>
			<trkpt lat="52.1484324010575" lon="7.63359166682477">
				<ele>35.4000015258789</ele>
				<time>2012-04-21T10:19:17</time>
			</trkpt>
			<trkpt lat="52.1484181099126" lon="7.63396642171557">
				<ele>38.6999969482422</ele>
				<time>2012-04-21T10:19:21</time>
			</trkpt>
			<trkpt lat="52.1484919544795" lon="7.63423933648284">
				<ele>40.6999969482422</ele>
				<time>2012-04-21T10:19:26</time>
			</trkpt>
			<trkpt lat="52.148815747399" lon="7.63436959125813">
				<ele>42.5999984741211</ele>
				<time>2012-04-21T10:19:31</time>
			</trkpt>
			<trkpt lat="52.1491224412361" lon="7.63445852325078">
				<ele>45.1999969482422</ele>
				<time>2012-04-21T10:19:35</time>
			</trkpt>
			<trkpt lat="52.1495494992027" lon="7.63463496231254">
				<ele>46.8000030517578</ele>
				<time>2012-04-21T10:19:41</time>
			</trkpt>
			<trkpt lat="52.1499328455442" lon="7.63474870473857">
				<ele>46.6999969482422</ele>
				<time>2012-04-21T10:19:46</time>
			</trkpt>
			<trkpt lat="52.1502957819515" lon="7.63485733420368">
				<ele>47.1999969482422</ele>
				<time>2012-04-21T10:19:51</time>
			</trkpt>
			<trkpt lat="52.1506607719251" lon="7.63497593813356">
				<ele>50</ele>
				<time>2012-04-21T10:19:56</time>
			</trkpt>
			<trkpt lat="52.1510061482453" lon="7.63507417403873">
				<ele>51.9000015258789</ele>
				<time>2012-04-21T10:20:01</time>
			</trkpt>
			<trkpt lat="52.1514348825925" lon="7.63522110880132">
				<ele>52.8000030517578</ele>
				<time>2012-04-21T10:20:07</time>
			</trkpt>
			<trkpt lat="52.1514967829475" lon="7.63524415903504">
				<ele>53.9000015258789</ele>
				<time>2012-04-21T10:20:08</time>
			</trkpt>
			<trkpt lat="52.1520840190837" lon="7.63548941352184">
				<ele>55.1999969482422</ele>
				<time>2012-04-21T10:20:16</time>
			</trkpt>
			<trkpt lat="52.152421851691" lon="7.63561883010681">
				<ele>59.3000030517578</ele>
				<time>2012-04-21T10:20:21</time>
			</trkpt>
			<trkpt lat="52.1528449282536" lon="7.63579962775822">
				<ele>60.1999969482422</ele>
				<time>2012-04-21T10:20:27</time>
			</trkpt>
			<trkpt lat="52.1531404741594" lon="7.63593868353184">
				<ele>59.9000015258789</ele>
				<time>2012-04-21T10:20:31</time>
			</trkpt>
			<trkpt lat="52.1535057155901" lon="7.63611931354519">
				<ele>58.6999969482422</ele>
				<time>2012-04-21T10:20:36</time>
			</trkpt>
			<trkpt lat="52.1539510880151" lon="7.63633942232247">
				<ele>58.1999969482422</ele>
				<time>2012-04-21T10:20:42</time>
			</trkpt>
			<trkpt lat="52.1543438220882" lon="7.63647805900093">
				<ele>56.1999969482422</ele>
				<time>2012-04-21T10:20:47</time>
			</trkpt>
			<trkpt lat="52.1546975803116" lon="7.63664787635918">
				<ele>55.1999969482422</ele>
				<time>2012-04-21T10:20:52</time>
			</trkpt>
			<trkpt lat="52.1549364226425" lon="7.63676270843263">
				<ele>54.1999969482422</ele>
				<time>2012-04-21T10:20:56</time>
			</trkpt>
			<trkpt lat="52.1551186871269" lon="7.63641863130744">
				<ele>54.9000015258789</ele>
				<time>2012-04-21T10:21:01</time>
			</trkpt>
			<trkpt lat="52.1552978503072" lon="7.63589249924536">
				<ele>53</ele>
				<time>2012-04-21T10:21:07</time>
			</trkpt>
			<trkpt lat="52.1553723235169" lon="7.63581521809812">
				<ele>49</ele>
				<time>2012-04-21T10:21:09</time>
			</trkpt>
			<trkpt lat="52.1557884011903" lon="7.63590498828109">
				<ele>51.9000015258789</ele>
				<time>2012-04-21T10:21:16</time>
			</trkpt>
			<trkpt lat="52.1563074505442" lon="7.63591689058359">
				<ele>50.1999969482422</ele>
				<time>2012-04-21T10:21:23</time>
			</trkpt>
			<trkpt lat="52.1566307405496" lon="7.63585863635655">
				<ele>49.0999984741211</ele>
				<time>2012-04-21T10:21:27</time>
			</trkpt>
			<trkpt lat="52.1569881868103" lon="7.63590959832783">
				<ele>48.3000030517578</ele>
				<time>2012-04-21T10:21:32</time>
			</trkpt>
			<trkpt lat="52.1574096708113" lon="7.63595234603401">
				<ele>46.5</ele>
				<time>2012-04-21T10:21:38</time>
			</trkpt>
			<trkpt lat="52.1577132633442" lon="7.63597422280129">
				<ele>45.9000015258789</ele>
				<time>2012-04-21T10:21:42</time>
			</trkpt>
			<trkpt lat="52.1579704201335" lon="7.63598478399928">
				<ele>44</ele>
				<time>2012-04-21T10:21:46</time>
			</trkpt>
			<trkpt lat="52.1584282815942" lon="7.636034237228">
				<ele>45.5999984741211</ele>
				<time>2012-04-21T10:21:52</time>
			</trkpt>
			<trkpt lat="52.1588123403975" lon="7.63605167158659">
				<ele>46.0999984741211</ele>
				<time>2012-04-21T10:21:57</time>
			</trkpt>
			<trkpt lat="52.1591293439755" lon="7.63606642373617">
				<ele>46.1999969482422</ele>
				<time>2012-04-21T10:22:01</time>
			</trkpt>
			<trkpt lat="52.1595321363324" lon="7.63610196300562">
				<ele>46.1999969482422</ele>
				<time>2012-04-21T10:22:06</time>
			</trkpt>
			<trkpt lat="52.1600433905163" lon="7.63617144898291">
				<ele>47</ele>
				<time>2012-04-21T10:22:13</time>
			</trkpt>
			<trkpt lat="52.1602847893277" lon="7.63617840596255">
				<ele>45.4000015258789</ele>
				<time>2012-04-21T10:22:16</time>
			</trkpt>
			<trkpt lat="52.1607932355741" lon="7.63627127744969">
				<ele>46.6999969482422</ele>
				<time>2012-04-21T10:22:22</time>
			</trkpt>
			<trkpt lat="52.1611630870515" lon="7.63628695160862">
				<ele>46.1999969482422</ele>
				<time>2012-04-21T10:22:27</time>
			</trkpt>
			<trkpt lat="52.1616025083253" lon="7.63632114977356">
				<ele>45.0999984741211</ele>
				<time>2012-04-21T10:22:33</time>
			</trkpt>
			<trkpt lat="52.1618906781563" lon="7.636356689043">
				<ele>45.5</ele>
				<time>2012-04-21T10:22:37</time>
			</trkpt>
			<trkpt lat="52.1622375632191" lon="7.63637797907706">
				<ele>45.9000015258789</ele>
				<time>2012-04-21T10:22:42</time>
			</trkpt>
			<trkpt lat="52.1625973983222" lon="7.63640111312981">
				<ele>45.3000030517578</ele>
				<time>2012-04-21T10:22:47</time>
			</trkpt>
			<trkpt lat="52.1630472550654" lon="7.636446543045">
				<ele>44.4000015258789</ele>
				<time>2012-04-21T10:22:53</time>
			</trkpt>
			<trkpt lat="52.163421339404" lon="7.63648233377155">
				<ele>44.5999984741211</ele>
				<time>2012-04-21T10:22:58</time>
			</trkpt>
			<trkpt lat="52.1637956751996" lon="7.63653027825769">
				<ele>45.5999984741211</ele>
				<time>2012-04-21T10:23:03</time>
			</trkpt>
			<trkpt lat="52.1641690889859" lon="7.63656095602329">
				<ele>45.9000015258789</ele>
				<time>2012-04-21T10:23:08</time>
			</trkpt>
			<trkpt lat="52.1644966956714" lon="7.63660999015685">
				<ele>47.5999984741211</ele>
				<time>2012-04-21T10:23:13</time>
			</trkpt>
			<trkpt lat="52.1646471927428" lon="7.63691693545099">
				<ele>46.3000030517578</ele>
				<time>2012-04-21T10:23:18</time>
			</trkpt>
			<trkpt lat="52.1647132421398" lon="7.63744667173143">
				<ele>45.0999984741211</ele>
				<time>2012-04-21T10:23:23</time>
			</trkpt>
			<trkpt lat="52.164946342867" lon="7.63807833195444">
				<ele>44.5999984741211</ele>
				<time>2012-04-21T10:23:29</time>
			</trkpt>
			<trkpt lat="52.1650060639271" lon="7.63840589673038">
				<ele>43.9000015258789</ele>
				<time>2012-04-21T10:23:32</time>
			</trkpt>
			<trkpt lat="52.1651068982223" lon="7.63888643123921">
				<ele>44.6999969482422</ele>
				<time>2012-04-21T10:23:36</time>
			</trkpt>
			<trkpt lat="52.1652674535775" lon="7.63953636401113">
				<ele>45.5</ele>
				<time>2012-04-21T10:23:42</time>
			</trkpt>
			<trkpt lat="52.1653991332763" lon="7.64037958347019">
				<ele>45.9000015258789</ele>
				<time>2012-04-21T10:23:49</time>
			</trkpt>
			<trkpt lat="52.1654563397655" lon="7.64088300057467">
				<ele>45.3000030517578</ele>
				<time>2012-04-21T10:23:53</time>
			</trkpt>
			<trkpt lat="52.1655259933808" lon="7.64150518924709">
				<ele>44.8000030517578</ele>
				<time>2012-04-21T10:23:58</time>
			</trkpt>
			<trkpt lat="52.1655974491054" lon="7.64211187139865">
				<ele>44</ele>
				<time>2012-04-21T10:24:03</time>
			</trkpt>
			<trkpt lat="52.1656773286426" lon="7.64246944338795">
				<ele>43.5999984741211</ele>
				<time>2012-04-21T10:24:07</time>
			</trkpt>
			<trkpt lat="52.1658605570459" lon="7.64273565263268">
				<ele>45.3000030517578</ele>
				<time>2012-04-21T10:24:13</time>
			</trkpt>
			<trkpt lat="52.1660072403514" lon="7.64331056737121">
				<ele>42.8000030517578</ele>
				<time>2012-04-21T10:24:19</time>
			</trkpt>
			<trkpt lat="52.1660214895868" lon="7.64352573082563">
				<ele>46.5999984741211</ele>
				<time>2012-04-21T10:24:23</time>
			</trkpt>
			<trkpt lat="52.1661267662907" lon="7.64397726394948">
				<ele>46.5</ele>
				<time>2012-04-21T10:24:28</time>
			</trkpt>
			<trkpt lat="52.166181709666" lon="7.64418672770974">
				<ele>44.5</ele>
				<time>2012-04-21T10:24:30</time>
			</trkpt>
			<trkpt lat="52.1664016508052" lon="7.64496657998082">
				<ele>42.5999984741211</ele>
				<time>2012-04-21T10:24:37</time>
			</trkpt>
			<trkpt lat="52.1665408323073" lon="7.64560586773571">
				<ele>44.1999969482422</ele>
				<time>2012-04-21T10:24:42</time>
			</trkpt>
			<trkpt lat="52.1666298900285" lon="7.64595136978444">
				<ele>44.6999969482422</ele>
				<time>2012-04-21T10:24:45</time>
			</trkpt>
			<trkpt lat="52.1668668883407" lon="7.64677656815168">
				<ele>46.6999969482422</ele>
				<time>2012-04-21T10:24:54</time>
			</trkpt>
			<trkpt lat="52.16697861911" lon="7.64716372825917">
				<ele>48.5</ele>
				<time>2012-04-21T10:24:57</time>
			</trkpt>
			<trkpt lat="52.1672137734035" lon="7.64781449922141">
				<ele>46.8000030517578</ele>
				<time>2012-04-21T10:25:03</time>
			</trkpt>
			<trkpt lat="52.1672920184696" lon="7.6480465103012">
				<ele>46.5</ele>
				<time>2012-04-21T10:25:05</time>
			</trkpt>
			<trkpt lat="52.1676652646178" lon="7.64910816215691">
				<ele>46.0999984741211</ele>
				<time>2012-04-21T10:25:14</time>
			</trkpt>
			<trkpt lat="52.1678553661817" lon="7.64961535111782">
				<ele>45</ele>
				<time>2012-04-21T10:25:19</time>
			</trkpt>
			<trkpt lat="52.1679703658932" lon="7.64990821481463">
				<ele>46.1999969482422</ele>
				<time>2012-04-21T10:25:22</time>
			</trkpt>
			<trkpt lat="52.168116336737" lon="7.65036804602263">
				<ele>45.6999969482422</ele>
				<time>2012-04-21T10:25:26</time>
			</trkpt>
			<trkpt lat="52.1683996031547" lon="7.65112074092743">
				<ele>48.3000030517578</ele>
				<time>2012-04-21T10:25:34</time>
			</trkpt>
			<trkpt lat="52.1685697138795" lon="7.65152248554644">
				<ele>49</ele>
				<time>2012-04-21T10:25:38</time>
			</trkpt>
			<trkpt lat="52.1687248629072" lon="7.6519254036319">
				<ele>52.5999984741211</ele>
				<time>2012-04-21T10:25:42</time>
			</trkpt>
			<trkpt lat="52.1688759886214" lon="7.65235296451268">
				<ele>51</ele>
				<time>2012-04-21T10:25:46</time>
			</trkpt>
			<trkpt lat="52.1692235442364" lon="7.65322979540346">
				<ele>48.4000015258789</ele>
				<time>2012-04-21T10:25:54</time>
			</trkpt>
			<trkpt lat="52.1693792380878" lon="7.65363053419409">
				<ele>48.0999984741211</ele>
				<time>2012-04-21T10:25:58</time>
			</trkpt>
			<trkpt lat="52.169539625805" lon="7.65424685553429">
				<ele>48.1999969482422</ele>
				<time>2012-04-21T10:26:04</time>
			</trkpt>
			<trkpt lat="52.1695883246625" lon="7.65449521132526">
				<ele>48.4000015258789</ele>
				<time>2012-04-21T10:26:06</time>
			</trkpt>
			<trkpt lat="52.1697044140214" lon="7.65531244688449">
				<ele>49.5</ele>
				<time>2012-04-21T10:26:13</time>
			</trkpt>
			<trkpt lat="52.1698333276922" lon="7.65589079820333">
				<ele>47.6999969482422</ele>
				<time>2012-04-21T10:26:18</time>
			</trkpt>
			<trkpt lat="52.1699515544364" lon="7.65656688251314">
				<ele>46.6999969482422</ele>
				<time>2012-04-21T10:26:24</time>
			</trkpt>
			<trkpt lat="52.1700497903416" lon="7.65703660436688">
				<ele>46.5</ele>
				<time>2012-04-21T10:26:28</time>
			</trkpt>
			<trkpt lat="52.1701294603312" lon="7.65759986826">
				<ele>45.9000015258789</ele>
				<time>2012-04-21T10:26:33</time>
			</trkpt>
			<trkpt lat="52.1701611858347" lon="7.65784705058453">
				<ele>45.4000015258789</ele>
				<time>2012-04-21T10:26:35</time>
			</trkpt>
			<trkpt lat="52.1703001158798" lon="7.65872388147531">
				<ele>47.5</ele>
				<time>2012-04-21T10:26:43</time>
			</trkpt>
			<trkpt lat="52.1704814164454" lon="7.65955075622318">
				<ele>41</ele>
				<time>2012-04-21T10:26:49</time>
			</trkpt>
			<trkpt lat="52.1705519082511" lon="7.65984253027258">
				<ele>38.4000015258789</ele>
				<time>2012-04-21T10:26:51</time>
			</trkpt>
			<trkpt lat="52.1705980925375" lon="7.66046832316337">
				<ele>40.5999984741211</ele>
				<time>2012-04-21T10:26:58</time>
			</trkpt>
			<trkpt lat="52.170754037846" lon="7.66128086485682">
				<ele>39.1999969482422</ele>
				<time>2012-04-21T10:27:04</time>
			</trkpt>
			<trkpt lat="52.1707789320985" lon="7.66149627976833">
				<ele>40.6999969482422</ele>
				<time>2012-04-21T10:27:06</time>
			</trkpt>
			<trkpt lat="52.1708161896581" lon="7.66190607101439">
				<ele>47.1999969482422</ele>
				<time>2012-04-21T10:27:10</time>
			</trkpt>
			<trkpt lat="52.1708875615636" lon="7.66241451726077">
				<ele>49.9000015258789</ele>
				<time>2012-04-21T10:27:15</time>
			</trkpt>
			<trkpt lat="52.1710767830277" lon="7.66344750300763">
				<ele>51.1999969482422</ele>
				<time>2012-04-21T10:27:24</time>
			</trkpt>
			<trkpt lat="52.1710999170804" lon="7.66363224015354">
				<ele>50.3000030517578</ele>
				<time>2012-04-21T10:27:26</time>
			</trkpt>
			<trkpt lat="52.1712787030751" lon="7.66461233609138">
				<ele>50.0999984741211</ele>
				<time>2012-04-21T10:27:34</time>
			</trkpt>
			<trkpt lat="52.1713294554988" lon="7.66494543292342">
				<ele>51.5999984741211</ele>
				<time>2012-04-21T10:27:37</time>
			</trkpt>
			<trkpt lat="52.1714551840463" lon="7.66557340510903">
				<ele>53.3000030517578</ele>
				<time>2012-04-21T10:27:43</time>
			</trkpt>
			<trkpt lat="52.1715572337175" lon="7.66613909975408">
				<ele>55.0999984741211</ele>
				<time>2012-04-21T10:27:48</time>
			</trkpt>
			<trkpt lat="52.1715716505909" lon="7.66634839587628">
				<ele>55.5999984741211</ele>
				<time>2012-04-21T10:27:50</time>
			</trkpt>
			<trkpt lat="52.1716583613792" lon="7.66732580960511">
				<ele>52.1999969482422</ele>
				<time>2012-04-21T10:27:59</time>
			</trkpt>
			<trkpt lat="52.1717268834376" lon="7.66768606380342">
				<ele>51.0999984741211</ele>
				<time>2012-04-21T10:28:02</time>
			</trkpt>
			<trkpt lat="52.171877045233" lon="7.66814648174464">
				<ele>48.6999969482422</ele>
				<time>2012-04-21T10:28:06</time>
			</trkpt>
			<trkpt lat="52.1722851181889" lon="7.66891904175996">
				<ele>45.8000030517578</ele>
				<time>2012-04-21T10:28:14</time>
			</trkpt>
			<trkpt lat="52.172395214487" lon="7.66913018190085">
				<ele>46</ele>
				<time>2012-04-21T10:28:16</time>
			</trkpt>
			<trkpt lat="52.1726936521494" lon="7.66963711940466">
				<ele>41.8000030517578</ele>
				<time>2012-04-21T10:28:23</time>
			</trkpt>
			<trkpt lat="52.1729400801027" lon="7.67003718764304">
				<ele>42.8000030517578</ele>
				<time>2012-04-21T10:28:28</time>
			</trkpt>
			<trkpt lat="52.1731633740032" lon="7.67046181485771">
				<ele>43.5999984741211</ele>
				<time>2012-04-21T10:28:32</time>
			</trkpt>
			<trkpt lat="52.1734358696753" lon="7.67101317644834">
				<ele>47.6999969482422</ele>
				<time>2012-04-21T10:28:38</time>
			</trkpt>
			<trkpt lat="52.1736073634142" lon="7.67129765824198">
				<ele>48.0999984741211</ele>
				<time>2012-04-21T10:28:41</time>
			</trkpt>
			<trkpt lat="52.1739917574936" lon="7.67175237648904">
				<ele>48.3000030517578</ele>
				<time>2012-04-21T10:28:47</time>
			</trkpt>
			<trkpt lat="52.1744214976692" lon="7.67196779140054">
				<ele>50.8000030517578</ele>
				<time>2012-04-21T10:28:53</time>
			</trkpt>
			<trkpt lat="52.1747857332715" lon="7.67213107087433">
				<ele>50.5999984741211</ele>
				<time>2012-04-21T10:28:58</time>
			</trkpt>
			<trkpt lat="52.175064347733" lon="7.67225671560287">
				<ele>50.4000015258789</ele>
				<time>2012-04-21T10:29:02</time>
			</trkpt>
			<trkpt lat="52.1754095564151" lon="7.67239392735779">
				<ele>51.5999984741211</ele>
				<time>2012-04-21T10:29:07</time>
			</trkpt>
			<trkpt lat="52.1756141586715" lon="7.67251135782122">
				<ele>55.5</ele>
				<time>2012-04-21T10:29:11</time>
			</trkpt>
			<trkpt lat="52.1759186313042" lon="7.67333948985457">
				<ele>50.8000030517578</ele>
				<time>2012-04-21T10:29:19</time>
			</trkpt>
			<trkpt lat="52.1758795297259" lon="7.67367962748527">
				<ele>50.9000015258789</ele>
				<time>2012-04-21T10:29:23</time>
			</trkpt>
			<trkpt lat="52.175953709569" lon="7.67436761409759">
				<ele>48.4000015258789</ele>
				<time>2012-04-21T10:29:28</time>
			</trkpt>
			<trkpt lat="52.1760128019864" lon="7.67488553189456">
				<ele>47</ele>
				<time>2012-04-21T10:29:32</time>
			</trkpt>
			<trkpt lat="52.1760391630718" lon="7.67525198870122">
				<ele>46.5</ele>
				<time>2012-04-21T10:29:35</time>
			</trkpt>
			<trkpt lat="52.1761241136605" lon="7.67620031722605">
				<ele>46.6999969482422</ele>
				<time>2012-04-21T10:29:43</time>
			</trkpt>
			<trkpt lat="52.1761883609483" lon="7.67656794749915">
				<ele>47.0999984741211</ele>
				<time>2012-04-21T10:29:46</time>
			</trkpt>
			<trkpt lat="52.1762712998802" lon="7.67746992409944">
				<ele>45.4000015258789</ele>
				<time>2012-04-21T10:29:53</time>
			</trkpt>
			<trkpt lat="52.1763230162227" lon="7.67799664289474">
				<ele>42.5999984741211</ele>
				<time>2012-04-21T10:29:57</time>
			</trkpt>
			<trkpt lat="52.1763987467179" lon="7.67873534002125">
				<ele>42.4000015258789</ele>
				<time>2012-04-21T10:30:03</time>
			</trkpt>
			<trkpt lat="52.1764450986424" lon="7.67923456617415">
				<ele>40.5999984741211</ele>
				<time>2012-04-21T10:30:07</time>
			</trkpt>
			<trkpt lat="52.1764953481519" lon="7.67982213758647">
				<ele>42.5999984741211</ele>
				<time>2012-04-21T10:30:12</time>
			</trkpt>
			<trkpt lat="52.1765419934431" lon="7.68034617417276">
				<ele>41.1999969482422</ele>
				<time>2012-04-21T10:30:16</time>
			</trkpt>
			<trkpt lat="52.1765957214424" lon="7.68081463874102">
				<ele>42.5</ele>
				<time>2012-04-21T10:30:20</time>
			</trkpt>
			<trkpt lat="52.1766303387025" lon="7.68133280799508">
				<ele>46.5999984741211</ele>
				<time>2012-04-21T10:30:25</time>
			</trkpt>
			<trkpt lat="52.1766929934287" lon="7.68213361502409">
				<ele>47.8000030517578</ele>
				<time>2012-04-21T10:30:32</time>
			</trkpt>
			<trkpt lat="52.1767683886478" lon="7.68305629492522">
				<ele>44.5999984741211</ele>
				<time>2012-04-21T10:30:39</time>
			</trkpt>
			<trkpt lat="52.1768242540324" lon="7.68359952606976">
				<ele>44.0999984741211</ele>
				<time>2012-04-21T10:30:43</time>
			</trkpt>
			<trkpt lat="52.1769303689265" lon="7.68424132839561">
				<ele>41.6999969482422</ele>
				<time>2012-04-21T10:30:48</time>
			</trkpt>
			<trkpt lat="52.1769327577689" lon="7.68474189565301">
				<ele>42.8000030517578</ele>
				<time>2012-04-21T10:30:52</time>
			</trkpt>
			<trkpt lat="52.1769016609082" lon="7.68523081206501">
				<ele>43.0999984741211</ele>
				<time>2012-04-21T10:30:56</time>
			</trkpt>
			<trkpt lat="52.1767724119613" lon="7.68629355356813">
				<ele>46.5999984741211</ele>
				<time>2012-04-21T10:31:05</time>
			</trkpt>
			<trkpt lat="52.1767116431633" lon="7.68673276529432">
				<ele>47.0999984741211</ele>
				<time>2012-04-21T10:31:09</time>
			</trkpt>
			<trkpt lat="52.1766642435008" lon="7.68717943691433">
				<ele>48.8000030517578</ele>
				<time>2012-04-21T10:31:13</time>
			</trkpt>
			<trkpt lat="52.1766147483626" lon="7.68784881570161">
				<ele>49.6999969482422</ele>
				<time>2012-04-21T10:31:19</time>
			</trkpt>
			<trkpt lat="52.1765685221666" lon="7.68849296496034">
				<ele>49.3000030517578</ele>
				<time>2012-04-21T10:31:24</time>
			</trkpt>
			<trkpt lat="52.1765000001082" lon="7.68917583861173">
				<ele>51.8000030517578</ele>
				<time>2012-04-21T10:31:30</time>
			</trkpt>
			<trkpt lat="52.1764692385236" lon="7.68949326128484">
				<ele>51.9000015258789</ele>
				<time>2012-04-21T10:31:33</time>
			</trkpt>
			<trkpt lat="52.1764278738314" lon="7.69022558816493">
				<ele>50.6999969482422</ele>
				<time>2012-04-21T10:31:39</time>
			</trkpt>
			<trkpt lat="52.1763638780007" lon="7.69082715735556">
				<ele>50.0999984741211</ele>
				<time>2012-04-21T10:31:44</time>
			</trkpt>
			<trkpt lat="52.1763380198294" lon="7.69132076763333">
				<ele>49.8000030517578</ele>
				<time>2012-04-21T10:31:48</time>
			</trkpt>
			<trkpt lat="52.1762512671316" lon="7.69201235846401">
				<ele>49.4000015258789</ele>
				<time>2012-04-21T10:31:54</time>
			</trkpt>
			<trkpt lat="52.1762332879493" lon="7.69248794764997">
				<ele>48.9000015258789</ele>
				<time>2012-04-21T10:31:58</time>
			</trkpt>
			<trkpt lat="52.176198167775" lon="7.69299513661088">
				<ele>50.0999984741211</ele>
				<time>2012-04-21T10:32:02</time>
			</trkpt>
			<trkpt lat="52.1761327470207" lon="7.69370097667695">
				<ele>47.5</ele>
				<time>2012-04-21T10:32:08</time>
			</trkpt>
			<trkpt lat="52.1761205094421" lon="7.69415427000047">
				<ele>50.0999984741211</ele>
				<time>2012-04-21T10:32:12</time>
			</trkpt>
			<trkpt lat="52.1761793084929" lon="7.69494334236504">
				<ele>56.8000030517578</ele>
				<time>2012-04-21T10:32:20</time>
			</trkpt>
			<trkpt lat="52.1762676537523" lon="7.6955138146949">
				<ele>58.3000030517578</ele>
				<time>2012-04-21T10:32:24</time>
			</trkpt>
			<trkpt lat="52.1763905324528" lon="7.69626039081039">
				<ele>55.1999969482422</ele>
				<time>2012-04-21T10:32:30</time>
			</trkpt>
			<trkpt lat="52.1764457691947" lon="7.69667705521704">
				<ele>54.5999984741211</ele>
				<time>2012-04-21T10:32:34</time>
			</trkpt>
			<trkpt lat="52.1764898580054" lon="7.69693370909216">
				<ele>54.5999984741211</ele>
				<time>2012-04-21T10:32:37</time>
			</trkpt>
			<trkpt lat="52.1766551072264" lon="7.69789896906139">
				<ele>55.0999984741211</ele>
				<time>2012-04-21T10:32:45</time>
			</trkpt>
			<trkpt lat="52.176720150795" lon="7.69821530208709">
				<ele>53.6999969482422</ele>
				<time>2012-04-21T10:32:48</time>
			</trkpt>
			<trkpt lat="52.1767721185947" lon="7.69850003533782">
				<ele>54</ele>
				<time>2012-04-21T10:32:51</time>
			</trkpt>
			<trkpt lat="52.1768752160037" lon="7.69901552238287">
				<ele>53.6999969482422</ele>
				<time>2012-04-21T10:32:56</time>
			</trkpt>
			<trkpt lat="52.1770164929816" lon="7.69974625670137">
				<ele>53.1999969482422</ele>
				<time>2012-04-21T10:33:04</time>
			</trkpt>
			<trkpt lat="52.1770519065225" lon="7.69993392751338">
				<ele>53.0999984741211</ele>
				<time>2012-04-21T10:33:06</time>
			</trkpt>
			<trkpt lat="52.177132540431" lon="7.70065519028129">
				<ele>52.3000030517578</ele>
				<time>2012-04-21T10:33:15</time>
			</trkpt>
			<trkpt lat="52.1772246156374" lon="7.70122515969696">
				<ele>56.5</ele>
				<time>2012-04-21T10:33:20</time>
			</trkpt>
			<trkpt lat="52.1772371465826" lon="7.70134652965488">
				<ele>56.1999969482422</ele>
				<time>2012-04-21T10:33:21</time>
			</trkpt>
			<trkpt lat="52.1773343766594" lon="7.70250457339706">
				<ele>53.4000015258789</ele>
				<time>2012-04-21T10:33:29</time>
			</trkpt>
			<trkpt lat="52.1773561696077" lon="7.70289466717067">
				<ele>56.1999969482422</ele>
				<time>2012-04-21T10:33:32</time>
			</trkpt>
			<trkpt lat="52.1774508012945" lon="7.7038512099606">
				<ele>51.3000030517578</ele>
				<time>2012-04-21T10:33:39</time>
			</trkpt>
			<trkpt lat="52.1775537310654" lon="7.70454372280063">
				<ele>51.8000030517578</ele>
				<time>2012-04-21T10:33:44</time>
			</trkpt>
			<trkpt lat="52.1776225045809" lon="7.70492560230913">
				<ele>49.5999984741211</ele>
				<time>2012-04-21T10:33:47</time>
			</trkpt>
			<trkpt lat="52.177736247007" lon="7.70557394251945">
				<ele>47.1999969482422</ele>
				<time>2012-04-21T10:33:52</time>
			</trkpt>
			<trkpt lat="52.1778662084156" lon="7.70642386750104">
				<ele>46.4000015258789</ele>
				<time>2012-04-21T10:33:59</time>
			</trkpt>
			<trkpt lat="52.1779607143739" lon="7.70705745556178">
				<ele>44.5</ele>
				<time>2012-04-21T10:34:04</time>
			</trkpt>
			<trkpt lat="52.1780161606634" lon="7.70732584410133">
				<ele>43.3000030517578</ele>
				<time>2012-04-21T10:34:06</time>
			</trkpt>
			<trkpt lat="52.1781265503282" lon="7.70804995671632">
				<ele>42.9000015258789</ele>
				<time>2012-04-21T10:34:12</time>
			</trkpt>
			<trkpt lat="52.1782580204794" lon="7.70887004212263">
				<ele>41.9000015258789</ele>
				<time>2012-04-21T10:34:19</time>
			</trkpt>
			<trkpt lat="52.1783184540013" lon="7.70924169570926">
				<ele>42.4000015258789</ele>
				<time>2012-04-21T10:34:22</time>
			</trkpt>
			<trkpt lat="52.1784503432477" lon="7.71008784883442">
				<ele>40.9000015258789</ele>
				<time>2012-04-21T10:34:29</time>
			</trkpt>
			<trkpt lat="52.1785575477892" lon="7.71072663367513">
				<ele>40.6999969482422</ele>
				<time>2012-04-21T10:34:34</time>
			</trkpt>
			<trkpt lat="52.17864404903" lon="7.71129023284438">
				<ele>42.3000030517578</ele>
				<time>2012-04-21T10:34:38</time>
			</trkpt>
			<trkpt lat="52.178681097042" lon="7.71158460528377">
				<ele>43.1999969482422</ele>
				<time>2012-04-21T10:34:41</time>
			</trkpt>
			<trkpt lat="52.1787726693341" lon="7.71242053248706">
				<ele>45.5</ele>
				<time>2012-04-21T10:34:49</time>
			</trkpt>
			<trkpt lat="52.1788813407087" lon="7.71308664233211">
				<ele>43.0999984741211</ele>
				<time>2012-04-21T10:34:54</time>
			</trkpt>
			<trkpt lat="52.1789206099251" lon="7.71334203892174">
				<ele>42.5</ele>
				<time>2012-04-21T10:34:56</time>
			</trkpt>
			<trkpt lat="52.1790451230967" lon="7.71396582015577">
				<ele>42.1999969482422</ele>
				<time>2012-04-21T10:35:01</time>
			</trkpt>
			<trkpt lat="52.1791706420967" lon="7.71482119337443">
				<ele>41.6999969482422</ele>
				<time>2012-04-21T10:35:08</time>
			</trkpt>
			<trkpt lat="52.1793188760543" lon="7.71563365124885">
				<ele>46</ele>
				<time>2012-04-21T10:35:15</time>
			</trkpt>
			<trkpt lat="52.179418620702" lon="7.71601108834866">
				<ele>48.6999969482422</ele>
				<time>2012-04-21T10:35:19</time>
			</trkpt>
			<trkpt lat="52.1795467800015" lon="7.71640746854964">
				<ele>48.0999984741211</ele>
				<time>2012-04-21T10:35:23</time>
			</trkpt>
			<trkpt lat="52.179629844662" lon="7.71668524482075">
				<ele>48</ele>
				<time>2012-04-21T10:35:26</time>
			</trkpt>
			<trkpt lat="52.1797934175024" lon="7.71711054258767">
				<ele>48.0999984741211</ele>
				<time>2012-04-21T10:35:33</time>
			</trkpt>
			<trkpt lat="52.1800673800075" lon="7.71797178313855">
				<ele>48.5999984741211</ele>
				<time>2012-04-21T10:35:40</time>
			</trkpt>
			<trkpt lat="52.1802304080242" lon="7.71837067791048">
				<ele>51</ele>
				<time>2012-04-21T10:35:44</time>
			</trkpt>
			<trkpt lat="52.1803956991548" lon="7.71897258237723">
				<ele>56.0999984741211</ele>
				<time>2012-04-21T10:35:50</time>
			</trkpt>
			<trkpt lat="52.1804322023431" lon="7.71910141222898">
				<ele>59.0999984741211</ele>
				<time>2012-04-21T10:35:52</time>
			</trkpt>
			<trkpt lat="52.1807324840242" lon="7.71979107522193">
				<ele>57.6999969482422</ele>
				<time>2012-04-21T10:35:58</time>
			</trkpt>
			<trkpt lat="52.1809670515844" lon="7.720343610279">
				<ele>60.1999969482422</ele>
				<time>2012-04-21T10:36:04</time>
			</trkpt>
			<trkpt lat="52.1810457576552" lon="7.72048300132874">
				<ele>61</ele>
				<time>2012-04-21T10:36:06</time>
			</trkpt>
			<trkpt lat="52.1812229510883" lon="7.72093520500485">
				<ele>58.9000015258789</ele>
				<time>2012-04-21T10:36:11</time>
			</trkpt>
			<trkpt lat="52.1817730553934" lon="7.72213289514903">
				<ele>58.5999984741211</ele>
				<time>2012-04-21T10:36:21</time>
			</trkpt>
			<trkpt lat="52.1818887256572" lon="7.72243095562581">
				<ele>61</ele>
				<time>2012-04-21T10:36:24</time>
			</trkpt>
			<trkpt lat="52.1820696071276" lon="7.72298122756902">
				<ele>56.3000030517578</ele>
				<time>2012-04-21T10:36:30</time>
			</trkpt>
			<trkpt lat="52.1821272746214" lon="7.72334734909956">
				<ele>51</ele>
				<time>2012-04-21T10:36:33</time>
			</trkpt>
			<trkpt lat="52.1822009934598" lon="7.72428184748415">
				<ele>51.0999984741211</ele>
				<time>2012-04-21T10:36:40</time>
			</trkpt>
			<trkpt lat="52.1822033403927" lon="7.72482122295324">
				<ele>53.6999969482422</ele>
				<time>2012-04-21T10:36:45</time>
			</trkpt>
			<trkpt lat="52.1822015801931" lon="7.72502171807711">
				<ele>54.0999984741211</ele>
				<time>2012-04-21T10:36:47</time>
			</trkpt>
			<trkpt lat="52.1823076950872" lon="7.72610038519625">
				<ele>51</ele>
				<time>2012-04-21T10:36:55</time>
			</trkpt>
			<trkpt lat="52.1823407197857" lon="7.72683564574246">
				<ele>46.4000015258789</ele>
				<time>2012-04-21T10:37:01</time>
			</trkpt>
			<trkpt lat="52.1823618002722" lon="7.72711761296515">
				<ele>46.9000015258789</ele>
				<time>2012-04-21T10:37:03</time>
			</trkpt>
			<trkpt lat="52.1823776420692" lon="7.72763050162022">
				<ele>49.3000030517578</ele>
				<time>2012-04-21T10:37:07</time>
			</trkpt>
			<trkpt lat="52.1823711460942" lon="7.72806761787061">
				<ele>49.4000015258789</ele>
				<time>2012-04-21T10:37:12</time>
			</trkpt>
			<trkpt lat="52.1823563939446" lon="7.72907956504051">
				<ele>52</ele>
				<time>2012-04-21T10:37:20</time>
			</trkpt>
			<trkpt lat="52.1823597886154" lon="7.72976218723481">
				<ele>49.5999984741211</ele>
				<time>2012-04-21T10:37:25</time>
			</trkpt>
			<trkpt lat="52.1823755885029" lon="7.73042477668052">
				<ele>48.5</ele>
				<time>2012-04-21T10:37:30</time>
			</trkpt>
			<trkpt lat="52.1823543822879" lon="7.73097069003408">
				<ele>51.8000030517578</ele>
				<time>2012-04-21T10:37:34</time>
			</trkpt>
			<trkpt lat="52.1823720681036" lon="7.73177543655758">
				<ele>51</ele>
				<time>2012-04-21T10:37:40</time>
			</trkpt>
			<trkpt lat="52.182367793333" lon="7.73220978677993">
				<ele>49.4000015258789</ele>
				<time>2012-04-21T10:37:44</time>
			</trkpt>
			<trkpt lat="52.18237843835" lon="7.7328260243011">
				<ele>50.8000030517578</ele>
				<time>2012-04-21T10:37:49</time>
			</trkpt>
			<trkpt lat="52.1823385404909" lon="7.73376605474179">
				<ele>49.9000015258789</ele>
				<time>2012-04-21T10:37:57</time>
			</trkpt>
			<trkpt lat="52.1823654044905" lon="7.73406704888468">
				<ele>49</ele>
				<time>2012-04-21T10:37:59</time>
			</trkpt>
			<trkpt lat="52.1823382471243" lon="7.73495921865826">
				<ele>51.1999969482422</ele>
				<time>2012-04-21T10:38:07</time>
			</trkpt>
			<trkpt lat="52.1822693059707" lon="7.73525719531601">
				<ele>50.3000030517578</ele>
				<time>2012-04-21T10:38:10</time>
			</trkpt>
			<trkpt lat="52.1822161647046" lon="7.73562314920848">
				<ele>53.1999969482422</ele>
				<time>2012-04-21T10:38:14</time>
			</trkpt>
			<trkpt lat="52.182168345947" lon="7.73628087715035">
				<ele>54.6999969482422</ele>
				<time>2012-04-21T10:38:20</time>
			</trkpt>
			<trkpt lat="52.1821621014291" lon="7.73703063838904">
				<ele>60.6999969482422</ele>
				<time>2012-04-21T10:38:27</time>
			</trkpt>
			<trkpt lat="52.1820514603073" lon="7.73753330112224">
				<ele>56.5999984741211</ele>
				<time>2012-04-21T10:38:31</time>
			</trkpt>
			<trkpt lat="52.1819374664241" lon="7.73804811761504">
				<ele>56.6999969482422</ele>
				<time>2012-04-21T10:38:36</time>
			</trkpt>
			<trkpt lat="52.1818969399223" lon="7.73835397326177">
				<ele>55.5999984741211</ele>
				<time>2012-04-21T10:38:39</time>
			</trkpt>
			<trkpt lat="52.1817401564235" lon="7.73934270255988">
				<ele>55.1999969482422</ele>
				<time>2012-04-21T10:38:47</time>
			</trkpt>
			<trkpt lat="52.1816939302275" lon="7.7396286930961">
				<ele>54.6999969482422</ele>
				<time>2012-04-21T10:38:50</time>
			</trkpt>
			<trkpt lat="52.1815829538295" lon="7.74049437605565">
				<ele>55.8000030517578</ele>
				<time>2012-04-21T10:38:58</time>
			</trkpt>
			<trkpt lat="52.1815249929691" lon="7.74111220613843">
				<ele>56.8000030517578</ele>
				<time>2012-04-21T10:39:03</time>
			</trkpt>
			<trkpt lat="52.1814689599464" lon="7.74158167653507">
				<ele>57.8000030517578</ele>
				<time>2012-04-21T10:39:07</time>
			</trkpt>
			<trkpt lat="52.181438952733" lon="7.74194813334173">
				<ele>57.5999984741211</ele>
				<time>2012-04-21T10:39:10</time>
			</trkpt>
			<trkpt lat="52.1813459555173" lon="7.74285245687491">
				<ele>56.9000015258789</ele>
				<time>2012-04-21T10:39:18</time>
			</trkpt>
			<trkpt lat="52.1812651958803" lon="7.74337213487154">
				<ele>56</ele>
				<time>2012-04-21T10:39:22</time>
			</trkpt>
			<trkpt lat="52.1812081570292" lon="7.74399004877335">
				<ele>58.0999984741211</ele>
				<time>2012-04-21T10:39:27</time>
			</trkpt>
			<trkpt lat="52.1812210651601" lon="7.744478043176">
				<ele>55.5</ele>
				<time>2012-04-21T10:39:31</time>
			</trkpt>
			<trkpt lat="52.181334639948" lon="7.74523735978431">
				<ele>53.4000015258789</ele>
				<time>2012-04-21T10:39:37</time>
			</trkpt>
			<trkpt lat="52.181448298555" lon="7.74589332752651">
				<ele>53.3000030517578</ele>
				<time>2012-04-21T10:39:42</time>
			</trkpt>
			<trkpt lat="52.1814709716031" lon="7.74618711323267">
				<ele>51.3000030517578</ele>
				<time>2012-04-21T10:39:46</time>
			</trkpt>
			<trkpt lat="52.18160801572" lon="7.74688423611945">
				<ele>45.1999969482422</ele>
				<time>2012-04-21T10:39:52</time>
			</trkpt>
			<trkpt lat="52.1816296829397" lon="7.74723887444264">
				<ele>48.4000015258789</ele>
				<time>2012-04-21T10:39:55</time>
			</trkpt>
			<trkpt lat="52.1817090595627" lon="7.74770759046799">
				<ele>52</ele>
				<time>2012-04-21T10:39:59</time>
			</trkpt>
			<trkpt lat="52.1819453035036" lon="7.74883328006393">
				<ele>51.5999984741211</ele>
				<time>2012-04-21T10:40:08</time>
			</trkpt>
			<trkpt lat="52.1820314694682" lon="7.74934658781416">
				<ele>50.1999969482422</ele>
				<time>2012-04-21T10:40:12</time>
			</trkpt>
			<trkpt lat="52.1821262687931" lon="7.74988126941747">
				<ele>50.5</ele>
				<time>2012-04-21T10:40:16</time>
			</trkpt>
			<trkpt lat="52.1821821341777" lon="7.75023574010259">
				<ele>48.8000030517578</ele>
				<time>2012-04-21T10:40:19</time>
			</trkpt>
			<trkpt lat="52.1823917236665" lon="7.75132647716231">
				<ele>49.9000015258789</ele>
				<time>2012-04-21T10:40:28</time>
			</trkpt>
			<trkpt lat="52.1824347647393" lon="7.7516412176264">
				<ele>49.6999969482422</ele>
				<time>2012-04-21T10:40:31</time>
			</trkpt>
			<trkpt lat="52.1825048793593" lon="7.75201077573723">
				<ele>49.5</ele>
				<time>2012-04-21T10:40:34</time>
			</trkpt>
			<trkpt lat="52.1827106550822" lon="7.75303596631414">
				<ele>49.4000015258789</ele>
				<time>2012-04-21T10:40:42</time>
			</trkpt>
			<trkpt lat="52.1828156384194" lon="7.7535440772844">
				<ele>52.0999984741211</ele>
				<time>2012-04-21T10:40:46</time>
			</trkpt>
			<trkpt lat="52.1828891896197" lon="7.75396593847103">
				<ele>52.3000030517578</ele>
				<time>2012-04-21T10:40:50</time>
			</trkpt>
			<trkpt lat="52.1830420755336" lon="7.75487847626931">
				<ele>58.8000030517578</ele>
				<time>2012-04-21T10:40:58</time>
			</trkpt>
			<trkpt lat="52.183068185162" lon="7.75497101248033">
				<ele>57.9000015258789</ele>
				<time>2012-04-21T10:40:59</time>
			</trkpt>
			<trkpt lat="52.1831918182337" lon="7.75609703735239">
				<ele>54.9000015258789</ele>
				<time>2012-04-21T10:41:08</time>
			</trkpt>
			<trkpt lat="52.1832924429813" lon="7.75658737868793">
				<ele>54.5</ele>
				<time>2012-04-21T10:41:12</time>
			</trkpt>
			<trkpt lat="52.1833720710615" lon="7.75684822351463">
				<ele>48.5999984741211</ele>
				<time>2012-04-21T10:41:14</time>
			</trkpt>
			<trkpt lat="52.1835293574745" lon="7.75755456649489">
				<ele>53.3000030517578</ele>
				<time>2012-04-21T10:41:19</time>
			</trkpt>
			<trkpt lat="52.1836923016721" lon="7.75851027109451">
				<ele>50.5999984741211</ele>
				<time>2012-04-21T10:41:27</time>
			</trkpt>
			<trkpt lat="52.1838120790684" lon="7.75916296989448">
				<ele>45.4000015258789</ele>
				<time>2012-04-21T10:41:32</time>
			</trkpt>
			<trkpt lat="52.1838616999352" lon="7.75950285606809">
				<ele>45.0999984741211</ele>
				<time>2012-04-21T10:41:35</time>
			</trkpt>
			<trkpt lat="52.1840146277586" lon="7.76034087874718">
				<ele>46.8000030517578</ele>
				<time>2012-04-21T10:41:42</time>
			</trkpt>
			<trkpt lat="52.1841539768988" lon="7.7610788215024">
				<ele>44.0999984741211</ele>
				<time>2012-04-21T10:41:48</time>
			</trkpt>
			<trkpt lat="52.1842418192441" lon="7.76150445454545">
				<ele>40.4000015258789</ele>
				<time>2012-04-21T10:41:52</time>
			</trkpt>
			<trkpt lat="52.1843363252023" lon="7.76200502180286">
				<ele>38.4000015258789</ele>
				<time>2012-04-21T10:41:56</time>
			</trkpt>
			<trkpt lat="52.184453210842" lon="7.76263919659682">
				<ele>39.0999984741211</ele>
				<time>2012-04-21T10:42:01</time>
			</trkpt>
			<trkpt lat="52.1845805738607" lon="7.76333363727458">
				<ele>40.1999969482422</ele>
				<time>2012-04-21T10:42:07</time>
			</trkpt>
			<trkpt lat="52.1846544603372" lon="7.76379975490995">
				<ele>44.6999969482422</ele>
				<time>2012-04-21T10:42:11</time>
			</trkpt>
			<trkpt lat="52.1847656462828" lon="7.76448472403713">
				<ele>48.3000030517578</ele>
				<time>2012-04-21T10:42:17</time>
			</trkpt>
			<trkpt lat="52.1848107409218" lon="7.7648160606695">
				<ele>42.3000030517578</ele>
				<time>2012-04-21T10:42:21</time>
			</trkpt>
			<trkpt lat="52.1849142993355" lon="7.76553246193357">
				<ele>41.9000015258789</ele>
				<time>2012-04-21T10:42:28</time>
			</trkpt>
			<trkpt lat="52.1848145965973" lon="7.76600134559699">
				<ele>45.5</ele>
				<time>2012-04-21T10:42:32</time>
			</trkpt>
			<trkpt lat="52.1846797736848" lon="7.76657617651649">
				<ele>48.8000030517578</ele>
				<time>2012-04-21T10:42:37</time>
			</trkpt>
			<trkpt lat="52.1845400054494" lon="7.76713692583867">
				<ele>50.1999969482422</ele>
				<time>2012-04-21T10:42:42</time>
			</trkpt>
			<trkpt lat="52.1844960423672" lon="7.76737472043165">
				<ele>49.8000030517578</ele>
				<time>2012-04-21T10:42:44</time>
			</trkpt>
			<trkpt lat="52.1842698148006" lon="7.76813504286834">
				<ele>49</ele>
				<time>2012-04-21T10:42:51</time>
			</trkpt>
			<trkpt lat="52.184209968012" lon="7.7686188463194">
				<ele>45.4000015258789</ele>
				<time>2012-04-21T10:42:55</time>
			</trkpt>
			<trkpt lat="52.1840715408811" lon="7.76950263418981">
				<ele>46.5999984741211</ele>
				<time>2012-04-21T10:43:02</time>
			</trkpt>
			<trkpt lat="52.1838911204154" lon="7.76996707544454">
				<ele>49.8000030517578</ele>
				<time>2012-04-21T10:43:07</time>
			</trkpt>
			<trkpt lat="52.1837744024137" lon="7.77053293772765">
				<ele>51.0999984741211</ele>
				<time>2012-04-21T10:43:12</time>
			</trkpt>
			<trkpt lat="52.1836897451917" lon="7.77115420439073">
				<ele>55.0999984741211</ele>
				<time>2012-04-21T10:43:17</time>
			</trkpt>
			<trkpt lat="52.1835358534494" lon="7.7718655765129">
				<ele>55.9000015258789</ele>
				<time>2012-04-21T10:43:23</time>
			</trkpt>
			<trkpt lat="52.1835137671346" lon="7.77227511630186">
				<ele>51.5999984741211</ele>
				<time>2012-04-21T10:43:26</time>
			</trkpt>
			<trkpt lat="52.1833011601606" lon="7.77271918953189">
				<ele>50.6999969482422</ele>
				<time>2012-04-21T10:43:31</time>
			</trkpt>
			<trkpt lat="52.1831483161563" lon="7.77343106456825">
				<ele>49.0999984741211</ele>
				<time>2012-04-21T10:43:37</time>
			</trkpt>
			<trkpt lat="52.1830446739236" lon="7.77402341366538">
				<ele>49.0999984741211</ele>
				<time>2012-04-21T10:43:42</time>
			</trkpt>
			<trkpt lat="52.1829237649703" lon="7.77449925430843">
				<ele>47.0999984741211</ele>
				<time>2012-04-21T10:43:46</time>
			</trkpt>
			<trkpt lat="52.1827607369536" lon="7.77519704774746">
				<ele>49.3000030517578</ele>
				<time>2012-04-21T10:43:52</time>
			</trkpt>
			<trkpt lat="52.1826188732425" lon="7.77557222173342">
				<ele>50.1999969482422</ele>
				<time>2012-04-21T10:43:56</time>
			</trkpt>
			<trkpt lat="52.1825091541299" lon="7.77611939237246">
				<ele>51.8000030517578</ele>
				<time>2012-04-21T10:44:01</time>
			</trkpt>
			<trkpt lat="52.1824195934946" lon="7.7765870187504">
				<ele>53.8000030517578</ele>
				<time>2012-04-21T10:44:05</time>
			</trkpt>
			<trkpt lat="52.1822815435493" lon="7.7772604208512">
				<ele>47.8000030517578</ele>
				<time>2012-04-21T10:44:11</time>
			</trkpt>
			<trkpt lat="52.1821137378478" lon="7.77789350599775">
				<ele>47.1999969482422</ele>
				<time>2012-04-21T10:44:17</time>
			</trkpt>
			<trkpt lat="52.1820531785974" lon="7.77808092535266">
				<ele>47.9000015258789</ele>
				<time>2012-04-21T10:44:19</time>
			</trkpt>
			<trkpt lat="52.1818989934886" lon="7.77915355750153">
				<ele>50.5</ele>
				<time>2012-04-21T10:44:28</time>
			</trkpt>
			<trkpt lat="52.181807714563" lon="7.77965378948281">
				<ele>52.0999984741211</ele>
				<time>2012-04-21T10:44:33</time>
			</trkpt>
			<trkpt lat="52.1817483706886" lon="7.78005042114088">
				<ele>55.5999984741211</ele>
				<time>2012-04-21T10:44:37</time>
			</trkpt>
			<trkpt lat="52.1817000071073" lon="7.78023457155356">
				<ele>55.9000015258789</ele>
				<time>2012-04-21T10:44:39</time>
			</trkpt>
			<trkpt lat="52.1815376915524" lon="7.78096740134785">
				<ele>58.5999984741211</ele>
				<time>2012-04-21T10:44:47</time>
			</trkpt>
			<trkpt lat="52.1814963687697" lon="7.78132371605167">
				<ele>59.6999969482422</ele>
				<time>2012-04-21T10:44:50</time>
			</trkpt>
			<trkpt lat="52.1812808281297" lon="7.78197222390006">
				<ele>58.1999969482422</ele>
				<time>2012-04-21T10:44:57</time>
			</trkpt>
			<trkpt lat="52.1811510762686" lon="7.78245267458985">
				<ele>59.9000015258789</ele>
				<time>2012-04-21T10:45:02</time>
			</trkpt>
			<trkpt lat="52.1810149960706" lon="7.7829782199187">
				<ele>58</ele>
				<time>2012-04-21T10:45:07</time>
			</trkpt>
			<trkpt lat="52.1808223380262" lon="7.78341785074005">
				<ele>56.4000015258789</ele>
				<time>2012-04-21T10:45:12</time>
			</trkpt>
			<trkpt lat="52.1806842461714" lon="7.78407666832934">
				<ele>60.0999984741211</ele>
				<time>2012-04-21T10:45:17</time>
			</trkpt>
			<trkpt lat="52.1805074718335" lon="7.78472819366286">
				<ele>52.5</ele>
				<time>2012-04-21T10:45:22</time>
			</trkpt>
			<trkpt lat="52.1803609980756" lon="7.78546596878002">
				<ele>48.8000030517578</ele>
				<time>2012-04-21T10:45:28</time>
			</trkpt>
			<trkpt lat="52.1802570205668" lon="7.78595874086747">
				<ele>45.5</ele>
				<time>2012-04-21T10:45:32</time>
			</trkpt>
			<trkpt lat="52.1802117582897" lon="7.78628722765277">
				<ele>44.1999969482422</ele>
				<time>2012-04-21T10:45:35</time>
			</trkpt>
			<trkpt lat="52.1801801166052" lon="7.78694302775691">
				<ele>42.5</ele>
				<time>2012-04-21T10:45:40</time>
			</trkpt>
			<trkpt lat="52.1801144443938" lon="7.78777962551246">
				<ele>44.3000030517578</ele>
				<time>2012-04-21T10:45:47</time>
			</trkpt>
			<trkpt lat="52.1800928190836" lon="7.78817868792246">
				<ele>48.8000030517578</ele>
				<time>2012-04-21T10:45:50</time>
			</trkpt>
			<trkpt lat="52.1800516220296" lon="7.78885334730874">
				<ele>45.5</ele>
				<time>2012-04-21T10:45:57</time>
			</trkpt>
			<trkpt lat="52.180042234298" lon="7.78941568919252">
				<ele>46</ele>
				<time>2012-04-21T10:46:02</time>
			</trkpt>
			<trkpt lat="52.1800532145912" lon="7.79009948485325">
				<ele>48.3000030517578</ele>
				<time>2012-04-21T10:46:08</time>
			</trkpt>
			<trkpt lat="52.1800439525882" lon="7.7902901731504">
				<ele>47.5999984741211</ele>
				<time>2012-04-21T10:46:10</time>
			</trkpt>
			<trkpt lat="52.1800359897801" lon="7.79090305791031">
				<ele>43.0999984741211</ele>
				<time>2012-04-21T10:46:16</time>
			</trkpt>
			<trkpt lat="52.1800813358763" lon="7.7917046193106">
				<ele>43.5</ele>
				<time>2012-04-21T10:46:22</time>
			</trkpt>
			<trkpt lat="52.1801052243003" lon="7.79233879410456">
				<ele>43.4000015258789</ele>
				<time>2012-04-21T10:46:27</time>
			</trkpt>
			<trkpt lat="52.1800893825033" lon="7.79313675128649">
				<ele>44.5999984741211</ele>
				<time>2012-04-21T10:46:34</time>
			</trkpt>
			<trkpt lat="52.1800932381788" lon="7.79351460748147">
				<ele>43.9000015258789</ele>
				<time>2012-04-21T10:46:37</time>
			</trkpt>
			<trkpt lat="52.1800312959144" lon="7.79397896491717">
				<ele>41.4000015258789</ele>
				<time>2012-04-21T10:46:42</time>
			</trkpt>
			<trkpt lat="52.1800374147037" lon="7.79430979863535">
				<ele>42.1999969482422</ele>
				<time>2012-04-21T10:46:45</time>
			</trkpt>
			<trkpt lat="52.1800115565324" lon="7.7951741404904">
				<ele>45.8000030517578</ele>
				<time>2012-04-21T10:46:53</time>
			</trkpt>
			<trkpt lat="52.179869106088" lon="7.79532685876619">
				<ele>50.8000030517578</ele>
				<time>2012-04-21T10:46:57</time>
			</trkpt>
			<trkpt lat="52.1796323173234" lon="7.79507062398623">
				<ele>54</ele>
				<time>2012-04-21T10:47:02</time>
			</trkpt>
			<trkpt lat="52.1793782618383" lon="7.79474012554418">
				<ele>51.4000015258789</ele>
				<time>2012-04-21T10:47:07</time>
			</trkpt>
			<trkpt lat="52.1789776487762" lon="7.79494229704868">
				<ele>55.5999984741211</ele>
				<time>2012-04-21T10:47:14</time>
			</trkpt>
			<trkpt lat="52.1787666343638" lon="7.79522610829006">
				<ele>56.5999984741211</ele>
				<time>2012-04-21T10:47:18</time>
			</trkpt>
			<trkpt lat="52.1785089746604" lon="7.79559264891576">
				<ele>61.8000030517578</ele>
				<time>2012-04-21T10:47:23</time>
			</trkpt>
			<trkpt lat="52.1783957351485" lon="7.79572935775648">
				<ele>62.3000030517578</ele>
				<time>2012-04-21T10:47:25</time>
			</trkpt>
			<trkpt lat="52.178031080451" lon="7.79614903964828">
				<ele>63.0999984741211</ele>
				<time>2012-04-21T10:47:32</time>
			</trkpt>
			<trkpt lat="52.1776836924741" lon="7.79655430466663">
				<ele>64.6999969482422</ele>
				<time>2012-04-21T10:47:38</time>
			</trkpt>
			<trkpt lat="52.1774318162838" lon="7.79685278423857">
				<ele>68</ele>
				<time>2012-04-21T10:47:43</time>
			</trkpt>
			<trkpt lat="52.1772018587703" lon="7.79708538205158">
				<ele>65.5</ele>
				<time>2012-04-21T10:47:47</time>
			</trkpt>
			<trkpt lat="52.1768017486224" lon="7.79744496569764">
				<ele>60.9000015258789</ele>
				<time>2012-04-21T10:47:53</time>
			</trkpt>
			<trkpt lat="52.1765795024598" lon="7.79769734480213">
				<ele>58.5</ele>
				<time>2012-04-21T10:47:57</time>
			</trkpt>
			<trkpt lat="52.1762584755683" lon="7.79812482186388">
				<ele>54.5999984741211</ele>
				<time>2012-04-21T10:48:04</time>
			</trkpt>
			<trkpt lat="52.176132202197" lon="7.7982945554031">
				<ele>55.5</ele>
				<time>2012-04-21T10:48:06</time>
			</trkpt>
			<trkpt lat="52.1758330101633" lon="7.79858917929958">
				<ele>59.3000030517578</ele>
				<time>2012-04-21T10:48:11</time>
			</trkpt>
			<trkpt lat="52.1752332849914" lon="7.79878967442345">
				<ele>52.5999984741211</ele>
				<time>2012-04-21T10:48:19</time>
			</trkpt>
			<trkpt lat="52.1749588614816" lon="7.79916954227518">
				<ele>50.5</ele>
				<time>2012-04-21T10:48:24</time>
			</trkpt>
			<trkpt lat="52.174776261721" lon="7.79955653474461">
				<ele>52.8000030517578</ele>
				<time>2012-04-21T10:48:28</time>
			</trkpt>
			<trkpt lat="52.1745108906666" lon="7.79991134070586">
				<ele>55.4000015258789</ele>
				<time>2012-04-21T10:48:33</time>
			</trkpt>
			<trkpt lat="52.1741907438749" lon="7.80005902983975">
				<ele>60.3000030517578</ele>
				<time>2012-04-21T10:48:38</time>
			</trkpt>
			<trkpt lat="52.1739062201718" lon="7.80030596070718">
				<ele>66</ele>
				<time>2012-04-21T10:48:43</time>
			</trkpt>
			<trkpt lat="52.1735409368315" lon="7.80056915246677">
				<ele>60.1999969482422</ele>
				<time>2012-04-21T10:48:48</time>
			</trkpt>
			<trkpt lat="52.1731995838249" lon="7.80078875832986">
				<ele>54</ele>
				<time>2012-04-21T10:48:53</time>
			</trkpt>
			<trkpt lat="52.1728565544376" lon="7.8009593300594">
				<ele>46.8000030517578</ele>
				<time>2012-04-21T10:48:59</time>
			</trkpt>
			<trkpt lat="52.1726367809364" lon="7.80127524398994">
				<ele>48</ele>
				<time>2012-04-21T10:49:03</time>
			</trkpt>
			<trkpt lat="52.1726072347277" lon="7.80164186843466">
				<ele>48.4000015258789</ele>
				<time>2012-04-21T10:49:06</time>
			</trkpt>
			<trkpt lat="52.1725817537421" lon="7.80216942542028">
				<ele>52.0999984741211</ele>
				<time>2012-04-21T10:49:11</time>
			</trkpt>
			<trkpt lat="52.1725911414737" lon="7.80256102793645">
				<ele>53.6999969482422</ele>
				<time>2012-04-21T10:49:15</time>
			</trkpt>
			<trkpt lat="52.1725823823848" lon="7.8033133037461">
				<ele>56.9000015258789</ele>
				<time>2012-04-21T10:49:22</time>
			</trkpt>
			<trkpt lat="52.1726150298977" lon="7.80385770835709">
				<ele>55</ele>
				<time>2012-04-21T10:49:27</time>
			</trkpt>
			<trkpt lat="52.1725335997084" lon="7.80403129757177">
				<ele>55.4000015258789</ele>
				<time>2012-04-21T10:49:30</time>
			</trkpt>
			<trkpt lat="52.1722766943762" lon="7.80363818631303">
				<ele>53.0999984741211</ele>
				<time>2012-04-21T10:49:38</time>
			</trkpt>
			<trkpt lat="52.1720625786597" lon="7.8034015651865">
				<ele>58.1999969482422</ele>
				<time>2012-04-21T10:49:43</time>
			</trkpt>
			<trkpt lat="52.1719857585171" lon="7.8032961208446">
				<ele>60.5999984741211</ele>
				<time>2012-04-21T10:49:46</time>
			</trkpt>
			<trkpt lat="52.171626007233" lon="7.80355922878515">
				<ele>53</ele>
				<time>2012-04-21T10:49:52</time>
			</trkpt>
			<trkpt lat="52.1714361571261" lon="7.80410455540549">
				<ele>54.3000030517578</ele>
				<time>2012-04-21T10:49:58</time>
			</trkpt>
			<trkpt lat="52.1713356581071" lon="7.80468299054336">
				<ele>54.1999969482422</ele>
				<time>2012-04-21T10:50:04</time>
			</trkpt>
			<trkpt lat="52.1712747216711" lon="7.80505715870094">
				<ele>52.5</ele>
				<time>2012-04-21T10:50:08</time>
			</trkpt>
			<trkpt lat="52.1712306328604" lon="7.80559720472228">
				<ele>54.1999969482422</ele>
				<time>2012-04-21T10:50:13</time>
			</trkpt>
			<trkpt lat="52.171233608436" lon="7.80591848307085">
				<ele>51.3000030517578</ele>
				<time>2012-04-21T10:50:16</time>
			</trkpt>
			<trkpt lat="52.1712349495405" lon="7.80636222102475">
				<ele>53.1999969482422</ele>
				<time>2012-04-21T10:50:20</time>
			</trkpt>
			<trkpt lat="52.1712739253903" lon="7.8071522992177">
				<ele>56.0999984741211</ele>
				<time>2012-04-21T10:50:27</time>
			</trkpt>
			<trkpt lat="52.171367174063" lon="7.80805938877892">
				<ele>51.1999969482422</ele>
				<time>2012-04-21T10:50:34</time>
			</trkpt>
			<trkpt lat="52.1713804593796" lon="7.80839508400094">
				<ele>49.9000015258789</ele>
				<time>2012-04-21T10:50:37</time>
			</trkpt>
			<trkpt lat="52.1713917330393" lon="7.80873354525101">
				<ele>48</ele>
				<time>2012-04-21T10:50:40</time>
			</trkpt>
			<trkpt lat="52.1714406414443" lon="7.80968178995681">
				<ele>46.8000030517578</ele>
				<time>2012-04-21T10:50:48</time>
			</trkpt>
			<trkpt lat="52.1714774379993" lon="7.81026030891371">
				<ele>44.5999984741211</ele>
				<time>2012-04-21T10:50:53</time>
			</trkpt>
			<trkpt lat="52.1714929864296" lon="7.81092708931101">
				<ele>47.0999984741211</ele>
				<time>2012-04-21T10:50:59</time>
			</trkpt>
			<trkpt lat="52.1715284837896" lon="7.81125205569697">
				<ele>49.6999969482422</ele>
				<time>2012-04-21T10:51:01</time>
			</trkpt>
			<trkpt lat="52.1715488518143" lon="7.81175815501047">
				<ele>49.5</ele>
				<time>2012-04-21T10:51:05</time>
			</trkpt>
			<trkpt lat="52.1715410566443" lon="7.81227800064516">
				<ele>46.3000030517578</ele>
				<time>2012-04-21T10:51:10</time>
			</trkpt>
			<trkpt lat="52.1715494385475" lon="7.81298467890156">
				<ele>43.5</ele>
				<time>2012-04-21T10:51:16</time>
			</trkpt>
			<trkpt lat="52.1714579500744" lon="7.81363285147381">
				<ele>48.5999984741211</ele>
				<time>2012-04-21T10:51:22</time>
			</trkpt>
			<trkpt lat="52.1714135259876" lon="7.81414397992921">
				<ele>51.5</ele>
				<time>2012-04-21T10:51:27</time>
			</trkpt>
			<trkpt lat="52.1713875420877" lon="7.81451119110716">
				<ele>53.9000015258789</ele>
				<time>2012-04-21T10:51:30</time>
			</trkpt>
			<trkpt lat="52.1713238396236" lon="7.81551391818357">
				<ele>48.4000015258789</ele>
				<time>2012-04-21T10:51:39</time>
			</trkpt>
			<trkpt lat="52.1712558204794" lon="7.81573746354116">
				<ele>47.8000030517578</ele>
				<time>2012-04-21T10:51:42</time>
			</trkpt>
			<trkpt lat="52.1712286212036" lon="7.81633241102827">
				<ele>40.1999969482422</ele>
				<time>2012-04-21T10:51:48</time>
			</trkpt>
			<trkpt lat="52.1712923236677" lon="7.81697957777215">
				<ele>33.0999984741211</ele>
				<time>2012-04-21T10:51:53</time>
			</trkpt>
			<trkpt lat="52.1712275315562" lon="7.81764308922721">
				<ele>36.3000030517578</ele>
				<time>2012-04-21T10:51:58</time>
			</trkpt>
			<trkpt lat="52.17103416105" lon="7.8183722309841">
				<ele>40.4000015258789</ele>
				<time>2012-04-21T10:52:05</time>
			</trkpt>
			<trkpt lat="52.171051134404" lon="7.81878017821146">
				<ele>38.1999969482422</ele>
				<time>2012-04-21T10:52:08</time>
			</trkpt>
			<trkpt lat="52.1710600611308" lon="7.81917429529859">
				<ele>37.5</ele>
				<time>2012-04-21T10:52:11</time>
			</trkpt>
			<trkpt lat="52.1710254438707" lon="7.82007283531858">
				<ele>40.0999984741211</ele>
				<time>2012-04-21T10:52:19</time>
			</trkpt>
			<trkpt lat="52.1710393997395" lon="7.82075881027414">
				<ele>40.6999969482422</ele>
				<time>2012-04-21T10:52:24</time>
			</trkpt>
			<trkpt lat="52.1710205823669" lon="7.82113431953622">
				<ele>38.9000015258789</ele>
				<time>2012-04-21T10:52:27</time>
			</trkpt>
			<trkpt lat="52.1709822770694" lon="7.82199095004035">
				<ele>44.3000030517578</ele>
				<time>2012-04-21T10:52:34</time>
			</trkpt>
			<trkpt lat="52.1709101088831" lon="7.82233628445102">
				<ele>42.5</ele>
				<time>2012-04-21T10:52:38</time>
			</trkpt>
			<trkpt lat="52.1708367253208" lon="7.82270022668673">
				<ele>45.3000030517578</ele>
				<time>2012-04-21T10:52:41</time>
			</trkpt>
			<trkpt lat="52.1703647822628" lon="7.82326726243628">
				<ele>47.5</ele>
				<time>2012-04-21T10:52:50</time>
			</trkpt>
			<trkpt lat="52.1702382155249" lon="7.82339089550806">
				<ele>49.3000030517578</ele>
				<time>2012-04-21T10:52:53</time>
			</trkpt>
			<trkpt lat="52.1700287517646" lon="7.82356465236081">
				<ele>48.1999969482422</ele>
				<time>2012-04-21T10:52:57</time>
			</trkpt>
			<trkpt lat="52.169795944404" lon="7.8237258363588">
				<ele>52.1999969482422</ele>
				<time>2012-04-21T10:53:01</time>
			</trkpt>
			<trkpt lat="52.1693452494705" lon="7.82424459234609">
				<ele>53.4000015258789</ele>
				<time>2012-04-21T10:53:10</time>
			</trkpt>
			<trkpt lat="52.1693096682915" lon="7.82447584905459">
				<ele>49.8000030517578</ele>
				<time>2012-04-21T10:53:12</time>
			</trkpt>
			<trkpt lat="52.1692522522548" lon="7.82495697029664">
				<ele>49.3000030517578</ele>
				<time>2012-04-21T10:53:17</time>
			</trkpt>
			<trkpt lat="52.1691554831827" lon="7.82531202771498">
				<ele>50.9000015258789</ele>
				<time>2012-04-21T10:53:21</time>
			</trkpt>
			<trkpt lat="52.1690160921329" lon="7.82635238953664">
				<ele>51.5999984741211</ele>
				<time>2012-04-21T10:53:30</time>
			</trkpt>
			<trkpt lat="52.1688937582561" lon="7.82673167065515">
				<ele>53.1999969482422</ele>
				<time>2012-04-21T10:53:34</time>
			</trkpt>
			<trkpt lat="52.1687672334278" lon="7.82718622126414">
				<ele>52.8000030517578</ele>
				<time>2012-04-21T10:53:39</time>
			</trkpt>
			<trkpt lat="52.1685538720825" lon="7.82775862143173">
				<ele>52.5</ele>
				<time>2012-04-21T10:53:45</time>
			</trkpt>
			<trkpt lat="52.1685227752218" lon="7.82783933915927">
				<ele>52.6999969482422</ele>
				<time>2012-04-21T10:53:46</time>
			</trkpt>
			<trkpt lat="52.1682890039423" lon="7.82873050310447">
				<ele>60.8000030517578</ele>
				<time>2012-04-21T10:53:55</time>
			</trkpt>
			<trkpt lat="52.1681984793881" lon="7.82897659578158">
				<ele>60.5999984741211</ele>
				<time>2012-04-21T10:53:58</time>
			</trkpt>
			<trkpt lat="52.1679523448014" lon="7.82970850356652">
				<ele>55.5</ele>
				<time>2012-04-21T10:54:05</time>
			</trkpt>
			<trkpt lat="52.1678006742635" lon="7.83010739833846">
				<ele>54.9000015258789</ele>
				<time>2012-04-21T10:54:09</time>
			</trkpt>
			<trkpt lat="52.1676433878505" lon="7.83048273996248">
				<ele>52.1999969482422</ele>
				<time>2012-04-21T10:54:13</time>
			</trkpt>
			<trkpt lat="52.1674456168452" lon="7.83104801551237">
				<ele>49.3000030517578</ele>
				<time>2012-04-21T10:54:19</time>
			</trkpt>
			<trkpt lat="52.1672716504449" lon="7.83154875040784">
				<ele>48.6999969482422</ele>
				<time>2012-04-21T10:54:24</time>
			</trkpt>
			<trkpt lat="52.1671342291424" lon="7.83191042952969">
				<ele>49</ele>
				<time>2012-04-21T10:54:28</time>
			</trkpt>
			<trkpt lat="52.1669764817247" lon="7.83240789548292">
				<ele>50.5999984741211</ele>
				<time>2012-04-21T10:54:33</time>
			</trkpt>
			<trkpt lat="52.166765844498" lon="7.8329908568485">
				<ele>50.9000015258789</ele>
				<time>2012-04-21T10:54:39</time>
			</trkpt>
			<trkpt lat="52.1665904531741" lon="7.83347281628087">
				<ele>51.5999984741211</ele>
				<time>2012-04-21T10:54:44</time>
			</trkpt>
			<trkpt lat="52.1664265450576" lon="7.83396734856799">
				<ele>52.6999969482422</ele>
				<time>2012-04-21T10:54:49</time>
			</trkpt>
			<trkpt lat="52.1663511079291" lon="7.83414931968584">
				<ele>53.3000030517578</ele>
				<time>2012-04-21T10:54:51</time>
			</trkpt>
			<trkpt lat="52.1661154507214" lon="7.83483294770851">
				<ele>55.4000015258789</ele>
				<time>2012-04-21T10:54:58</time>
			</trkpt>
			<trkpt lat="52.1658654185498" lon="7.83550148830547">
				<ele>56.9000015258789</ele>
				<time>2012-04-21T10:55:05</time>
			</trkpt>
			<trkpt lat="52.1657636203358" lon="7.83579066396489">
				<ele>56.6999969482422</ele>
				<time>2012-04-21T10:55:08</time>
			</trkpt>
			<trkpt lat="52.1655513486379" lon="7.83635409549608">
				<ele>60.4000015258789</ele>
				<time>2012-04-21T10:55:14</time>
			</trkpt>
			<trkpt lat="52.1653332515174" lon="7.83680177294448">
				<ele>57.9000015258789</ele>
				<time>2012-04-21T10:55:19</time>
			</trkpt>
			<trkpt lat="52.1652853070313" lon="7.83700645901993">
				<ele>58.9000015258789</ele>
				<time>2012-04-21T10:55:21</time>
			</trkpt>
			<trkpt lat="52.1649844805264" lon="7.83781472594276">
				<ele>56.0999984741211</ele>
				<time>2012-04-21T10:55:29</time>
			</trkpt>
			<trkpt lat="52.1649248851949" lon="7.83801773563757">
				<ele>55.4000015258789</ele>
				<time>2012-04-21T10:55:31</time>
			</trkpt>
			<trkpt lat="52.164668734234" lon="7.83868837171033">
				<ele>57.5999984741211</ele>
				<time>2012-04-21T10:55:38</time>
			</trkpt>
			<trkpt lat="52.1644496312851" lon="7.83925792203084">
				<ele>53.9000015258789</ele>
				<time>2012-04-21T10:55:44</time>
			</trkpt>
			<trkpt lat="52.1642797720173" lon="7.83982940018907">
				<ele>50.0999984741211</ele>
				<time>2012-04-21T10:55:49</time>
			</trkpt>
			<trkpt lat="52.1642107470447" lon="7.84004397691026">
				<ele>50.6999969482422</ele>
				<time>2012-04-21T10:55:51</time>
			</trkpt>
			<trkpt lat="52.1638886724153" lon="7.84096053802207">
				<ele>58.5999984741211</ele>
				<time>2012-04-21T10:56:00</time>
			</trkpt>
			<trkpt lat="52.1636991994941" lon="7.84157141112521">
				<ele>59</ele>
				<time>2012-04-21T10:56:06</time>
			</trkpt>
			<trkpt lat="52.1635578806067" lon="7.84196460620299">
				<ele>58.3000030517578</ele>
				<time>2012-04-21T10:56:10</time>
			</trkpt>
			<trkpt lat="52.1633746522033" lon="7.84246710129813">
				<ele>59.0999984741211</ele>
				<time>2012-04-21T10:56:15</time>
			</trkpt>
			<trkpt lat="52.1631906275192" lon="7.84300027415887">
				<ele>56.5</ele>
				<time>2012-04-21T10:56:20</time>
			</trkpt>
			<trkpt lat="52.1630321676397" lon="7.84340143204466">
				<ele>55.4000015258789</ele>
				<time>2012-04-21T10:56:24</time>
			</trkpt>
			<trkpt lat="52.1628197702134" lon="7.8440035879685">
				<ele>55.8000030517578</ele>
				<time>2012-04-21T10:56:30</time>
			</trkpt>
			<trkpt lat="52.162656365011" lon="7.8444010578169">
				<ele>56.5999984741211</ele>
				<time>2012-04-21T10:56:34</time>
			</trkpt>
			<trkpt lat="52.1625071671346" lon="7.84480741248265">
				<ele>55.3000030517578</ele>
				<time>2012-04-21T10:56:38</time>
			</trkpt>
			<trkpt lat="52.1622661874184" lon="7.84538668581084">
				<ele>53.1999969482422</ele>
				<time>2012-04-21T10:56:44</time>
			</trkpt>
			<trkpt lat="52.1620315360391" lon="7.84613560885922">
				<ele>57.5999984741211</ele>
				<time>2012-04-21T10:56:51</time>
			</trkpt>
			<trkpt lat="52.1618763451019" lon="7.84653089941279">
				<ele>57.0999984741211</ele>
				<time>2012-04-21T10:56:55</time>
			</trkpt>
			<trkpt lat="52.1617778577396" lon="7.84682971426085">
				<ele>57</ele>
				<time>2012-04-21T10:56:58</time>
			</trkpt>
			<trkpt lat="52.1615770273396" lon="7.84737830982343">
				<ele>56.9000015258789</ele>
				<time>2012-04-21T10:57:04</time>
			</trkpt>
			<trkpt lat="52.1614507120588" lon="7.84768240527049">
				<ele>59.1999969482422</ele>
				<time>2012-04-21T10:57:10</time>
			</trkpt>
			<trkpt lat="52.1614235546926" lon="7.84780209884778">
				<ele>60.9000015258789</ele>
				<time>2012-04-21T10:57:12</time>
			</trkpt>
			<trkpt lat="52.1612496721113" lon="7.84833292477564">
				<ele>60</ele>
				<time>2012-04-21T10:57:19</time>
			</trkpt>
			<trkpt lat="52.1610197984168" lon="7.84889803268746">
				<ele>55.0999984741211</ele>
				<time>2012-04-21T10:57:25</time>
			</trkpt>
			<trkpt lat="52.1608791919911" lon="7.84926507622735">
				<ele>52.0999984741211</ele>
				<time>2012-04-21T10:57:29</time>
			</trkpt>
			<trkpt lat="52.1607343527043" lon="7.84969557077424">
				<ele>54.5</ele>
				<time>2012-04-21T10:57:34</time>
			</trkpt>
			<trkpt lat="52.1605597995707" lon="7.85028012470142">
				<ele>57.8000030517578</ele>
				<time>2012-04-21T10:57:40</time>
			</trkpt>
			<trkpt lat="52.1603207476923" lon="7.85077256151275">
				<ele>45.0999984741211</ele>
				<time>2012-04-21T10:57:45</time>
			</trkpt>
			<trkpt lat="52.1602033591384" lon="7.85125921481089">
				<ele>45.3000030517578</ele>
				<time>2012-04-21T10:57:50</time>
			</trkpt>
			<trkpt lat="52.160154911738" lon="7.85175299272672">
				<ele>48.1999969482422</ele>
				<time>2012-04-21T10:57:54</time>
			</trkpt>
			<trkpt lat="52.1600837493801" lon="7.85220880062119">
				<ele>48</ele>
				<time>2012-04-21T10:57:59</time>
			</trkpt>
			<trkpt lat="52.1600592742228" lon="7.85284666345255">
				<ele>49.6999969482422</ele>
				<time>2012-04-21T10:58:05</time>
			</trkpt>
			<trkpt lat="52.1600209689254" lon="7.85303349607424">
				<ele>49.1999969482422</ele>
				<time>2012-04-21T10:58:07</time>
			</trkpt>
			<trkpt lat="52.1599573502803" lon="7.85393656232194">
				<ele>48</ele>
				<time>2012-04-21T10:58:15</time>
			</trkpt>
			<trkpt lat="52.159927426886" lon="7.85449739546315">
				<ele>44.6999969482422</ele>
				<time>2012-04-21T10:58:20</time>
			</trkpt>
			<trkpt lat="52.1599300671855" lon="7.85497860052423">
				<ele>43.5999984741211</ele>
				<time>2012-04-21T10:58:24</time>
			</trkpt>
			<trkpt lat="52.1599533269668" lon="7.85575459711985">
				<ele>44</ele>
				<time>2012-04-21T10:58:30</time>
			</trkpt>
			<trkpt lat="52.1599722700679" lon="7.85628768616156">
				<ele>41.4000015258789</ele>
				<time>2012-04-21T10:58:34</time>
			</trkpt>
			<trkpt lat="52.1599230263868" lon="7.85705815070109">
				<ele>45.1999969482422</ele>
				<time>2012-04-21T10:58:40</time>
			</trkpt>
			<trkpt lat="52.1598762972766" lon="7.85742687062161">
				<ele>43.3000030517578</ele>
				<time>2012-04-21T10:58:43</time>
			</trkpt>
			<trkpt lat="52.159638209317" lon="7.8581644781007">
				<ele>47.6999969482422</ele>
				<time>2012-04-21T10:58:50</time>
			</trkpt>
			<trkpt lat="52.1594445035347" lon="7.85865515471237">
				<ele>46.4000015258789</ele>
				<time>2012-04-21T10:58:55</time>
			</trkpt>
			<trkpt lat="52.159222005915" lon="7.85922462121384">
				<ele>50.8000030517578</ele>
				<time>2012-04-21T10:59:01</time>
			</trkpt>
			<trkpt lat="52.159031569075" lon="7.85960868001716">
				<ele>50.4000015258789</ele>
				<time>2012-04-21T10:59:05</time>
			</trkpt>
			<trkpt lat="52.1587615460643" lon="7.86028845236437">
				<ele>50.0999984741211</ele>
				<time>2012-04-21T10:59:12</time>
			</trkpt>
			<trkpt lat="52.158606019851" lon="7.86065289751427">
				<ele>51.9000015258789</ele>
				<time>2012-04-21T10:59:16</time>
			</trkpt>
			<trkpt lat="52.1584463445955" lon="7.86100803875165">
				<ele>48.6999969482422</ele>
				<time>2012-04-21T10:59:20</time>
			</trkpt>
			<trkpt lat="52.1582966857144" lon="7.86132562906282">
				<ele>50.4000015258789</ele>
				<time>2012-04-21T10:59:24</time>
			</trkpt>
			<trkpt lat="52.1581561631077" lon="7.8617396950795">
				<ele>49.6999969482422</ele>
				<time>2012-04-21T10:59:28</time>
			</trkpt>
			<trkpt lat="52.1578456555048" lon="7.86251183599966">
				<ele>46.5999984741211</ele>
				<time>2012-04-21T10:59:36</time>
			</trkpt>
			<trkpt lat="52.1576580685118" lon="7.86296680570381">
				<ele>49.4000015258789</ele>
				<time>2012-04-21T10:59:41</time>
			</trkpt>
			<trkpt lat="52.1574789053315" lon="7.86350886338191">
				<ele>54</ele>
				<time>2012-04-21T10:59:46</time>
			</trkpt>
			<trkpt lat="52.1573540149742" lon="7.86377415061729">
				<ele>52.9000015258789</ele>
				<time>2012-04-21T10:59:49</time>
			</trkpt>
			<trkpt lat="52.1572184795999" lon="7.86422543228405">
				<ele>54.1999969482422</ele>
				<time>2012-04-21T10:59:53</time>
			</trkpt>
			<trkpt lat="52.1568306070307" lon="7.8651154227628">
				<ele>56</ele>
				<time>2012-04-21T11:00:02</time>
			</trkpt>
			<trkpt lat="52.1567210974657" lon="7.86536947824793">
				<ele>57.9000015258789</ele>
				<time>2012-04-21T11:00:05</time>
			</trkpt>
			<trkpt lat="52.1565047186354" lon="7.86595579237478">
				<ele>57.3000030517578</ele>
				<time>2012-04-21T11:00:11</time>
			</trkpt>
			<trkpt lat="52.156309462201" lon="7.86652794108527">
				<ele>53.4000015258789</ele>
				<time>2012-04-21T11:00:17</time>
			</trkpt>
			<trkpt lat="52.1562412754187" lon="7.86671016366022">
				<ele>53.8000030517578</ele>
				<time>2012-04-21T11:00:19</time>
			</trkpt>
			<trkpt lat="52.1559628285953" lon="7.86751901731628">
				<ele>57.9000015258789</ele>
				<time>2012-04-21T11:00:27</time>
			</trkpt>
			<trkpt lat="52.1559052449205" lon="7.86761113443213">
				<ele>55.3000030517578</ele>
				<time>2012-04-21T11:00:28</time>
			</trkpt>
			<trkpt lat="52.1556197572985" lon="7.86837631837266">
				<ele>59.9000015258789</ele>
				<time>2012-04-21T11:00:36</time>
			</trkpt>
			<trkpt lat="52.1554507781306" lon="7.86885760725277">
				<ele>57.9000015258789</ele>
				<time>2012-04-21T11:00:41</time>
			</trkpt>
			<trkpt lat="52.1552875405663" lon="7.86923252978164">
				<ele>57.0999984741211</ele>
				<time>2012-04-21T11:00:45</time>
			</trkpt>
			<trkpt lat="52.1550879255423" lon="7.86973519251483">
				<ele>53.0999984741211</ele>
				<time>2012-04-21T11:00:50</time>
			</trkpt>
			<trkpt lat="52.1548448084408" lon="7.870327625431">
				<ele>52.1999969482422</ele>
				<time>2012-04-21T11:00:56</time>
			</trkpt>
			<trkpt lat="52.1547289286295" lon="7.87079508417088">
				<ele>54.9000015258789</ele>
				<time>2012-04-21T11:01:00</time>
			</trkpt>
			<trkpt lat="52.1545409644508" lon="7.87129011937219">
				<ele>57.1999969482422</ele>
				<time>2012-04-21T11:01:05</time>
			</trkpt>
			<trkpt lat="52.154282466557" lon="7.87196092308301">
				<ele>58.1999969482422</ele>
				<time>2012-04-21T11:01:12</time>
			</trkpt>
			<trkpt lat="52.1541234618539" lon="7.87234154530603">
				<ele>58.6999969482422</ele>
				<time>2012-04-21T11:01:16</time>
			</trkpt>
			<trkpt lat="52.1540590050185" lon="7.87253877148765">
				<ele>59.1999969482422</ele>
				<time>2012-04-21T11:01:18</time>
			</trkpt>
			<trkpt lat="52.1538428357357" lon="7.87310689688462">
				<ele>59.0999984741211</ele>
				<time>2012-04-21T11:01:24</time>
			</trkpt>
			<trkpt lat="52.153596701149" lon="7.87368181162316">
				<ele>57.8000030517578</ele>
				<time>2012-04-21T11:01:31</time>
			</trkpt>
			<trkpt lat="52.1534426836783" lon="7.87413007580477">
				<ele>60.5999984741211</ele>
				<time>2012-04-21T11:01:36</time>
			</trkpt>
			<trkpt lat="52.1533764666432" lon="7.87430961617071">
				<ele>62.3000030517578</ele>
				<time>2012-04-21T11:01:38</time>
			</trkpt>
			<trkpt lat="52.1532487264389" lon="7.87472921424347">
				<ele>64</ele>
				<time>2012-04-21T11:01:43</time>
			</trkpt>
			<trkpt lat="52.1529771108666" lon="7.87546355278033">
				<ele>67.0999984741211</ele>
				<time>2012-04-21T11:01:51</time>
			</trkpt>
			<trkpt lat="52.1528405277544" lon="7.8758398164137">
				<ele>69.6999969482422</ele>
				<time>2012-04-21T11:01:55</time>
			</trkpt>
			<trkpt lat="52.152708638508" lon="7.87628741004306">
				<ele>73.6999969482422</ele>
				<time>2012-04-21T11:02:00</time>
			</trkpt>
			<trkpt lat="52.1526546171421" lon="7.87655487657327">
				<ele>76.5999984741211</ele>
				<time>2012-04-21T11:02:03</time>
			</trkpt>
			<trkpt lat="52.1524480451384" lon="7.87735375576455">
				<ele>80.4000015258789</ele>
				<time>2012-04-21T11:02:11</time>
			</trkpt>
			<trkpt lat="52.1521364059785" lon="7.87795188837487">
				<ele>71.6999969482422</ele>
				<time>2012-04-21T11:02:17</time>
			</trkpt>
			<trkpt lat="52.1520151617491" lon="7.8782128170206">
				<ele>68.6999969482422</ele>
				<time>2012-04-21T11:02:20</time>
			</trkpt>
			<trkpt lat="52.151929037694" lon="7.87852462381858">
				<ele>66</ele>
				<time>2012-04-21T11:02:23</time>
			</trkpt>
			<trkpt lat="52.1516556619221" lon="7.87915754132707">
				<ele>66</ele>
				<time>2012-04-21T11:02:31</time>
			</trkpt>
			<trkpt lat="52.1515114093685" lon="7.87954067812104">
				<ele>66.8000030517578</ele>
				<time>2012-04-21T11:02:35</time>
			</trkpt>
			<trkpt lat="52.1512848884353" lon="7.88007577881951">
				<ele>59.5999984741211</ele>
				<time>2012-04-21T11:02:41</time>
			</trkpt>
			<trkpt lat="52.1511306195074" lon="7.88052094169695">
				<ele>58.1999969482422</ele>
				<time>2012-04-21T11:02:45</time>
			</trkpt>
			<trkpt lat="52.1509157075101" lon="7.8810345847233">
				<ele>56.8000030517578</ele>
				<time>2012-04-21T11:02:50</time>
			</trkpt>
			<trkpt lat="52.1507001249605" lon="7.88144295104582">
				<ele>58.8000030517578</ele>
				<time>2012-04-21T11:02:55</time>
			</trkpt>
			<trkpt lat="52.1503858874106" lon="7.88191334345181">
				<ele>64.5999984741211</ele>
				<time>2012-04-21T11:03:02</time>
			</trkpt>
			<trkpt lat="52.1501294011736" lon="7.88226999343176">
				<ele>63.5999984741211</ele>
				<time>2012-04-21T11:03:07</time>
			</trkpt>
			<trkpt lat="52.1500092885011" lon="7.88239052519936">
				<ele>59.9000015258789</ele>
				<time>2012-04-21T11:03:09</time>
			</trkpt>
			<trkpt lat="52.1496674325803" lon="7.88270534948249">
				<ele>60.5</ele>
				<time>2012-04-21T11:03:15</time>
			</trkpt>
			<trkpt lat="52.1493041608968" lon="7.8829775936975">
				<ele>55.8000030517578</ele>
				<time>2012-04-21T11:03:21</time>
			</trkpt>
			<trkpt lat="52.1489953296745" lon="7.88318144158263">
				<ele>57.5</ele>
				<time>2012-04-21T11:03:26</time>
			</trkpt>
			<trkpt lat="52.1486926172414" lon="7.88338587620098">
				<ele>59.4000015258789</ele>
				<time>2012-04-21T11:03:32</time>
			</trkpt>
			<trkpt lat="52.1485274518394" lon="7.8836076613589">
				<ele>70.6999969482422</ele>
				<time>2012-04-21T11:03:36</time>
			</trkpt>
			<trkpt lat="52.1484416630605" lon="7.88369843737025">
				<ele>74.4000015258789</ele>
				<time>2012-04-21T11:03:38</time>
			</trkpt>
			<trkpt lat="52.1481848834568" lon="7.88448700682063">
				<ele>67.5999984741211</ele>
				<time>2012-04-21T11:03:46</time>
			</trkpt>
			<trkpt lat="52.1479843464234" lon="7.88508069702227">
				<ele>66.3000030517578</ele>
				<time>2012-04-21T11:03:52</time>
			</trkpt>
			<trkpt lat="52.1478770580628" lon="7.88549426012476">
				<ele>65.5</ele>
				<time>2012-04-21T11:03:56</time>
			</trkpt>
			<trkpt lat="52.1477566520238" lon="7.88615098223825">
				<ele>66.5</ele>
				<time>2012-04-21T11:04:01</time>
			</trkpt>
			<trkpt lat="52.1476730425396" lon="7.88690971211333">
				<ele>65.3000030517578</ele>
				<time>2012-04-21T11:04:06</time>
			</trkpt>
			<trkpt lat="52.1476066578665" lon="7.88781596348424">
				<ele>64.8000030517578</ele>
				<time>2012-04-21T11:04:12</time>
			</trkpt>
			<trkpt lat="52.1475932049119" lon="7.8879477270021">
				<ele>64.8000030517578</ele>
				<time>2012-04-21T11:04:13</time>
			</trkpt>
			<trkpt lat="52.147540650379" lon="7.8890289086922">
				<ele>60</ele>
				<time>2012-04-21T11:04:21</time>
			</trkpt>
			<trkpt lat="52.1474892274031" lon="7.88969049230953">
				<ele>61.8000030517578</ele>
				<time>2012-04-21T11:04:26</time>
			</trkpt>
			<trkpt lat="52.1474756068104" lon="7.8902031295075">
				<ele>60.9000015258789</ele>
				<time>2012-04-21T11:04:30</time>
			</trkpt>
			<trkpt lat="52.1474143350983" lon="7.89059255272885">
				<ele>58.1999969482422</ele>
				<time>2012-04-21T11:04:36</time>
			</trkpt>
			<trkpt lat="52.1473510098198" lon="7.89105556906005">
				<ele>60.4000015258789</ele>
				<time>2012-04-21T11:04:42</time>
			</trkpt>
			<trkpt lat="52.1473175241166" lon="7.8914669528677">
				<ele>59.0999984741211</ele>
				<time>2012-04-21T11:04:46</time>
			</trkpt>
			<trkpt lat="52.1472433861831" lon="7.89181874134381">
				<ele>63.1999969482422</ele>
				<time>2012-04-21T11:04:50</time>
			</trkpt>
			<trkpt lat="52.1471066773423" lon="7.89237471298118">
				<ele>66.1999969482422</ele>
				<time>2012-04-21T11:04:56</time>
			</trkpt>
			<trkpt lat="52.1469944017494" lon="7.89278165438016">
				<ele>66.4000015258789</ele>
				<time>2012-04-21T11:05:00</time>
			</trkpt>
			<trkpt lat="52.1468734508866" lon="7.89310469292839">
				<ele>65.9000015258789</ele>
				<time>2012-04-21T11:05:04</time>
			</trkpt>
			<trkpt lat="52.1466935752445" lon="7.89366192185124">
				<ele>71.9000015258789</ele>
				<time>2012-04-21T11:05:10</time>
			</trkpt>
			<trkpt lat="52.1464835666606" lon="7.89427128621181">
				<ele>75.6999969482422</ele>
				<time>2012-04-21T11:05:16</time>
			</trkpt>
			<trkpt lat="52.1461391123497" lon="7.89487419650694">
				<ele>69.0999984741211</ele>
				<time>2012-04-21T11:05:22</time>
			</trkpt>
			<trkpt lat="52.1458803210893" lon="7.8953336924388">
				<ele>68.1999969482422</ele>
				<time>2012-04-21T11:05:27</time>
			</trkpt>
			<trkpt lat="52.1456943685675" lon="7.89560392499705">
				<ele>65.4000015258789</ele>
				<time>2012-04-21T11:05:30</time>
			</trkpt>
			<trkpt lat="52.1453328151742" lon="7.89604640566548">
				<ele>64.3000030517578</ele>
				<time>2012-04-21T11:05:36</time>
			</trkpt>
			<trkpt lat="52.1451774146893" lon="7.89624178782841">
				<ele>67.5</ele>
				<time>2012-04-21T11:05:39</time>
			</trkpt>
			<trkpt lat="52.1453617327401" lon="7.89726546966275">
				<ele>66.5</ele>
				<time>2012-04-21T11:05:48</time>
			</trkpt>
			<trkpt lat="52.1455260180423" lon="7.89784021676322">
				<ele>67.5</ele>
				<time>2012-04-21T11:05:53</time>
			</trkpt>
			<trkpt lat="52.1456484357381" lon="7.89830968715986">
				<ele>70.4000015258789</ele>
				<time>2012-04-21T11:05:57</time>
			</trkpt>
			<trkpt lat="52.145810835112" lon="7.89886314422628">
				<ele>67.4000015258789</ele>
				<time>2012-04-21T11:06:02</time>
			</trkpt>
			<trkpt lat="52.1459868550786" lon="7.89943453856548">
				<ele>68.4000015258789</ele>
				<time>2012-04-21T11:06:07</time>
			</trkpt>
			<trkpt lat="52.1461261623093" lon="7.89989713580152">
				<ele>63.5999984741211</ele>
				<time>2012-04-21T11:06:11</time>
			</trkpt>
			<trkpt lat="52.1462347498649" lon="7.900236686699">
				<ele>64.6999969482422</ele>
				<time>2012-04-21T11:06:14</time>
			</trkpt>
			<trkpt lat="52.1463862946743" lon="7.90076047182819">
				<ele>70.8000030517578</ele>
				<time>2012-04-21T11:06:19</time>
			</trkpt>
			<trkpt lat="52.1466390928739" lon="7.90171064437172">
				<ele>73</ele>
				<time>2012-04-21T11:06:28</time>
			</trkpt>
			<trkpt lat="52.1468079882228" lon="7.90231330320975">
				<ele>75.3000030517578</ele>
				<time>2012-04-21T11:06:33</time>
			</trkpt>
			<trkpt lat="52.1469472954535" lon="7.90279283189019">
				<ele>70.6999969482422</ele>
				<time>2012-04-21T11:06:37</time>
			</trkpt>
			<trkpt lat="52.1470782207811" lon="7.90325844661137">
				<ele>72.5</ele>
				<time>2012-04-21T11:06:42</time>
			</trkpt>
			<trkpt lat="52.1471283864716" lon="7.9035177826955">
				<ele>64.1999969482422</ele>
				<time>2012-04-21T11:06:46</time>
			</trkpt>
			<trkpt lat="52.147331773352" lon="7.9041671287342">
				<ele>61.8000030517578</ele>
				<time>2012-04-21T11:06:52</time>
			</trkpt>
			<trkpt lat="52.1474576276281" lon="7.90467792191347">
				<ele>63.5</ele>
				<time>2012-04-21T11:06:57</time>
			</trkpt>
			<trkpt lat="52.147578829948" lon="7.90514948778591">
				<ele>64.6999969482422</ele>
				<time>2012-04-21T11:07:01</time>
			</trkpt>
			<trkpt lat="52.147753257353" lon="7.90574242361626">
				<ele>67.5999984741211</ele>
				<time>2012-04-21T11:07:07</time>
			</trkpt>
			<trkpt lat="52.1478254255393" lon="7.90597015992543">
				<ele>71.0999984741211</ele>
				<time>2012-04-21T11:07:09</time>
			</trkpt>
			<trkpt lat="52.1481296467149" lon="7.90698252619049">
				<ele>71.9000015258789</ele>
				<time>2012-04-21T11:07:18</time>
			</trkpt>
			<trkpt lat="52.148262080785" lon="7.90752911009631">
				<ele>69.6999969482422</ele>
				<time>2012-04-21T11:07:23</time>
			</trkpt>
			<trkpt lat="52.1484107338378" lon="7.90796069429061">
				<ele>68.9000015258789</ele>
				<time>2012-04-21T11:07:27</time>
			</trkpt>
			<trkpt lat="52.1485171420985" lon="7.90834793821714">
				<ele>70.6999969482422</ele>
				<time>2012-04-21T11:07:31</time>
			</trkpt>
			<trkpt lat="52.1486547729486" lon="7.90882176720342">
				<ele>60.8000030517578</ele>
				<time>2012-04-21T11:07:36</time>
			</trkpt>
			<trkpt lat="52.1488759294638" lon="7.90947320871792">
				<ele>68.5999984741211</ele>
				<time>2012-04-21T11:07:42</time>
			</trkpt>
			<trkpt lat="52.1489777695873" lon="7.9096486419513">
				<ele>68.3000030517578</ele>
				<time>2012-04-21T11:07:44</time>
			</trkpt>
			<trkpt lat="52.1493275464067" lon="7.90990093723676">
				<ele>64.6999969482422</ele>
				<time>2012-04-21T11:07:49</time>
			</trkpt>
			<trkpt lat="52.1497981902698" lon="7.91011308320603">
				<ele>60.9000015258789</ele>
				<time>2012-04-21T11:07:56</time>
			</trkpt>
			<trkpt lat="52.1502236975843" lon="7.91027133353791">
				<ele>63.4000015258789</ele>
				<time>2012-04-21T11:08:02</time>
			</trkpt>
			<trkpt lat="52.1505141305292" lon="7.91039857082806">
				<ele>61</ele>
				<time>2012-04-21T11:08:06</time>
			</trkpt>
			<trkpt lat="52.1510077827164" lon="7.91060769931219">
				<ele>59.6999969482422</ele>
				<time>2012-04-21T11:08:13</time>
			</trkpt>
			<trkpt lat="52.1513332939261" lon="7.91084256023905">
				<ele>60</ele>
				<time>2012-04-21T11:08:18</time>
			</trkpt>
			<trkpt lat="52.151601221461" lon="7.91109728627644">
				<ele>58.9000015258789</ele>
				<time>2012-04-21T11:08:22</time>
			</trkpt>
			<trkpt lat="52.1518698195481" lon="7.91138704866908">
				<ele>58.4000015258789</ele>
				<time>2012-04-21T11:08:26</time>
			</trkpt>
			<trkpt lat="52.1522556804606" lon="7.91196322069309">
				<ele>62</ele>
				<time>2012-04-21T11:08:33</time>
			</trkpt>
			<trkpt lat="52.1524081891888" lon="7.91221274995051">
				<ele>64.4000015258789</ele>
				<time>2012-04-21T11:08:36</time>
			</trkpt>
			<trkpt lat="52.1527062077561" lon="7.91267652065299">
				<ele>66.5</ele>
				<time>2012-04-21T11:08:42</time>
			</trkpt>
			<trkpt lat="52.1529057808706" lon="7.91304775514446">
				<ele>66.4000015258789</ele>
				<time>2012-04-21T11:08:47</time>
			</trkpt>
			<trkpt lat="52.1531387139597" lon="7.91335763410471">
				<ele>62.3000030517578</ele>
				<time>2012-04-21T11:08:52</time>
			</trkpt>
			<trkpt lat="52.1533316653708" lon="7.91367790662489">
				<ele>61</ele>
				<time>2012-04-21T11:08:57</time>
			</trkpt>
			<trkpt lat="52.1534501435721" lon="7.91378226131938">
				<ele>65.3000030517578</ele>
				<time>2012-04-21T11:09:01</time>
			</trkpt>
			<trkpt lat="52.1535003092626" lon="7.91371772066496">
				<ele>69.6999969482422</ele>
				<time>2012-04-21T11:09:05</time>
			</trkpt>
			<trkpt lat="52.1535345074275" lon="7.9136655014082">
				<ele>65.8000030517578</ele>
				<time>2012-04-21T11:09:17</time>
			</trkpt>
			<trkpt lat="52.1535400813931" lon="7.91358335875712">
				<ele>60</ele>
				<time>2012-04-21T11:09:31</time>
			</trkpt>
			<trkpt lat="52.1535692504162" lon="7.91354220361255">
				<ele>61.0999984741211</ele>
				<time>2012-04-21T11:09:35</time>
			</trkpt>
			<trkpt lat="52.1534546278903" lon="7.91363264434777">
				<ele>69.9000015258789</ele>
				<time>2012-04-21T11:10:53</time>
			</trkpt>
			<trkpt lat="52.1534503531197" lon="7.91364354082189">
				<ele>69.5999984741211</ele>
				<time>2012-04-21T11:10:54</time>
			</trkpt>
			<trkpt lat="52.1534271352479" lon="7.91368033737681">
				<ele>67.5999984741211</ele>
				<time>2012-04-21T11:11:01</time>
			</trkpt>
			<trkpt lat="52.1538292570525" lon="7.91439112276576">
				<ele>70.8000030517578</ele>
				<time>2012-04-21T11:11:58</time>
			</trkpt>
			<trkpt lat="52.154090730522" lon="7.91475942359112">
				<ele>59</ele>
				<time>2012-04-21T11:12:02</time>
			</trkpt>
			<trkpt lat="52.1542715281734" lon="7.91494122707091">
				<ele>53.6999969482422</ele>
				<time>2012-04-21T11:12:05</time>
			</trkpt>
			<trkpt lat="52.1546130907276" lon="7.91531229392431">
				<ele>54.5999984741211</ele>
				<time>2012-04-21T11:12:13</time>
			</trkpt>
			<trkpt lat="52.1548896097133" lon="7.91564296000443">
				<ele>58.5999984741211</ele>
				<time>2012-04-21T11:12:17</time>
			</trkpt>
			<trkpt lat="52.1551523823777" lon="7.91610958055399">
				<ele>57.5</ele>
				<time>2012-04-21T11:12:24</time>
			</trkpt>
			<trkpt lat="52.1552784042919" lon="7.91641711258135">
				<ele>60.5</ele>
				<time>2012-04-21T11:12:28</time>
			</trkpt>
			<trkpt lat="52.1553702699506" lon="7.91673176922641">
				<ele>64.6999969482422</ele>
				<time>2012-04-21T11:12:32</time>
			</trkpt>
			<trkpt lat="52.1555843856671" lon="7.91734071449183">
				<ele>60.3000030517578</ele>
				<time>2012-04-21T11:12:38</time>
			</trkpt>
			<trkpt lat="52.1557839587817" lon="7.91774799116693">
				<ele>58.3000030517578</ele>
				<time>2012-04-21T11:12:42</time>
			</trkpt>
			<trkpt lat="52.1560824802631" lon="7.91811956093453">
				<ele>62.6999969482422</ele>
				<time>2012-04-21T11:12:48</time>
			</trkpt>
			<trkpt lat="52.1562177641803" lon="7.91826238856457">
				<ele>58</ele>
				<time>2012-04-21T11:12:51</time>
			</trkpt>
			<trkpt lat="52.1567285992691" lon="7.91884048842631">
				<ele>61.5999984741211</ele>
				<time>2012-04-21T11:12:59</time>
			</trkpt>
			<trkpt lat="52.1569431759903" lon="7.91911189445101">
				<ele>65</ele>
				<time>2012-04-21T11:13:03</time>
			</trkpt>
			<trkpt lat="52.157218563419" lon="7.91941942647837">
				<ele>64.5</ele>
				<time>2012-04-21T11:13:09</time>
			</trkpt>
			<trkpt lat="52.1573406458387" lon="7.91967096739255">
				<ele>63.6999969482422</ele>
				<time>2012-04-21T11:13:13</time>
			</trkpt>
			<trkpt lat="52.1573563619071" lon="7.91968513280891">
				<ele>64.4000015258789</ele>
				<time>2012-04-21T11:13:15</time>
			</trkpt>
			<trkpt lat="52.1575690107906" lon="7.92001294904195">
				<ele>62.8000030517578</ele>
				<time>2012-04-21T11:13:22</time>
			</trkpt>
			<trkpt lat="52.1576711023712" lon="7.92019684799753">
				<ele>65.4000015258789</ele>
				<time>2012-04-21T11:13:27</time>
			</trkpt>
			<trkpt lat="52.1580271237084" lon="7.92067646049701">
				<ele>64.4000015258789</ele>
				<time>2012-04-21T11:13:33</time>
			</trkpt>
			<trkpt lat="52.1581875533351" lon="7.92081777938448">
				<ele>66.6999969482422</ele>
				<time>2012-04-21T11:13:36</time>
			</trkpt>
			<trkpt lat="52.1584260603899" lon="7.92105565779649">
				<ele>75.3000030517578</ele>
				<time>2012-04-21T11:13:41</time>
			</trkpt>
			<trkpt lat="52.1588247037047" lon="7.92114693672203">
				<ele>78.8000030517578</ele>
				<time>2012-04-21T11:13:48</time>
			</trkpt>
			<trkpt lat="52.1590502188095" lon="7.92118423619114">
				<ele>77.6999969482422</ele>
				<time>2012-04-21T11:13:53</time>
			</trkpt>
			<trkpt lat="52.1593259834239" lon="7.92116638273738">
				<ele>76.5999984741211</ele>
				<time>2012-04-21T11:13:58</time>
			</trkpt>
			<trkpt lat="52.1596644027644" lon="7.92115598917745">
				<ele>77.0999984741211</ele>
				<time>2012-04-21T11:14:04</time>
			</trkpt>
			<trkpt lat="52.1597204776967" lon="7.92117459700249">
				<ele>76.5999984741211</ele>
				<time>2012-04-21T11:14:05</time>
			</trkpt>
			<trkpt lat="52.1601765370482" lon="7.92117208243154">
				<ele>78</ele>
				<time>2012-04-21T11:14:14</time>
			</trkpt>
			<trkpt lat="52.1604344901183" lon="7.9212224576696">
				<ele>75.1999969482422</ele>
				<time>2012-04-21T11:14:18</time>
			</trkpt>
			<trkpt lat="52.1607385436559" lon="7.92124156840883">
				<ele>74.0999984741211</ele>
				<time>2012-04-21T11:14:23</time>
			</trkpt>
			<trkpt lat="52.160964896951" lon="7.92126193643354">
				<ele>73.1999969482422</ele>
				<time>2012-04-21T11:14:27</time>
			</trkpt>
			<trkpt lat="52.1612042002866" lon="7.92142571882151">
				<ele>73.3000030517578</ele>
				<time>2012-04-21T11:14:32</time>
			</trkpt>
			<trkpt lat="52.1614633687326" lon="7.92158891447626">
				<ele>78.0999984741211</ele>
				<time>2012-04-21T11:14:37</time>
			</trkpt>
			<trkpt lat="52.161790723961" lon="7.92172847316407">
				<ele>78.8000030517578</ele>
				<time>2012-04-21T11:14:43</time>
			</trkpt>
			<trkpt lat="52.1620387444758" lon="7.92184037157141">
				<ele>82.8000030517578</ele>
				<time>2012-04-21T11:14:48</time>
			</trkpt>
			<trkpt lat="52.1622191649416" lon="7.92193341069661">
				<ele>84.3000030517578</ele>
				<time>2012-04-21T11:14:51</time>
			</trkpt>
			<trkpt lat="52.1625013417119" lon="7.92172553949796">
				<ele>83</ele>
				<time>2012-04-21T11:14:58</time>
			</trkpt>
			<trkpt lat="52.1626556944588" lon="7.92122597806893">
				<ele>79.8000030517578</ele>
				<time>2012-04-21T11:15:03</time>
			</trkpt>
			<trkpt lat="52.1628110949436" lon="7.92078643106662">
				<ele>81.8999938964844</ele>
				<time>2012-04-21T11:15:08</time>
			</trkpt>
			<trkpt lat="52.1629261365646" lon="7.9203209839835">
				<ele>80.5</ele>
				<time>2012-04-21T11:15:13</time>
			</trkpt>
			<trkpt lat="52.1630506497362" lon="7.91988923215114">
				<ele>77.5999984741211</ele>
				<time>2012-04-21T11:15:18</time>
			</trkpt>
			<trkpt lat="52.1632202156374" lon="7.91977473535381">
				<ele>73.3000030517578</ele>
				<time>2012-04-21T11:15:23</time>
			</trkpt>
			<trkpt lat="52.1634204593042" lon="7.92006047443293">
				<ele>74.5</ele>
				<time>2012-04-21T11:15:28</time>
			</trkpt>
			<trkpt lat="52.16360779484" lon="7.92009207420789">
				<ele>76.3000030517578</ele>
				<time>2012-04-21T11:15:32</time>
			</trkpt>
			<trkpt lat="52.163825682413" lon="7.91955563240491">
				<ele>78.8000030517578</ele>
				<time>2012-04-21T11:15:38</time>
			</trkpt>
			<trkpt lat="52.1640033368507" lon="7.91910518892847">
				<ele>80.5</ele>
				<time>2012-04-21T11:15:43</time>
			</trkpt>
			<trkpt lat="52.1641637664774" lon="7.91875834577523">
				<ele>79.6999969482422</ele>
				<time>2012-04-21T11:15:47</time>
			</trkpt>
			<trkpt lat="52.1643288061509" lon="7.91833715514086">
				<ele>80.5</ele>
				<time>2012-04-21T11:15:52</time>
			</trkpt>
			<trkpt lat="52.1644806443268" lon="7.91790682823203">
				<ele>78.1999969482422</ele>
				<time>2012-04-21T11:15:57</time>
			</trkpt>
			<trkpt lat="52.1646627830827" lon="7.91737751104675">
				<ele>79.5999984741211</ele>
				<time>2012-04-21T11:16:03</time>
			</trkpt>
			<trkpt lat="52.1647672635058" lon="7.91716502980135">
				<ele>80.1999969482422</ele>
				<time>2012-04-21T11:16:06</time>
			</trkpt>
			<trkpt lat="52.1649955027291" lon="7.91656077840171">
				<ele>80.5</ele>
				<time>2012-04-21T11:16:13</time>
			</trkpt>
			<trkpt lat="52.1651786473134" lon="7.91614847258471">
				<ele>77.5999984741211</ele>
				<time>2012-04-21T11:16:18</time>
			</trkpt>
			<trkpt lat="52.1652881149688" lon="7.91587304324649">
				<ele>79.9000015258789</ele>
				<time>2012-04-21T11:16:22</time>
			</trkpt>
			<trkpt lat="52.1655366803074" lon="7.91530081071697">
				<ele>84.1999969482422</ele>
				<time>2012-04-21T11:16:28</time>
			</trkpt>
			<trkpt lat="52.1656764066333" lon="7.91493695230029">
				<ele>85.1999969482422</ele>
				<time>2012-04-21T11:16:33</time>
			</trkpt>
			<trkpt lat="52.1657347446793" lon="7.91477836669228">
				<ele>85.3999938964844</ele>
				<time>2012-04-21T11:16:35</time>
			</trkpt>
			<trkpt lat="52.1660384629408" lon="7.91409649886928">
				<ele>84.1999969482422</ele>
				<time>2012-04-21T11:16:43</time>
			</trkpt>
			<trkpt lat="52.1662338451037" lon="7.91362962686262">
				<ele>81.6000061035156</ele>
				<time>2012-04-21T11:16:48</time>
			</trkpt>
			<trkpt lat="52.1664625872412" lon="7.91309838183961">
				<ele>78.6999969482422</ele>
				<time>2012-04-21T11:16:54</time>
			</trkpt>
			<trkpt lat="52.166543975521" lon="7.91289637797318">
				<ele>80.0999984741211</ele>
				<time>2012-04-21T11:16:56</time>
			</trkpt>
			<trkpt lat="52.1668598056325" lon="7.91214636527739">
				<ele>81.3999938964844</ele>
				<time>2012-04-21T11:17:04</time>
			</trkpt>
			<trkpt lat="52.1669610171133" lon="7.91190848686538">
				<ele>78.4000015258789</ele>
				<time>2012-04-21T11:17:07</time>
			</trkpt>
			<trkpt lat="52.1672714828068" lon="7.91167018935821">
				<ele>74.0999984741211</ele>
				<time>2012-04-21T11:17:15</time>
			</trkpt>
			<trkpt lat="52.1673569363096" lon="7.91184042581163">
				<ele>74.5</ele>
				<time>2012-04-21T11:17:18</time>
			</trkpt>
			<trkpt lat="52.1675347583854" lon="7.91219799780092">
				<ele>79</ele>
				<time>2012-04-21T11:17:25</time>
			</trkpt>
			<trkpt lat="52.1676459862405" lon="7.91241047904632">
				<ele>80.9000015258789</ele>
				<time>2012-04-21T11:17:29</time>
			</trkpt>
			<trkpt lat="52.1677321522051" lon="7.91255984456084">
				<ele>83.6000061035156</ele>
				<time>2012-04-21T11:17:32</time>
			</trkpt>
			<trkpt lat="52.1678623650709" lon="7.91274600663028">
				<ele>85.6999969482422</ele>
				<time>2012-04-21T11:17:38</time>
			</trkpt>
			<trkpt lat="52.167986920152" lon="7.9129260499104">
				<ele>89.5</ele>
				<time>2012-04-21T11:17:44</time>
			</trkpt>
			<trkpt lat="52.1681514150018" lon="7.9132558778002">
				<ele>98.5</ele>
				<time>2012-04-21T11:17:50</time>
			</trkpt>
			<trkpt lat="52.168179871563" lon="7.91328990832708">
				<ele>98.8000030517578</ele>
				<time>2012-04-21T11:17:51</time>
			</trkpt>
			<trkpt lat="52.1684269700685" lon="7.91365041398249">
				<ele>100.199996948242</ele>
				<time>2012-04-21T11:18:00</time>
			</trkpt>
			<trkpt lat="52.1685270919019" lon="7.91382299736879">
				<ele>107.399993896484</ele>
				<time>2012-04-21T11:18:05</time>
			</trkpt>
			<trkpt lat="52.1686688717941" lon="7.91409356520317">
				<ele>117.800003051758</ele>
				<time>2012-04-21T11:18:09</time>
			</trkpt>
			<trkpt lat="52.1688023116925" lon="7.91427972727261">
				<ele>114.800003051758</ele>
				<time>2012-04-21T11:18:13</time>
			</trkpt>
			<trkpt lat="52.1689914912471" lon="7.91456521489463">
				<ele>110.899993896484</ele>
				<time>2012-04-21T11:18:19</time>
			</trkpt>
			<trkpt lat="52.1690853685626" lon="7.91479906999312">
				<ele>110.5</ele>
				<time>2012-04-21T11:18:24</time>
			</trkpt>
			<trkpt lat="52.1691464726368" lon="7.9150278959497">
				<ele>108</ele>
				<time>2012-04-21T11:18:28</time>
			</trkpt>
			<trkpt lat="52.1692045592257" lon="7.91517080739878">
				<ele>115.600006103516</ele>
				<time>2012-04-21T11:18:32</time>
			</trkpt>
			<trkpt lat="52.169202715207" lon="7.91537054815135">
				<ele>116.699996948242</ele>
				<time>2012-04-21T11:18:36</time>
			</trkpt>
			<trkpt lat="52.169371610556" lon="7.91580422782145">
				<ele>120.399993896484</ele>
				<time>2012-04-21T11:18:45</time>
			</trkpt>
			<trkpt lat="52.1693879971767" lon="7.91584546678505">
				<ele>121.100006103516</ele>
				<time>2012-04-21T11:18:46</time>
			</trkpt>
			<trkpt lat="52.1696391609052" lon="7.91630035267017">
				<ele>116.300003051758</ele>
				<time>2012-04-21T11:18:54</time>
			</trkpt>
			<trkpt lat="52.1697407914811" lon="7.91645223275564">
				<ele>115.899993896484</ele>
				<time>2012-04-21T11:19:00</time>
			</trkpt>
			<trkpt lat="52.1698560845593" lon="7.91665976867817">
				<ele>118.800003051758</ele>
				<time>2012-04-21T11:19:05</time>
			</trkpt>
			<trkpt lat="52.1699672285953" lon="7.91687820107482">
				<ele>120.699996948242</ele>
				<time>2012-04-21T11:19:09</time>
			</trkpt>
			<trkpt lat="52.1701395605245" lon="7.91709646583341">
				<ele>117.199996948242</ele>
				<time>2012-04-21T11:19:14</time>
			</trkpt>
			<trkpt lat="52.1703025885412" lon="7.91725840420268">
				<ele>114.100006103516</ele>
				<time>2012-04-21T11:19:18</time>
			</trkpt>
			<trkpt lat="52.1704430692384" lon="7.91735680774592">
				<ele>113.800003051758</ele>
				<time>2012-04-21T11:19:21</time>
			</trkpt>
			<trkpt lat="52.1706840489546" lon="7.91764472611986">
				<ele>111.300003051758</ele>
				<time>2012-04-21T11:19:28</time>
			</trkpt>
			<trkpt lat="52.1709029842654" lon="7.9177685268297">
				<ele>120.199996948242</ele>
				<time>2012-04-21T11:19:35</time>
			</trkpt>
			<trkpt lat="52.1709560417125" lon="7.91782728397093">
				<ele>122.699996948242</ele>
				<time>2012-04-21T11:19:36</time>
			</trkpt>
			<trkpt lat="52.1712233406046" lon="7.91805678047977">
				<ele>133.100006103516</ele>
				<time>2012-04-21T11:19:45</time>
			</trkpt>
			<trkpt lat="52.1712862048784" lon="7.91805862449847">
				<ele>135.899993896484</ele>
				<time>2012-04-21T11:19:48</time>
			</trkpt>
			<trkpt lat="52.1714862809071" lon="7.91826808825873">
				<ele>134.199996948242</ele>
				<time>2012-04-21T11:19:54</time>
			</trkpt>
			<trkpt lat="52.1717058029512" lon="7.91845466942333">
				<ele>134.800003051758</ele>
				<time>2012-04-21T11:19:59</time>
			</trkpt>
			<trkpt lat="52.1718742372954" lon="7.91849750094853">
				<ele>128.199996948242</ele>
				<time>2012-04-21T11:20:05</time>
			</trkpt>
			<trkpt lat="52.1719749039525" lon="7.91857872159026">
				<ele>126.300003051758</ele>
				<time>2012-04-21T11:20:09</time>
			</trkpt>
			<trkpt lat="52.1721589286366" lon="7.91878432967506">
				<ele>130.600006103516</ele>
				<time>2012-04-21T11:20:14</time>
			</trkpt>
			<trkpt lat="52.1723248065004" lon="7.91897803545736">
				<ele>132.5</ele>
				<time>2012-04-21T11:20:19</time>
			</trkpt>
			<trkpt lat="52.1724147443214" lon="7.91908959858857">
				<ele>135.199996948242</ele>
				<time>2012-04-21T11:20:22</time>
			</trkpt>
			<trkpt lat="52.1725599607939" lon="7.91928774677955">
				<ele>134.300003051758</ele>
				<time>2012-04-21T11:20:27</time>
			</trkpt>
			<trkpt lat="52.1727037942523" lon="7.91947307065867">
				<ele>138.399993896484</ele>
				<time>2012-04-21T11:20:32</time>
			</trkpt>
			<trkpt lat="52.1728801075855" lon="7.91964557022594">
				<ele>139.5</ele>
				<time>2012-04-21T11:20:38</time>
			</trkpt>
			<trkpt lat="52.1730899904409" lon="7.91986115277551">
				<ele>140</ele>
				<time>2012-04-21T11:20:44</time>
			</trkpt>
			<trkpt lat="52.1732404456028" lon="7.92002820410572">
				<ele>140.100006103516</ele>
				<time>2012-04-21T11:20:48</time>
			</trkpt>
			<trkpt lat="52.1733425371835" lon="7.92033405975245">
				<ele>143.600006103516</ele>
				<time>2012-04-21T11:20:53</time>
			</trkpt>
			<trkpt lat="52.1733513381818" lon="7.92055098340653">
				<ele>140.899993896484</ele>
				<time>2012-04-21T11:20:56</time>
			</trkpt>
			<trkpt lat="52.1733625699321" lon="7.92088408023857">
				<ele>146.399993896484</ele>
				<time>2012-04-21T11:21:02</time>
			</trkpt>
			<trkpt lat="52.1733722091207" lon="7.92126000859581">
				<ele>157.399993896484</ele>
				<time>2012-04-21T11:21:10</time>
			</trkpt>
			<trkpt lat="52.173357205514" lon="7.92136059143387">
				<ele>159.199996948242</ele>
				<time>2012-04-21T11:21:13</time>
			</trkpt>
			<trkpt lat="52.1734147053698" lon="7.92179527693234">
				<ele>159.300003051758</ele>
				<time>2012-04-21T11:21:20</time>
			</trkpt>
			<trkpt lat="52.1733854106182" lon="7.92193173431598">
				<ele>169.100006103516</ele>
				<time>2012-04-21T11:21:24</time>
			</trkpt>
			<trkpt lat="52.1733470215017" lon="7.92200515978776">
				<ele>164.199996948242</ele>
				<time>2012-04-21T11:21:28</time>
			</trkpt>
			<trkpt lat="52.1733261086533" lon="7.92217455805086">
				<ele>158.300003051758</ele>
				<time>2012-04-21T11:21:33</time>
			</trkpt>
			<trkpt lat="52.1733968938255" lon="7.92252919637405">
				<ele>158.600006103516</ele>
				<time>2012-04-21T11:21:38</time>
			</trkpt>
			<trkpt lat="52.1734304633477" lon="7.92272466235601">
				<ele>163.899993896484</ele>
				<time>2012-04-21T11:21:41</time>
			</trkpt>
			<trkpt lat="52.1734397672603" lon="7.92308013886951">
				<ele>163.100006103516</ele>
				<time>2012-04-21T11:21:49</time>
			</trkpt>
			<trkpt lat="52.1734373365083" lon="7.92321466841542">
				<ele>168.300003051758</ele>
				<time>2012-04-21T11:21:52</time>
			</trkpt>
			<trkpt lat="52.1734408149982" lon="7.92343243025981">
				<ele>171.5</ele>
				<time>2012-04-21T11:21:56</time>
			</trkpt>
			<trkpt lat="52.1734320559093" lon="7.92384993285679">
				<ele>182.800003051758</ele>
				<time>2012-04-21T11:22:03</time>
			</trkpt>
			<trkpt lat="52.173395385083" lon="7.92400399223708">
				<ele>196</ele>
				<time>2012-04-21T11:22:08</time>
			</trkpt>
			<trkpt lat="52.1733952593544" lon="7.92408479378365">
				<ele>200.300003051758</ele>
				<time>2012-04-21T11:22:12</time>
			</trkpt>
			<trkpt lat="52.1734581236282" lon="7.92440171354257">
				<ele>200.199996948242</ele>
				<time>2012-04-21T11:22:18</time>
			</trkpt>
			<trkpt lat="52.1735623106846" lon="7.92464269325875">
				<ele>195.199996948242</ele>
				<time>2012-04-21T11:22:24</time>
			</trkpt>
			<trkpt lat="52.1736220736542" lon="7.92487897910916">
				<ele>189.399993896484</ele>
				<time>2012-04-21T11:22:28</time>
			</trkpt>
			<trkpt lat="52.1737142326796" lon="7.92534174398326">
				<ele>176.100006103516</ele>
				<time>2012-04-21T11:22:35</time>
			</trkpt>
			<trkpt lat="52.1737717744449" lon="7.92557459325336">
				<ele>176</ele>
				<time>2012-04-21T11:22:38</time>
			</trkpt>
			<trkpt lat="52.1738445712739" lon="7.92598404922329">
				<ele>174.800003051758</ele>
				<time>2012-04-21T11:22:42</time>
			</trkpt>
			<trkpt lat="52.1743023489156" lon="7.92727075517916">
				<ele>169.5</ele>
				<time>2012-04-21T11:22:51</time>
			</trkpt>
			<trkpt lat="52.1745848190525" lon="7.92808799073838">
				<ele>168.899993896484</ele>
				<time>2012-04-21T11:22:56</time>
			</trkpt>
			<trkpt lat="52.1748653194422" lon="7.92884152383351">
				<ele>166.5</ele>
				<time>2012-04-21T11:23:01</time>
			</trkpt>
			<trkpt lat="52.1749837138245" lon="7.92956002057337">
				<ele>162.699996948242</ele>
				<time>2012-04-21T11:23:06</time>
			</trkpt>
			<trkpt lat="52.1750340890625" lon="7.9299969691857">
				<ele>163</ele>
				<time>2012-04-21T11:23:09</time>
			</trkpt>
			<trkpt lat="52.1750596957767" lon="7.93048873544478">
				<ele>161.399993896484</ele>
				<time>2012-04-21T11:23:13</time>
			</trkpt>
			<trkpt lat="52.1749719372505" lon="7.93134016916894">
				<ele>157</ele>
				<time>2012-04-21T11:23:20</time>
			</trkpt>
			<trkpt lat="52.1749676205704" lon="7.93173344806575">
				<ele>156.100006103516</ele>
				<time>2012-04-21T11:23:23</time>
			</trkpt>
			<trkpt lat="52.174989120152" lon="7.93266333640361">
				<ele>153.800003051758</ele>
				<time>2012-04-21T11:23:30</time>
			</trkpt>
			<trkpt lat="52.1749608312288" lon="7.93342516758287">
				<ele>149.899993896484</ele>
				<time>2012-04-21T11:23:35</time>
			</trkpt>
			<trkpt lat="52.1748006111497" lon="7.93412564323091">
				<ele>145.300003051758</ele>
				<time>2012-04-21T11:23:40</time>
			</trkpt>
			<trkpt lat="52.1746227890739" lon="7.93483039364958">
				<ele>146.399993896484</ele>
				<time>2012-04-21T11:23:45</time>
			</trkpt>
			<trkpt lat="52.1744873794282" lon="7.93568165973568">
				<ele>147.100006103516</ele>
				<time>2012-04-21T11:23:51</time>
			</trkpt>
			<trkpt lat="52.1744305501247" lon="7.93603847735369">
				<ele>146.5</ele>
				<time>2012-04-21T11:23:54</time>
			</trkpt>
			<trkpt lat="52.1743192803601" lon="7.93674632907653">
				<ele>147.899993896484</ele>
				<time>2012-04-21T11:24:00</time>
			</trkpt>
			<trkpt lat="52.1742420411223" lon="7.93712058105314">
				<ele>146.800003051758</ele>
				<time>2012-04-21T11:24:03</time>
			</trkpt>
			<trkpt lat="52.1741157258415" lon="7.93795365840936">
				<ele>146.899993896484</ele>
				<time>2012-04-21T11:24:10</time>
			</trkpt>
			<trkpt lat="52.1740187891314" lon="7.9383158404454">
				<ele>142.800003051758</ele>
				<time>2012-04-21T11:24:13</time>
			</trkpt>
			<trkpt lat="52.1737020370105" lon="7.93891556561733">
				<ele>145.199996948242</ele>
				<time>2012-04-21T11:24:20</time>
			</trkpt>
			<trkpt lat="52.1735464269781" lon="7.93923256919527">
				<ele>146.800003051758</ele>
				<time>2012-04-21T11:24:25</time>
			</trkpt>
			<trkpt lat="52.1734895976746" lon="7.93943759054685">
				<ele>150.199996948242</ele>
				<time>2012-04-21T11:24:28</time>
			</trkpt>
			<trkpt lat="52.1733567445093" lon="7.93979792856419">
				<ele>151.100006103516</ele>
				<time>2012-04-21T11:24:35</time>
			</trkpt>
			<trkpt lat="52.1733271144816" lon="7.93989985250676">
				<ele>153.699996948242</ele>
				<time>2012-04-21T11:24:37</time>
			</trkpt>
			<trkpt lat="52.1732220473254" lon="7.94041223824764">
				<ele>155.199996948242</ele>
				<time>2012-04-21T11:24:45</time>
			</trkpt>
			<trkpt lat="52.1731410781407" lon="7.94087994844461">
				<ele>150.699996948242</ele>
				<time>2012-04-21T11:24:50</time>
			</trkpt>
			<trkpt lat="52.1730477875584" lon="7.94140549377347">
				<ele>145.699996948242</ele>
				<time>2012-04-21T11:24:54</time>
			</trkpt>
			<trkpt lat="52.1729733562583" lon="7.94249488972867">
				<ele>141.399993896484</ele>
				<time>2012-04-21T11:25:00</time>
			</trkpt>
			<trkpt lat="52.1729946462923" lon="7.94337071479107">
				<ele>139.300003051758</ele>
				<time>2012-04-21T11:25:05</time>
			</trkpt>
			<trkpt lat="52.1731862146893" lon="7.94398594648386">
				<ele>135</ele>
				<time>2012-04-21T11:25:10</time>
			</trkpt>
			<trkpt lat="52.1736612590516" lon="7.94453194365645">
				<ele>133.100006103516</ele>
				<time>2012-04-21T11:25:15</time>
			</trkpt>
			<trkpt lat="52.1742014308015" lon="7.9449628572985">
				<ele>132.399993896484</ele>
				<time>2012-04-21T11:25:20</time>
			</trkpt>
			<trkpt lat="52.1748421015704" lon="7.94538337738062">
				<ele>128.600006103516</ele>
				<time>2012-04-21T11:25:26</time>
			</trkpt>
			<trkpt lat="52.1752004698405" lon="7.94560709037627">
				<ele>123.699996948242</ele>
				<time>2012-04-21T11:25:30</time>
			</trkpt>
			<trkpt lat="52.1753225522602" lon="7.94572586194421">
				<ele>119.800003051758</ele>
				<time>2012-04-21T11:25:32</time>
			</trkpt>
			<trkpt lat="52.1751676965991" lon="7.94645089656855">
				<ele>121.899993896484</ele>
				<time>2012-04-21T11:25:40</time>
			</trkpt>
			<trkpt lat="52.1750545828158" lon="7.9467483703121">
				<ele>121.399993896484</ele>
				<time>2012-04-21T11:25:44</time>
			</trkpt>
			<trkpt lat="52.1749117970952" lon="7.94713863172377">
				<ele>120.5</ele>
				<time>2012-04-21T11:25:50</time>
			</trkpt>
			<trkpt lat="52.174816075761" lon="7.94734440744663">
				<ele>122.699996948242</ele>
				<time>2012-04-21T11:25:53</time>
			</trkpt>
			<trkpt lat="52.1746499045307" lon="7.9478882253244">
				<ele>128.199996948242</ele>
				<time>2012-04-21T11:26:01</time>
			</trkpt>
			<trkpt lat="52.1745012095684" lon="7.9481958411708">
				<ele>127.600006103516</ele>
				<time>2012-04-21T11:26:06</time>
			</trkpt>
			<trkpt lat="52.1743852040285" lon="7.94849901460851">
				<ele>128.300003051758</ele>
				<time>2012-04-21T11:26:10</time>
			</trkpt>
			<trkpt lat="52.1742869262138" lon="7.94885214418913">
				<ele>132.300003051758</ele>
				<time>2012-04-21T11:26:15</time>
			</trkpt>
			<trkpt lat="52.1741718845928" lon="7.94929378666724">
				<ele>135.100006103516</ele>
				<time>2012-04-21T11:26:22</time>
			</trkpt>
			<trkpt lat="52.1741052065531" lon="7.94956804253901">
				<ele>136.300003051758</ele>
				<time>2012-04-21T11:26:27</time>
			</trkpt>
			<trkpt lat="52.1740835393334" lon="7.94981413521613">
				<ele>138</ele>
				<time>2012-04-21T11:26:31</time>
			</trkpt>
			<trkpt lat="52.1740647638702" lon="7.95015712269391">
				<ele>136.100006103516</ele>
				<time>2012-04-21T11:26:37</time>
			</trkpt>
			<trkpt lat="52.1740423422793" lon="7.95038645156468">
				<ele>135.699996948242</ele>
				<time>2012-04-21T11:26:41</time>
			</trkpt>
			<trkpt lat="52.1740155620986" lon="7.95062332414831">
				<ele>137.300003051758</ele>
				<time>2012-04-21T11:26:45</time>
			</trkpt>
			<trkpt lat="52.1739742812255" lon="7.95094820671524">
				<ele>142.600006103516</ele>
				<time>2012-04-21T11:26:51</time>
			</trkpt>
			<trkpt lat="52.1739278873915" lon="7.95120905154194">
				<ele>141.5</ele>
				<time>2012-04-21T11:26:56</time>
			</trkpt>
			<trkpt lat="52.1738809487337" lon="7.95148531907047">
				<ele>139.5</ele>
				<time>2012-04-21T11:27:01</time>
			</trkpt>
			<trkpt lat="52.1738738660255" lon="7.95176116750385">
				<ele>139.100006103516</ele>
				<time>2012-04-21T11:27:06</time>
			</trkpt>
			<trkpt lat="52.173937191304" lon="7.95204942115392">
				<ele>141.199996948242</ele>
				<time>2012-04-21T11:27:11</time>
			</trkpt>
			<trkpt lat="52.1740009356776" lon="7.95233272948112">
				<ele>137.899993896484</ele>
				<time>2012-04-21T11:27:16</time>
			</trkpt>
			<trkpt lat="52.1739942720646" lon="7.95266448520865">
				<ele>137.5</ele>
				<time>2012-04-21T11:27:22</time>
			</trkpt>
			<trkpt lat="52.1739678690696" lon="7.95287545771147">
				<ele>136.100006103516</ele>
				<time>2012-04-21T11:27:26</time>
			</trkpt>
			<trkpt lat="52.1739182482028" lon="7.9531054571345">
				<ele>141.600006103516</ele>
				<time>2012-04-21T11:27:31</time>
			</trkpt>
			<trkpt lat="52.1738812840098" lon="7.95333629474784">
				<ele>140.899993896484</ele>
				<time>2012-04-21T11:27:36</time>
			</trkpt>
			<trkpt lat="52.1738679567838" lon="7.95352589339759">
				<ele>142.5</ele>
				<time>2012-04-21T11:27:39</time>
			</trkpt>
			<trkpt lat="52.1738251252586" lon="7.95394582674648">
				<ele>144</ele>
				<time>2012-04-21T11:27:46</time>
			</trkpt>
			<trkpt lat="52.1737117600182" lon="7.95421605930473">
				<ele>145.5</ele>
				<time>2012-04-21T11:27:51</time>
			</trkpt>
			<trkpt lat="52.1734643262366" lon="7.95423089527334">
				<ele>146.399993896484</ele>
				<time>2012-04-21T11:27:56</time>
			</trkpt>
			<trkpt lat="52.1732892282793" lon="7.95428160578753">
				<ele>148.399993896484</ele>
				<time>2012-04-21T11:28:01</time>
			</trkpt>
			<trkpt lat="52.1730899904409" lon="7.95436089859153">
				<ele>147.899993896484</ele>
				<time>2012-04-21T11:28:06</time>
			</trkpt>
			<trkpt lat="52.1729007270673" lon="7.95447832905497">
				<ele>149</ele>
				<time>2012-04-21T11:28:11</time>
			</trkpt>
			<trkpt lat="52.1726934426019" lon="7.95462610200788">
				<ele>149</ele>
				<time>2012-04-21T11:28:16</time>
			</trkpt>
			<trkpt lat="52.1724952944109" lon="7.95475074090804">
				<ele>150.399993896484</ele>
				<time>2012-04-21T11:28:21</time>
			</trkpt>
			<trkpt lat="52.1723087970653" lon="7.95487680473174">
				<ele>151.100006103516</ele>
				<time>2012-04-21T11:28:26</time>
			</trkpt>
			<trkpt lat="52.1721297177041" lon="7.95499758795645">
				<ele>153.399993896484</ele>
				<time>2012-04-21T11:28:31</time>
			</trkpt>
			<trkpt lat="52.17194309463" lon="7.95511133038248">
				<ele>155.300003051758</ele>
				<time>2012-04-21T11:28:36</time>
			</trkpt>
			<trkpt lat="52.1717425995061" lon="7.9551605321541">
				<ele>157.199996948242</ele>
				<time>2012-04-21T11:28:41</time>
			</trkpt>
			<trkpt lat="52.1715631429592" lon="7.95516321436312">
				<ele>159</ele>
				<time>2012-04-21T11:28:46</time>
			</trkpt>
			<trkpt lat="52.1714206925148" lon="7.95520788990702">
				<ele>158.5</ele>
				<time>2012-04-21T11:28:50</time>
			</trkpt>
			<trkpt lat="52.1713561099508" lon="7.95571608469631">
				<ele>156.899993896484</ele>
				<time>2012-04-21T11:28:56</time>
			</trkpt>
			<trkpt lat="52.1713231271619" lon="7.95630390756573">
				<ele>156.399993896484</ele>
				<time>2012-04-21T11:29:01</time>
			</trkpt>
			<trkpt lat="52.1712977719048" lon="7.95694797300543">
				<ele>155.699996948242</ele>
				<time>2012-04-21T11:29:06</time>
			</trkpt>
			<trkpt lat="52.1712603886166" lon="7.95758198016133">
				<ele>153.899993896484</ele>
				<time>2012-04-21T11:29:11</time>
			</trkpt>
			<trkpt lat="52.1711243503282" lon="7.95831179247048">
				<ele>152.300003051758</ele>
				<time>2012-04-21T11:29:17</time>
			</trkpt>
			<trkpt lat="52.1710035251939" lon="7.95885385014858">
				<ele>150.899993896484</ele>
				<time>2012-04-21T11:29:21</time>
			</trkpt>
			<trkpt lat="52.1706208494046" lon="7.95931963250782">
				<ele>145.899993896484</ele>
				<time>2012-04-21T11:29:26</time>
			</trkpt>
			<trkpt lat="52.1703126049155" lon="7.9597212933078">
				<ele>146.100006103516</ele>
				<time>2012-04-21T11:29:30</time>
			</trkpt>
			<trkpt lat="52.1701360401252" lon="7.96030651778724">
				<ele>147.899993896484</ele>
				<time>2012-04-21T11:29:34</time>
			</trkpt>
			<trkpt lat="52.1697569685543" lon="7.96150445938852">
				<ele>147.600006103516</ele>
				<time>2012-04-21T11:29:42</time>
			</trkpt>
			<trkpt lat="52.1695656097049" lon="7.96208364889767">
				<ele>147.300003051758</ele>
				<time>2012-04-21T11:29:46</time>
			</trkpt>
			<trkpt lat="52.1693813335636" lon="7.96280055307593">
				<ele>150.300003051758</ele>
				<time>2012-04-21T11:29:51</time>
			</trkpt>
			<trkpt lat="52.1692468878368" lon="7.96318335459378">
				<ele>147.5</ele>
				<time>2012-04-21T11:29:54</time>
			</trkpt>
			<trkpt lat="52.1689633280525" lon="7.96404174529758">
				<ele>148.600006103516</ele>
				<time>2012-04-21T11:30:02</time>
			</trkpt>
			<trkpt lat="52.1688026888782" lon="7.96461129561808">
				<ele>147.5</ele>
				<time>2012-04-21T11:30:07</time>
			</trkpt>
			<trkpt lat="52.1686596517006" lon="7.96511387453225">
				<ele>147.699996948242</ele>
				<time>2012-04-21T11:30:11</time>
			</trkpt>
			<trkpt lat="52.1685205959269" lon="7.96568501741436">
				<ele>146.800003051758</ele>
				<time>2012-04-21T11:30:15</time>
			</trkpt>
			<trkpt lat="52.16835413133" lon="7.96632799320665">
				<ele>145.399993896484</ele>
				<time>2012-04-21T11:30:20</time>
			</trkpt>
			<trkpt lat="52.1681527980158" lon="7.96728671529141">
				<ele>136.899993896484</ele>
				<time>2012-04-21T11:30:26</time>
			</trkpt>
			<trkpt lat="52.1679969784358" lon="7.96822582372275">
				<ele>136.100006103516</ele>
				<time>2012-04-21T11:30:31</time>
			</trkpt>
			<trkpt lat="52.1679044003153" lon="7.96917926520851">
				<ele>133.300003051758</ele>
				<time>2012-04-21T11:30:36</time>
			</trkpt>
			<trkpt lat="52.1680306736866" lon="7.96997303143886">
				<ele>130.399993896484</ele>
				<time>2012-04-21T11:30:41</time>
			</trkpt>
			<trkpt lat="52.16817320795" lon="7.97039589845386">
				<ele>131.5</ele>
				<time>2012-04-21T11:30:44</time>
			</trkpt>
			<trkpt lat="52.1684970008695" lon="7.97123987228421">
				<ele>127.800003051758</ele>
				<time>2012-04-21T11:30:50</time>
			</trkpt>
			<trkpt lat="52.1687861765289" lon="7.9719618894234">
				<ele>126.100006103516</ele>
				<time>2012-04-21T11:30:55</time>
			</trkpt>
			<trkpt lat="52.1688980330268" lon="7.9724354669526">
				<ele>126.800003051758</ele>
				<time>2012-04-21T11:30:58</time>
			</trkpt>
			<trkpt lat="52.1689549042398" lon="7.97358814627675">
				<ele>120.600006103516</ele>
				<time>2012-04-21T11:31:06</time>
			</trkpt>
			<trkpt lat="52.1686240286121" lon="7.97383608297256">
				<ele>120.600006103516</ele>
				<time>2012-04-21T11:31:11</time>
			</trkpt>
			<trkpt lat="52.1684939833844" lon="7.97392241657523">
				<ele>122.899993896484</ele>
				<time>2012-04-21T11:31:13</time>
			</trkpt>
			<trkpt lat="52.1680110181236" lon="7.97429666855184">
				<ele>127.399993896484</ele>
				<time>2012-04-21T11:31:21</time>
			</trkpt>
			<trkpt lat="52.1677512210348" lon="7.97459003516284">
				<ele>129.600006103516</ele>
				<time>2012-04-21T11:31:26</time>
			</trkpt>
			<trkpt lat="52.1675782604629" lon="7.97484333627669">
				<ele>130.899993896484</ele>
				<time>2012-04-21T11:31:30</time>
			</trkpt>
			<trkpt lat="52.1673872368896" lon="7.97518582084028">
				<ele>129.300003051758</ele>
				<time>2012-04-21T11:31:35</time>
			</trkpt>
			<trkpt lat="52.1671372466275" lon="7.97558647581188">
				<ele>132.199996948242</ele>
				<time>2012-04-21T11:31:42</time>
			</trkpt>
			<trkpt lat="52.1669193171451" lon="7.97602912411836">
				<ele>130.699996948242</ele>
				<time>2012-04-21T11:31:48</time>
			</trkpt>
			<trkpt lat="52.1667975700015" lon="7.9764988459721">
				<ele>132.5</ele>
				<time>2012-04-21T11:31:53</time>
			</trkpt>
			<trkpt lat="52.1667349152753" lon="7.97664167360214">
				<ele>132</ele>
				<time>2012-04-21T11:31:55</time>
			</trkpt>
			<trkpt lat="52.1665079333374" lon="7.97695331276206">
				<ele>132.100006103516</ele>
				<time>2012-04-21T11:32:01</time>
			</trkpt>
			<trkpt lat="52.166238580879" lon="7.97728599049894">
				<ele>131.300003051758</ele>
				<time>2012-04-21T11:32:08</time>
			</trkpt>
			<trkpt lat="52.1660757624099" lon="7.97747575678674">
				<ele>128.899993896484</ele>
				<time>2012-04-21T11:32:11</time>
			</trkpt>
			<trkpt lat="52.1658600122222" lon="7.97760534100977">
				<ele>135.399993896484</ele>
				<time>2012-04-21T11:32:18</time>
			</trkpt>
			<trkpt lat="52.1657778695712" lon="7.97762889415769">
				<ele>134.800003051758</ele>
				<time>2012-04-21T11:32:21</time>
			</trkpt>
			<trkpt lat="52.1654992132002" lon="7.97772411257772">
				<ele>133.300003051758</ele>
				<time>2012-04-21T11:32:28</time>
			</trkpt>
			<trkpt lat="52.1653695032486" lon="7.97787540592996">
				<ele>136.399993896484</ele>
				<time>2012-04-21T11:32:32</time>
			</trkpt>
			<trkpt lat="52.1651636437067" lon="7.97797707841543">
				<ele>138</ele>
				<time>2012-04-21T11:32:37</time>
			</trkpt>
			<trkpt lat="52.1650701016673" lon="7.97812225297836">
				<ele>138.100006103516</ele>
				<time>2012-04-21T11:32:42</time>
			</trkpt>
			<trkpt lat="52.1648913156727" lon="7.97836356797067">
				<ele>139.600006103516</ele>
				<time>2012-04-21T11:32:47</time>
			</trkpt>
			<trkpt lat="52.1647569537649" lon="7.97876422294227">
				<ele>143.899993896484</ele>
				<time>2012-04-21T11:32:53</time>
			</trkpt>
			<trkpt lat="52.1647548163795" lon="7.97887302004544">
				<ele>146.199996948242</ele>
				<time>2012-04-21T11:32:55</time>
			</trkpt>
			<trkpt lat="52.1646816842744" lon="7.97939915210752">
				<ele>148.100006103516</ele>
				<time>2012-04-21T11:33:03</time>
			</trkpt>
			<trkpt lat="52.1646670159438" lon="7.97967441380767">
				<ele>151.399993896484</ele>
				<time>2012-04-21T11:33:09</time>
			</trkpt>
			<trkpt lat="52.1646509226897" lon="7.97996962443737">
				<ele>153.600006103516</ele>
				<time>2012-04-21T11:33:14</time>
			</trkpt>
			<trkpt lat="52.1646376373732" lon="7.9802633263245">
				<ele>159.100006103516</ele>
				<time>2012-04-21T11:33:18</time>
			</trkpt>
			<trkpt lat="52.1646434208864" lon="7.98046080396323">
				<ele>155.5</ele>
				<time>2012-04-21T11:33:22</time>
			</trkpt>
			<trkpt lat="52.1646902757251" lon="7.98092633486537">
				<ele>156.5</ele>
				<time>2012-04-21T11:33:29</time>
			</trkpt>
			<trkpt lat="52.1647319756934" lon="7.98120344058422">
				<ele>158</ele>
				<time>2012-04-21T11:33:33</time>
			</trkpt>
			<trkpt lat="52.1646839054787" lon="7.9814240522757">
				<ele>153.800003051758</ele>
				<time>2012-04-21T11:33:37</time>
			</trkpt>
			<trkpt lat="52.16469245502" lon="7.98161691986768">
				<ele>154.699996948242</ele>
				<time>2012-04-21T11:33:41</time>
			</trkpt>
			<trkpt lat="52.1646660939345" lon="7.98205638305096">
				<ele>155.100006103516</ele>
				<time>2012-04-21T11:33:49</time>
			</trkpt>
			<trkpt lat="52.1646870906019" lon="7.98237078823893">
				<ele>153.600006103516</ele>
				<time>2012-04-21T11:33:54</time>
			</trkpt>
			<trkpt lat="52.1646961430573" lon="7.98286867328732">
				<ele>151.300003051758</ele>
				<time>2012-04-21T11:33:58</time>
			</trkpt>
			<trkpt lat="52.1647201991195" lon="7.98330327496676">
				<ele>150.699996948242</ele>
				<time>2012-04-21T11:34:02</time>
			</trkpt>
			<trkpt lat="52.1647407347822" lon="7.9838227015063">
				<ele>149.5</ele>
				<time>2012-04-21T11:34:08</time>
			</trkpt>
			<trkpt lat="52.1647409862393" lon="7.98445939087121">
				<ele>149.100006103516</ele>
				<time>2012-04-21T11:34:14</time>
			</trkpt>
			<trkpt lat="52.1647290839368" lon="7.98507579603045">
				<ele>149.300003051758</ele>
				<time>2012-04-21T11:34:20</time>
			</trkpt>
			<trkpt lat="52.1647423273438" lon="7.9852752015069">
				<ele>150.300003051758</ele>
				<time>2012-04-21T11:34:21</time>
			</trkpt>
			<trkpt lat="52.1647297963986" lon="7.98590996303408">
				<ele>154.899993896484</ele>
				<time>2012-04-21T11:34:28</time>
			</trkpt>
			<trkpt lat="52.1646865876877" lon="7.98637658358364">
				<ele>153.100006103516</ele>
				<time>2012-04-21T11:34:35</time>
			</trkpt>
			<trkpt lat="52.1646304289365" lon="7.98677338287978">
				<ele>152</ele>
				<time>2012-04-21T11:34:40</time>
			</trkpt>
			<trkpt lat="52.1646182332674" lon="7.9872367344871">
				<ele>150.100006103516</ele>
				<time>2012-04-21T11:34:45</time>
			</trkpt>
			<trkpt lat="52.1646100190023" lon="7.98747972586005">
				<ele>148.399993896484</ele>
				<time>2012-04-21T11:34:48</time>
			</trkpt>
			<trkpt lat="52.1646024752894" lon="7.98789865338056">
				<ele>151.100006103516</ele>
				<time>2012-04-21T11:34:54</time>
			</trkpt>
			<trkpt lat="52.1645403234774" lon="7.98846619204431">
				<ele>152.399993896484</ele>
				<time>2012-04-21T11:35:00</time>
			</trkpt>
			<trkpt lat="52.1644957317525" lon="7.98870306462793">
				<ele>152.600006103516</ele>
				<time>2012-04-21T11:35:03</time>
			</trkpt>
			<trkpt lat="52.1643908322343" lon="7.98922567629068">
				<ele>156.600006103516</ele>
				<time>2012-04-21T11:35:09</time>
			</trkpt>
			<trkpt lat="52.1642984217519" lon="7.98978064209967">
				<ele>158.5</ele>
				<time>2012-04-21T11:35:15</time>
			</trkpt>
			<trkpt lat="52.1642237809041" lon="7.99033208750932">
				<ele>157.800003051758</ele>
				<time>2012-04-21T11:35:20</time>
			</trkpt>
			<trkpt lat="52.1641924325863" lon="7.99102904275804">
				<ele>154.5</ele>
				<time>2012-04-21T11:35:24</time>
			</trkpt>
			<trkpt lat="52.164173321847" lon="7.99176103436201">
				<ele>153</ele>
				<time>2012-04-21T11:35:29</time>
			</trkpt>
			<trkpt lat="52.1641345136353" lon="7.99272981473058">
				<ele>149.5</ele>
				<time>2012-04-21T11:35:35</time>
			</trkpt>
			<trkpt lat="52.1641065599883" lon="7.99359449186175">
				<ele>150.699996948242</ele>
				<time>2012-04-21T11:35:40</time>
			</trkpt>
			<trkpt lat="52.164138956044" lon="7.99422020093351">
				<ele>149</ele>
				<time>2012-04-21T11:35:44</time>
			</trkpt>
			<trkpt lat="52.1643082704881" lon="7.99511228688806">
				<ele>146.699996948242</ele>
				<time>2012-04-21T11:35:50</time>
			</trkpt>
			<trkpt lat="52.1644845838213" lon="7.99579692073911">
				<ele>146.300003051758</ele>
				<time>2012-04-21T11:35:55</time>
			</trkpt>
			<trkpt lat="52.1645679837579" lon="7.99650343135744">
				<ele>142.300003051758</ele>
				<time>2012-04-21T11:36:00</time>
			</trkpt>
			<trkpt lat="52.1645700373241" lon="7.99714741297811">
				<ele>144</ele>
				<time>2012-04-21T11:36:06</time>
			</trkpt>
			<trkpt lat="52.1645887708777" lon="7.99778376706689">
				<ele>142.600006103516</ele>
				<time>2012-04-21T11:36:10</time>
			</trkpt>
			<trkpt lat="52.1645896509776" lon="7.99838148058206">
				<ele>141.800003051758</ele>
				<time>2012-04-21T11:36:15</time>
			</trkpt>
			<trkpt lat="52.1645534830654" lon="7.99884600565582">
				<ele>143.899993896484</ele>
				<time>2012-04-21T11:36:20</time>
			</trkpt>
			<trkpt lat="52.1645163512343" lon="7.99933056347817">
				<ele>145.199996948242</ele>
				<time>2012-04-21T11:36:23</time>
			</trkpt>
			<trkpt lat="52.164417696234" lon="8.00020487979799">
				<ele>147.100006103516</ele>
				<time>2012-04-21T11:36:30</time>
			</trkpt>
			<trkpt lat="52.1643324522787" lon="8.0008420720771">
				<ele>148.100006103516</ele>
				<time>2012-04-21T11:36:35</time>
			</trkpt>
			<trkpt lat="52.1642574342453" lon="8.00148840063065">
				<ele>146.800003051758</ele>
				<time>2012-04-21T11:36:41</time>
			</trkpt>
			<trkpt lat="52.1641066018978" lon="8.0021613836363">
				<ele>150.800003051758</ele>
				<time>2012-04-21T11:36:47</time>
			</trkpt>
			<trkpt lat="52.1639698930571" lon="8.0027845781371">
				<ele>152.600006103516</ele>
				<time>2012-04-21T11:36:51</time>
			</trkpt>
			<trkpt lat="52.1638069907689" lon="8.00335111097247">
				<ele>153.699996948242</ele>
				<time>2012-04-21T11:36:56</time>
			</trkpt>
			<trkpt lat="52.1636361675823" lon="8.00388579257578">
				<ele>152.100006103516</ele>
				<time>2012-04-21T11:37:01</time>
			</trkpt>
			<trkpt lat="52.1635432960951" lon="8.00429055467993">
				<ele>153.800003051758</ele>
				<time>2012-04-21T11:37:06</time>
			</trkpt>
			<trkpt lat="52.1634539450073" lon="8.00492171198875">
				<ele>154.800003051758</ele>
				<time>2012-04-21T11:37:11</time>
			</trkpt>
			<trkpt lat="52.1635064157212" lon="8.00529831089825">
				<ele>153.699996948242</ele>
				<time>2012-04-21T11:37:15</time>
			</trkpt>
			<trkpt lat="52.1637377562487" lon="8.00602158532292">
				<ele>150.199996948242</ele>
				<time>2012-04-21T11:37:21</time>
			</trkpt>
			<trkpt lat="52.1639083279783" lon="8.00694627688081">
				<ele>143</ele>
				<time>2012-04-21T11:37:27</time>
			</trkpt>
			<trkpt lat="52.1637642849723" lon="8.00775538199396">
				<ele>139.300003051758</ele>
				<time>2012-04-21T11:37:31</time>
			</trkpt>
			<trkpt lat="52.1637136582771" lon="8.00805411302299">
				<ele>134.899993896484</ele>
				<time>2012-04-21T11:37:34</time>
			</trkpt>
			<trkpt lat="52.1634785458931" lon="8.00921115093679">
				<ele>133.5</ele>
				<time>2012-04-21T11:37:41</time>
			</trkpt>
			<trkpt lat="52.1633465309182" lon="8.00976988860221">
				<ele>136.5</ele>
				<time>2012-04-21T11:37:46</time>
			</trkpt>
			<trkpt lat="52.1631072694922" lon="8.01070455462487">
				<ele>136.699996948242</ele>
				<time>2012-04-21T11:37:52</time>
			</trkpt>
			<trkpt lat="52.1629790682831" lon="8.01123512909562">
				<ele>137.800003051758</ele>
				<time>2012-04-21T11:37:56</time>
			</trkpt>
			<trkpt lat="52.1628671698758" lon="8.01176737994702">
				<ele>137.699996948242</ele>
				<time>2012-04-21T11:38:01</time>
			</trkpt>
			<trkpt lat="52.1626970591509" lon="8.01258729771526">
				<ele>138</ele>
				<time>2012-04-21T11:38:07</time>
			</trkpt>
			<trkpt lat="52.1626207838321" lon="8.0133379809633">
				<ele>140.100006103516</ele>
				<time>2012-04-21T11:38:13</time>
			</trkpt>
			<trkpt lat="52.1625462268034" lon="8.0138268973753">
				<ele>139.800003051758</ele>
				<time>2012-04-21T11:38:18</time>
			</trkpt>
			<trkpt lat="52.1624796744922" lon="8.01432067529113">
				<ele>140.5</ele>
				<time>2012-04-21T11:38:21</time>
			</trkpt>
			<trkpt lat="52.1623749007025" lon="8.01529188641162">
				<ele>139.399993896484</ele>
				<time>2012-04-21T11:38:28</time>
			</trkpt>
			<trkpt lat="52.1623225976267" lon="8.01586722024532">
				<ele>138.899993896484</ele>
				<time>2012-04-21T11:38:32</time>
			</trkpt>
			<trkpt lat="52.1622972423697" lon="8.01615404897185">
				<ele>137.100006103516</ele>
				<time>2012-04-21T11:38:34</time>
			</trkpt>
			<trkpt lat="52.162216189366" lon="8.01744779572637">
				<ele>134.5</ele>
				<time>2012-04-21T11:38:43</time>
			</trkpt>
			<trkpt lat="52.1621920913944" lon="8.01802975126358">
				<ele>137.699996948242</ele>
				<time>2012-04-21T11:38:47</time>
			</trkpt>
			<trkpt lat="52.162148924593" lon="8.01843476482482">
				<ele>137</ele>
				<time>2012-04-21T11:38:51</time>
			</trkpt>
			<trkpt lat="52.1620232798645" lon="8.01944059320541">
				<ele>132.100006103516</ele>
				<time>2012-04-21T11:38:58</time>
			</trkpt>
			<trkpt lat="52.1619674563894" lon="8.01987217739971">
				<ele>127.899993896484</ele>
				<time>2012-04-21T11:39:00</time>
			</trkpt>
			<trkpt lat="52.1620505210498" lon="8.02085118369015">
				<ele>127.300003051758</ele>
				<time>2012-04-21T11:39:07</time>
			</trkpt>
			<trkpt lat="52.1621549176538" lon="8.02160840482267">
				<ele>123.5</ele>
				<time>2012-04-21T11:39:12</time>
			</trkpt>
			<trkpt lat="52.162213507157" lon="8.02237476222964">
				<ele>120.300003051758</ele>
				<time>2012-04-21T11:39:18</time>
			</trkpt>
			<trkpt lat="52.1622331627199" lon="8.02267877385767">
				<ele>119.899993896484</ele>
				<time>2012-04-21T11:39:19</time>
			</trkpt>
			<trkpt lat="52.1621846315005" lon="8.02383463830503">
				<ele>123.600006103516</ele>
				<time>2012-04-21T11:39:28</time>
			</trkpt>
			<trkpt lat="52.1622831188628" lon="8.02409112454208">
				<ele>122.300003051758</ele>
				<time>2012-04-21T11:39:32</time>
			</trkpt>
			<trkpt lat="52.1626492823029" lon="8.02435331047329">
				<ele>123.199996948242</ele>
				<time>2012-04-21T11:39:38</time>
			</trkpt>
			<trkpt lat="52.1629623463863" lon="8.02463309840115">
				<ele>124</ele>
				<time>2012-04-21T11:39:43</time>
			</trkpt>
			<trkpt lat="52.1632333752254" lon="8.02488338202985">
				<ele>121.300003051758</ele>
				<time>2012-04-21T11:39:48</time>
			</trkpt>
			<trkpt lat="52.1634101076537" lon="8.02508915775272">
				<ele>121.300003051758</ele>
				<time>2012-04-21T11:39:52</time>
			</trkpt>
			<trkpt lat="52.1636951761806" lon="8.02522477694603">
				<ele>123.899993896484</ele>
				<time>2012-04-21T11:39:57</time>
			</trkpt>
			<trkpt lat="52.1639669174814" lon="8.02517297678443">
				<ele>123.600006103516</ele>
				<time>2012-04-21T11:40:03</time>
			</trkpt>
			<trkpt lat="52.1640922269338" lon="8.02507909946891">
				<ele>122.5</ele>
				<time>2012-04-21T11:40:07</time>
			</trkpt>
			<trkpt lat="52.1642570151502" lon="8.02496795543285">
				<ele>124.399993896484</ele>
				<time>2012-04-21T11:40:13</time>
			</trkpt>
			<trkpt lat="52.1643848391736" lon="8.02484264598044">
				<ele>125.899993896484</ele>
				<time>2012-04-21T11:40:18</time>
			</trkpt>
			<trkpt lat="52.1644282993415" lon="8.02481582389029">
				<ele>127.899993896484</ele>
				<time>2012-04-21T11:40:20</time>
			</trkpt>
			<trkpt lat="52.1646210412049" lon="8.02482646890732">
				<ele>128.100006103516</ele>
				<time>2012-04-21T11:40:28</time>
			</trkpt>
			<trkpt lat="52.1647264855468" lon="8.02487097681316">
				<ele>130.600006103516</ele>
				<time>2012-04-21T11:40:33</time>
			</trkpt>
			<trkpt lat="52.1648451313862" lon="8.0249672848806">
				<ele>131.199996948242</ele>
				<time>2012-04-21T11:40:38</time>
			</trkpt>
			<trkpt lat="52.1649496956283" lon="8.02510038950297">
				<ele>131.800003051758</ele>
				<time>2012-04-21T11:40:43</time>
			</trkpt>
			<trkpt lat="52.165018888239" lon="8.0252886470482">
				<ele>129.100006103516</ele>
				<time>2012-04-21T11:40:48</time>
			</trkpt>
			<trkpt lat="52.1650878293926" lon="8.02550699562582">
				<ele>133.100006103516</ele>
				<time>2012-04-21T11:40:53</time>
			</trkpt>
			<trkpt lat="52.1651528729612" lon="8.0256945826188">
				<ele>134.600006103516</ele>
				<time>2012-04-21T11:40:58</time>
			</trkpt>
			<trkpt lat="52.1651866101214" lon="8.02577052266153">
				<ele>133.699996948242</ele>
				<time>2012-04-21T11:41:00</time>
			</trkpt>
			<trkpt lat="52.1653922601157" lon="8.02603807301077">
				<ele>132</ele>
				<time>2012-04-21T11:41:08</time>
			</trkpt>
			<trkpt lat="52.1655523963758" lon="8.02611468360575">
				<ele>134.199996948242</ele>
				<time>2012-04-21T11:41:13</time>
			</trkpt>
			<trkpt lat="52.1657171007732" lon="8.02613563836368">
				<ele>133.5</ele>
				<time>2012-04-21T11:41:18</time>
			</trkpt>
			<trkpt lat="52.1658776980379" lon="8.02619967610391">
				<ele>135.199996948242</ele>
				<time>2012-04-21T11:41:23</time>
			</trkpt>
			<trkpt lat="52.1660317155087" lon="8.02628793754431">
				<ele>136.600006103516</ele>
				<time>2012-04-21T11:41:28</time>
			</trkpt>
			<trkpt lat="52.1661633952075" lon="8.02636211738738">
				<ele>136.699996948242</ele>
				<time>2012-04-21T11:41:33</time>
			</trkpt>
			<trkpt lat="52.1662884951124" lon="8.02644325421008">
				<ele>145</ele>
				<time>2012-04-21T11:41:38</time>
			</trkpt>
			<trkpt lat="52.1664086077848" lon="8.02652003244313">
				<ele>147.199996948242</ele>
				<time>2012-04-21T11:41:43</time>
			</trkpt>
			<trkpt lat="52.1665252419674" lon="8.02661089227351">
				<ele>150.199996948242</ele>
				<time>2012-04-21T11:41:48</time>
			</trkpt>
			<trkpt lat="52.1666319855043" lon="8.02669378929588">
				<ele>151.600006103516</ele>
				<time>2012-04-21T11:41:52</time>
			</trkpt>
			<trkpt lat="52.1668081311995" lon="8.02676637657734">
				<ele>147.800003051758</ele>
				<time>2012-04-21T11:41:58</time>
			</trkpt>
			<trkpt lat="52.16690330771" lon="8.02681901492926">
				<ele>147.199996948242</ele>
				<time>2012-04-21T11:42:02</time>
			</trkpt>
			<trkpt lat="52.1670470154399" lon="8.02681775764378">
				<ele>151.899993896484</ele>
				<time>2012-04-21T11:42:08</time>
			</trkpt>
			<trkpt lat="52.1671548905337" lon="8.02669261582943">
				<ele>154.699996948242</ele>
				<time>2012-04-21T11:42:13</time>
			</trkpt>
			<trkpt lat="52.1672523301581" lon="8.02647762001308">
				<ele>154.600006103516</ele>
				<time>2012-04-21T11:42:19</time>
			</trkpt>
			<trkpt lat="52.1673856024185" lon="8.02620101720842">
				<ele>155.800003051758</ele>
				<time>2012-04-21T11:42:25</time>
			</trkpt>
			<trkpt lat="52.1674109995851" lon="8.02614653483781">
				<ele>155</ele>
				<time>2012-04-21T11:42:26</time>
			</trkpt>
			<trkpt lat="52.1675429726505" lon="8.02585735917839">
				<ele>154.100006103516</ele>
				<time>2012-04-21T11:42:32</time>
			</trkpt>
			<trkpt lat="52.1676735627019" lon="8.02564051934334">
				<ele>152.600006103516</ele>
				<time>2012-04-21T11:42:38</time>
			</trkpt>
			<trkpt lat="52.1677955613026" lon="8.0253906548098">
				<ele>153.5</ele>
				<time>2012-04-21T11:42:44</time>
			</trkpt>
			<trkpt lat="52.1678920789176" lon="8.0252125393674">
				<ele>155.600006103516</ele>
				<time>2012-04-21T11:42:48</time>
			</trkpt>
			<trkpt lat="52.1680473955834" lon="8.02489092574271">
				<ele>156.899993896484</ele>
				<time>2012-04-21T11:42:55</time>
			</trkpt>
			<trkpt lat="52.1681014169493" lon="8.02481171675774">
				<ele>159</ele>
				<time>2012-04-21T11:42:58</time>
			</trkpt>
			<trkpt lat="52.1682250081116" lon="8.02456453443321">
				<ele>159.600006103516</ele>
				<time>2012-04-21T11:43:04</time>
			</trkpt>
			<trkpt lat="52.1682834718862" lon="8.02440636792036">
				<ele>164.100006103516</ele>
				<time>2012-04-21T11:43:08</time>
			</trkpt>
			<trkpt lat="52.1683976753169" lon="8.02418366075309">
				<ele>166.899993896484</ele>
				<time>2012-04-21T11:43:14</time>
			</trkpt>
			<trkpt lat="52.1684641018996" lon="8.02406723611804">
				<ele>167.300003051758</ele>
				<time>2012-04-21T11:43:17</time>
			</trkpt>
			<trkpt lat="52.1686377330238" lon="8.02375777625295">
				<ele>165.800003051758</ele>
				<time>2012-04-21T11:43:25</time>
			</trkpt>
			<trkpt lat="52.1687202528605" lon="8.02357647568735">
				<ele>168.699996948242</ele>
				<time>2012-04-21T11:43:29</time>
			</trkpt>
			<trkpt lat="52.1687614918241" lon="8.02348310128601">
				<ele>166.899993896484</ele>
				<time>2012-04-21T11:43:31</time>
			</trkpt>
			<trkpt lat="52.1689108154291" lon="8.02319434472176">
				<ele>171.300003051758</ele>
				<time>2012-04-21T11:43:38</time>
			</trkpt>
			<trkpt lat="52.1690361248815" lon="8.02285965532812">
				<ele>174.199996948242</ele>
				<time>2012-04-21T11:43:45</time>
			</trkpt>
			<trkpt lat="52.1691127354765" lon="8.02276234143229">
				<ele>177.100006103516</ele>
				<time>2012-04-21T11:43:49</time>
			</trkpt>
			<trkpt lat="52.1692028409356" lon="8.02262261510642">
				<ele>178.800003051758</ele>
				<time>2012-04-21T11:43:54</time>
			</trkpt>
			<trkpt lat="52.1693089977393" lon="8.02231240087005">
				<ele>175.199996948242</ele>
				<time>2012-04-21T11:44:00</time>
			</trkpt>
			<trkpt lat="52.1693355264628" lon="8.02212732844802">
				<ele>175.300003051758</ele>
				<time>2012-04-21T11:44:04</time>
			</trkpt>
			<trkpt lat="52.1693535475546" lon="8.02201953717323">
				<ele>174.199996948242</ele>
				<time>2012-04-21T11:44:06</time>
			</trkpt>
			<trkpt lat="52.1694693435469" lon="8.02147085779162">
				<ele>177.600006103516</ele>
				<time>2012-04-21T11:44:15</time>
			</trkpt>
			<trkpt lat="52.1694892924765" lon="8.02141251974555">
				<ele>177.5</ele>
				<time>2012-04-21T11:44:16</time>
			</trkpt>
			<trkpt lat="52.169606890578" lon="8.0210178159252">
				<ele>178.800003051758</ele>
				<time>2012-04-21T11:44:23</time>
			</trkpt>
			<trkpt lat="52.1697121253723" lon="8.02075521089884">
				<ele>176.800003051758</ele>
				<time>2012-04-21T11:44:28</time>
			</trkpt>
			<trkpt lat="52.1697829524541" lon="8.0206139758304">
				<ele>185.600006103516</ele>
				<time>2012-04-21T11:44:35</time>
			</trkpt>
			<trkpt lat="52.1698478702942" lon="8.02040300332757">
				<ele>190.100006103516</ele>
				<time>2012-04-21T11:44:40</time>
			</trkpt>
			<trkpt lat="52.1699410770574" lon="8.02011852153393">
				<ele>191.300003051758</ele>
				<time>2012-04-21T11:44:44</time>
			</trkpt>
			<trkpt lat="52.170024393175" lon="8.01983965561541">
				<ele>196.5</ele>
				<time>2012-04-21T11:44:48</time>
			</trkpt>
			<trkpt lat="52.1701112296918" lon="8.01968400367351">
				<ele>199.899993896484</ele>
				<time>2012-04-21T11:44:51</time>
			</trkpt>
			<trkpt lat="52.1704371180871" lon="8.01893541590126">
				<ele>191.5</ele>
				<time>2012-04-21T11:44:59</time>
			</trkpt>
			<trkpt lat="52.1709663514534" lon="8.01828833297642">
				<ele>186.699996948242</ele>
				<time>2012-04-21T11:45:05</time>
			</trkpt>
			<trkpt lat="52.1713053156176" lon="8.0179061181918">
				<ele>185.600006103516</ele>
				<time>2012-04-21T11:45:09</time>
			</trkpt>
			<trkpt lat="52.1716543799752" lon="8.01752205938847">
				<ele>180.600006103516</ele>
				<time>2012-04-21T11:45:13</time>
			</trkpt>
			<trkpt lat="52.1720758639762" lon="8.0170596297905">
				<ele>177.5</ele>
				<time>2012-04-21T11:45:19</time>
			</trkpt>
			<trkpt lat="52.1722572064513" lon="8.01732977852972">
				<ele>175</ele>
				<time>2012-04-21T11:45:25</time>
			</trkpt>
			<trkpt lat="52.1723565739134" lon="8.01765298471601">
				<ele>166.600006103516</ele>
				<time>2012-04-21T11:45:28</time>
			</trkpt>
			<trkpt lat="52.1723348647842" lon="8.01811424084755">
				<ele>168</ele>
				<time>2012-04-21T11:45:34</time>
			</trkpt>
			<trkpt lat="52.1723767323905" lon="8.01850299351664">
				<ele>164.5</ele>
				<time>2012-04-21T11:45:38</time>
			</trkpt>
			<trkpt lat="52.1724080807084" lon="8.0190613120869">
				<ele>157</ele>
				<time>2012-04-21T11:45:45</time>
			</trkpt>
			<trkpt lat="52.1724266885334" lon="8.01934872754665">
				<ele>157.800003051758</ele>
				<time>2012-04-21T11:45:48</time>
			</trkpt>
			<trkpt lat="52.1724181809017" lon="8.01959414967151">
				<ele>161.899993896484</ele>
				<time>2012-04-21T11:45:52</time>
			</trkpt>
			<trkpt lat="52.1724031353855" lon="8.0203237943426">
				<ele>168.100006103516</ele>
				<time>2012-04-21T11:46:00</time>
			</trkpt>
			<trkpt lat="52.1724407701308" lon="8.02070768550785">
				<ele>169</ele>
				<time>2012-04-21T11:46:04</time>
			</trkpt>
			<trkpt lat="52.1725167939925" lon="8.02107766271384">
				<ele>169.5</ele>
				<time>2012-04-21T11:46:08</time>
			</trkpt>
			<trkpt lat="52.172623747077" lon="8.02143573761733">
				<ele>169.800003051758</ele>
				<time>2012-04-21T11:46:12</time>
			</trkpt>
			<trkpt lat="52.1727299457902" lon="8.02169934847208">
				<ele>171.699996948242</ele>
				<time>2012-04-21T11:46:16</time>
			</trkpt>
			<trkpt lat="52.1731761564055" lon="8.02202641033383">
				<ele>170.5</ele>
				<time>2012-04-21T11:46:24</time>
			</trkpt>
			<trkpt lat="52.1733530983815" lon="8.02206974477323">
				<ele>173.5</ele>
				<time>2012-04-21T11:46:28</time>
			</trkpt>
			<trkpt lat="52.1736338083187" lon="8.02219404839726">
				<ele>182.800003051758</ele>
				<time>2012-04-21T11:46:36</time>
			</trkpt>
			<trkpt lat="52.1738581080476" lon="8.02242019214483">
				<ele>184.399993896484</ele>
				<time>2012-04-21T11:46:41</time>
			</trkpt>
			<trkpt lat="52.1740082279334" lon="8.02262806334349">
				<ele>177.5</ele>
				<time>2012-04-21T11:46:45</time>
			</trkpt>
			<trkpt lat="52.1741603594759" lon="8.0227914266363">
				<ele>181.100006103516</ele>
				<time>2012-04-21T11:46:49</time>
			</trkpt>
			<trkpt lat="52.1742969844976" lon="8.02290827036651">
				<ele>183.5</ele>
				<time>2012-04-21T11:46:54</time>
			</trkpt>
			<trkpt lat="52.1745060291627" lon="8.02307113074513">
				<ele>184</ele>
				<time>2012-04-21T11:46:59</time>
			</trkpt>
			<trkpt lat="52.1746724937597" lon="8.02331018262359">
				<ele>179</ele>
				<time>2012-04-21T11:47:05</time>
			</trkpt>
			<trkpt lat="52.1748166205847" lon="8.02347689867767">
				<ele>178.600006103516</ele>
				<time>2012-04-21T11:47:10</time>
			</trkpt>
			<trkpt lat="52.1748672891894" lon="8.0235219094977">
				<ele>191.899993896484</ele>
				<time>2012-04-21T11:47:15</time>
			</trkpt>
			<trkpt lat="52.1749819117153" lon="8.02347027697416">
				<ele>196.699996948242</ele>
				<time>2012-04-21T11:47:19</time>
			</trkpt>
			<trkpt lat="52.1751621226335" lon="8.02303257399054">
				<ele>192.199996948242</ele>
				<time>2012-04-21T11:47:25</time>
			</trkpt>
			<trkpt lat="52.1752440976465" lon="8.02282738500091">
				<ele>192.899993896484</ele>
				<time>2012-04-21T11:47:27</time>
			</trkpt>
			<trkpt lat="52.1756184334421" lon="8.02188022994252">
				<ele>190.100006103516</ele>
				<time>2012-04-21T11:47:34</time>
			</trkpt>
			<trkpt lat="52.1760002710411" lon="8.02095981315525">
				<ele>180.199996948242</ele>
				<time>2012-04-21T11:47:40</time>
			</trkpt>
			<trkpt lat="52.176228635993" lon="8.02039135248216">
				<ele>178.800003051758</ele>
				<time>2012-04-21T11:47:44</time>
			</trkpt>
			<trkpt lat="52.1765392693246" lon="8.01954243332894">
				<ele>175</ele>
				<time>2012-04-21T11:47:50</time>
			</trkpt>
			<trkpt lat="52.1766056959072" lon="8.01927479916068">
				<ele>172.699996948242</ele>
				<time>2012-04-21T11:47:52</time>
			</trkpt>
			<trkpt lat="52.1769602504113" lon="8.01816729829462">
				<ele>167.100006103516</ele>
				<time>2012-04-21T11:48:01</time>
			</trkpt>
			<trkpt lat="52.1772092348451" lon="8.01770436578246">
				<ele>169.399993896484</ele>
				<time>2012-04-21T11:48:05</time>
			</trkpt>
			<trkpt lat="52.1775361709783" lon="8.01731469110401">
				<ele>167.600006103516</ele>
				<time>2012-04-21T11:48:09</time>
			</trkpt>
			<trkpt lat="52.17811946762" lon="8.01678176970036">
				<ele>166.600006103516</ele>
				<time>2012-04-21T11:48:15</time>
			</trkpt>
			<trkpt lat="52.1783923823872" lon="8.01627466455849">
				<ele>163</ele>
				<time>2012-04-21T11:48:19</time>
			</trkpt>
			<trkpt lat="52.1785037778804" lon="8.01551434212179">
				<ele>161.699996948242</ele>
				<time>2012-04-21T11:48:24</time>
			</trkpt>
			<trkpt lat="52.1788471425438" lon="8.01473926753552">
				<ele>163.300003051758</ele>
				<time>2012-04-21T11:48:30</time>
			</trkpt>
			<trkpt lat="52.1789887128884" lon="8.01456986927242">
				<ele>165.100006103516</ele>
				<time>2012-04-21T11:48:32</time>
			</trkpt>
			<trkpt lat="52.1793321613708" lon="8.01350109279902">
				<ele>172.300003051758</ele>
				<time>2012-04-21T11:48:40</time>
			</trkpt>
			<trkpt lat="52.1795585565755" lon="8.01269089803846">
				<ele>176.100006103516</ele>
				<time>2012-04-21T11:48:45</time>
			</trkpt>
			<trkpt lat="52.1796292579287" lon="8.01238479093463">
				<ele>172.899993896484</ele>
				<time>2012-04-21T11:48:47</time>
			</trkpt>
			<trkpt lat="52.1798728779444" lon="8.01137845963986">
				<ele>169.5</ele>
				<time>2012-04-21T11:48:53</time>
			</trkpt>
			<trkpt lat="52.1802323777715" lon="8.01026660018415">
				<ele>170.199996948242</ele>
				<time>2012-04-21T11:49:01</time>
			</trkpt>
			<trkpt lat="52.1802965831497" lon="8.01001690328867">
				<ele>165.5</ele>
				<time>2012-04-21T11:49:03</time>
			</trkpt>
			<trkpt lat="52.180665931713" lon="8.00895935856552">
				<ele>159.5</ele>
				<time>2012-04-21T11:49:10</time>
			</trkpt>
			<trkpt lat="52.1808067057768" lon="8.00843498670311">
				<ele>155.100006103516</ele>
				<time>2012-04-21T11:49:13</time>
			</trkpt>
			<trkpt lat="52.1809524670729" lon="8.00690922886879">
				<ele>146.100006103516</ele>
				<time>2012-04-21T11:49:20</time>
			</trkpt>
			<trkpt lat="52.1810797462726" lon="8.00575118512661">
				<ele>138.699996948242</ele>
				<time>2012-04-21T11:49:26</time>
			</trkpt>
			<trkpt lat="52.1812135633567" lon="8.0049659684375">
				<ele>135.100006103516</ele>
				<time>2012-04-21T11:49:30</time>
			</trkpt>
			<trkpt lat="52.1813751664499" lon="8.00415686332435">
				<ele>132.800003051758</ele>
				<time>2012-04-21T11:49:34</time>
			</trkpt>
			<trkpt lat="52.1815844625721" lon="8.00294006244093">
				<ele>128.899993896484</ele>
				<time>2012-04-21T11:49:40</time>
			</trkpt>
			<trkpt lat="52.1818235982695" lon="8.00195376389474">
				<ele>125.600006103516</ele>
				<time>2012-04-21T11:49:45</time>
			</trkpt>
			<trkpt lat="52.1819100576008" lon="8.00157423131913">
				<ele>124.399993896484</ele>
				<time>2012-04-21T11:49:47</time>
			</trkpt>
			<trkpt lat="52.1822644025573" lon="8.00025056117028">
				<ele>122.899993896484</ele>
				<time>2012-04-21T11:49:55</time>
			</trkpt>
			<trkpt lat="52.1824500198031" lon="7.99940155819803">
				<ele>123.600006103516</ele>
				<time>2012-04-21T11:50:00</time>
			</trkpt>
			<trkpt lat="52.18254377139" lon="7.99859387800842">
				<ele>126.399993896484</ele>
				<time>2012-04-21T11:50:05</time>
			</trkpt>
			<trkpt lat="52.182596409742" lon="7.99814024940878">
				<ele>125.100006103516</ele>
				<time>2012-04-21T11:50:08</time>
			</trkpt>
			<trkpt lat="52.1827863017583" lon="7.99688329920917">
				<ele>125.399993896484</ele>
				<time>2012-04-21T11:50:16</time>
			</trkpt>
			<trkpt lat="52.1828666842097" lon="7.9963257350102">
				<ele>121.899993896484</ele>
				<time>2012-04-21T11:50:20</time>
			</trkpt>
			<trkpt lat="52.1829168499002" lon="7.99583799206465">
				<ele>120</ele>
				<time>2012-04-21T11:50:24</time>
			</trkpt>
			<trkpt lat="52.1829764871413" lon="7.99528419972211">
				<ele>120.5</ele>
				<time>2012-04-21T11:50:29</time>
			</trkpt>
			<trkpt lat="52.183118392762" lon="7.99449906685203">
				<ele>120.600006103516</ele>
				<time>2012-04-21T11:50:35</time>
			</trkpt>
			<trkpt lat="52.1832080791259" lon="7.99377579242736">
				<ele>122.300003051758</ele>
				<time>2012-04-21T11:50:40</time>
			</trkpt>
			<trkpt lat="52.1833290718982" lon="7.99312250689416">
				<ele>119.300003051758</ele>
				<time>2012-04-21T11:50:44</time>
			</trkpt>
			<trkpt lat="52.1836342150831" lon="7.99250132405012">
				<ele>124.199996948242</ele>
				<time>2012-04-21T11:50:49</time>
			</trkpt>
			<trkpt lat="52.1841098880881" lon="7.99168115482479">
				<ele>119.100006103516</ele>
				<time>2012-04-21T11:50:55</time>
			</trkpt>
			<trkpt lat="52.1842551883796" lon="7.99069058150797">
				<ele>111.800003051758</ele>
				<time>2012-04-21T11:51:00</time>
			</trkpt>
			<trkpt lat="52.1843426535392" lon="7.99039453268795">
				<ele>111.199996948242</ele>
				<time>2012-04-21T11:51:02</time>
			</trkpt>
			<trkpt lat="52.1848349227125" lon="7.98936255276947">
				<ele>106.800003051758</ele>
				<time>2012-04-21T11:51:10</time>
			</trkpt>
			<trkpt lat="52.18506626324" lon="7.98871932552009">
				<ele>108</ele>
				<time>2012-04-21T11:51:16</time>
			</trkpt>
			<trkpt lat="52.1852253936717" lon="7.98831649125366">
				<ele>105.399993896484</ele>
				<time>2012-04-21T11:51:19</time>
			</trkpt>
			<trkpt lat="52.1854834305609" lon="7.98756103032081">
				<ele>108.5</ele>
				<time>2012-04-21T11:51:26</time>
			</trkpt>
			<trkpt lat="52.1855762601385" lon="7.98716054298727">
				<ele>108.699996948242</ele>
				<time>2012-04-21T11:51:30</time>
			</trkpt>
			<trkpt lat="52.1857089456657" lon="7.98651630990951">
				<ele>107.800003051758</ele>
				<time>2012-04-21T11:51:36</time>
			</trkpt>
			<trkpt lat="52.1857280983144" lon="7.9861782677546">
				<ele>107.600006103516</ele>
				<time>2012-04-21T11:51:40</time>
			</trkpt>
			<trkpt lat="52.1857596142704" lon="7.98551609740405">
				<ele>109.699996948242</ele>
				<time>2012-04-21T11:51:45</time>
			</trkpt>
			<trkpt lat="52.1857473347822" lon="7.98495166004448">
				<ele>110.399993896484</ele>
				<time>2012-04-21T11:51:49</time>
			</trkpt>
			<trkpt lat="52.1859117039034" lon="7.98418840394168">
				<ele>108.300003051758</ele>
				<time>2012-04-21T11:51:55</time>
			</trkpt>
			<trkpt lat="52.1860680263975" lon="7.98387718387692">
				<ele>110.199996948242</ele>
				<time>2012-04-21T11:51:58</time>
			</trkpt>
			<trkpt lat="52.1864708187545" lon="7.98335574568061">
				<ele>111</ele>
				<time>2012-04-21T11:52:05</time>
			</trkpt>
			<trkpt lat="52.1868681628743" lon="7.98298006878047">
				<ele>106</ele>
				<time>2012-04-21T11:52:10</time>
			</trkpt>
			<trkpt lat="52.1872966457644" lon="7.98272735439984">
				<ele>106.899993896484</ele>
				<time>2012-04-21T11:52:15</time>
			</trkpt>
			<trkpt lat="52.1877511125544" lon="7.98248000443725">
				<ele>104.800003051758</ele>
				<time>2012-04-21T11:52:20</time>
			</trkpt>
			<trkpt lat="52.1879736101741" lon="7.98221522011606">
				<ele>105.100006103516</ele>
				<time>2012-04-21T11:52:23</time>
			</trkpt>
			<trkpt lat="52.1885356167817" lon="7.98127946444599">
				<ele>94</ele>
				<time>2012-04-21T11:52:32</time>
			</trkpt>
			<trkpt lat="52.1887943242231" lon="7.98099322245268">
				<ele>94.5</ele>
				<time>2012-04-21T11:52:35</time>
			</trkpt>
			<trkpt lat="52.1891067177543" lon="7.9806486424133">
				<ele>90.5</ele>
				<time>2012-04-21T11:52:39</time>
			</trkpt>
			<trkpt lat="52.1898783976698" lon="7.98002243042735">
				<ele>92</ele>
				<time>2012-04-21T11:52:46</time>
			</trkpt>
			<trkpt lat="52.1904125763589" lon="7.97963493504373">
				<ele>83.8000030517578</ele>
				<time>2012-04-21T11:52:52</time>
			</trkpt>
			<trkpt lat="52.1905696532244" lon="7.97950677574424">
				<ele>81.1999969482422</ele>
				<time>2012-04-21T11:52:54</time>
			</trkpt>
			<trkpt lat="52.190883136403" lon="7.97929437831787">
				<ele>77</ele>
				<time>2012-04-21T11:52:58</time>
			</trkpt>
			<trkpt lat="52.1915749786908" lon="7.97873555683343">
				<ele>82.1000061035156</ele>
				<time>2012-04-21T11:53:06</time>
			</trkpt>
			<trkpt lat="52.1917316783706" lon="7.97863053158669">
				<ele>86</ele>
				<time>2012-04-21T11:53:08</time>
			</trkpt>
			<trkpt lat="52.1922887396553" lon="7.97824295238403">
				<ele>88.3999938964844</ele>
				<time>2012-04-21T11:53:16</time>
			</trkpt>
			<trkpt lat="52.1926608542466" lon="7.97798051499573">
				<ele>90.1000061035156</ele>
				<time>2012-04-21T11:53:21</time>
			</trkpt>
			<trkpt lat="52.1930117626229" lon="7.97766007483748">
				<ele>88.6999969482422</ele>
				<time>2012-04-21T11:53:26</time>
			</trkpt>
			<trkpt lat="52.1934333723525" lon="7.97736184672264">
				<ele>85.5</ele>
				<time>2012-04-21T11:53:31</time>
			</trkpt>
			<trkpt lat="52.1938364999855" lon="7.97761850059775">
				<ele>82.3999938964844</ele>
				<time>2012-04-21T11:53:36</time>
			</trkpt>
			<trkpt lat="52.1942077763865" lon="7.97805829905716">
				<ele>80.3000030517578</ele>
				<time>2012-04-21T11:53:41</time>
			</trkpt>
			<trkpt lat="52.1944086067865" lon="7.97847362235932">
				<ele>75.9000015258789</ele>
				<time>2012-04-21T11:53:45</time>
			</trkpt>
			<trkpt lat="52.1948551526779" lon="7.97889498063175">
				<ele>75.0999984741211</ele>
				<time>2012-04-21T11:53:52</time>
			</trkpt>
			<trkpt lat="52.1950950846562" lon="7.97919999808816">
				<ele>66.1999969482422</ele>
				<time>2012-04-21T11:53:56</time>
			</trkpt>
			<trkpt lat="52.1952918917427" lon="7.97960844822971">
				<ele>71</ele>
				<time>2012-04-21T11:54:00</time>
			</trkpt>
			<trkpt lat="52.195637603339" lon="7.97975806520132">
				<ele>77.4000015258789</ele>
				<time>2012-04-21T11:54:05</time>
			</trkpt>
			<trkpt lat="52.1960536810124" lon="7.97986594029514">
				<ele>80.1999969482422</ele>
				<time>2012-04-21T11:54:11</time>
			</trkpt>
			<trkpt lat="52.1962246299276" lon="7.97947509215025">
				<ele>86.3000030517578</ele>
				<time>2012-04-21T11:54:16</time>
			</trkpt>
			<trkpt lat="52.1963926870862" lon="7.97899900005011">
				<ele>90.8000030517578</ele>
				<time>2012-04-21T11:54:20</time>
			</trkpt>
			<trkpt lat="52.1966358880067" lon="7.97872340307383">
				<ele>89.5</ele>
				<time>2012-04-21T11:54:25</time>
			</trkpt>
			<trkpt lat="52.1968926676104" lon="7.97862432897834">
				<ele>90</ele>
				<time>2012-04-21T11:54:30</time>
			</trkpt>
			<trkpt lat="52.1971482318381" lon="7.97841310501842">
				<ele>91.8999938964844</ele>
				<time>2012-04-21T11:54:36</time>
			</trkpt>
			<trkpt lat="52.1972461324671" lon="7.97832484357802">
				<ele>96.8000030517578</ele>
				<time>2012-04-21T11:54:41</time>
			</trkpt>
			<trkpt lat="52.1973203123102" lon="7.97794891522078">
				<ele>92.6999969482422</ele>
				<time>2012-04-21T11:54:46</time>
			</trkpt>
			<trkpt lat="52.1973020397613" lon="7.97740702518074">
				<ele>91.6000061035156</ele>
				<time>2012-04-21T11:54:52</time>
			</trkpt>
			<trkpt lat="52.1972784866134" lon="7.97707728110997">
				<ele>90.8000030517578</ele>
				<time>2012-04-21T11:54:56</time>
			</trkpt>
			<trkpt lat="52.1972369542831" lon="7.97658551485089">
				<ele>92.1000061035156</ele>
				<time>2012-04-21T11:55:01</time>
			</trkpt>
			<trkpt lat="52.1971824719125" lon="7.97616465949265">
				<ele>91.5</ele>
				<time>2012-04-21T11:55:05</time>
			</trkpt>
			<trkpt lat="52.1971965954194" lon="7.97576274723557">
				<ele>91.1000061035156</ele>
				<time>2012-04-21T11:55:09</time>
			</trkpt>
			<trkpt lat="52.1972595854217" lon="7.9748478625044">
				<ele>92.6999969482422</ele>
				<time>2012-04-21T11:55:16</time>
			</trkpt>
			<trkpt lat="52.197355390575" lon="7.9743124265298">
				<ele>92.1000061035156</ele>
				<time>2012-04-21T11:55:20</time>
			</trkpt>
			<trkpt lat="52.197432252627" lon="7.97382434830812">
				<ele>94.1000061035156</ele>
				<time>2012-04-21T11:55:24</time>
			</trkpt>
			<trkpt lat="52.197540379178" lon="7.97271559015659">
				<ele>89.3000030517578</ele>
				<time>2012-04-21T11:55:32</time>
			</trkpt>
			<trkpt lat="52.1974897943923" lon="7.97194822692123">
				<ele>87.3000030517578</ele>
				<time>2012-04-21T11:55:37</time>
			</trkpt>
			<trkpt lat="52.1974587394411" lon="7.97165553086248">
				<ele>88.8000030517578</ele>
				<time>2012-04-21T11:55:39</time>
			</trkpt>
			<trkpt lat="52.197297471624" lon="7.97060376965252">
				<ele>83.1999969482422</ele>
				<time>2012-04-21T11:55:46</time>
			</trkpt>
			<trkpt lat="52.1972291172037" lon="7.97008400783685">
				<ele>84.6000061035156</ele>
				<time>2012-04-21T11:55:51</time>
			</trkpt>
			<trkpt lat="52.1975694224724" lon="7.96973691322652">
				<ele>84.3999938964844</ele>
				<time>2012-04-21T11:55:57</time>
			</trkpt>
			<trkpt lat="52.1977567580083" lon="7.96971612610665">
				<ele>84</ele>
				<time>2012-04-21T11:56:00</time>
			</trkpt>
			<trkpt lat="52.1981753921622" lon="7.9696512501761">
				<ele>83</ele>
				<time>2012-04-21T11:56:06</time>
			</trkpt>
			<trkpt lat="52.1984124742934" lon="7.96916677617279">
				<ele>77.8000030517578</ele>
				<time>2012-04-21T11:56:11</time>
			</trkpt>
			<trkpt lat="52.1985165356213" lon="7.96872161329535">
				<ele>75.4000015258789</ele>
				<time>2012-04-21T11:56:15</time>
			</trkpt>
			<trkpt lat="52.1985837584848" lon="7.96829782427099">
				<ele>77.1999969482422</ele>
				<time>2012-04-21T11:56:19</time>
			</trkpt>
			<trkpt lat="52.1987699205542" lon="7.96764059924331">
				<ele>80.3000030517578</ele>
				<time>2012-04-21T11:56:27</time>
			</trkpt>
			<trkpt lat="52.1988538653145" lon="7.96738260426369">
				<ele>78.5999984741211</ele>
				<time>2012-04-21T11:56:30</time>
			</trkpt>
			<trkpt lat="52.1990637062604" lon="7.96683778055754">
				<ele>77.1999969482422</ele>
				<time>2012-04-21T11:56:35</time>
			</trkpt>
			<trkpt lat="52.1992786182577" lon="7.96619488858428">
				<ele>78.1999969482422</ele>
				<time>2012-04-21T11:56:41</time>
			</trkpt>
			<trkpt lat="52.1994043048957" lon="7.96580445953455">
				<ele>78.6999969482422</ele>
				<time>2012-04-21T11:56:45</time>
			</trkpt>
			<trkpt lat="52.1996888285989" lon="7.965197777383">
				<ele>76</ele>
				<time>2012-04-21T11:56:51</time>
			</trkpt>
			<trkpt lat="52.1998739429304" lon="7.96482981183377">
				<ele>77.9000015258789</ele>
				<time>2012-04-21T11:56:55</time>
			</trkpt>
			<trkpt lat="52.2000337439144" lon="7.96439973638203">
				<ele>78.1999969482422</ele>
				<time>2012-04-21T11:56:59</time>
			</trkpt>
			<trkpt lat="52.2002767771969" lon="7.96358853579309">
				<ele>80.6999969482422</ele>
				<time>2012-04-21T11:57:06</time>
			</trkpt>
			<trkpt lat="52.2004524199778" lon="7.96306206845489">
				<ele>81.1000061035156</ele>
				<time>2012-04-21T11:57:11</time>
			</trkpt>
			<trkpt lat="52.2006175015608" lon="7.96242579818513">
				<ele>80.5999984741211</ele>
				<time>2012-04-21T11:57:16</time>
			</trkpt>
			<trkpt lat="52.2006263444686" lon="7.96182397753742">
				<ele>82.3999938964844</ele>
				<time>2012-04-21T11:57:21</time>
			</trkpt>
			<trkpt lat="52.2006936092416" lon="7.96124420129504">
				<ele>88.3999938964844</ele>
				<time>2012-04-21T11:57:26</time>
			</trkpt>
			<trkpt lat="52.2007853491718" lon="7.96078554355349">
				<ele>90.1999969482422</ele>
				<time>2012-04-21T11:57:30</time>
			</trkpt>
			<trkpt lat="52.2009085631484" lon="7.96022479423132">
				<ele>87.3000030517578</ele>
				<time>2012-04-21T11:57:35</time>
			</trkpt>
			<trkpt lat="52.2010135464856" lon="7.95969145373251">
				<ele>85.3999938964844</ele>
				<time>2012-04-21T11:57:40</time>
			</trkpt>
			<trkpt lat="52.201074021917" lon="7.95925182291117">
				<ele>87</ele>
				<time>2012-04-21T11:57:44</time>
			</trkpt>
			<trkpt lat="52.2010997543598" lon="7.95874035917964">
				<ele>83.6999969482422</ele>
				<time>2012-04-21T11:57:49</time>
			</trkpt>
			<trkpt lat="52.2013218747938" lon="7.95818321407582">
				<ele>82.8000030517578</ele>
				<time>2012-04-21T11:57:56</time>
			</trkpt>
			<trkpt lat="52.2015279857928" lon="7.95779655688252">
				<ele>83.1999969482422</ele>
				<time>2012-04-21T11:58:01</time>
			</trkpt>
			<trkpt lat="52.2017668700332" lon="7.95739833266284">
				<ele>80.1999969482422</ele>
				<time>2012-04-21T11:58:06</time>
			</trkpt>
			<trkpt lat="52.2020324506352" lon="7.9569912236258">
				<ele>81.5</ele>
				<time>2012-04-21T11:58:11</time>
			</trkpt>
			<trkpt lat="52.2022732627133" lon="7.95661780983951">
				<ele>81.8000030517578</ele>
				<time>2012-04-21T11:58:16</time>
			</trkpt>
			<trkpt lat="52.2025594208876" lon="7.95619930141415">
				<ele>76.9000015258789</ele>
				<time>2012-04-21T11:58:22</time>
			</trkpt>
			<trkpt lat="52.2027501930038" lon="7.95589721762385">
				<ele>78.5999984741211</ele>
				<time>2012-04-21T11:58:27</time>
			</trkpt>
			<trkpt lat="52.2029669071103" lon="7.95551114716377">
				<ele>77.5</ele>
				<time>2012-04-21T11:58:32</time>
			</trkpt>
			<trkpt lat="52.2030712618047" lon="7.95517126099016">
				<ele>77.4000015258789</ele>
				<time>2012-04-21T11:58:36</time>
			</trkpt>
			<trkpt lat="52.2032041568795" lon="7.95454538428034">
				<ele>76.0999984741211</ele>
				<time>2012-04-21T11:58:42</time>
			</trkpt>
			<trkpt lat="52.2032414982582" lon="7.95426492580022">
				<ele>77.4000015258789</ele>
				<time>2012-04-21T11:58:46</time>
			</trkpt>
			<trkpt lat="52.2033167258391" lon="7.95387717895951">
				<ele>79.8000030517578</ele>
				<time>2012-04-21T11:58:51</time>
			</trkpt>
			<trkpt lat="52.2033659695202" lon="7.95357266441728">
				<ele>82.3000030517578</ele>
				<time>2012-04-21T11:58:55</time>
			</trkpt>
			<trkpt lat="52.2034661751727" lon="7.95304141939427">
				<ele>86.1000061035156</ele>
				<time>2012-04-21T11:59:01</time>
			</trkpt>
			<trkpt lat="52.2035917360822" lon="7.95253272169079">
				<ele>87</ele>
				<time>2012-04-21T11:59:06</time>
			</trkpt>
			<trkpt lat="52.2036554804558" lon="7.95231252909447">
				<ele>88.6999969482422</ele>
				<time>2012-04-21T11:59:09</time>
			</trkpt>
			<trkpt lat="52.2038338473553" lon="7.95158045367147">
				<ele>83.3000030517578</ele>
				<time>2012-04-21T11:59:15</time>
			</trkpt>
			<trkpt lat="52.2040258348474" lon="7.95061343350257">
				<ele>79.5999984741211</ele>
				<time>2012-04-21T11:59:22</time>
			</trkpt>
			<trkpt lat="52.2040746594334" lon="7.95005343855168">
				<ele>76.5999984741211</ele>
				<time>2012-04-21T11:59:27</time>
			</trkpt>
			<trkpt lat="52.2041341290364" lon="7.94979250990595">
				<ele>75.5</ele>
				<time>2012-04-21T11:59:29</time>
			</trkpt>
			<trkpt lat="52.2042829078177" lon="7.94887787663187">
				<ele>77.8000030517578</ele>
				<time>2012-04-21T11:59:38</time>
			</trkpt>
			<trkpt lat="52.2043991229052" lon="7.94837722555543">
				<ele>77.6999969482422</ele>
				<time>2012-04-21T11:59:43</time>
			</trkpt>
			<trkpt lat="52.2044270765522" lon="7.94828133658315">
				<ele>76.4000015258789</ele>
				<time>2012-04-21T11:59:44</time>
			</trkpt>
			<trkpt lat="52.2046836466083" lon="7.94736142271007">
				<ele>77.1999969482422</ele>
				<time>2012-04-21T11:59:52</time>
			</trkpt>
			<trkpt lat="52.2048351495082" lon="7.94703159482027">
				<ele>79.5999984741211</ele>
				<time>2012-04-21T11:59:55</time>
			</trkpt>
			<trkpt lat="52.205184884418" lon="7.94634528458858">
				<ele>78</ele>
				<time>2012-04-21T12:00:02</time>
			</trkpt>
			<trkpt lat="52.2054013889769" lon="7.94587204233552">
				<ele>77</ele>
				<time>2012-04-21T12:00:07</time>
			</trkpt>
			<trkpt lat="52.2054764908293" lon="7.94565645978595">
				<ele>77.0999984741211</ele>
				<time>2012-04-21T12:00:09</time>
			</trkpt>
			<trkpt lat="52.2056941688547" lon="7.94487400912488">
				<ele>76.4000015258789</ele>
				<time>2012-04-21T12:00:17</time>
			</trkpt>
			<trkpt lat="52.2058760561535" lon="7.94424922206248">
				<ele>73.6999969482422</ele>
				<time>2012-04-21T12:00:22</time>
			</trkpt>
			<trkpt lat="52.2061580233762" lon="7.94378352352226">
				<ele>76.5999984741211</ele>
				<time>2012-04-21T12:00:27</time>
			</trkpt>
			<trkpt lat="52.2065101052189" lon="7.94325261377538">
				<ele>78.0999984741211</ele>
				<time>2012-04-21T12:00:33</time>
			</trkpt>
			<trkpt lat="52.2067677230129" lon="7.94303853996838">
				<ele>77.5999984741211</ele>
				<time>2012-04-21T12:00:37</time>
			</trkpt>
			<trkpt lat="52.2071092436576" lon="7.94284835458541">
				<ele>79.6999969482422</ele>
				<time>2012-04-21T12:00:42</time>
			</trkpt>
			<trkpt lat="52.2074704198653" lon="7.9425779543891">
				<ele>80.8000030517578</ele>
				<time>2012-04-21T12:00:48</time>
			</trkpt>
			<trkpt lat="52.2078061569968" lon="7.94232389890397">
				<ele>81.1999969482422</ele>
				<time>2012-04-21T12:00:52</time>
			</trkpt>
			<trkpt lat="52.2081162455047" lon="7.94209532440448">
				<ele>79.5999984741211</ele>
				<time>2012-04-21T12:00:58</time>
			</trkpt>
			<trkpt lat="52.2084483365083" lon="7.94183917344356">
				<ele>80.5</ele>
				<time>2012-04-21T12:01:02</time>
			</trkpt>
			<trkpt lat="52.208714461934" lon="7.94165954925859">
				<ele>81.3999938964844</ele>
				<time>2012-04-21T12:01:06</time>
			</trkpt>
			<trkpt lat="52.2091271868462" lon="7.9413794260546">
				<ele>82.5</ele>
				<time>2012-04-21T12:01:13</time>
			</trkpt>
			<trkpt lat="52.2094876925016" lon="7.94120248407865">
				<ele>80.9000015258789</ele>
				<time>2012-04-21T12:01:17</time>
			</trkpt>
			<trkpt lat="52.20985226338" lon="7.94104414992774">
				<ele>84.8999938964844</ele>
				<time>2012-04-21T12:01:22</time>
			</trkpt>
			<trkpt lat="52.2101324284935" lon="7.9406267311498">
				<ele>82.8000030517578</ele>
				<time>2012-04-21T12:01:28</time>
			</trkpt>
			<trkpt lat="52.2103143996114" lon="7.94002876617754">
				<ele>80.5999984741211</ele>
				<time>2012-04-21T12:01:33</time>
			</trkpt>
			<trkpt lat="52.2103538783753" lon="7.93992935680592">
				<ele>79.6999969482422</ele>
				<time>2012-04-21T12:01:35</time>
			</trkpt>
			<trkpt lat="52.2108266177142" lon="7.93949768879259">
				<ele>81.6999969482422</ele>
				<time>2012-04-21T12:01:41</time>
			</trkpt>
			<trkpt lat="52.2113671247402" lon="7.9390946868881">
				<ele>80.9000015258789</ele>
				<time>2012-04-21T12:01:48</time>
			</trkpt>
			<trkpt lat="52.2115534125382" lon="7.93895043433452">
				<ele>82.1999969482422</ele>
				<time>2012-04-21T12:01:52</time>
			</trkpt>
			<trkpt lat="52.2118989564965" lon="7.93868975714588">
				<ele>83.3000030517578</ele>
				<time>2012-04-21T12:01:56</time>
			</trkpt>
			<trkpt lat="52.212328445215" lon="7.93853268028045">
				<ele>82.1000061035156</ele>
				<time>2012-04-21T12:02:02</time>
			</trkpt>
			<trkpt lat="52.2126184171552" lon="7.93842715211952">
				<ele>80.5999984741211</ele>
				<time>2012-04-21T12:02:06</time>
			</trkpt>
			<trkpt lat="52.2130341595525" lon="7.93836311437929">
				<ele>74.9000015258789</ele>
				<time>2012-04-21T12:02:12</time>
			</trkpt>
			<trkpt lat="52.2131770290921" lon="7.93829530478263">
				<ele>75.5</ele>
				<time>2012-04-21T12:02:14</time>
			</trkpt>
			<trkpt lat="52.2135484312216" lon="7.93777126819635">
				<ele>74.5</ele>
				<time>2012-04-21T12:02:21</time>
			</trkpt>
			<trkpt lat="52.2138391994426" lon="7.93722485192859">
				<ele>72.1999969482422</ele>
				<time>2012-04-21T12:02:26</time>
			</trkpt>
			<trkpt lat="52.2141340747962" lon="7.93667273596668">
				<ele>75</ele>
				<time>2012-04-21T12:02:32</time>
			</trkpt>
			<trkpt lat="52.2145792376736" lon="7.93590822257841">
				<ele>71.0999984741211</ele>
				<time>2012-04-21T12:02:37</time>
			</trkpt>
			<trkpt lat="52.2148606600726" lon="7.93539541774237">
				<ele>73.1999969482422</ele>
				<time>2012-04-21T12:02:42</time>
			</trkpt>
			<trkpt lat="52.2152325651163" lon="7.93467465788865">
				<ele>70.8000030517578</ele>
				<time>2012-04-21T12:02:47</time>
			</trkpt>
			<trkpt lat="52.2154318029547" lon="7.93435212225461">
				<ele>71.5999984741211</ele>
				<time>2012-04-21T12:02:50</time>
			</trkpt>
			<trkpt lat="52.2157542966793" lon="7.93372482062125">
				<ele>72.1999969482422</ele>
				<time>2012-04-21T12:02:57</time>
			</trkpt>
			<trkpt lat="52.2159726033474" lon="7.93335886672878">
				<ele>74.5</ele>
				<time>2012-04-21T12:03:01</time>
			</trkpt>
			<trkpt lat="52.2161265369991" lon="7.9331297893151">
				<ele>72.5999984741211</ele>
				<time>2012-04-21T12:03:08</time>
			</trkpt>
			<trkpt lat="52.216139361311" lon="7.93313045986736">
				<ele>72.4000015258789</ele>
				<time>2012-04-21T12:03:09</time>
			</trkpt>
			<trkpt lat="52.2160963621477" lon="7.93312350288772">
				<ele>66</ele>
				<time>2012-04-21T12:03:17</time>
			</trkpt>
			<trkpt lat="52.2160758264849" lon="7.933116294451">
				<ele>65.1999969482422</ele>
				<time>2012-04-21T12:03:21</time>
			</trkpt>
			<trkpt lat="52.216175277766" lon="7.93293189258122">
				<ele>68.3000030517578</ele>
				<time>2012-04-21T12:03:32</time>
			</trkpt>
			<trkpt lat="52.2165803751463" lon="7.93240098283434">
				<ele>70</ele>
				<time>2012-04-21T12:03:38</time>
			</trkpt>
			<trkpt lat="52.2167232027764" lon="7.93219780550146">
				<ele>68.9000015258789</ele>
				<time>2012-04-21T12:03:40</time>
			</trkpt>
			<trkpt lat="52.2172819404418" lon="7.93150621467077">
				<ele>70.0999984741211</ele>
				<time>2012-04-21T12:03:49</time>
			</trkpt>
			<trkpt lat="52.2173356684411" lon="7.93144804426276">
				<ele>69.8000030517578</ele>
				<time>2012-04-21T12:03:50</time>
			</trkpt>
			<trkpt lat="52.2178590763847" lon="7.93078956194961">
				<ele>68.9000015258789</ele>
				<time>2012-04-21T12:03:58</time>
			</trkpt>
			<trkpt lat="52.218021266211" lon="7.93056065217399">
				<ele>68.4000015258789</ele>
				<time>2012-04-21T12:04:01</time>
			</trkpt>
			<trkpt lat="52.2183969012017" lon="7.93005371467018">
				<ele>66.3000030517578</ele>
				<time>2012-04-21T12:04:08</time>
			</trkpt>
			<trkpt lat="52.2188898828367" lon="7.92961207219207">
				<ele>64</ele>
				<time>2012-04-21T12:04:14</time>
			</trkpt>
			<trkpt lat="52.2191793518627" lon="7.92936027982079">
				<ele>67.0999984741211</ele>
				<time>2012-04-21T12:04:18</time>
			</trkpt>
			<trkpt lat="52.2193528991679" lon="7.92924469337606">
				<ele>67.0999984741211</ele>
				<time>2012-04-21T12:04:21</time>
			</trkpt>
			<trkpt lat="52.2198475571836" lon="7.9288229998275">
				<ele>66.9000015258789</ele>
				<time>2012-04-21T12:04:29</time>
			</trkpt>
			<trkpt lat="52.2201576456914" lon="7.92851110921048">
				<ele>64.6999969482422</ele>
				<time>2012-04-21T12:04:33</time>
			</trkpt>
			<trkpt lat="52.2204164369518" lon="7.92829753831767">
				<ele>63.5999984741211</ele>
				<time>2012-04-21T12:04:37</time>
			</trkpt>
			<trkpt lat="52.2207614779959" lon="7.9280164092853">
				<ele>63.9000015258789</ele>
				<time>2012-04-21T12:04:42</time>
			</trkpt>
			<trkpt lat="52.2211829619968" lon="7.92763746344291">
				<ele>63</ele>
				<time>2012-04-21T12:04:49</time>
			</trkpt>
			<trkpt lat="52.2213481693084" lon="7.92751869187497">
				<ele>59</ele>
				<time>2012-04-21T12:04:50</time>
			</trkpt>
			<trkpt lat="52.2219727468232" lon="7.92729447596513">
				<ele>63.0999984741211</ele>
				<time>2012-04-21T12:04:58</time>
			</trkpt>
			<trkpt lat="52.2222852660829" lon="7.92714502663159">
				<ele>61.0999984741211</ele>
				<time>2012-04-21T12:05:03</time>
			</trkpt>
			<trkpt lat="52.2227190714816" lon="7.92701359838986">
				<ele>62</ele>
				<time>2012-04-21T12:05:07</time>
			</trkpt>
			<trkpt lat="52.2231842671076" lon="7.92695903220021">
				<ele>59.4000015258789</ele>
				<time>2012-04-21T12:05:14</time>
			</trkpt>
			<trkpt lat="52.2233986761907" lon="7.9271704237982">
				<ele>61.5</ele>
				<time>2012-04-21T12:05:16</time>
			</trkpt>
			<trkpt lat="52.223705956761" lon="7.92682651431107">
				<ele>57.4000015258789</ele>
				<time>2012-04-21T12:05:23</time>
			</trkpt>
			<trkpt lat="52.2238664702067" lon="7.92660053820156">
				<ele>58.0999984741211</ele>
				<time>2012-04-21T12:05:26</time>
			</trkpt>
			<trkpt lat="52.2243923927212" lon="7.92651487515115">
				<ele>55.9000015258789</ele>
				<time>2012-04-21T12:05:33</time>
			</trkpt>
			<trkpt lat="52.2245534090812" lon="7.92645762675249">
				<ele>57.0999984741211</ele>
				<time>2012-04-21T12:05:35</time>
			</trkpt>
			<trkpt lat="52.2248196602354" lon="7.92570241727673">
				<ele>58.5999984741211</ele>
				<time>2012-04-21T12:05:44</time>
			</trkpt>
			<trkpt lat="52.2248950554544" lon="7.92548901402198">
				<ele>59.0999984741211</ele>
				<time>2012-04-21T12:05:45</time>
			</trkpt>
			<trkpt lat="52.2252047667766" lon="7.92467429303371">
				<ele>54.4000015258789</ele>
				<time>2012-04-21T12:05:54</time>
			</trkpt>
			<trkpt lat="52.2252949979643" lon="7.92420138605677">
				<ele>58.1999969482422</ele>
				<time>2012-04-21T12:05:58</time>
			</trkpt>
			<trkpt lat="52.2253032122294" lon="7.92399309576296">
				<ele>58.3000030517578</ele>
				<time>2012-04-21T12:06:00</time>
			</trkpt>
			<trkpt lat="52.2253374103943" lon="7.92302649468921">
				<ele>60.5</ele>
				<time>2012-04-21T12:06:08</time>
			</trkpt>
			<trkpt lat="52.2253427748123" lon="7.92252165266119">
				<ele>63.6999969482422</ele>
				<time>2012-04-21T12:06:13</time>
			</trkpt>
			<trkpt lat="52.2253504442537" lon="7.92193257250629">
				<ele>66.5999984741211</ele>
				<time>2012-04-21T12:06:18</time>
			</trkpt>
			<trkpt lat="52.2253799904624" lon="7.92155547068261">
				<ele>66.5999984741211</ele>
				<time>2012-04-21T12:06:21</time>
			</trkpt>
			<trkpt lat="52.2256208025405" lon="7.92102917098247">
				<ele>65.0999984741211</ele>
				<time>2012-04-21T12:06:27</time>
			</trkpt>
			<trkpt lat="52.2260756884257" lon="7.92101249099515">
				<ele>54.6999969482422</ele>
				<time>2012-04-21T12:06:33</time>
			</trkpt>
			<trkpt lat="52.2264952864984" lon="7.92128951289497">
				<ele>53.5999984741211</ele>
				<time>2012-04-21T12:06:39</time>
			</trkpt>
			<trkpt lat="52.2267663991565" lon="7.92153837160014">
				<ele>49.5999984741211</ele>
				<time>2012-04-21T12:06:43</time>
			</trkpt>
			<trkpt lat="52.2269142559285" lon="7.92167223059379">
				<ele>45.9000015258789</ele>
				<time>2012-04-21T12:06:45</time>
			</trkpt>
			<trkpt lat="52.2273816727588" lon="7.92231629603349">
				<ele>49</ele>
				<time>2012-04-21T12:06:53</time>
			</trkpt>
			<trkpt lat="52.2276570601875" lon="7.92273069732629">
				<ele>51.6999969482422</ele>
				<time>2012-04-21T12:06:58</time>
			</trkpt>
			<trkpt lat="52.2279099841157" lon="7.9231741838231">
				<ele>50.5</ele>
				<time>2012-04-21T12:07:03</time>
			</trkpt>
			<trkpt lat="52.2281817254165" lon="7.92372956872724">
				<ele>50.5</ele>
				<time>2012-04-21T12:07:10</time>
			</trkpt>
			<trkpt lat="52.2284018341938" lon="7.9240479134097">
				<ele>49.6999969482422</ele>
				<time>2012-04-21T12:07:13</time>
			</trkpt>
			<trkpt lat="52.2287742002422" lon="7.92443783954524">
				<ele>52.0999984741211</ele>
				<time>2012-04-21T12:07:19</time>
			</trkpt>
			<trkpt lat="52.2288951091955" lon="7.92453423143171">
				<ele>52.9000015258789</ele>
				<time>2012-04-21T12:07:21</time>
			</trkpt>
			<trkpt lat="52.2293792898322" lon="7.92476540432118">
				<ele>47.5999984741211</ele>
				<time>2012-04-21T12:07:27</time>
			</trkpt>
			<trkpt lat="52.2298398754115" lon="7.92487914674722">
				<ele>48.9000015258789</ele>
				<time>2012-04-21T12:07:33</time>
			</trkpt>
			<trkpt lat="52.2301312303657" lon="7.92498987168812">
				<ele>50.0999984741211</ele>
				<time>2012-04-21T12:07:37</time>
			</trkpt>
			<trkpt lat="52.2304708650822" lon="7.92515390553318">
				<ele>51.3000030517578</ele>
				<time>2012-04-21T12:07:42</time>
			</trkpt>
			<trkpt lat="52.2307091625894" lon="7.92520612478994">
				<ele>48.9000015258789</ele>
				<time>2012-04-21T12:07:45</time>
			</trkpt>
			<trkpt lat="52.2313955985496" lon="7.92497763410949">
				<ele>51.0999984741211</ele>
				<time>2012-04-21T12:07:54</time>
			</trkpt>
			<trkpt lat="52.2317451239119" lon="7.92460832745575">
				<ele>54.9000015258789</ele>
				<time>2012-04-21T12:07:59</time>
			</trkpt>
			<trkpt lat="52.2318093292902" lon="7.92451981455826">
				<ele>57.5</ele>
				<time>2012-04-21T12:08:01</time>
			</trkpt>
			<trkpt lat="52.2322811885292" lon="7.9237542953416">
				<ele>62.5</ele>
				<time>2012-04-21T12:08:09</time>
			</trkpt>
			<trkpt lat="52.232596389998" lon="7.92326797731959">
				<ele>60.1999969482422</ele>
				<time>2012-04-21T12:08:14</time>
			</trkpt>
			<trkpt lat="52.2328309575582" lon="7.92294669897102">
				<ele>59.8000030517578</ele>
				<time>2012-04-21T12:08:18</time>
			</trkpt>
			<trkpt lat="52.2329407185803" lon="7.92276162654899">
				<ele>62</ele>
				<time>2012-04-21T12:08:20</time>
			</trkpt>
			<trkpt lat="52.2331538284684" lon="7.92197716423117">
				<ele>67.3000030517578</ele>
				<time>2012-04-21T12:08:27</time>
			</trkpt>
			<trkpt lat="52.2332314029822" lon="7.92150643654905">
				<ele>65.3000030517578</ele>
				<time>2012-04-21T12:08:33</time>
			</trkpt>
			<trkpt lat="52.233335045215" lon="7.92097737082087">
				<ele>67.3000030517578</ele>
				<time>2012-04-21T12:08:39</time>
			</trkpt>
			<trkpt lat="52.2334021842594" lon="7.92063614354275">
				<ele>65.4000015258789</ele>
				<time>2012-04-21T12:08:43</time>
			</trkpt>
			<trkpt lat="52.2334496258313" lon="7.92029332370304">
				<ele>65</ele>
				<time>2012-04-21T12:08:47</time>
			</trkpt>
			<trkpt lat="52.2334903199712" lon="7.92006835342191">
				<ele>64.9000015258789</ele>
				<time>2012-04-21T12:08:51</time>
			</trkpt>
			<trkpt lat="52.2336040623972" lon="7.91936058551811">
				<ele>63.8000030517578</ele>
				<time>2012-04-21T12:09:00</time>
			</trkpt>
			<trkpt lat="52.2336194012801" lon="7.91925187223397">
				<ele>65.5999984741211</ele>
				<time>2012-04-21T12:09:02</time>
			</trkpt>
			<trkpt lat="52.2336741770173" lon="7.91897258722029">
				<ele>64.0999984741211</ele>
				<time>2012-04-21T12:09:07</time>
			</trkpt>
			<trkpt lat="52.2337569483111" lon="7.91861887090646">
				<ele>72.9000015258789</ele>
				<time>2012-04-21T12:09:14</time>
			</trkpt>
			<trkpt lat="52.2338148253525" lon="7.91816691868745">
				<ele>72.4000015258789</ele>
				<time>2012-04-21T12:09:20</time>
			</trkpt>
			<trkpt lat="52.2337841894964" lon="7.91803197004638">
				<ele>70.0999984741211</ele>
				<time>2012-04-21T12:09:21</time>
			</trkpt>
			<trkpt lat="52.2335779946784" lon="7.91755436920367">
				<ele>72.3000030517578</ele>
				<time>2012-04-21T12:09:27</time>
			</trkpt>
			<trkpt lat="52.2333913716043" lon="7.91706511751555">
				<ele>61.4000015258789</ele>
				<time>2012-04-21T12:09:34</time>
			</trkpt>
			<trkpt lat="52.2333772900069" lon="7.91693050415061">
				<ele>63.4000015258789</ele>
				<time>2012-04-21T12:09:36</time>
			</trkpt>
			<trkpt lat="52.2332842927913" lon="7.91641635821007">
				<ele>65</ele>
				<time>2012-04-21T12:09:44</time>
			</trkpt>
			<trkpt lat="52.233163467657" lon="7.91606381536267">
				<ele>67</ele>
				<time>2012-04-21T12:09:49</time>
			</trkpt>
			<trkpt lat="52.2330552572871" lon="7.91570247151695">
				<ele>69.8000030517578</ele>
				<time>2012-04-21T12:09:55</time>
			</trkpt>
			<trkpt lat="52.2329061851392" lon="7.91515253484986">
				<ele>66.6999969482422</ele>
				<time>2012-04-21T12:10:00</time>
			</trkpt>
			<trkpt lat="52.2328319214771" lon="7.91480359622083">
				<ele>67.1999969482422</ele>
				<time>2012-04-21T12:10:04</time>
			</trkpt>
			<trkpt lat="52.2327745473499" lon="7.91445910000048">
				<ele>69.1999969482422</ele>
				<time>2012-04-21T12:10:09</time>
			</trkpt>
			<trkpt lat="52.2326919436941" lon="7.9138240870162">
				<ele>69.4000015258789</ele>
				<time>2012-04-21T12:10:15</time>
			</trkpt>
			<trkpt lat="52.2327097971479" lon="7.91355620139084">
				<ele>73.9000015258789</ele>
				<time>2012-04-21T12:10:18</time>
			</trkpt>
			<trkpt lat="52.2328339750434" lon="7.91291607544563">
				<ele>73.1999969482422</ele>
				<time>2012-04-21T12:10:25</time>
			</trkpt>
			<trkpt lat="52.2329087416197" lon="7.91250251234315">
				<ele>75.1999969482422</ele>
				<time>2012-04-21T12:10:30</time>
			</trkpt>
			<trkpt lat="52.2329661576564" lon="7.91212884709976">
				<ele>74.5999984741211</ele>
				<time>2012-04-21T12:10:34</time>
			</trkpt>
			<trkpt lat="52.2330116294811" lon="7.91185593233249">
				<ele>75.5</ele>
				<time>2012-04-21T12:10:36</time>
			</trkpt>
			<trkpt lat="52.2332042875255" lon="7.9107557237222">
				<ele>78.5999984741211</ele>
				<time>2012-04-21T12:10:45</time>
			</trkpt>
			<trkpt lat="52.2332158126423" lon="7.91064449586711">
				<ele>78.5</ele>
				<time>2012-04-21T12:10:46</time>
			</trkpt>
			<trkpt lat="52.2332837479675" lon="7.90955929086349">
				<ele>77.5</ele>
				<time>2012-04-21T12:10:54</time>
			</trkpt>
			<trkpt lat="52.2332124179716" lon="7.90890491568289">
				<ele>72.8000030517578</ele>
				<time>2012-04-21T12:10:59</time>
			</trkpt>
			<trkpt lat="52.2331235278884" lon="7.90837643668792">
				<ele>71.8000030517578</ele>
				<time>2012-04-21T12:11:04</time>
			</trkpt>
			<trkpt lat="52.232809332248" lon="7.90758124553404">
				<ele>70.9000015258789</ele>
				<time>2012-04-21T12:11:10</time>
			</trkpt>
			<trkpt lat="52.2326331865529" lon="7.90727145039282">
				<ele>70.9000015258789</ele>
				<time>2012-04-21T12:11:13</time>
			</trkpt>
			<trkpt lat="52.2322614072377" lon="7.90679602884493">
				<ele>73</ele>
				<time>2012-04-21T12:11:19</time>
			</trkpt>
			<trkpt lat="52.2319613770137" lon="7.90642328561089">
				<ele>72.4000015258789</ele>
				<time>2012-04-21T12:11:24</time>
			</trkpt>
			<trkpt lat="52.2317810822765" lon="7.9062066134139">
				<ele>72.1999969482422</ele>
				<time>2012-04-21T12:11:27</time>
			</trkpt>
			<trkpt lat="52.2314987797777" lon="7.90554184467337">
				<ele>68.9000015258789</ele>
				<time>2012-04-21T12:11:34</time>
			</trkpt>
			<trkpt lat="52.2313272860388" lon="7.9050477314814">
				<ele>69.3000030517578</ele>
				<time>2012-04-21T12:11:39</time>
			</trkpt>
			<trkpt lat="52.2311800579096" lon="7.90467549116156">
				<ele>65.9000015258789</ele>
				<time>2012-04-21T12:11:43</time>
			</trkpt>
			<trkpt lat="52.2310086060802" lon="7.9042189288958">
				<ele>61.9000015258789</ele>
				<time>2012-04-21T12:11:48</time>
			</trkpt>
			<trkpt lat="52.2308380762602" lon="7.90367251262805">
				<ele>64.5999984741211</ele>
				<time>2012-04-21T12:11:54</time>
			</trkpt>
			<trkpt lat="52.2306663729737" lon="7.90315618739268">
				<ele>68</ele>
				<time>2012-04-21T12:12:00</time>
			</trkpt>
			<trkpt lat="52.2305255570004" lon="7.90287245997032">
				<ele>69.4000015258789</ele>
				<time>2012-04-21T12:12:04</time>
			</trkpt>
			<trkpt lat="52.2303324798608" lon="7.902528047569">
				<ele>70.4000015258789</ele>
				<time>2012-04-21T12:12:09</time>
			</trkpt>
			<trkpt lat="52.2301343735794" lon="7.90218782611927">
				<ele>69.6999969482422</ele>
				<time>2012-04-21T12:12:14</time>
			</trkpt>
			<trkpt lat="52.2299286816756" lon="7.90188490413865">
				<ele>71.3000030517578</ele>
				<time>2012-04-21T12:12:19</time>
			</trkpt>
			<trkpt lat="52.2296994785333" lon="7.90160126053533">
				<ele>73</ele>
				<time>2012-04-21T12:12:24</time>
			</trkpt>
			<trkpt lat="52.2294468060622" lon="7.90132155642649">
				<ele>74.3000030517578</ele>
				<time>2012-04-21T12:12:29</time>
			</trkpt>
			<trkpt lat="52.2292897711063" lon="7.90116288699946">
				<ele>73.6999969482422</ele>
				<time>2012-04-21T12:12:32</time>
			</trkpt>
			<trkpt lat="52.2289754497374" lon="7.90079542436441">
				<ele>75.0999984741211</ele>
				<time>2012-04-21T12:12:38</time>
			</trkpt>
			<trkpt lat="52.2288309457267" lon="7.90061236359915">
				<ele>74.4000015258789</ele>
				<time>2012-04-21T12:12:41</time>
			</trkpt>
			<trkpt lat="52.2285936959574" lon="7.9001381155177">
				<ele>76.0999984741211</ele>
				<time>2012-04-21T12:12:48</time>
			</trkpt>
			<trkpt lat="52.2284646146486" lon="7.89955465123793">
				<ele>73.8000030517578</ele>
				<time>2012-04-21T12:12:55</time>
			</trkpt>
			<trkpt lat="52.2284078691641" lon="7.89926002734145">
				<ele>74.0999984741211</ele>
				<time>2012-04-21T12:12:59</time>
			</trkpt>
			<trkpt lat="52.2283141594867" lon="7.89886440151175">
				<ele>73.5</ele>
				<time>2012-04-21T12:13:04</time>
			</trkpt>
			<trkpt lat="52.2282998683417" lon="7.89846860804399">
				<ele>71.6999969482422</ele>
				<time>2012-04-21T12:13:09</time>
			</trkpt>
			<trkpt lat="52.2283742996419" lon="7.89808471687874">
				<ele>74.8000030517578</ele>
				<time>2012-04-21T12:13:14</time>
			</trkpt>
			<trkpt lat="52.2284374572823" lon="7.89775421843668">
				<ele>75.9000015258789</ele>
				<time>2012-04-21T12:13:18</time>
			</trkpt>
			<trkpt lat="52.2285004891942" lon="7.89726446383437">
				<ele>73.0999984741211</ele>
				<time>2012-04-21T12:13:25</time>
			</trkpt>
			<trkpt lat="52.2285506548846" lon="7.89694930427512">
				<ele>72.0999984741211</ele>
				<time>2012-04-21T12:13:29</time>
			</trkpt>
			<trkpt lat="52.2285442846382" lon="7.89676280692955">
				<ele>73.5999984741211</ele>
				<time>2012-04-21T12:13:32</time>
			</trkpt>
			<trkpt lat="52.2283179313431" lon="7.89648871869584">
				<ele>79.3000030517578</ele>
				<time>2012-04-21T12:13:40</time>
			</trkpt>
			<trkpt lat="52.2280236427227" lon="7.89636273869117">
				<ele>80.5</ele>
				<time>2012-04-21T12:13:45</time>
			</trkpt>
			<trkpt lat="52.2277794359738" lon="7.8962454758658">
				<ele>83.3000030517578</ele>
				<time>2012-04-21T12:13:49</time>
			</trkpt>
			<trkpt lat="52.227364867043" lon="7.8961627464815">
				<ele>84.3000030517578</ele>
				<time>2012-04-21T12:13:54</time>
			</trkpt>
			<trkpt lat="52.2270581732059" lon="7.89614237845679">
				<ele>83.6999969482422</ele>
				<time>2012-04-21T12:13:58</time>
			</trkpt>
			<trkpt lat="52.2267613700146" lon="7.89611387998601">
				<ele>85.1999969482422</ele>
				<time>2012-04-21T12:14:02</time>
			</trkpt>
			<trkpt lat="52.2262535105014" lon="7.8960887342765">
				<ele>82.5</ele>
				<time>2012-04-21T12:14:10</time>
			</trkpt>
			<trkpt lat="52.2260960983599" lon="7.89611865767082">
				<ele>81.1000061035156</ele>
				<time>2012-04-21T12:14:12</time>
			</trkpt>
			<trkpt lat="52.2255205549786" lon="7.89610088803609">
				<ele>84.6999969482422</ele>
				<time>2012-04-21T12:14:19</time>
			</trkpt>
			<trkpt lat="52.2251116438324" lon="7.89582034573694">
				<ele>84.6999969482422</ele>
				<time>2012-04-21T12:14:25</time>
			</trkpt>
			<trkpt lat="52.2246926324928" lon="7.89556855336567">
				<ele>85.3999938964844</ele>
				<time>2012-04-21T12:14:31</time>
			</trkpt>
			<trkpt lat="52.2244112520034" lon="7.89541332051893">
				<ele>84.1999969482422</ele>
				<time>2012-04-21T12:14:36</time>
			</trkpt>
			<trkpt lat="52.2240854474271" lon="7.89518809878071">
				<ele>83.1999969482422</ele>
				<time>2012-04-21T12:14:40</time>
			</trkpt>
			<trkpt lat="52.2237603972221" lon="7.89500394836803">
				<ele>83.1000061035156</ele>
				<time>2012-04-21T12:14:45</time>
			</trkpt>
			<trkpt lat="52.2234146018068" lon="7.89482633583983">
				<ele>82.1000061035156</ele>
				<time>2012-04-21T12:14:50</time>
			</trkpt>
			<trkpt lat="52.2231801180655" lon="7.8946462925597">
				<ele>86.8000030517578</ele>
				<time>2012-04-21T12:14:54</time>
			</trkpt>
			<trkpt lat="52.2229056945557" lon="7.89448108524819">
				<ele>88.3000030517578</ele>
				<time>2012-04-21T12:14:59</time>
			</trkpt>
			<trkpt lat="52.2225428419674" lon="7.89442509413501">
				<ele>92.6999969482422</ele>
				<time>2012-04-21T12:15:04</time>
			</trkpt>
			<trkpt lat="52.2221800312886" lon="7.8944842703714">
				<ele>91.1999969482422</ele>
				<time>2012-04-21T12:15:10</time>
			</trkpt>
			<trkpt lat="52.2218046058456" lon="7.89445518516739">
				<ele>87.1999969482422</ele>
				<time>2012-04-21T12:15:16</time>
			</trkpt>
			<trkpt lat="52.2216308909023" lon="7.89434571751197">
				<ele>86.3999938964844</ele>
				<time>2012-04-21T12:15:19</time>
			</trkpt>
			<trkpt lat="52.2213373985628" lon="7.89396643639346">
				<ele>85.6999969482422</ele>
				<time>2012-04-21T12:15:25</time>
			</trkpt>
			<trkpt lat="52.2211773461217" lon="7.89359427989264">
				<ele>82.8999938964844</ele>
				<time>2012-04-21T12:15:30</time>
			</trkpt>
			<trkpt lat="52.2210649448002" lon="7.89327065461119">
				<ele>82.8999938964844</ele>
				<time>2012-04-21T12:15:34</time>
			</trkpt>
			<trkpt lat="52.2208865779007" lon="7.89279917255779">
				<ele>84.1000061035156</ele>
				<time>2012-04-21T12:15:40</time>
			</trkpt>
			<trkpt lat="52.2206955124179" lon="7.89240639657517">
				<ele>81.8000030517578</ele>
				<time>2012-04-21T12:15:46</time>
			</trkpt>
			<trkpt lat="52.2203935124466" lon="7.89212350734313">
				<ele>75.4000015258789</ele>
				<time>2012-04-21T12:15:51</time>
			</trkpt>
			<trkpt lat="52.2203459451461" lon="7.89207715541859">
				<ele>74.5999984741211</ele>
				<time>2012-04-21T12:15:52</time>
			</trkpt>
			<trkpt lat="52.2199914325515" lon="7.89182947017987">
				<ele>77.0999984741211</ele>
				<time>2012-04-21T12:15:59</time>
			</trkpt>
			<trkpt lat="52.2196151689181" lon="7.89166208357354">
				<ele>76.1999969482422</ele>
				<time>2012-04-21T12:16:06</time>
			</trkpt>
			<trkpt lat="52.2194438009078" lon="7.89198277518888">
				<ele>78.1999969482422</ele>
				<time>2012-04-21T12:16:10</time>
			</trkpt>
			<trkpt lat="52.2192130471135" lon="7.89237177931507">
				<ele>79</ele>
				<time>2012-04-21T12:16:15</time>
			</trkpt>
			<trkpt lat="52.2190240771065" lon="7.89267243818184">
				<ele>78.0999984741211</ele>
				<time>2012-04-21T12:16:19</time>
			</trkpt>
			<trkpt lat="52.2188123502324" lon="7.89307904430469">
				<ele>78.5</ele>
				<time>2012-04-21T12:16:24</time>
			</trkpt>
			<trkpt lat="52.2184720868731" lon="7.89354524575909">
				<ele>77.6999969482422</ele>
				<time>2012-04-21T12:16:30</time>
			</trkpt>
			<trkpt lat="52.2182173608357" lon="7.89388923906525">
				<ele>81.1000061035156</ele>
				<time>2012-04-21T12:16:35</time>
			</trkpt>
			<trkpt lat="52.2179488465676" lon="7.89421563037475">
				<ele>79.6999969482422</ele>
				<time>2012-04-21T12:16:40</time>
			</trkpt>
			<trkpt lat="52.2177301208044" lon="7.89441025816639">
				<ele>81.8000030517578</ele>
				<time>2012-04-21T12:16:44</time>
			</trkpt>
			<trkpt lat="52.2174404422308" lon="7.89471812546988">
				<ele>85.3000030517578</ele>
				<time>2012-04-21T12:16:50</time>
			</trkpt>
			<trkpt lat="52.2171252826715" lon="7.89488953538974">
				<ele>83</ele>
				<time>2012-04-21T12:16:55</time>
			</trkpt>
			<trkpt lat="52.2168662818635" lon="7.89490671829124">
				<ele>83</ele>
				<time>2012-04-21T12:17:00</time>
			</trkpt>
			<trkpt lat="52.2166406410301" lon="7.89484536276003">
				<ele>85</ele>
				<time>2012-04-21T12:17:04</time>
			</trkpt>
			<trkpt lat="52.2163501661757" lon="7.89479766973098">
				<ele>82.5</ele>
				<time>2012-04-21T12:17:09</time>
			</trkpt>
			<trkpt lat="52.2160703363383" lon="7.89471167140444">
				<ele>85.8000030517578</ele>
				<time>2012-04-21T12:17:16</time>
			</trkpt>
			<trkpt lat="52.2157179192195" lon="7.89477051236471">
				<ele>85.1999969482422</ele>
				<time>2012-04-21T12:17:21</time>
			</trkpt>
			<trkpt lat="52.2155789053554" lon="7.89480973967155">
				<ele>86.6999969482422</ele>
				<time>2012-04-21T12:17:25</time>
			</trkpt>
			<trkpt lat="52.2151585529113" lon="7.89492725395401">
				<ele>83.6000061035156</ele>
				<time>2012-04-21T12:17:32</time>
			</trkpt>
			<trkpt lat="52.2149995482082" lon="7.8949454426839">
				<ele>84.1999969482422</ele>
				<time>2012-04-21T12:17:35</time>
			</trkpt>
			<trkpt lat="52.2148257494459" lon="7.8950109891667">
				<ele>82.8000030517578</ele>
				<time>2012-04-21T12:17:39</time>
			</trkpt>
			<trkpt lat="52.2144325962776" lon="7.89512900636335">
				<ele>85.5</ele>
				<time>2012-04-21T12:17:48</time>
			</trkpt>
			<trkpt lat="52.2143028863261" lon="7.89519002661844">
				<ele>86.3999938964844</ele>
				<time>2012-04-21T12:17:51</time>
			</trkpt>
			<trkpt lat="52.2141081747154" lon="7.89505239576837">
				<ele>86.6999969482422</ele>
				<time>2012-04-21T12:17:55</time>
			</trkpt>
			<trkpt lat="52.2140557040015" lon="7.89464168251296">
				<ele>85.3000030517578</ele>
				<time>2012-04-21T12:18:00</time>
			</trkpt>
			<trkpt lat="52.2139945580179" lon="7.89416550659378">
				<ele>85.8000030517578</ele>
				<time>2012-04-21T12:18:05</time>
			</trkpt>
			<trkpt lat="52.2139268322403" lon="7.89371816442152">
				<ele>82.6000061035156</ele>
				<time>2012-04-21T12:18:10</time>
			</trkpt>
			<trkpt lat="52.2138607409338" lon="7.8931578341945">
				<ele>80</ele>
				<time>2012-04-21T12:18:17</time>
			</trkpt>
			<trkpt lat="52.2138063004727" lon="7.89268082008501">
				<ele>76.9000015258789</ele>
				<time>2012-04-21T12:18:21</time>
			</trkpt>
			<trkpt lat="52.2137368144954" lon="7.89227739908536">
				<ele>75.3000030517578</ele>
				<time>2012-04-21T12:18:27</time>
			</trkpt>
			<trkpt lat="52.2136788536349" lon="7.89183064364632">
				<ele>75.0999984741211</ele>
				<time>2012-04-21T12:18:31</time>
			</trkpt>
			<trkpt lat="52.2136329208056" lon="7.89135790430744">
				<ele>72.9000015258789</ele>
				<time>2012-04-21T12:18:36</time>
			</trkpt>
			<trkpt lat="52.2135795280824" lon="7.89109379053851">
				<ele>71.9000015258789</ele>
				<time>2012-04-21T12:18:40</time>
			</trkpt>
			<trkpt lat="52.2135380795712" lon="7.89056162350615">
				<ele>72.1999969482422</ele>
				<time>2012-04-21T12:18:46</time>
			</trkpt>
			<trkpt lat="52.2135167057181" lon="7.89036833681901">
				<ele>72.3000030517578</ele>
				<time>2012-04-21T12:18:49</time>
			</trkpt>
			<trkpt lat="52.2134545958156" lon="7.88958705962439">
				<ele>75.4000015258789</ele>
				<time>2012-04-21T12:18:56</time>
			</trkpt>
			<trkpt lat="52.2133772308493" lon="7.88900158368786">
				<ele>75.5999984741211</ele>
				<time>2012-04-21T12:19:02</time>
			</trkpt>
			<trkpt lat="52.2133537615204" lon="7.88862993010123">
				<ele>75.5999984741211</ele>
				<time>2012-04-21T12:19:05</time>
			</trkpt>
			<trkpt lat="52.2133096308002" lon="7.88800287992497">
				<ele>73.5999984741211</ele>
				<time>2012-04-21T12:19:12</time>
			</trkpt>
			<trkpt lat="52.2132844850907" lon="7.88770490326722">
				<ele>74.5999984741211</ele>
				<time>2012-04-21T12:19:14</time>
			</trkpt>
			<trkpt lat="52.2133266460637" lon="7.88700308651467">
				<ele>76.9000015258789</ele>
				<time>2012-04-21T12:19:21</time>
			</trkpt>
			<trkpt lat="52.2133918991799" lon="7.88661450148363">
				<ele>78.6999969482422</ele>
				<time>2012-04-21T12:19:25</time>
			</trkpt>
			<trkpt lat="52.2134700185174" lon="7.88632054813941">
				<ele>80.0999984741211</ele>
				<time>2012-04-21T12:19:28</time>
			</trkpt>
			<trkpt lat="52.2137442324797" lon="7.8857266902997">
				<ele>81.5</ele>
				<time>2012-04-21T12:19:35</time>
			</trkpt>
			<trkpt lat="52.213967107285" lon="7.88532326930006">
				<ele>85.8999938964844</ele>
				<time>2012-04-21T12:19:41</time>
			</trkpt>
			<trkpt lat="52.2141831089297" lon="7.88509779610474">
				<ele>88.3999938964844</ele>
				<time>2012-04-21T12:19:46</time>
			</trkpt>
			<trkpt lat="52.2143209912369" lon="7.88493460044999">
				<ele>87.8000030517578</ele>
				<time>2012-04-21T12:19:49</time>
			</trkpt>
			<trkpt lat="52.2145576961825" lon="7.88471139036853">
				<ele>90.1000061035156</ele>
				<time>2012-04-21T12:19:56</time>
			</trkpt>
			<trkpt lat="52.2146213567371" lon="7.88442892023165">
				<ele>90.3000030517578</ele>
				<time>2012-04-21T12:20:01</time>
			</trkpt>
			<trkpt lat="52.2144862404579" lon="7.88428768516321">
				<ele>91.5</ele>
				<time>2012-04-21T12:20:07</time>
			</trkpt>
			<trkpt lat="52.2144707758466" lon="7.88426270709176">
				<ele>91.6000061035156</ele>
				<time>2012-04-21T12:20:08</time>
			</trkpt>
			<trkpt lat="52.2144733323271" lon="7.88419238292415">
				<ele>87.8000030517578</ele>
				<time>2012-04-21T12:20:14</time>
			</trkpt>
			<trkpt lat="52.2144368710483" lon="7.88416380063434">
				<ele>88.5</ele>
				<time>2012-04-21T12:20:24</time>
			</trkpt>
			<trkpt lat="52.2145002382362" lon="7.88412692026038">
				<ele>88</ele>
				<time>2012-04-21T12:21:37</time>
			</trkpt>
			<trkpt lat="52.2144869110102" lon="7.88414284587641">
				<ele>88.1000061035156</ele>
				<time>2012-04-21T12:21:41</time>
			</trkpt>
			<trkpt lat="52.2145056026543" lon="7.88413069211681">
				<ele>88.8999938964844</ele>
				<time>2012-04-21T12:21:47</time>
			</trkpt>
			<trkpt lat="52.2148634680102" lon="7.88422456943233">
				<ele>85.8000030517578</ele>
				<time>2012-04-21T12:22:59</time>
			</trkpt>
			<trkpt lat="52.2150829900542" lon="7.88408853114386">
				<ele>87.5</ele>
				<time>2012-04-21T12:23:05</time>
			</trkpt>
			<trkpt lat="52.2152812639738" lon="7.88382223808009">
				<ele>87</ele>
				<time>2012-04-21T12:23:08</time>
			</trkpt>
			<trkpt lat="52.2155098803828" lon="7.8834556974544">
				<ele>89</ele>
				<time>2012-04-21T12:23:14</time>
			</trkpt>
			<trkpt lat="52.2156799911076" lon="7.88311631419499">
				<ele>88.6000061035156</ele>
				<time>2012-04-21T12:23:18</time>
			</trkpt>
			<trkpt lat="52.2157756286228" lon="7.88292721845944">
				<ele>89.6999969482422</ele>
				<time>2012-04-21T12:23:21</time>
			</trkpt>
			<trkpt lat="52.2159658978248" lon="7.88255732507248">
				<ele>93.6999969482422</ele>
				<time>2012-04-21T12:23:28</time>
			</trkpt>
			<trkpt lat="52.2161943046862" lon="7.88214242086549">
				<ele>93.6999969482422</ele>
				<time>2012-04-21T12:23:33</time>
			</trkpt>
			<trkpt lat="52.2162652574966" lon="7.88202675060172">
				<ele>93.1999969482422</ele>
				<time>2012-04-21T12:23:35</time>
			</trkpt>
			<trkpt lat="52.2165624378735" lon="7.88147941232462">
				<ele>93.6999969482422</ele>
				<time>2012-04-21T12:23:42</time>
			</trkpt>
			<trkpt lat="52.2167950775961" lon="7.88111555390794">
				<ele>94.3999938964844</ele>
				<time>2012-04-21T12:23:48</time>
			</trkpt>
			<trkpt lat="52.2170462832341" lon="7.88065312430996">
				<ele>93.3000030517578</ele>
				<time>2012-04-21T12:23:53</time>
			</trkpt>
			<trkpt lat="52.2171629174167" lon="7.88047308102984">
				<ele>89.6000061035156</ele>
				<time>2012-04-21T12:23:56</time>
			</trkpt>
			<trkpt lat="52.2176726209486" lon="7.87994829007227">
				<ele>88.1999969482422</ele>
				<time>2012-04-21T12:24:05</time>
			</trkpt>
			<trkpt lat="52.2177369520554" lon="7.87989037112135">
				<ele>87.1999969482422</ele>
				<time>2012-04-21T12:24:05</time>
			</trkpt>
			<trkpt lat="52.2183359228561" lon="7.87954470143456">
				<ele>91.8000030517578</ele>
				<time>2012-04-21T12:24:14</time>
			</trkpt>
			<trkpt lat="52.2186284093673" lon="7.87942576222856">
				<ele>91.5</ele>
				<time>2012-04-21T12:24:18</time>
			</trkpt>
			<trkpt lat="52.2190097859616" lon="7.87921051495511">
				<ele>92.1999969482422</ele>
				<time>2012-04-21T12:24:23</time>
			</trkpt>
			<trkpt lat="52.2191780526677" lon="7.87908939645428">
				<ele>91.1999969482422</ele>
				<time>2012-04-21T12:24:25</time>
			</trkpt>
			<trkpt lat="52.2196525941158" lon="7.87862587720889">
				<ele>95.8000030517578</ele>
				<time>2012-04-21T12:24:33</time>
			</trkpt>
			<trkpt lat="52.2199061466867" lon="7.87830166519422">
				<ele>96.1000061035156</ele>
				<time>2012-04-21T12:24:37</time>
			</trkpt>
			<trkpt lat="52.2202472063268" lon="7.87785197608907">
				<ele>95.6999969482422</ele>
				<time>2012-04-21T12:24:44</time>
			</trkpt>
			<trkpt lat="52.2203916684279" lon="7.87762365304667">
				<ele>97.6000061035156</ele>
				<time>2012-04-21T12:24:46</time>
			</trkpt>
			<trkpt lat="52.2205956839511" lon="7.8773097507729">
				<ele>97.3000030517578</ele>
				<time>2012-04-21T12:24:51</time>
			</trkpt>
			<trkpt lat="52.2209341032917" lon="7.87666400895256">
				<ele>96.6999969482422</ele>
				<time>2012-04-21T12:24:58</time>
			</trkpt>
			<trkpt lat="52.2211377416292" lon="7.87624290213722">
				<ele>93.6000061035156</ele>
				<time>2012-04-21T12:25:03</time>
			</trkpt>
			<trkpt lat="52.2213069303448" lon="7.87579321303207">
				<ele>94.5</ele>
				<time>2012-04-21T12:25:08</time>
			</trkpt>
			<trkpt lat="52.2214744007701" lon="7.87534855306882">
				<ele>93.8999938964844</ele>
				<time>2012-04-21T12:25:13</time>
			</trkpt>
			<trkpt lat="52.2216390213484" lon="7.87489567884046">
				<ele>93.8000030517578</ele>
				<time>2012-04-21T12:25:18</time>
			</trkpt>
			<trkpt lat="52.2218436236048" lon="7.87434163504082">
				<ele>93.3000030517578</ele>
				<time>2012-04-21T12:25:25</time>
			</trkpt>
			<trkpt lat="52.2219596291447" lon="7.87397702225286">
				<ele>95.6999969482422</ele>
				<time>2012-04-21T12:25:28</time>
			</trkpt>
			<trkpt lat="52.2221239144469" lon="7.87351677194971">
				<ele>95.1000061035156</ele>
				<time>2012-04-21T12:25:33</time>
			</trkpt>
			<trkpt lat="52.2222900856773" lon="7.87303288467962">
				<ele>95.1000061035156</ele>
				<time>2012-04-21T12:25:38</time>
			</trkpt>
			<trkpt lat="52.2224787623177" lon="7.87257917226094">
				<ele>95.3000030517578</ele>
				<time>2012-04-21T12:25:43</time>
			</trkpt>
			<trkpt lat="52.2225715499858" lon="7.87237809040385">
				<ele>94.3999938964844</ele>
				<time>2012-04-21T12:25:45</time>
			</trkpt>
			<trkpt lat="52.2228458477671" lon="7.87179873325664">
				<ele>97.3000030517578</ele>
				<time>2012-04-21T12:25:52</time>
			</trkpt>
			<trkpt lat="52.223066417549" lon="7.87139019929606">
				<ele>98.5</ele>
				<time>2012-04-21T12:25:58</time>
			</trkpt>
			<trkpt lat="52.2232560581083" lon="7.87106146105367">
				<ele>102.899993896484</ele>
				<time>2012-04-21T12:26:04</time>
			</trkpt>
			<trkpt lat="52.2234229418004" lon="7.87076532841462">
				<ele>102.600006103516</ele>
				<time>2012-04-21T12:26:08</time>
			</trkpt>
			<trkpt lat="52.223610905979" lon="7.87049249746638">
				<ele>100.600006103516</ele>
				<time>2012-04-21T12:26:13</time>
			</trkpt>
			<trkpt lat="52.2237593075747" lon="7.87027825602132">
				<ele>101.100006103516</ele>
				<time>2012-04-21T12:26:17</time>
			</trkpt>
			<trkpt lat="52.2239987785483" lon="7.87000081502634">
				<ele>102.5</ele>
				<time>2012-04-21T12:26:23</time>
			</trkpt>
			<trkpt lat="52.2241872875506" lon="7.86976712756592">
				<ele>105</ele>
				<time>2012-04-21T12:26:29</time>
			</trkpt>
			<trkpt lat="52.2243900457883" lon="7.86957182922202">
				<ele>107.199996948242</ele>
				<time>2012-04-21T12:26:33</time>
			</trkpt>
			<trkpt lat="52.2245705081636" lon="7.86936756224173">
				<ele>106.199996948242</ele>
				<time>2012-04-21T12:26:38</time>
			</trkpt>
			<trkpt lat="52.2248053690905" lon="7.86915533245343">
				<ele>109.199996948242</ele>
				<time>2012-04-21T12:26:44</time>
			</trkpt>
			<trkpt lat="52.2248853324468" lon="7.86908794195193">
				<ele>108.899993896484</ele>
				<time>2012-04-21T12:26:46</time>
			</trkpt>
			<trkpt lat="52.2251591273139" lon="7.86882617511588">
				<ele>109.100006103516</ele>
				<time>2012-04-21T12:26:53</time>
			</trkpt>
			<trkpt lat="52.2253858997042" lon="7.86863666028517">
				<ele>109.5</ele>
				<time>2012-04-21T12:26:58</time>
			</trkpt>
			<trkpt lat="52.2255023243392" lon="7.86851042882341">
				<ele>109.600006103516</ele>
				<time>2012-04-21T12:27:01</time>
			</trkpt>
			<trkpt lat="52.2257824056337" lon="7.868234496571">
				<ele>110.399993896484</ele>
				<time>2012-04-21T12:27:08</time>
			</trkpt>
			<trkpt lat="52.226101714235" lon="7.86792855710524">
				<ele>107.300003051758</ele>
				<time>2012-04-21T12:27:13</time>
			</trkpt>
			<trkpt lat="52.2263986431549" lon="7.8676731605156">
				<ele>106.399993896484</ele>
				<time>2012-04-21T12:27:18</time>
			</trkpt>
			<trkpt lat="52.2267230228076" lon="7.86739085801678">
				<ele>109.300003051758</ele>
				<time>2012-04-21T12:27:23</time>
			</trkpt>
			<trkpt lat="52.2269259067739" lon="7.86720595323282">
				<ele>106.199996948242</ele>
				<time>2012-04-21T12:27:26</time>
			</trkpt>
			<trkpt lat="52.2274230793605" lon="7.86670471542316">
				<ele>105.100006103516</ele>
				<time>2012-04-21T12:27:34</time>
			</trkpt>
			<trkpt lat="52.2277156916002" lon="7.86628000438946">
				<ele>103.5</ele>
				<time>2012-04-21T12:27:38</time>
			</trkpt>
			<trkpt lat="52.2278314037735" lon="7.86607297138112">
				<ele>104.300003051758</ele>
				<time>2012-04-21T12:27:40</time>
			</trkpt>
			<trkpt lat="52.2281906940529" lon="7.86523335614043">
				<ele>103.899993896484</ele>
				<time>2012-04-21T12:27:49</time>
			</trkpt>
			<trkpt lat="52.2283394728342" lon="7.86466833204763">
				<ele>101.699996948242</ele>
				<time>2012-04-21T12:27:53</time>
			</trkpt>
			<trkpt lat="52.2284165025244" lon="7.8643093351348">
				<ele>101.199996948242</ele>
				<time>2012-04-21T12:27:56</time>
			</trkpt>
			<trkpt lat="52.228477648508" lon="7.86368790083366">
				<ele>102.300003051758</ele>
				<time>2012-04-21T12:28:03</time>
			</trkpt>
			<trkpt lat="52.2284972202519" lon="7.86339336075621">
				<ele>103.899993896484</ele>
				<time>2012-04-21T12:28:05</time>
			</trkpt>
			<trkpt lat="52.228481713731" lon="7.8625560924484">
				<ele>105.5</ele>
				<time>2012-04-21T12:28:13</time>
			</trkpt>
			<trkpt lat="52.2284372058252" lon="7.8620504960491">
				<ele>106.600006103516</ele>
				<time>2012-04-21T12:28:18</time>
			</trkpt>
			<trkpt lat="52.2283955477664" lon="7.86188436672824">
				<ele>107.800003051758</ele>
				<time>2012-04-21T12:28:21</time>
			</trkpt>
			<trkpt lat="52.2282165522242" lon="7.86134599708753">
				<ele>108.699996948242</ele>
				<time>2012-04-21T12:28:28</time>
			</trkpt>
			<trkpt lat="52.2281729244182" lon="7.86085850559907">
				<ele>111.100006103516</ele>
				<time>2012-04-21T12:28:33</time>
			</trkpt>
			<trkpt lat="52.2280453937615" lon="7.86035559140878">
				<ele>115.300003051758</ele>
				<time>2012-04-21T12:28:40</time>
			</trkpt>
			<trkpt lat="52.2280246485511" lon="7.86022751592832">
				<ele>115.199996948242</ele>
				<time>2012-04-21T12:28:42</time>
			</trkpt>
			<trkpt lat="52.2279690346236" lon="7.85974773579078">
				<ele>115.899993896484</ele>
				<time>2012-04-21T12:28:49</time>
			</trkpt>
			<trkpt lat="52.2278905381004" lon="7.85936091095941">
				<ele>110.699996948242</ele>
				<time>2012-04-21T12:28:55</time>
			</trkpt>
			<trkpt lat="52.2278586868683" lon="7.85912454128997">
				<ele>111.100006103516</ele>
				<time>2012-04-21T12:29:00</time>
			</trkpt>
			<trkpt lat="52.2277998039985" lon="7.85876261071103">
				<ele>110</ele>
				<time>2012-04-21T12:29:05</time>
			</trkpt>
			<trkpt lat="52.2277814895401" lon="7.85860109143691">
				<ele>110.300003051758</ele>
				<time>2012-04-21T12:29:08</time>
			</trkpt>
			<trkpt lat="52.2277629655341" lon="7.85824351944761">
				<ele>114.399993896484</ele>
				<time>2012-04-21T12:29:14</time>
			</trkpt>
			<trkpt lat="52.2277379455531" lon="7.85788879730539">
				<ele>114.300003051758</ele>
				<time>2012-04-21T12:29:20</time>
			</trkpt>
			<trkpt lat="52.2277278034503" lon="7.85765846260624">
				<ele>114.5</ele>
				<time>2012-04-21T12:29:25</time>
			</trkpt>
			<trkpt lat="52.227707225878" lon="7.85738881678121">
				<ele>113.5</ele>
				<time>2012-04-21T12:29:29</time>
			</trkpt>
			<trkpt lat="52.2276983829702" lon="7.85717926920192">
				<ele>117.100006103516</ele>
				<time>2012-04-21T12:29:33</time>
			</trkpt>
			<trkpt lat="52.2277025320122" lon="7.85687115044133">
				<ele>117.899993896484</ele>
				<time>2012-04-21T12:29:38</time>
			</trkpt>
			<trkpt lat="52.227730946664" lon="7.85643327981965">
				<ele>116.800003051758</ele>
				<time>2012-04-21T12:29:45</time>
			</trkpt>
			<trkpt lat="52.2277336707825" lon="7.8562011011018">
				<ele>118.300003051758</ele>
				<time>2012-04-21T12:29:49</time>
			</trkpt>
			<trkpt lat="52.2277375683675" lon="7.85609129817025">
				<ele>120.199996948242</ele>
				<time>2012-04-21T12:29:51</time>
			</trkpt>
			<trkpt lat="52.2277877759675" lon="7.85564462655024">
				<ele>123.100006103516</ele>
				<time>2012-04-21T12:29:59</time>
			</trkpt>
			<trkpt lat="52.22782738046" lon="7.8553429618551">
				<ele>126.100006103516</ele>
				<time>2012-04-21T12:30:04</time>
			</trkpt>
			<trkpt lat="52.2278670687715" lon="7.85505286418633">
				<ele>127.899993896484</ele>
				<time>2012-04-21T12:30:09</time>
			</trkpt>
			<trkpt lat="52.2279080143685" lon="7.85477299243943">
				<ele>129.800003051758</ele>
				<time>2012-04-21T12:30:14</time>
			</trkpt>
			<trkpt lat="52.2279590182493" lon="7.85449035466449">
				<ele>131.300003051758</ele>
				<time>2012-04-21T12:30:19</time>
			</trkpt>
			<trkpt lat="52.2280064179117" lon="7.85420293920474">
				<ele>131.899993896484</ele>
				<time>2012-04-21T12:30:24</time>
			</trkpt>
			<trkpt lat="52.2280526860172" lon="7.85390932113664">
				<ele>133.5</ele>
				<time>2012-04-21T12:30:29</time>
			</trkpt>
			<trkpt lat="52.2280979902039" lon="7.85361989402012">
				<ele>135.800003051758</ele>
				<time>2012-04-21T12:30:34</time>
			</trkpt>
			<trkpt lat="52.2281427495668" lon="7.85333499313132">
				<ele>137.199996948242</ele>
				<time>2012-04-21T12:30:39</time>
			</trkpt>
			<trkpt lat="52.2281945078189" lon="7.85304774530963">
				<ele>135.800003051758</ele>
				<time>2012-04-21T12:30:44</time>
			</trkpt>
			<trkpt lat="52.2282231739277" lon="7.85272143781916">
				<ele>134.5</ele>
				<time>2012-04-21T12:30:49</time>
			</trkpt>
			<trkpt lat="52.2282611439491" lon="7.85245128907995">
				<ele>135.199996948242</ele>
				<time>2012-04-21T12:30:54</time>
			</trkpt>
			<trkpt lat="52.2282947972903" lon="7.85214710981385">
				<ele>133.100006103516</ele>
				<time>2012-04-21T12:30:59</time>
			</trkpt>
			<trkpt lat="52.228333605502" lon="7.85181761720018">
				<ele>132.100006103516</ele>
				<time>2012-04-21T12:31:05</time>
			</trkpt>
			<trkpt lat="52.2283648700008" lon="7.85148669966296">
				<ele>132.199996948242</ele>
				<time>2012-04-21T12:31:09</time>
			</trkpt>
			<trkpt lat="52.2283861600349" lon="7.8513535950406">
				<ele>131.699996948242</ele>
				<time>2012-04-21T12:31:11</time>
			</trkpt>
			<trkpt lat="52.2284412710482" lon="7.85087607801692">
				<ele>131</ele>
				<time>2012-04-21T12:31:19</time>
			</trkpt>
			<trkpt lat="52.2285078652689" lon="7.8504262212737">
				<ele>134.300003051758</ele>
				<time>2012-04-21T12:31:24</time>
			</trkpt>
			<trkpt lat="52.2285629343728" lon="7.84997678362564">
				<ele>134.5</ele>
				<time>2012-04-21T12:31:29</time>
			</trkpt>
			<trkpt lat="52.2285924805815" lon="7.84970185720162">
				<ele>134.100006103516</ele>
				<time>2012-04-21T12:31:32</time>
			</trkpt>
			<trkpt lat="52.2286875732729" lon="7.84896106459931">
				<ele>133.300003051758</ele>
				<time>2012-04-21T12:31:40</time>
			</trkpt>
			<trkpt lat="52.2287410917247" lon="7.84850575961903">
				<ele>135.199996948242</ele>
				<time>2012-04-21T12:31:43</time>
			</trkpt>
			<trkpt lat="52.2288560495267" lon="7.84773755819336">
				<ele>132.899993896484</ele>
				<time>2012-04-21T12:31:49</time>
			</trkpt>
			<trkpt lat="52.2289687861243" lon="7.84703012556568">
				<ele>132.199996948242</ele>
				<time>2012-04-21T12:31:55</time>
			</trkpt>
			<trkpt lat="52.229030015927" lon="7.8465576376839">
				<ele>131.600006103516</ele>
				<time>2012-04-21T12:31:59</time>
			</trkpt>
			<trkpt lat="52.2291141283253" lon="7.84581491724387">
				<ele>127.800003051758</ele>
				<time>2012-04-21T12:32:04</time>
			</trkpt>
			<trkpt lat="52.2292117355878" lon="7.84507638775543">
				<ele>127.899993896484</ele>
				<time>2012-04-21T12:32:09</time>
			</trkpt>
			<trkpt lat="52.2293354943881" lon="7.8443022351785">
				<ele>126.199996948242</ele>
				<time>2012-04-21T12:32:14</time>
			</trkpt>
			<trkpt lat="52.2294851113597" lon="7.84367811866835">
				<ele>125.800003051758</ele>
				<time>2012-04-21T12:32:18</time>
			</trkpt>
			<trkpt lat="52.2297499794999" lon="7.84290120006338">
				<ele>123.699996948242</ele>
				<time>2012-04-21T12:32:23</time>
			</trkpt>
			<trkpt lat="52.2302419972161" lon="7.84179881215826">
				<ele>121.300003051758</ele>
				<time>2012-04-21T12:32:31</time>
			</trkpt>
			<trkpt lat="52.2304591304178" lon="7.8414738457723">
				<ele>120.399993896484</ele>
				<time>2012-04-21T12:32:32</time>
			</trkpt>
			<trkpt lat="52.2309858073036" lon="7.84044681117669">
				<ele>112</ele>
				<time>2012-04-21T12:32:39</time>
			</trkpt>
			<trkpt lat="52.2312579676995" lon="7.83959629946187">
				<ele>111.199996948242</ele>
				<time>2012-04-21T12:32:45</time>
			</trkpt>
			<trkpt lat="52.2314701974878" lon="7.83876053989664">
				<ele>112.199996948242</ele>
				<time>2012-04-21T12:32:49</time>
			</trkpt>
			<trkpt lat="52.2316433256978" lon="7.83773769625261">
				<ele>109.199996948242</ele>
				<time>2012-04-21T12:32:55</time>
			</trkpt>
			<trkpt lat="52.2316710278878" lon="7.8375724889411">
				<ele>109.399993896484</ele>
				<time>2012-04-21T12:32:56</time>
			</trkpt>
			<trkpt lat="52.2320321202765" lon="7.83626130782798">
				<ele>106</ele>
				<time>2012-04-21T12:33:04</time>
			</trkpt>
			<trkpt lat="52.2322678613032" lon="7.83567524515822">
				<ele>107.800003051758</ele>
				<time>2012-04-21T12:33:08</time>
			</trkpt>
			<trkpt lat="52.2326950030888" lon="7.83504417166843">
				<ele>102.5</ele>
				<time>2012-04-21T12:33:13</time>
			</trkpt>
			<trkpt lat="52.2333024815211" lon="7.83412819728985">
				<ele>100.300003051758</ele>
				<time>2012-04-21T12:33:20</time>
			</trkpt>
			<trkpt lat="52.2336393921191" lon="7.8336573857887">
				<ele>100</ele>
				<time>2012-04-21T12:33:25</time>
			</trkpt>
			<trkpt lat="52.2338208184133" lon="7.83345839940741">
				<ele>100.199996948242</ele>
				<time>2012-04-21T12:33:28</time>
			</trkpt>
			<trkpt lat="52.2339981794844" lon="7.83313175664081">
				<ele>100.300003051758</ele>
				<time>2012-04-21T12:33:32</time>
			</trkpt>
			<trkpt lat="52.2344362177441" lon="7.83208921552434">
				<ele>99.5</ele>
				<time>2012-04-21T12:33:39</time>
			</trkpt>
			<trkpt lat="52.2349350667114" lon="7.83121028915777">
				<ele>96.5</ele>
				<time>2012-04-21T12:33:46</time>
			</trkpt>
			<trkpt lat="52.2351796925554" lon="7.83057200723126">
				<ele>97.5</ele>
				<time>2012-04-21T12:33:50</time>
			</trkpt>
			<trkpt lat="52.235404620927" lon="7.830098262064">
				<ele>96.3000030517578</ele>
				<time>2012-04-21T12:33:55</time>
			</trkpt>
			<trkpt lat="52.2356383922065" lon="7.8295044042243">
				<ele>94.6000061035156</ele>
				<time>2012-04-21T12:33:59</time>
			</trkpt>
			<trkpt lat="52.2358639492208" lon="7.82888053917124">
				<ele>89.5</ele>
				<time>2012-04-21T12:34:04</time>
			</trkpt>
			<trkpt lat="52.2360987263287" lon="7.82827033662035">
				<ele>89</ele>
				<time>2012-04-21T12:34:09</time>
			</trkpt>
			<trkpt lat="52.2361755045617" lon="7.8279985115005">
				<ele>87.8999938964844</ele>
				<time>2012-04-21T12:34:11</time>
			</trkpt>
			<trkpt lat="52.2364086052889" lon="7.82696653158202">
				<ele>84.8999938964844</ele>
				<time>2012-04-21T12:34:19</time>
			</trkpt>
			<trkpt lat="52.236493430149" lon="7.82626555301978">
				<ele>82.8999938964844</ele>
				<time>2012-04-21T12:34:24</time>
			</trkpt>
			<trkpt lat="52.2365468647817" lon="7.82556474209561">
				<ele>79.9000015258789</ele>
				<time>2012-04-21T12:34:29</time>
			</trkpt>
			<trkpt lat="52.2366021434332" lon="7.82476502471401">
				<ele>77.1999969482422</ele>
				<time>2012-04-21T12:34:34</time>
			</trkpt>
			<trkpt lat="52.2366302647183" lon="7.82432505861653">
				<ele>75.3000030517578</ele>
				<time>2012-04-21T12:34:37</time>
			</trkpt>
			<trkpt lat="52.2367449291537" lon="7.82304539345933">
				<ele>76.8000030517578</ele>
				<time>2012-04-21T12:34:45</time>
			</trkpt>
			<trkpt lat="52.2368714539821" lon="7.82213495113684">
				<ele>76.6999969482422</ele>
				<time>2012-04-21T12:34:51</time>
			</trkpt>
			<trkpt lat="52.2370623937363" lon="7.82148116268946">
				<ele>78.8000030517578</ele>
				<time>2012-04-21T12:34:56</time>
			</trkpt>
			<trkpt lat="52.2371470090488" lon="7.8212198987676">
				<ele>78.9000015258789</ele>
				<time>2012-04-21T12:34:59</time>
			</trkpt>
			<trkpt lat="52.237397166949" lon="7.82064557076229">
				<ele>80.5</ele>
				<time>2012-04-21T12:35:03</time>
			</trkpt>
			<trkpt lat="52.2377647134031" lon="7.81982364133729">
				<ele>77.9000015258789</ele>
				<time>2012-04-21T12:35:10</time>
			</trkpt>
			<trkpt lat="52.2380332695807" lon="7.81928384677304">
				<ele>78.5</ele>
				<time>2012-04-21T12:35:15</time>
			</trkpt>
			<trkpt lat="52.2383133508752" lon="7.81869912520779">
				<ele>79.1999969482422</ele>
				<time>2012-04-21T12:35:20</time>
			</trkpt>
			<trkpt lat="52.2385081463049" lon="7.81823761761917">
				<ele>80.4000015258789</ele>
				<time>2012-04-21T12:35:24</time>
			</trkpt>
			<trkpt lat="52.2387236869449" lon="7.81765256077779">
				<ele>79.9000015258789</ele>
				<time>2012-04-21T12:35:29</time>
			</trkpt>
			<trkpt lat="52.2388780816013" lon="7.81708460301889">
				<ele>80.1999969482422</ele>
				<time>2012-04-21T12:35:33</time>
			</trkpt>
			<trkpt lat="52.2391163791085" lon="7.81608975493146">
				<ele>75.3000030517578</ele>
				<time>2012-04-21T12:35:40</time>
			</trkpt>
			<trkpt lat="52.2392746713499" lon="7.81545348466171">
				<ele>75.5999984741211</ele>
				<time>2012-04-21T12:35:46</time>
			</trkpt>
			<trkpt lat="52.2393633518855" lon="7.81507059932483">
				<ele>76</ele>
				<time>2012-04-21T12:35:48</time>
			</trkpt>
			<trkpt lat="52.2396272561068" lon="7.81432653778029">
				<ele>73.5</ele>
				<time>2012-04-21T12:35:54</time>
			</trkpt>
			<trkpt lat="52.2400528891499" lon="7.81358398497832">
				<ele>76.1999969482422</ele>
				<time>2012-04-21T12:36:01</time>
			</trkpt>
			<trkpt lat="52.2400941281135" lon="7.81345691532624">
				<ele>75.5999984741211</ele>
				<time>2012-04-21T12:36:03</time>
			</trkpt>
			<trkpt lat="52.2402878338958" lon="7.81265585684014">
				<ele>72.3000030517578</ele>
				<time>2012-04-21T12:36:08</time>
			</trkpt>
			<trkpt lat="52.2405842599014" lon="7.81202159822715">
				<ele>68.8000030517578</ele>
				<time>2012-04-21T12:36:15</time>
			</trkpt>
			<trkpt lat="52.2407391993815" lon="7.81180224382115">
				<ele>69.0999984741211</ele>
				<time>2012-04-21T12:36:19</time>
			</trkpt>
			<trkpt lat="52.2407633392627" lon="7.81171180308593">
				<ele>66.9000015258789</ele>
				<time>2012-04-21T12:36:24</time>
			</trkpt>
			<trkpt lat="52.240818366457" lon="7.81168808229995">
				<ele>69.5</ele>
				<time>2012-04-21T12:36:30</time>
			</trkpt>
			<trkpt lat="52.2409272892887" lon="7.81152497046423">
				<ele>70</ele>
				<time>2012-04-21T12:36:35</time>
			</trkpt>
			<trkpt lat="52.2411636589582" lon="7.81112850644422">
				<ele>68.1999969482422</ele>
				<time>2012-04-21T12:36:38</time>
			</trkpt>
			<trkpt lat="52.2415006114656" lon="7.81033306383324">
				<ele>73.5</ele>
				<time>2012-04-21T12:36:44</time>
			</trkpt>
			<trkpt lat="52.2416350571925" lon="7.8096962906493">
				<ele>73.5999984741211</ele>
				<time>2012-04-21T12:36:49</time>
			</trkpt>
			<trkpt lat="52.2417132184396" lon="7.80919278972578">
				<ele>71.1999969482422</ele>
				<time>2012-04-21T12:36:53</time>
			</trkpt>
			<trkpt lat="52.2418347560356" lon="7.80824462883902">
				<ele>69.8000030517578</ele>
				<time>2012-04-21T12:37:00</time>
			</trkpt>
			<trkpt lat="52.2418792220319" lon="7.80756661669147">
				<ele>69.1999969482422</ele>
				<time>2012-04-21T12:37:05</time>
			</trkpt>
			<trkpt lat="52.2418897413204" lon="7.80689237640035">
				<ele>68</ele>
				<time>2012-04-21T12:37:10</time>
			</trkpt>
			<trkpt lat="52.2419083072359" lon="7.80636683107149">
				<ele>68.1999969482422</ele>
				<time>2012-04-21T12:37:14</time>
			</trkpt>
			<trkpt lat="52.2419776674847" lon="7.80556996353697">
				<ele>66.4000015258789</ele>
				<time>2012-04-21T12:37:20</time>
			</trkpt>
			<trkpt lat="52.242126697723" lon="7.80487451703083">
				<ele>65.5</ele>
				<time>2012-04-21T12:37:26</time>
			</trkpt>
			<trkpt lat="52.2422434576342" lon="7.80439666473102">
				<ele>65.8000030517578</ele>
				<time>2012-04-21T12:37:30</time>
			</trkpt>
			<trkpt lat="52.2424155381063" lon="7.80385787599516">
				<ele>67.1999969482422</ele>
				<time>2012-04-21T12:37:35</time>
			</trkpt>
			<trkpt lat="52.2426582780222" lon="7.80321992934477">
				<ele>67.0999984741211</ele>
				<time>2012-04-21T12:37:41</time>
			</trkpt>
			<trkpt lat="52.2428566357607" lon="7.80282723718118">
				<ele>68.8000030517578</ele>
				<time>2012-04-21T12:37:45</time>
			</trkpt>
			<trkpt lat="52.2430790495614" lon="7.80243672431242">
				<ele>69.6999969482422</ele>
				<time>2012-04-21T12:37:50</time>
			</trkpt>
			<trkpt lat="52.243426898543" lon="7.80187647790443">
				<ele>71.9000015258789</ele>
				<time>2012-04-21T12:37:57</time>
			</trkpt>
			<trkpt lat="52.2438182915116" lon="7.80127407052349">
				<ele>72.4000015258789</ele>
				<time>2012-04-21T12:38:02</time>
			</trkpt>
			<trkpt lat="52.2440555412809" lon="7.80089579523336">
				<ele>72.8000030517578</ele>
				<time>2012-04-21T12:38:06</time>
			</trkpt>
			<trkpt lat="52.2443493688966" lon="7.80040218495559">
				<ele>73.0999984741211</ele>
				<time>2012-04-21T12:38:11</time>
			</trkpt>
			<trkpt lat="52.2445562342668" lon="7.79990371317398">
				<ele>74.0999984741211</ele>
				<time>2012-04-21T12:38:16</time>
			</trkpt>
			<trkpt lat="52.2446527099723" lon="7.7996365819199">
				<ele>77.0999984741211</ele>
				<time>2012-04-21T12:38:19</time>
			</trkpt>
			<trkpt lat="52.2446661210174" lon="7.79914070852827">
				<ele>71.3000030517578</ele>
				<time>2012-04-21T12:38:26</time>
			</trkpt>
			<trkpt lat="52.2446183860789" lon="7.79850267805885">
				<ele>74.1999969482422</ele>
				<time>2012-04-21T12:38:31</time>
			</trkpt>
			<trkpt lat="52.2446009517203" lon="7.79776674696039">
				<ele>73.0999984741211</ele>
				<time>2012-04-21T12:38:37</time>
			</trkpt>
			<trkpt lat="52.2445627721513" lon="7.79711103067528">
				<ele>66.0999984741211</ele>
				<time>2012-04-21T12:38:42</time>
			</trkpt>
			<trkpt lat="52.244550157387" lon="7.79665966518949">
				<ele>64.4000015258789</ele>
				<time>2012-04-21T12:38:47</time>
			</trkpt>
			<trkpt lat="52.2445597127567" lon="7.79611576349269">
				<ele>66.5</ele>
				<time>2012-04-21T12:38:52</time>
			</trkpt>
			<trkpt lat="52.2445147019366" lon="7.79538779520224">
				<ele>59.5999984741211</ele>
				<time>2012-04-21T12:38:58</time>
			</trkpt>
			<trkpt lat="52.2445141152034" lon="7.79521504417788">
				<ele>59.4000015258789</ele>
				<time>2012-04-21T12:38:59</time>
			</trkpt>
			<trkpt lat="52.2444437072168" lon="7.79481749051045">
				<ele>61.0999984741211</ele>
				<time>2012-04-21T12:39:05</time>
			</trkpt>
			<trkpt lat="52.2443212057019" lon="7.79427845031749">
				<ele>63.4000015258789</ele>
				<time>2012-04-21T12:39:11</time>
			</trkpt>
			<trkpt lat="52.2442921204979" lon="7.79338435270618">
				<ele>64.0999984741211</ele>
				<time>2012-04-21T12:39:18</time>
			</trkpt>
			<trkpt lat="52.2441493766869" lon="7.79273198918234">
				<ele>65.1999969482422</ele>
				<time>2012-04-21T12:39:23</time>
			</trkpt>
			<trkpt lat="52.2439422598595" lon="7.79219747521709">
				<ele>65.6999969482422</ele>
				<time>2012-04-21T12:39:28</time>
			</trkpt>
			<trkpt lat="52.2438540822382" lon="7.79187158682178">
				<ele>61.6999969482422</ele>
				<time>2012-04-21T12:39:31</time>
			</trkpt>
			<trkpt lat="52.2437933972592" lon="7.7915529068632">
				<ele>60.6999969482422</ele>
				<time>2012-04-21T12:39:34</time>
			</trkpt>
			<trkpt lat="52.2437101649607" lon="7.79060189612935">
				<ele>58.4000015258789</ele>
				<time>2012-04-21T12:39:44</time>
			</trkpt>
			<trkpt lat="52.2437107936034" lon="7.790228314705">
				<ele>59</ele>
				<time>2012-04-21T12:39:47</time>
			</trkpt>
			<trkpt lat="52.2437222349013" lon="7.78944225982557">
				<ele>58.8000030517578</ele>
				<time>2012-04-21T12:39:54</time>
			</trkpt>
			<trkpt lat="52.243770305116" lon="7.78883297928403">
				<ele>59.6999969482422</ele>
				<time>2012-04-21T12:39:58</time>
			</trkpt>
			<trkpt lat="52.2437892063076" lon="7.7884993795378">
				<ele>61.9000015258789</ele>
				<time>2012-04-21T12:40:01</time>
			</trkpt>
			<trkpt lat="52.2437522002051" lon="7.78786763549576">
				<ele>63.4000015258789</ele>
				<time>2012-04-21T12:40:08</time>
			</trkpt>
			<trkpt lat="52.2437194269637" lon="7.78754736297558">
				<ele>64.1999969482422</ele>
				<time>2012-04-21T12:40:10</time>
			</trkpt>
			<trkpt lat="52.2437041718999" lon="7.7866258565409">
				<ele>59.5</ele>
				<time>2012-04-21T12:40:18</time>
			</trkpt>
			<trkpt lat="52.2436971730108" lon="7.78609578498433">
				<ele>57.9000015258789</ele>
				<time>2012-04-21T12:40:22</time>
			</trkpt>
			<trkpt lat="52.2436866537223" lon="7.78574433178435">
				<ele>60.0999984741211</ele>
				<time>2012-04-21T12:40:25</time>
			</trkpt>
			<trkpt lat="52.2437452432255" lon="7.78512239456902">
				<ele>59.0999984741211</ele>
				<time>2012-04-21T12:40:31</time>
			</trkpt>
			<trkpt lat="52.2437882423887" lon="7.784347990535">
				<ele>64.6999969482422</ele>
				<time>2012-04-21T12:40:39</time>
			</trkpt>
			<trkpt lat="52.2438662779073" lon="7.78386376798878">
				<ele>64.4000015258789</ele>
				<time>2012-04-21T12:40:42</time>
			</trkpt>
			<trkpt lat="52.2439425951356" lon="7.78335599229465">
				<ele>64</ele>
				<time>2012-04-21T12:40:46</time>
			</trkpt>
			<trkpt lat="52.2439827444518" lon="7.78303965926895">
				<ele>63.9000015258789</ele>
				<time>2012-04-21T12:40:50</time>
			</trkpt>
			<trkpt lat="52.2440859256799" lon="7.78224136681089">
				<ele>66.5</ele>
				<time>2012-04-21T12:40:59</time>
			</trkpt>
			<trkpt lat="52.2442000872011" lon="7.78169444762895">
				<ele>62.9000015258789</ele>
				<time>2012-04-21T12:41:03</time>
			</trkpt>
			<trkpt lat="52.2442820622141" lon="7.78108893894384">
				<ele>63.6999969482422</ele>
				<time>2012-04-21T12:41:09</time>
			</trkpt>
			<trkpt lat="52.2443938768024" lon="7.78030883521566">
				<ele>64.8000030517578</ele>
				<time>2012-04-21T12:41:14</time>
			</trkpt>
			<trkpt lat="52.2445237963016" lon="7.77987306006977">
				<ele>67.1999969482422</ele>
				<time>2012-04-21T12:41:19</time>
			</trkpt>
			<trkpt lat="52.2446059808622" lon="7.77932178229818">
				<ele>63.5999984741211</ele>
				<time>2012-04-21T12:41:23</time>
			</trkpt>
			<trkpt lat="52.2446860280374" lon="7.77888692916164">
				<ele>64.3000030517578</ele>
				<time>2012-04-21T12:41:28</time>
			</trkpt>
			<trkpt lat="52.2448184621076" lon="7.77830572799573">
				<ele>63.9000015258789</ele>
				<time>2012-04-21T12:41:34</time>
			</trkpt>
			<trkpt lat="52.2448476311306" lon="7.77809643187353">
				<ele>62.8000030517578</ele>
				<time>2012-04-21T12:41:37</time>
			</trkpt>
			<trkpt lat="52.2449274687583" lon="7.7774504385961">
				<ele>55.1999969482422</ele>
				<time>2012-04-21T12:41:42</time>
			</trkpt>
			<trkpt lat="52.2452347074191" lon="7.77686839923987">
				<ele>60.4000015258789</ele>
				<time>2012-04-21T12:41:49</time>
			</trkpt>
			<trkpt lat="52.2455117293189" lon="7.77641342953572">
				<ele>61.9000015258789</ele>
				<time>2012-04-21T12:41:54</time>
			</trkpt>
			<trkpt lat="52.2456242144594" lon="7.77618644759783">
				<ele>59.8000030517578</ele>
				<time>2012-04-21T12:41:57</time>
			</trkpt>
			<trkpt lat="52.2459373623619" lon="7.7754870615972">
				<ele>61.9000015258789</ele>
				<time>2012-04-21T12:42:04</time>
			</trkpt>
			<trkpt lat="52.245981241625" lon="7.77534507215747">
				<ele>61.4000015258789</ele>
				<time>2012-04-21T12:42:06</time>
			</trkpt>
			<trkpt lat="52.2463151347379" lon="7.77449539863297">
				<ele>65</ele>
				<time>2012-04-21T12:42:13</time>
			</trkpt>
			<trkpt lat="52.2463745205218" lon="7.77425701730677">
				<ele>64.9000015258789</ele>
				<time>2012-04-21T12:42:16</time>
			</trkpt>
			<trkpt lat="52.2467125207672" lon="7.77341128327676">
				<ele>68.3000030517578</ele>
				<time>2012-04-21T12:42:25</time>
			</trkpt>
			<trkpt lat="52.246816414457" lon="7.77306620032319">
				<ele>66.5999984741211</ele>
				<time>2012-04-21T12:42:28</time>
			</trkpt>
			<trkpt lat="52.2468836373205" lon="7.77279378847012">
				<ele>65.4000015258789</ele>
				<time>2012-04-21T12:42:32</time>
			</trkpt>
			<trkpt lat="52.2468695557232" lon="7.77213103138634">
				<ele>66</ele>
				<time>2012-04-21T12:42:36</time>
			</trkpt>
			<trkpt lat="52.2464566212634" lon="7.77186289430388">
				<ele>68.0999984741211</ele>
				<time>2012-04-21T12:42:43</time>
			</trkpt>
			<trkpt lat="52.2460102849195" lon="7.77155217715331">
				<ele>64.0999984741211</ele>
				<time>2012-04-21T12:42:49</time>
			</trkpt>
			<trkpt lat="52.2457464226077" lon="7.77125872672328">
				<ele>65.3000030517578</ele>
				<time>2012-04-21T12:42:53</time>
			</trkpt>
			<trkpt lat="52.2455639485756" lon="7.77101104148456">
				<ele>65.1999969482422</ele>
				<time>2012-04-21T12:42:57</time>
			</trkpt>
			<trkpt lat="52.2451788420344" lon="7.77056235820779">
				<ele>66.9000015258789</ele>
				<time>2012-04-21T12:43:03</time>
			</trkpt>
			<trkpt lat="52.2449536622057" lon="7.7702489588482">
				<ele>65</ele>
				<time>2012-04-21T12:43:06</time>
			</trkpt>
			<trkpt lat="52.2447022470201" lon="7.76974562556275">
				<ele>68.5</ele>
				<time>2012-04-21T12:43:14</time>
			</trkpt>
			<trkpt lat="52.2444845689947" lon="7.76937237941452">
				<ele>73.5999984741211</ele>
				<time>2012-04-21T12:43:18</time>
			</trkpt>
			<trkpt lat="52.2442272445673" lon="7.76896334253975">
				<ele>76.5999984741211</ele>
				<time>2012-04-21T12:43:23</time>
			</trkpt>
			<trkpt lat="52.2438404616455" lon="7.76846352965363">
				<ele>75.0999984741211</ele>
				<time>2012-04-21T12:43:29</time>
			</trkpt>
			<trkpt lat="52.2435520822669" lon="7.76808986441024">
				<ele>74.9000015258789</ele>
				<time>2012-04-21T12:43:34</time>
			</trkpt>
			<trkpt lat="52.2433111025507" lon="7.76778325439223">
				<ele>75</ele>
				<time>2012-04-21T12:43:38</time>
			</trkpt>
			<trkpt lat="52.2429303126896" lon="7.76733960025736">
				<ele>72.3000030517578</ele>
				<time>2012-04-21T12:43:45</time>
			</trkpt>
			<trkpt lat="52.242705468137" lon="7.7670212555749">
				<ele>71.1999969482422</ele>
				<time>2012-04-21T12:43:48</time>
			</trkpt>
			<trkpt lat="52.2423558589558" lon="7.76649621316024">
				<ele>71.1999969482422</ele>
				<time>2012-04-21T12:43:55</time>
			</trkpt>
			<trkpt lat="52.2421858320499" lon="7.76630384848245">
				<ele>71.1999969482422</ele>
				<time>2012-04-21T12:43:58</time>
			</trkpt>
			<trkpt lat="52.2419764940182" lon="7.76598843746611">
				<ele>70</ele>
				<time>2012-04-21T12:44:03</time>
			</trkpt>
			<trkpt lat="52.2416015295798" lon="7.76556087658532">
				<ele>63.1999969482422</ele>
				<time>2012-04-21T12:44:09</time>
			</trkpt>
			<trkpt lat="52.2413123958299" lon="7.7652219962401">
				<ele>56.0999984741211</ele>
				<time>2012-04-21T12:44:12</time>
			</trkpt>
			<trkpt lat="52.2409023950363" lon="7.76458974928387">
				<ele>54.5999984741211</ele>
				<time>2012-04-21T12:44:20</time>
			</trkpt>
			<trkpt lat="52.2407772113124" lon="7.7643947862161">
				<ele>54.6999969482422</ele>
				<time>2012-04-21T12:44:23</time>
			</trkpt>
			<trkpt lat="52.2405716451371" lon="7.76403654367455">
				<ele>57.4000015258789</ele>
				<time>2012-04-21T12:44:30</time>
			</trkpt>
			<trkpt lat="52.2402921924854" lon="7.76372389868625">
				<ele>54.9000015258789</ele>
				<time>2012-04-21T12:44:34</time>
			</trkpt>
			<trkpt lat="52.2401148733238" lon="7.76345559396573">
				<ele>61.1999969482422</ele>
				<time>2012-04-21T12:44:37</time>
			</trkpt>
			<trkpt lat="52.2397006396691" lon="7.76294471696742">
				<ele>66.5999984741211</ele>
				<time>2012-04-21T12:44:45</time>
			</trkpt>
			<trkpt lat="52.239267043818" lon="7.76296868921049">
				<ele>65.1999969482422</ele>
				<time>2012-04-21T12:44:51</time>
			</trkpt>
			<trkpt lat="52.2390719550217" lon="7.76282183826693">
				<ele>67.4000015258789</ele>
				<time>2012-04-21T12:44:54</time>
			</trkpt>
			<trkpt lat="52.2387324041242" lon="7.76273475029297">
				<ele>65.6999969482422</ele>
				<time>2012-04-21T12:44:59</time>
			</trkpt>
			<trkpt lat="52.2383328807095" lon="7.762660821907">
				<ele>62.8000030517578</ele>
				<time>2012-04-21T12:45:06</time>
			</trkpt>
			<trkpt lat="52.2382677533219" lon="7.76265805587895">
				<ele>62.1999969482422</ele>
				<time>2012-04-21T12:45:07</time>
			</trkpt>
			<trkpt lat="52.2378223389874" lon="7.76248002425559">
				<ele>61.4000015258789</ele>
				<time>2012-04-21T12:45:15</time>
			</trkpt>
			<trkpt lat="52.2376679024214" lon="7.76224239730068">
				<ele>64.6999969482422</ele>
				<time>2012-04-21T12:45:18</time>
			</trkpt>
			<trkpt lat="52.2377032740528" lon="7.76204072871037">
				<ele>67.0999984741211</ele>
				<time>2012-04-21T12:45:24</time>
			</trkpt>
			<trkpt lat="52.2377349157373" lon="7.76193654165395">
				<ele>67</ele>
				<time>2012-04-21T12:45:26</time>
			</trkpt>
			<trkpt lat="52.2380821779857" lon="7.76148140431173">
				<ele>71.3000030517578</ele>
				<time>2012-04-21T12:45:33</time>
			</trkpt>
			<trkpt lat="52.2385044582675" lon="7.76087044738956">
				<ele>74.0999984741211</ele>
				<time>2012-04-21T12:45:40</time>
			</trkpt>
			<trkpt lat="52.2386782151202" lon="7.76046711020894">
				<ele>70.4000015258789</ele>
				<time>2012-04-21T12:45:44</time>
			</trkpt>
			<trkpt lat="52.2387073422337" lon="7.76013619267173">
				<ele>69.3000030517578</ele>
				<time>2012-04-21T12:45:47</time>
			</trkpt>
			<trkpt lat="52.2387490841115" lon="7.75956002064772">
				<ele>70.6999969482422</ele>
				<time>2012-04-21T12:45:52</time>
			</trkpt>
			<trkpt lat="52.2387536522488" lon="7.75923329406209">
				<ele>68.5999984741211</ele>
				<time>2012-04-21T12:45:56</time>
			</trkpt>
			<trkpt lat="52.2387693264077" lon="7.75843759999402">
				<ele>67.1999969482422</ele>
				<time>2012-04-21T12:46:05</time>
			</trkpt>
			<trkpt lat="52.2387766186634" lon="7.75831631385512">
				<ele>66.5</ele>
				<time>2012-04-21T12:46:06</time>
			</trkpt>
			<trkpt lat="52.2388854157666" lon="7.75714142248757">
				<ele>67.6999969482422</ele>
				<time>2012-04-21T12:46:17</time>
			</trkpt>
			<trkpt lat="52.2389011318351" lon="7.75675032288558">
				<ele>67</ele>
				<time>2012-04-21T12:46:20</time>
			</trkpt>
			<trkpt lat="52.2389266128207" lon="7.75615327992268">
				<ele>65.5</ele>
				<time>2012-04-21T12:46:27</time>
			</trkpt>
			<trkpt lat="52.2389629902805" lon="7.75583459996409">
				<ele>66.3000030517578</ele>
				<time>2012-04-21T12:46:30</time>
			</trkpt>
			<trkpt lat="52.2390281595776" lon="7.75517595001287">
				<ele>70.1999969482422</ele>
				<time>2012-04-21T12:46:37</time>
			</trkpt>
			<trkpt lat="52.2390686022604" lon="7.75475702249236">
				<ele>73.3000030517578</ele>
				<time>2012-04-21T12:46:41</time>
			</trkpt>
			<trkpt lat="52.2391419858227" lon="7.7543488238079">
				<ele>74.9000015258789</ele>
				<time>2012-04-21T12:46:45</time>
			</trkpt>
			<trkpt lat="52.2391978931168" lon="7.75399225764699">
				<ele>78.0999984741211</ele>
				<time>2012-04-21T12:46:49</time>
			</trkpt>
			<trkpt lat="52.2393009067068" lon="7.75350635872013">
				<ele>73</ele>
				<time>2012-04-21T12:46:55</time>
			</trkpt>
			<trkpt lat="52.2393211909125" lon="7.75320561603434">
				<ele>70.1999969482422</ele>
				<time>2012-04-21T12:46:58</time>
			</trkpt>
			<trkpt lat="52.2394939838464" lon="7.75265903212852">
				<ele>74.9000015258789</ele>
				<time>2012-04-21T12:47:04</time>
			</trkpt>
			<trkpt lat="52.2396134678761" lon="7.75214966387279">
				<ele>78</ele>
				<time>2012-04-21T12:47:11</time>
			</trkpt>
			<trkpt lat="52.2397177806611" lon="7.75169754401571">
				<ele>79.5</ele>
				<time>2012-04-21T12:47:15</time>
			</trkpt>
			<trkpt lat="52.2398266196737" lon="7.75126419962174">
				<ele>80.6999969482422</ele>
				<time>2012-04-21T12:47:20</time>
			</trkpt>
			<trkpt lat="52.2398981173078" lon="7.7510264888478">
				<ele>78.6999969482422</ele>
				<time>2012-04-21T12:47:23</time>
			</trkpt>
			<trkpt lat="52.2400453035275" lon="7.75052114390559">
				<ele>77.5999984741211</ele>
				<time>2012-04-21T12:47:30</time>
			</trkpt>
			<trkpt lat="52.2402125224958" lon="7.74983919226355">
				<ele>75.6999969482422</ele>
				<time>2012-04-21T12:47:36</time>
			</trkpt>
			<trkpt lat="52.2403092496584" lon="7.74947918952233">
				<ele>75.5999984741211</ele>
				<time>2012-04-21T12:47:41</time>
			</trkpt>
			<trkpt lat="52.2404441563899" lon="7.7490731701327">
				<ele>76.6999969482422</ele>
				<time>2012-04-21T12:47:46</time>
			</trkpt>
			<trkpt lat="52.2405314539114" lon="7.74864351377613">
				<ele>74.1999969482422</ele>
				<time>2012-04-21T12:47:49</time>
			</trkpt>
			<trkpt lat="52.2405989701415" lon="7.74820941501087">
				<ele>73.5999984741211</ele>
				<time>2012-04-21T12:47:53</time>
			</trkpt>
			<trkpt lat="52.2405887023101" lon="7.74776106701023">
				<ele>73.6999969482422</ele>
				<time>2012-04-21T12:48:00</time>
			</trkpt>
			<trkpt lat="52.2406297317261" lon="7.74749536067969">
				<ele>70.1999969482422</ele>
				<time>2012-04-21T12:48:02</time>
			</trkpt>
			<trkpt lat="52.2407757444794" lon="7.74692681618756">
				<ele>76.4000015258789</ele>
				<time>2012-04-21T12:48:10</time>
			</trkpt>
			<trkpt lat="52.2410168918336" lon="7.74619909935421">
				<ele>72.3000030517578</ele>
				<time>2012-04-21T12:48:15</time>
			</trkpt>
			<trkpt lat="52.2412018385271" lon="7.74582954124338">
				<ele>72.1999969482422</ele>
				<time>2012-04-21T12:48:18</time>
			</trkpt>
			<trkpt lat="52.2413304169217" lon="7.74512420409149">
				<ele>72.4000015258789</ele>
				<time>2012-04-21T12:48:25</time>
			</trkpt>
			<trkpt lat="52.2413158743197" lon="7.74491432123607">
				<ele>72.3000030517578</ele>
				<time>2012-04-21T12:48:30</time>
			</trkpt>
			<trkpt lat="52.2411967255662" lon="7.7446593437416">
				<ele>73.5999984741211</ele>
				<time>2012-04-21T12:48:35</time>
			</trkpt>
			<trkpt lat="52.2410817677642" lon="7.74430956692225">
				<ele>67.8000030517578</ele>
				<time>2012-04-21T12:48:40</time>
			</trkpt>
			<trkpt lat="52.2410119046012" lon="7.74411887862509">
				<ele>69.8000030517578</ele>
				<time>2012-04-21T12:48:43</time>
			</trkpt>
			<trkpt lat="52.2407122096533" lon="7.74362778291827">
				<ele>75.8000030517578</ele>
				<time>2012-04-21T12:48:51</time>
			</trkpt>
			<trkpt lat="52.2405386623482" lon="7.74330046959942">
				<ele>73.4000015258789</ele>
				<time>2012-04-21T12:48:55</time>
			</trkpt>
			<trkpt lat="52.2403616365532" lon="7.74297382683283">
				<ele>74.9000015258789</ele>
				<time>2012-04-21T12:49:00</time>
			</trkpt>
			<trkpt lat="52.2401697328801" lon="7.74274022319144">
				<ele>77</ele>
				<time>2012-04-21T12:49:06</time>
			</trkpt>
			<trkpt lat="52.2398995841409" lon="7.74239019491499">
				<ele>79.9000015258789</ele>
				<time>2012-04-21T12:49:11</time>
			</trkpt>
			<trkpt lat="52.2398173157612" lon="7.74227041751867">
				<ele>81.6000061035156</ele>
				<time>2012-04-21T12:49:13</time>
			</trkpt>
			<trkpt lat="52.2395305289442" lon="7.74196808227128">
				<ele>85.8000030517578</ele>
				<time>2012-04-21T12:49:20</time>
			</trkpt>
			<trkpt lat="52.2392818797866" lon="7.74180874229199">
				<ele>86</ele>
				<time>2012-04-21T12:49:26</time>
			</trkpt>
			<trkpt lat="52.2391969711075" lon="7.7417337242586">
				<ele>85.6999969482422</ele>
				<time>2012-04-21T12:49:28</time>
			</trkpt>
			<trkpt lat="52.2388348728905" lon="7.74153892882889">
				<ele>89.6000061035156</ele>
				<time>2012-04-21T12:49:36</time>
			</trkpt>
			<trkpt lat="52.2385563003386" lon="7.74143021554476">
				<ele>89.3999938964844</ele>
				<time>2012-04-21T12:49:41</time>
			</trkpt>
			<trkpt lat="52.2382027097533" lon="7.74140532129234">
				<ele>84.6999969482422</ele>
				<time>2012-04-21T12:49:46</time>
			</trkpt>
			<trkpt lat="52.2379819304238" lon="7.74140959606296">
				<ele>88.1999969482422</ele>
				<time>2012-04-21T12:49:49</time>
			</trkpt>
			<trkpt lat="52.2373702610398" lon="7.74150204845494">
				<ele>91.6999969482422</ele>
				<time>2012-04-21T12:49:57</time>
			</trkpt>
			<trkpt lat="52.2370094201083" lon="7.74154219777113">
				<ele>94.8999938964844</ele>
				<time>2012-04-21T12:50:01</time>
			</trkpt>
			<trkpt lat="52.2366777901093" lon="7.74168862961954">
				<ele>90.3000030517578</ele>
				<time>2012-04-21T12:50:06</time>
			</trkpt>
			<trkpt lat="52.2363880277166" lon="7.74184729904657">
				<ele>95.3999938964844</ele>
				<time>2012-04-21T12:50:09</time>
			</trkpt>
			<trkpt lat="52.2359844390789" lon="7.74216103368228">
				<ele>99</ele>
				<time>2012-04-21T12:50:16</time>
			</trkpt>
			<trkpt lat="52.2356149228776" lon="7.74247300811833">
				<ele>95.6000061035156</ele>
				<time>2012-04-21T12:50:21</time>
			</trkpt>
			<trkpt lat="52.2352528246606" lon="7.74289176800078">
				<ele>96.8000030517578</ele>
				<time>2012-04-21T12:50:25</time>
			</trkpt>
			<trkpt lat="52.2349844361211" lon="7.74332025089091">
				<ele>97.1999969482422</ele>
				<time>2012-04-21T12:50:29</time>
			</trkpt>
			<trkpt lat="52.2346952604616" lon="7.74391838350123">
				<ele>93.1000061035156</ele>
				<time>2012-04-21T12:50:35</time>
			</trkpt>
			<trkpt lat="52.2344667278717" lon="7.74463067763275">
				<ele>92</ele>
				<time>2012-04-21T12:50:41</time>
			</trkpt>
			<trkpt lat="52.2343352577204" lon="7.74526904337829">
				<ele>91.3000030517578</ele>
				<time>2012-04-21T12:50:46</time>
			</trkpt>
			<trkpt lat="52.2342735669131" lon="7.74593138136691">
				<ele>90.6999969482422</ele>
				<time>2012-04-21T12:50:51</time>
			</trkpt>
			<trkpt lat="52.2342373990009" lon="7.74676714093215">
				<ele>90.8999938964844</ele>
				<time>2012-04-21T12:50:56</time>
			</trkpt>
			<trkpt lat="52.234227173079" lon="7.74702924304432">
				<ele>91.1999969482422</ele>
				<time>2012-04-21T12:50:58</time>
			</trkpt>
			<trkpt lat="52.2341420967618" lon="7.74809441529936">
				<ele>90.3999938964844</ele>
				<time>2012-04-21T12:51:06</time>
			</trkpt>
			<trkpt lat="52.2340479260797" lon="7.74861694314307">
				<ele>88.6999969482422</ele>
				<time>2012-04-21T12:51:10</time>
			</trkpt>
			<trkpt lat="52.2338869516293" lon="7.74918699637777">
				<ele>87.5</ele>
				<time>2012-04-21T12:51:15</time>
			</trkpt>
			<trkpt lat="52.2336872527862" lon="7.74969552644319">
				<ele>88</ele>
				<time>2012-04-21T12:51:20</time>
			</trkpt>
			<trkpt lat="52.2334453510607" lon="7.75014186278707">
				<ele>87.8000030517578</ele>
				<time>2012-04-21T12:51:25</time>
			</trkpt>
			<trkpt lat="52.2331790160874" lon="7.7504807431323">
				<ele>88.1000061035156</ele>
				<time>2012-04-21T12:51:30</time>
			</trkpt>
			<trkpt lat="52.2329081967959" lon="7.75075918995566">
				<ele>88.6999969482422</ele>
				<time>2012-04-21T12:51:35</time>
			</trkpt>
			<trkpt lat="52.2326333961005" lon="7.75101559237368">
				<ele>86.3999938964844</ele>
				<time>2012-04-21T12:51:40</time>
			</trkpt>
			<trkpt lat="52.2322841221953" lon="7.75117929094262">
				<ele>85.1999969482422</ele>
				<time>2012-04-21T12:51:46</time>
			</trkpt>
			<trkpt lat="52.2321627522374" lon="7.75122052990622">
				<ele>84.6999969482422</ele>
				<time>2012-04-21T12:51:48</time>
			</trkpt>
			<trkpt lat="52.2316934913883" lon="7.75146855042107">
				<ele>77.6999969482422</ele>
				<time>2012-04-21T12:51:57</time>
			</trkpt>
			<trkpt lat="52.2314603068421" lon="7.75156687014527">
				<ele>74</ele>
				<time>2012-04-21T12:52:01</time>
			</trkpt>
			<trkpt lat="52.2311496735106" lon="7.75173459202773">
				<ele>71.8000030517578</ele>
				<time>2012-04-21T12:52:06</time>
			</trkpt>
			<trkpt lat="52.2309322888518" lon="7.75188856758899">
				<ele>69.8000030517578</ele>
				<time>2012-04-21T12:52:10</time>
			</trkpt>
			<trkpt lat="52.2307623876745" lon="7.75199795142538">
				<ele>65.1999969482422</ele>
				<time>2012-04-21T12:52:16</time>
			</trkpt>
			<trkpt lat="52.2304460127393" lon="7.75229534134991">
				<ele>64</ele>
				<time>2012-04-21T12:52:22</time>
			</trkpt>
			<trkpt lat="52.2301589744652" lon="7.75254520588345">
				<ele>68.1999969482422</ele>
				<time>2012-04-21T12:52:27</time>
			</trkpt>
			<trkpt lat="52.2298790608088" lon="7.75279892609245">
				<ele>66</ele>
				<time>2012-04-21T12:52:32</time>
			</trkpt>
			<trkpt lat="52.2296882886926" lon="7.75296530687041">
				<ele>65.5</ele>
				<time>2012-04-21T12:52:35</time>
			</trkpt>
			<trkpt lat="52.2292682715247" lon="7.75323998183734">
				<ele>70.4000015258789</ele>
				<time>2012-04-21T12:52:41</time>
			</trkpt>
			<trkpt lat="52.228859402288" lon="7.75349160657055">
				<ele>72.0999984741211</ele>
				<time>2012-04-21T12:52:47</time>
			</trkpt>
			<trkpt lat="52.2283371259013" lon="7.75371640921361">
				<ele>70</ele>
				<time>2012-04-21T12:52:53</time>
			</trkpt>
			<trkpt lat="52.2282479005421" lon="7.75375295431144">
				<ele>69</ele>
				<time>2012-04-21T12:52:54</time>
			</trkpt>
			<trkpt lat="52.2275713133181" lon="7.75382436812646">
				<ele>67.5</ele>
				<time>2012-04-21T12:53:02</time>
			</trkpt>
			<trkpt lat="52.2271016752834" lon="7.75380928070075">
				<ele>71.8000030517578</ele>
				<time>2012-04-21T12:53:08</time>
			</trkpt>
			<trkpt lat="52.2268930497134" lon="7.75377105922229">
				<ele>70.1999969482422</ele>
				<time>2012-04-21T12:53:11</time>
			</trkpt>
			<trkpt lat="52.2265565582106" lon="7.7537116315288">
				<ele>70.4000015258789</ele>
				<time>2012-04-21T12:53:17</time>
			</trkpt>
			<trkpt lat="52.2263798257822" lon="7.75367625989742">
				<ele>70.1999969482422</ele>
				<time>2012-04-21T12:53:20</time>
			</trkpt>
			<trkpt lat="52.226171745036" lon="7.75364616886503">
				<ele>75.3000030517578</ele>
				<time>2012-04-21T12:53:24</time>
			</trkpt>
			<trkpt lat="52.2258702898884" lon="7.7535358630193">
				<ele>75.9000015258789</ele>
				<time>2012-04-21T12:53:29</time>
			</trkpt>
			<trkpt lat="52.2254361492137" lon="7.75341675617523">
				<ele>77.4000015258789</ele>
				<time>2012-04-21T12:53:39</time>
			</trkpt>
			<trkpt lat="52.225289130632" lon="7.75335841812915">
				<ele>79.6999969482422</ele>
				<time>2012-04-21T12:53:42</time>
			</trkpt>
			<trkpt lat="52.2250203229973" lon="7.75324484334118">
				<ele>79.5999984741211</ele>
				<time>2012-04-21T12:53:48</time>
			</trkpt>
			<trkpt lat="52.2248557443286" lon="7.75318415836222">
				<ele>78.9000015258789</ele>
				<time>2012-04-21T12:53:52</time>
			</trkpt>
			<trkpt lat="52.224562251989" lon="7.7530781272871">
				<ele>78.9000015258789</ele>
				<time>2012-04-21T12:53:58</time>
			</trkpt>
			<trkpt lat="52.2244477132822" lon="7.75301551447041">
				<ele>77.4000015258789</ele>
				<time>2012-04-21T12:54:00</time>
			</trkpt>
			<trkpt lat="52.22401767974" lon="7.75286355056591">
				<ele>79.0999984741211</ele>
				<time>2012-04-21T12:54:08</time>
			</trkpt>
			<trkpt lat="52.2238013847286" lon="7.75272759609646">
				<ele>80.5999984741211</ele>
				<time>2012-04-21T12:54:13</time>
			</trkpt>
			<trkpt lat="52.2235753248001" lon="7.75261184201366">
				<ele>80.9000015258789</ele>
				<time>2012-04-21T12:54:17</time>
			</trkpt>
			<trkpt lat="52.2232386656592" lon="7.75246515870816">
				<ele>87.3000030517578</ele>
				<time>2012-04-21T12:54:23</time>
			</trkpt>
			<trkpt lat="52.2231094586218" lon="7.75240229443438">
				<ele>85.6000061035156</ele>
				<time>2012-04-21T12:54:24</time>
			</trkpt>
			<trkpt lat="52.2227634117494" lon="7.75222836994357">
				<ele>79.4000015258789</ele>
				<time>2012-04-21T12:54:29</time>
			</trkpt>
			<trkpt lat="52.2221775167177" lon="7.75195394643373">
				<ele>76.1999969482422</ele>
				<time>2012-04-21T12:54:38</time>
			</trkpt>
			<trkpt lat="52.2218405642102" lon="7.75176392868883">
				<ele>72.0999984741211</ele>
				<time>2012-04-21T12:54:42</time>
			</trkpt>
			<trkpt lat="52.2212823713685" lon="7.75139051490254">
				<ele>72.8000030517578</ele>
				<time>2012-04-21T12:54:49</time>
			</trkpt>
			<trkpt lat="52.2210102947915" lon="7.75122036226816">
				<ele>69.5999984741211</ele>
				<time>2012-04-21T12:54:52</time>
			</trkpt>
			<trkpt lat="52.2204044508303" lon="7.7507550828231">
				<ele>65.6999969482422</ele>
				<time>2012-04-21T12:55:00</time>
			</trkpt>
			<trkpt lat="52.2200268041829" lon="7.75057604537136">
				<ele>63.5999984741211</ele>
				<time>2012-04-21T12:55:05</time>
			</trkpt>
			<trkpt lat="52.2196872532854" lon="7.75038409978873">
				<ele>62.4000015258789</ele>
				<time>2012-04-21T12:55:09</time>
			</trkpt>
			<trkpt lat="52.2192959022263" lon="7.7500716224385">
				<ele>61.6999969482422</ele>
				<time>2012-04-21T12:55:14</time>
			</trkpt>
			<trkpt lat="52.2192386957372" lon="7.74955722504086">
				<ele>62</ele>
				<time>2012-04-21T12:55:19</time>
			</trkpt>
			<trkpt lat="52.2192825750003" lon="7.74932705797977">
				<ele>60.8000030517578</ele>
				<time>2012-04-21T12:55:21</time>
			</trkpt>
			<trkpt lat="52.2194726346547" lon="7.74851175025827">
				<ele>61.3000030517578</ele>
				<time>2012-04-21T12:55:28</time>
			</trkpt>
			<trkpt lat="52.2195805097485" lon="7.74772628211207">
				<ele>59.5</ele>
				<time>2012-04-21T12:55:34</time>
			</trkpt>
			<trkpt lat="52.2197266901398" lon="7.74706821889407">
				<ele>59</ele>
				<time>2012-04-21T12:55:40</time>
			</trkpt>
			<trkpt lat="52.2198079946006" lon="7.74667276070243">
				<ele>57.0999984741211</ele>
				<time>2012-04-21T12:55:44</time>
			</trkpt>
			<trkpt lat="52.2198783187682" lon="7.74621058256155">
				<ele>58</ele>
				<time>2012-04-21T12:55:49</time>
			</trkpt>
			<trkpt lat="52.2196383029709" lon="7.74575435557193">
				<ele>54.1999969482422</ele>
				<time>2012-04-21T12:55:55</time>
			</trkpt>
			<trkpt lat="52.2194400290514" lon="7.74555830285674">
				<ele>58.5999984741211</ele>
				<time>2012-04-21T12:55:59</time>
			</trkpt>
			<trkpt lat="52.2193468222881" lon="7.74540122599131">
				<ele>59.6999969482422</ele>
				<time>2012-04-21T12:56:01</time>
			</trkpt>
			<trkpt lat="52.2188581154237" lon="7.74481222965545">
				<ele>58.4000015258789</ele>
				<time>2012-04-21T12:56:09</time>
			</trkpt>
			<trkpt lat="52.2187454207355" lon="7.74468247779435">
				<ele>57.5</ele>
				<time>2012-04-21T12:56:11</time>
			</trkpt>
			<trkpt lat="52.218212750789" lon="7.7442584373129">
				<ele>56.5999984741211</ele>
				<time>2012-04-21T12:56:19</time>
			</trkpt>
			<trkpt lat="52.2177758440862" lon="7.74404184893495">
				<ele>55.9000015258789</ele>
				<time>2012-04-21T12:56:25</time>
			</trkpt>
			<trkpt lat="52.2176174261162" lon="7.74390731938905">
				<ele>54</ele>
				<time>2012-04-21T12:56:28</time>
			</trkpt>
			<trkpt lat="52.2171753226334" lon="7.74361319840675">
				<ele>50.1999969482422</ele>
				<time>2012-04-21T12:56:35</time>
			</trkpt>
			<trkpt lat="52.2168510687092" lon="7.74344321341044">
				<ele>51</ele>
				<time>2012-04-21T12:56:40</time>
			</trkpt>
			<trkpt lat="52.2166577401126" lon="7.74332989007956">
				<ele>52.3000030517578</ele>
				<time>2012-04-21T12:56:43</time>
			</trkpt>
			<trkpt lat="52.2162801353747" lon="7.7431534510178">
				<ele>53.5</ele>
				<time>2012-04-21T12:56:50</time>
			</trkpt>
			<trkpt lat="52.2159311967457" lon="7.74309201166755">
				<ele>52.9000015258789</ele>
				<time>2012-04-21T12:56:55</time>
			</trkpt>
			<trkpt lat="52.2157233674565" lon="7.74303761311597">
				<ele>53.5999984741211</ele>
				<time>2012-04-21T12:56:58</time>
			</trkpt>
			<trkpt lat="52.2152070841307" lon="7.7429423108769">
				<ele>54.4000015258789</ele>
				<time>2012-04-21T12:57:05</time>
			</trkpt>
			<trkpt lat="52.2149842512349" lon="7.74289126508659">
				<ele>55.1999969482422</ele>
				<time>2012-04-21T12:57:08</time>
			</trkpt>
			<trkpt lat="52.2143842746059" lon="7.74280308746523">
				<ele>55.8000030517578</ele>
				<time>2012-04-21T12:57:16</time>
			</trkpt>
			<trkpt lat="52.2141733859221" lon="7.74283058010763">
				<ele>55.8000030517578</ele>
				<time>2012-04-21T12:57:19</time>
			</trkpt>
			<trkpt lat="52.213657898877" lon="7.74299494922882">
				<ele>57.6999969482422</ele>
				<time>2012-04-21T12:57:26</time>
			</trkpt>
			<trkpt lat="52.2133591259385" lon="7.74302093312865">
				<ele>57</ele>
				<time>2012-04-21T12:57:30</time>
			</trkpt>
			<trkpt lat="52.2129898611942" lon="7.74285723455971">
				<ele>52.0999984741211</ele>
				<time>2012-04-21T12:57:35</time>
			</trkpt>
			<trkpt lat="52.2126771323869" lon="7.74258054793602">
				<ele>51.6999969482422</ele>
				<time>2012-04-21T12:57:40</time>
			</trkpt>
			<trkpt lat="52.2124087019378" lon="7.74237921462184">
				<ele>51.9000015258789</ele>
				<time>2012-04-21T12:57:44</time>
			</trkpt>
			<trkpt lat="52.2121550655479" lon="7.74216120132035">
				<ele>50.9000015258789</ele>
				<time>2012-04-21T12:57:48</time>
			</trkpt>
			<trkpt lat="52.2117791371906" lon="7.7418634761197">
				<ele>49</ele>
				<time>2012-04-21T12:57:54</time>
			</trkpt>
			<trkpt lat="52.211385145832" lon="7.74156130851036">
				<ele>46.0999984741211</ele>
				<time>2012-04-21T12:58:00</time>
			</trkpt>
			<trkpt lat="52.2111398913452" lon="7.74135704153007">
				<ele>47.6999969482422</ele>
				<time>2012-04-21T12:58:04</time>
			</trkpt>
			<trkpt lat="52.2109484905863" lon="7.74118219502991">
				<ele>46.5</ele>
				<time>2012-04-21T12:58:07</time>
			</trkpt>
			<trkpt lat="52.2104643518591" lon="7.74065371603495">
				<ele>45.3000030517578</ele>
				<time>2012-04-21T12:58:15</time>
			</trkpt>
			<trkpt lat="52.2102198936531" lon="7.74032531306868">
				<ele>46.5999984741211</ele>
				<time>2012-04-21T12:58:20</time>
			</trkpt>
			<trkpt lat="52.2100121900925" lon="7.74009631947404">
				<ele>44.3000030517578</ele>
				<time>2012-04-21T12:58:24</time>
			</trkpt>
			<trkpt lat="52.2095674044008" lon="7.73972382769709">
				<ele>46.8000030517578</ele>
				<time>2012-04-21T12:58:31</time>
			</trkpt>
			<trkpt lat="52.2092938190812" lon="7.7395126875562">
				<ele>45.8000030517578</ele>
				<time>2012-04-21T12:58:35</time>
			</trkpt>
			<trkpt lat="52.20906713051" lon="7.73931680247908">
				<ele>44.5</ele>
				<time>2012-04-21T12:58:39</time>
			</trkpt>
			<trkpt lat="52.2088476084659" lon="7.73910063319629">
				<ele>43.5999984741211</ele>
				<time>2012-04-21T12:58:43</time>
			</trkpt>
			<trkpt lat="52.2084627533818" lon="7.73870626465207">
				<ele>48.3000030517578</ele>
				<time>2012-04-21T12:58:51</time>
			</trkpt>
			<trkpt lat="52.2081011161694" lon="7.73844961077696">
				<ele>47.1999969482422</ele>
				<time>2012-04-21T12:58:56</time>
			</trkpt>
			<trkpt lat="52.2078088811154" lon="7.73824693635827">
				<ele>48.0999984741211</ele>
				<time>2012-04-21T12:59:00</time>
			</trkpt>
			<trkpt lat="52.2074783407638" lon="7.73807921447581">
				<ele>52.5</ele>
				<time>2012-04-21T12:59:05</time>
			</trkpt>
			<trkpt lat="52.207202701878" lon="7.73796061054593">
				<ele>51.4000015258789</ele>
				<time>2012-04-21T12:59:09</time>
			</trkpt>
			<trkpt lat="52.2067030147204" lon="7.73806312122172">
				<ele>51.5</ele>
				<time>2012-04-21T12:59:16</time>
			</trkpt>
			<trkpt lat="52.2064927965889" lon="7.73814752698665">
				<ele>47.9000015258789</ele>
				<time>2012-04-21T12:59:19</time>
			</trkpt>
			<trkpt lat="52.2060745815301" lon="7.73836922832554">
				<ele>50.0999984741211</ele>
				<time>2012-04-21T12:59:25</time>
			</trkpt>
			<trkpt lat="52.2056559473762" lon="7.73846142926043">
				<ele>52.1999969482422</ele>
				<time>2012-04-21T12:59:31</time>
			</trkpt>
			<trkpt lat="52.2053979104871" lon="7.73831893690651">
				<ele>49.4000015258789</ele>
				<time>2012-04-21T12:59:35</time>
			</trkpt>
			<trkpt lat="52.2051141411552" lon="7.73788056337064">
				<ele>52</ele>
				<time>2012-04-21T12:59:42</time>
			</trkpt>
			<trkpt lat="52.205060832251" lon="7.73781736382073">
				<ele>51.3000030517578</ele>
				<time>2012-04-21T12:59:43</time>
			</trkpt>
			<trkpt lat="52.2047618916744" lon="7.73753355257934">
				<ele>54.0999984741211</ele>
				<time>2012-04-21T12:59:48</time>
			</trkpt>
			<trkpt lat="52.2044552397469" lon="7.73724077270156">
				<ele>52.6999969482422</ele>
				<time>2012-04-21T12:59:53</time>
			</trkpt>
			<trkpt lat="52.2041372722501" lon="7.73683978245383">
				<ele>53.8000030517578</ele>
				<time>2012-04-21T12:59:59</time>
			</trkpt>
			<trkpt lat="52.2037777305136" lon="7.73638623767322">
				<ele>54.5</ele>
				<time>2012-04-21T13:00:06</time>
			</trkpt>
			<trkpt lat="52.2034434602151" lon="7.73592213169461">
				<ele>54.5</ele>
				<time>2012-04-21T13:00:12</time>
			</trkpt>
			<trkpt lat="52.2032382293159" lon="7.7356097381634">
				<ele>54.8000030517578</ele>
				<time>2012-04-21T13:00:16</time>
			</trkpt>
			<trkpt lat="52.20304829539" lon="7.73514789529865">
				<ele>54.0999984741211</ele>
				<time>2012-04-21T13:00:21</time>
			</trkpt>
			<trkpt lat="52.202794575181" lon="7.73469083011871">
				<ele>57</ele>
				<time>2012-04-21T13:00:27</time>
			</trkpt>
			<trkpt lat="52.202550116975" lon="7.73438614793842">
				<ele>55.0999984741211</ele>
				<time>2012-04-21T13:00:31</time>
			</trkpt>
			<trkpt lat="52.2023719177136" lon="7.73406277411406">
				<ele>52.4000015258789</ele>
				<time>2012-04-21T13:00:35</time>
			</trkpt>
			<trkpt lat="52.2020534053931" lon="7.73358860985165">
				<ele>51.3000030517578</ele>
				<time>2012-04-21T13:00:41</time>
			</trkpt>
			<trkpt lat="52.2018099530155" lon="7.73321687244599">
				<ele>46.6999969482422</ele>
				<time>2012-04-21T13:00:46</time>
			</trkpt>
			<trkpt lat="52.2015740443507" lon="7.73293415085201">
				<ele>48.6999969482422</ele>
				<time>2012-04-21T13:00:50</time>
			</trkpt>
			<trkpt lat="52.201232523706" lon="7.73243928328877">
				<ele>48.8000030517578</ele>
				<time>2012-04-21T13:00:57</time>
			</trkpt>
			<trkpt lat="52.2010103613624" lon="7.73215387948577">
				<ele>47.5</ele>
				<time>2012-04-21T13:01:01</time>
			</trkpt>
			<trkpt lat="52.2007793142015" lon="7.73182857782369">
				<ele>49.9000015258789</ele>
				<time>2012-04-21T13:01:06</time>
			</trkpt>
			<trkpt lat="52.2005286952967" lon="7.73145340383773">
				<ele>49.4000015258789</ele>
				<time>2012-04-21T13:01:11</time>
			</trkpt>
			<trkpt lat="52.2003093408907" lon="7.73112265393858">
				<ele>47.3000030517578</ele>
				<time>2012-04-21T13:01:15</time>
			</trkpt>
			<trkpt lat="52.199926874649" lon="7.73064798676197">
				<ele>46</ele>
				<time>2012-04-21T13:01:22</time>
			</trkpt>
			<trkpt lat="52.1997801913435" lon="7.73044900038068">
				<ele>46.6999969482422</ele>
				<time>2012-04-21T13:01:25</time>
			</trkpt>
			<trkpt lat="52.1996240783969" lon="7.73024682887618">
				<ele>46.1999969482422</ele>
				<time>2012-04-21T13:01:28</time>
			</trkpt>
			<trkpt lat="52.1990966890493" lon="7.72961650975768">
				<ele>44</ele>
				<time>2012-04-21T13:01:37</time>
			</trkpt>
			<trkpt lat="52.1988754487151" lon="7.72940796800678">
				<ele>46.3000030517578</ele>
				<time>2012-04-21T13:01:41</time>
			</trkpt>
			<trkpt lat="52.1986518195385" lon="7.72919137962882">
				<ele>46.9000015258789</ele>
				<time>2012-04-21T13:01:45</time>
			</trkpt>
			<trkpt lat="52.1984552639091" lon="7.72880824283485">
				<ele>47.5999984741211</ele>
				<time>2012-04-21T13:01:51</time>
			</trkpt>
			<trkpt lat="52.1984998975435" lon="7.72843910381918">
				<ele>47.8000030517578</ele>
				<time>2012-04-21T13:01:55</time>
			</trkpt>
			<trkpt lat="52.1985918051118" lon="7.72795462981586">
				<ele>46.8000030517578</ele>
				<time>2012-04-21T13:02:00</time>
			</trkpt>
			<trkpt lat="52.1987248678247" lon="7.72747510113542">
				<ele>46.8000030517578</ele>
				<time>2012-04-21T13:02:05</time>
			</trkpt>
			<trkpt lat="52.1989915799836" lon="7.72685945034747">
				<ele>47.0999984741211</ele>
				<time>2012-04-21T13:02:12</time>
			</trkpt>
			<trkpt lat="52.1992026363054" lon="7.72642157972578">
				<ele>48.4000015258789</ele>
				<time>2012-04-21T13:02:17</time>
			</trkpt>
			<trkpt lat="52.1993412310744" lon="7.72617691197221">
				<ele>49.0999984741211</ele>
				<time>2012-04-21T13:02:20</time>
			</trkpt>
			<trkpt lat="52.199657312643" lon="7.72559302859728">
				<ele>48.5999984741211</ele>
				<time>2012-04-21T13:02:26</time>
			</trkpt>
			<trkpt lat="52.1997873997802" lon="7.72532723844771">
				<ele>48.6999969482422</ele>
				<time>2012-04-21T13:02:29</time>
			</trkpt>
			<trkpt lat="52.1999707958216" lon="7.72495625541334">
				<ele>50.3000030517578</ele>
				<time>2012-04-21T13:02:33</time>
			</trkpt>
			<trkpt lat="52.2002844047287" lon="7.72433230654125">
				<ele>50.1999969482422</ele>
				<time>2012-04-21T13:02:40</time>
			</trkpt>
			<trkpt lat="52.2005492309595" lon="7.72382176481907">
				<ele>53.5999984741211</ele>
				<time>2012-04-21T13:02:46</time>
			</trkpt>
			<trkpt lat="52.2007454094032" lon="7.7232708223236">
				<ele>54.8000030517578</ele>
				<time>2012-04-21T13:02:52</time>
			</trkpt>
			<trkpt lat="52.2007718962172" lon="7.72314618342344">
				<ele>54.3000030517578</ele>
				<time>2012-04-21T13:02:53</time>
			</trkpt>
			<trkpt lat="52.2008695034796" lon="7.72212987766389">
				<ele>49.4000015258789</ele>
				<time>2012-04-21T13:03:02</time>
			</trkpt>
			<trkpt lat="52.2009022348115" lon="7.72167683579747">
				<ele>47.6999969482422</ele>
				<time>2012-04-21T13:03:06</time>
			</trkpt>
			<trkpt lat="52.2008982534075" lon="7.72145882249598">
				<ele>48.3000030517578</ele>
				<time>2012-04-21T13:03:09</time>
			</trkpt>
			<trkpt lat="52.2009283863494" lon="7.72079246119384">
				<ele>47.6999969482422</ele>
				<time>2012-04-21T13:03:16</time>
			</trkpt>
			<trkpt lat="52.2009227285648" lon="7.72051678039853">
				<ele>46.1999969482422</ele>
				<time>2012-04-21T13:03:19</time>
			</trkpt>
			<trkpt lat="52.2007675795371" lon="7.71983357147101">
				<ele>45</ele>
				<time>2012-04-21T13:03:26</time>
			</trkpt>
			<trkpt lat="52.2006434854606" lon="7.71933702752713">
				<ele>42.6999969482422</ele>
				<time>2012-04-21T13:03:31</time>
			</trkpt>
			<trkpt lat="52.2004416492322" lon="7.71888901480261">
				<ele>43.5</ele>
				<time>2012-04-21T13:03:36</time>
			</trkpt>
			<trkpt lat="52.2002462251598" lon="7.71846857853953">
				<ele>43</ele>
				<time>2012-04-21T13:03:41</time>
			</trkpt>
			<trkpt lat="52.2000614041949" lon="7.71793666296426">
				<ele>38.6999969482422</ele>
				<time>2012-04-21T13:03:46</time>
			</trkpt>
			<trkpt lat="52.1999070933575" lon="7.71749862470451">
				<ele>41.6999969482422</ele>
				<time>2012-04-21T13:03:51</time>
			</trkpt>
			<trkpt lat="52.1998000983635" lon="7.71700895392123">
				<ele>38</ele>
				<time>2012-04-21T13:03:56</time>
			</trkpt>
			<trkpt lat="52.1996966237688" lon="7.7167342789543">
				<ele>37.3000030517578</ele>
				<time>2012-04-21T13:03:59</time>
			</trkpt>
			<trkpt lat="52.1994932787979" lon="7.7161607891393">
				<ele>38.5999984741211</ele>
				<time>2012-04-21T13:04:06</time>
			</trkpt>
			<trkpt lat="52.1993676759789" lon="7.71581076086286">
				<ele>42.4000015258789</ele>
				<time>2012-04-21T13:04:11</time>
			</trkpt>
			<trkpt lat="52.1992243035251" lon="7.7154186554325">
				<ele>44.8000030517578</ele>
				<time>2012-04-21T13:04:16</time>
			</trkpt>
			<trkpt lat="52.1990778716767" lon="7.7150539588255">
				<ele>42.5999984741211</ele>
				<time>2012-04-21T13:04:20</time>
			</trkpt>
			<trkpt lat="52.1989384387175" lon="7.71464198828462">
				<ele>45.3000030517578</ele>
				<time>2012-04-21T13:04:25</time>
			</trkpt>
			<trkpt lat="52.1988070942948" lon="7.71429313347462">
				<ele>47.5999984741211</ele>
				<time>2012-04-21T13:04:30</time>
			</trkpt>
			<trkpt lat="52.1988241095582" lon="7.71408475936177">
				<ele>49.5</ele>
				<time>2012-04-21T13:04:33</time>
			</trkpt>
			<trkpt lat="52.1992572863141" lon="7.71423831582788">
				<ele>50</ele>
				<time>2012-04-21T13:04:42</time>
			</trkpt>
			<trkpt lat="52.1995441569502" lon="7.714479127906">
				<ele>50.0999984741211</ele>
				<time>2012-04-21T13:04:47</time>
			</trkpt>
			<trkpt lat="52.1997502260396" lon="7.7147066965771">
				<ele>50</ele>
				<time>2012-04-21T13:04:51</time>
			</trkpt>
			<trkpt lat="52.200096105274" lon="7.71500995383385">
				<ele>51.0999984741211</ele>
				<time>2012-04-21T13:04:57</time>
			</trkpt>
			<trkpt lat="52.2003460536266" lon="7.71521430463317">
				<ele>51.3000030517578</ele>
				<time>2012-04-21T13:05:01</time>
			</trkpt>
			<trkpt lat="52.2006962495411" lon="7.71550917998675">
				<ele>53.0999984741211</ele>
				<time>2012-04-21T13:05:07</time>
			</trkpt>
			<trkpt lat="52.2010155162329" lon="7.71578083746854">
				<ele>50.8000030517578</ele>
				<time>2012-04-21T13:05:12</time>
			</trkpt>
			<trkpt lat="52.2013006685788" lon="7.71591134370092">
				<ele>50.1999969482422</ele>
				<time>2012-04-21T13:05:16</time>
			</trkpt>
			<trkpt lat="52.201754506726" lon="7.71608434618238">
				<ele>51.3000030517578</ele>
				<time>2012-04-21T13:05:22</time>
			</trkpt>
			<trkpt lat="52.2020855919013" lon="7.71625315771225">
				<ele>50.5</ele>
				<time>2012-04-21T13:05:27</time>
			</trkpt>
			<trkpt lat="52.2023627814392" lon="7.71640679799739">
				<ele>51.1999969482422</ele>
				<time>2012-04-21T13:05:31</time>
			</trkpt>
			<trkpt lat="52.2026127717013" lon="7.71665213630322">
				<ele>50.3000030517578</ele>
				<time>2012-04-21T13:05:35</time>
			</trkpt>
			<trkpt lat="52.2029841319213" lon="7.71703485400203">
				<ele>51.3000030517578</ele>
				<time>2012-04-21T13:05:41</time>
			</trkpt>
			<trkpt lat="52.2033380158732" lon="7.71730148234192">
				<ele>52.0999984741211</ele>
				<time>2012-04-21T13:05:46</time>
			</trkpt>
			<trkpt lat="52.2037524590755" lon="7.71763692610685">
				<ele>51</ele>
				<time>2012-04-21T13:05:52</time>
			</trkpt>
			<trkpt lat="52.2041633818785" lon="7.71790229716126">
				<ele>55.5999984741211</ele>
				<time>2012-04-21T13:05:58</time>
			</trkpt>
			<trkpt lat="52.2045463929439" lon="7.71804554388646">
				<ele>56.0999984741211</ele>
				<time>2012-04-21T13:06:03</time>
			</trkpt>
			<trkpt lat="52.2046177648494" lon="7.71807169542435">
				<ele>56.3000030517578</ele>
				<time>2012-04-21T13:06:04</time>
			</trkpt>
			<trkpt lat="52.2051755805055" lon="7.71839842200998">
				<ele>55.5999984741211</ele>
				<time>2012-04-21T13:06:12</time>
			</trkpt>
			<trkpt lat="52.2053190786878" lon="7.71848031320397">
				<ele>55.3000030517578</ele>
				<time>2012-04-21T13:06:14</time>
			</trkpt>
			<trkpt lat="52.205861471642" lon="7.71881642752115">
				<ele>52.5999984741211</ele>
				<time>2012-04-21T13:06:22</time>
			</trkpt>
			<trkpt lat="52.2062959895024" lon="7.71904701367739">
				<ele>53.4000015258789</ele>
				<time>2012-04-21T13:06:28</time>
			</trkpt>
			<trkpt lat="52.2065140028039" lon="7.7191849798036">
				<ele>53.6999969482422</ele>
				<time>2012-04-21T13:06:31</time>
			</trkpt>
			<trkpt lat="52.2069720738122" lon="7.71941011772279">
				<ele>53</ele>
				<time>2012-04-21T13:06:37</time>
			</trkpt>
			<trkpt lat="52.2073551267872" lon="7.71947868169073">
				<ele>52.5</ele>
				<time>2012-04-21T13:06:42</time>
			</trkpt>
			<trkpt lat="52.2075285064543" lon="7.71945973858956">
				<ele>58.3000030517578</ele>
				<time>2012-04-21T13:06:44</time>
			</trkpt>
			<trkpt lat="52.2080830531681" lon="7.71911054850344">
				<ele>56.5</ele>
				<time>2012-04-21T13:06:52</time>
			</trkpt>
			<trkpt lat="52.2082478413845" lon="7.7189394738597">
				<ele>58.8000030517578</ele>
				<time>2012-04-21T13:06:55</time>
			</trkpt>
			<trkpt lat="52.2088035615647" lon="7.71871391684536">
				<ele>54.8000030517578</ele>
				<time>2012-04-21T13:07:02</time>
			</trkpt>
			<trkpt lat="52.2089865804205" lon="7.71859883331481">
				<ele>56.5</ele>
				<time>2012-04-21T13:07:05</time>
			</trkpt>
			<trkpt lat="52.209591879558" lon="7.71842792630914">
				<ele>58.5999984741211</ele>
				<time>2012-04-21T13:07:12</time>
			</trkpt>
			<trkpt lat="52.2099280776942" lon="7.71830035374287">
				<ele>58</ele>
				<time>2012-04-21T13:07:17</time>
			</trkpt>
			<trkpt lat="52.2102549719179" lon="7.71818552166942">
				<ele>58.3000030517578</ele>
				<time>2012-04-21T13:07:22</time>
			</trkpt>
			<trkpt lat="52.210400565576" lon="7.71817035042468">
				<ele>55.5999984741211</ele>
				<time>2012-04-21T13:07:24</time>
			</trkpt>
			<trkpt lat="52.2110094689319" lon="7.71807890386108">
				<ele>51.1999969482422</ele>
				<time>2012-04-21T13:07:32</time>
			</trkpt>
			<trkpt lat="52.2113397997359" lon="7.71809097380165">
				<ele>52.1999969482422</ele>
				<time>2012-04-21T13:07:37</time>
			</trkpt>
			<trkpt lat="52.2117410414407" lon="7.71853253246073">
				<ele>50.3000030517578</ele>
				<time>2012-04-21T13:07:43</time>
			</trkpt>
			<trkpt lat="52.2118700389305" lon="7.7186580095512">
				<ele>51.5999984741211</ele>
				<time>2012-04-21T13:07:45</time>
			</trkpt>
			<trkpt lat="52.2121810494477" lon="7.71911121905569">
				<ele>51</ele>
				<time>2012-04-21T13:07:51</time>
			</trkpt>
			<trkpt lat="52.212532041643" lon="7.71953852847937">
				<ele>49.9000015258789</ele>
				<time>2012-04-21T13:07:57</time>
			</trkpt>
			<trkpt lat="52.2127803555245" lon="7.71983013489071">
				<ele>52.5999984741211</ele>
				<time>2012-04-21T13:08:02</time>
			</trkpt>
			<trkpt lat="52.2131471895168" lon="7.72017203272108">
				<ele>53.8000030517578</ele>
				<time>2012-04-21T13:08:07</time>
			</trkpt>
			<trkpt lat="52.213388253052" lon="7.72047730163459">
				<ele>52.3000030517578</ele>
				<time>2012-04-21T13:08:11</time>
			</trkpt>
			<trkpt lat="52.2138751997167" lon="7.72098055110101">
				<ele>47.6999969482422</ele>
				<time>2012-04-21T13:08:18</time>
			</trkpt>
			<trkpt lat="52.2139371000717" lon="7.72106571123723">
				<ele>47.6999969482422</ele>
				<time>2012-04-21T13:08:19</time>
			</trkpt>
			<trkpt lat="52.2144564427922" lon="7.72184070200447">
				<ele>41.9000015258789</ele>
				<time>2012-04-21T13:08:28</time>
			</trkpt>
			<trkpt lat="52.2144657467047" lon="7.72217782215003">
				<ele>42.3000030517578</ele>
				<time>2012-04-21T13:08:31</time>
			</trkpt>
			<trkpt lat="52.2146165371427" lon="7.72287251428489">
				<ele>42.8000030517578</ele>
				<time>2012-04-21T13:08:37</time>
			</trkpt>
			<trkpt lat="52.2148168646285" lon="7.7231360413206">
				<ele>48.5999984741211</ele>
				<time>2012-04-21T13:08:41</time>
			</trkpt>
			<trkpt lat="52.2152701579521" lon="7.72349805571858">
				<ele>50.4000015258789</ele>
				<time>2012-04-21T13:08:48</time>
			</trkpt>
			<trkpt lat="52.215628107127" lon="7.72384154611055">
				<ele>52.9000015258789</ele>
				<time>2012-04-21T13:08:54</time>
			</trkpt>
			<trkpt lat="52.2157768020893" lon="7.7239045780224">
				<ele>52.5</ele>
				<time>2012-04-21T13:08:56</time>
			</trkpt>
			<trkpt lat="52.2162729688475" lon="7.72397632711355">
				<ele>50.8000030517578</ele>
				<time>2012-04-21T13:09:03</time>
			</trkpt>
			<trkpt lat="52.2164616454879" lon="7.72388161160771">
				<ele>51.8000030517578</ele>
				<time>2012-04-21T13:09:06</time>
			</trkpt>
			<trkpt lat="52.2170156892875" lon="7.72341004573528">
				<ele>51.6999969482422</ele>
				<time>2012-04-21T13:09:14</time>
			</trkpt>
			<trkpt lat="52.2173374286408" lon="7.72325095721308">
				<ele>51.0999984741211</ele>
				<time>2012-04-21T13:09:18</time>
			</trkpt>
			<trkpt lat="52.2175575374181" lon="7.72323612124447">
				<ele>50.5</ele>
				<time>2012-04-21T13:09:21</time>
			</trkpt>
			<trkpt lat="52.2179202223683" lon="7.72335388698403">
				<ele>51.3000030517578</ele>
				<time>2012-04-21T13:09:26</time>
			</trkpt>
			<trkpt lat="52.2182645090411" lon="7.72345229052726">
				<ele>52.5</ele>
				<time>2012-04-21T13:09:30</time>
			</trkpt>
			<trkpt lat="52.2188539663816" lon="7.72399719805245">
				<ele>55.4000015258789</ele>
				<time>2012-04-21T13:09:40</time>
			</trkpt>
			<trkpt lat="52.2190806549529" lon="7.72430741228883">
				<ele>54.5999984741211</ele>
				<time>2012-04-21T13:09:44</time>
			</trkpt>
			<trkpt lat="52.2192173637936" lon="7.72471695207779">
				<ele>57.5</ele>
				<time>2012-04-21T13:09:48</time>
			</trkpt>
			<trkpt lat="52.2193652624751" lon="7.72540267557625">
				<ele>58</ele>
				<time>2012-04-21T13:09:54</time>
			</trkpt>
			<trkpt lat="52.2194676893318" lon="7.72597021424">
				<ele>56.5</ele>
				<time>2012-04-21T13:09:59</time>
			</trkpt>
			<trkpt lat="52.2195458924884" lon="7.72651277483229">
				<ele>57.9000015258789</ele>
				<time>2012-04-21T13:10:04</time>
			</trkpt>
			<trkpt lat="52.2196340701098" lon="7.72696053609972">
				<ele>56.4000015258789</ele>
				<time>2012-04-21T13:10:08</time>
			</trkpt>
			<trkpt lat="52.2197439987699" lon="7.72752941586797">
				<ele>53.5</ele>
				<time>2012-04-21T13:10:13</time>
			</trkpt>
			<trkpt lat="52.2197967628503" lon="7.72797759623055">
				<ele>57</ele>
				<time>2012-04-21T13:10:18</time>
			</trkpt>
			<trkpt lat="52.2199027939255" lon="7.72833030671601">
				<ele>56.1999969482422</ele>
				<time>2012-04-21T13:10:22</time>
			</trkpt>
			<trkpt lat="52.2200403409565" lon="7.72854203359012">
				<ele>59.8000030517578</ele>
				<time>2012-04-21T13:10:26</time>
			</trkpt>
			<trkpt lat="52.220266317066" lon="7.72880489007358">
				<ele>63.0999984741211</ele>
				<time>2012-04-21T13:10:31</time>
			</trkpt>
			<trkpt lat="52.220497448046" lon="7.7291059680355">
				<ele>65.5</ele>
				<time>2012-04-21T13:10:37</time>
			</trkpt>
			<trkpt lat="52.2207889706383" lon="7.72939153947656">
				<ele>60.3000030517578</ele>
				<time>2012-04-21T13:10:44</time>
			</trkpt>
			<trkpt lat="52.2208789503688" lon="7.72951609455769">
				<ele>61.6999969482422</ele>
				<time>2012-04-21T13:10:48</time>
			</trkpt>
			<trkpt lat="52.2208875837291" lon="7.72959035821979">
				<ele>60</ele>
				<time>2012-04-21T13:10:52</time>
			</trkpt>
			<trkpt lat="52.2210072353969" lon="7.72941081785385">
				<ele>61.3000030517578</ele>
				<time>2012-04-21T13:12:09</time>
			</trkpt>
			<trkpt lat="52.221075003084" lon="7.7293411642385">
				<ele>55.5</ele>
				<time>2012-04-21T13:13:22</time>
			</trkpt>
			<trkpt lat="52.2210269328693" lon="7.72955875844483">
				<ele>49.8000030517578</ele>
				<time>2012-04-21T13:13:31</time>
			</trkpt>
			<trkpt lat="52.2209948720897" lon="7.72961977869992">
				<ele>49.0999984741211</ele>
				<time>2012-04-21T13:13:35</time>
			</trkpt>
			<trkpt lat="52.2209896753097" lon="7.72962723859374">
				<ele>52.5</ele>
				<time>2012-04-21T13:13:37</time>
			</trkpt>
			<trkpt lat="52.2209528368453" lon="7.72960058414166">
				<ele>55.3000030517578</ele>
				<time>2012-04-21T13:13:44</time>
			</trkpt>
			<trkpt lat="52.220870107461" lon="7.7294550743026">
				<ele>60.1999969482422</ele>
				<time>2012-04-21T13:14:16</time>
			</trkpt>
			<trkpt lat="52.2210980114082" lon="7.72964467295234">
				<ele>68.1999969482422</ele>
				<time>2012-04-21T13:15:09</time>
			</trkpt>
			<trkpt lat="52.2213405417765" lon="7.72988087498371">
				<ele>64.4000015258789</ele>
				<time>2012-04-21T13:15:15</time>
			</trkpt>
			<trkpt lat="52.2217845311875" lon="7.73028966040139">
				<ele>60.4000015258789</ele>
				<time>2012-04-21T13:15:23</time>
			</trkpt>
			<trkpt lat="52.2221050970743" lon="7.73055427708452">
				<ele>58.8000030517578</ele>
				<time>2012-04-21T13:15:28</time>
			</trkpt>
			<trkpt lat="52.2223419696579" lon="7.73075996898835">
				<ele>56.8000030517578</ele>
				<time>2012-04-21T13:15:32</time>
			</trkpt>
			<trkpt lat="52.2224398283774" lon="7.73085074499969">
				<ele>56.8000030517578</ele>
				<time>2012-04-21T13:15:34</time>
			</trkpt>
			<trkpt lat="52.2229073290268" lon="7.73115148768549">
				<ele>57.3000030517578</ele>
				<time>2012-04-21T13:15:42</time>
			</trkpt>
			<trkpt lat="52.2230628133306" lon="7.73121217266445">
				<ele>59</ele>
				<time>2012-04-21T13:15:45</time>
			</trkpt>
			<trkpt lat="52.2233508574331" lon="7.73124117404942">
				<ele>59.9000015258789</ele>
				<time>2012-04-21T13:15:52</time>
			</trkpt>
			<trkpt lat="52.2235796833897" lon="7.73091855459635">
				<ele>60.3000030517578</ele>
				<time>2012-04-21T13:15:57</time>
			</trkpt>
			<trkpt lat="52.2236689506585" lon="7.73069274612491">
				<ele>62.5999984741211</ele>
				<time>2012-04-21T13:16:00</time>
			</trkpt>
			<trkpt lat="52.2239799192662" lon="7.73005513475065">
				<ele>64.9000015258789</ele>
				<time>2012-04-21T13:16:07</time>
			</trkpt>
			<trkpt lat="52.2241711104775" lon="7.72967048921411">
				<ele>62</ele>
				<time>2012-04-21T13:16:11</time>
			</trkpt>
			<trkpt lat="52.2243976733202" lon="7.72910512984519">
				<ele>60</ele>
				<time>2012-04-21T13:16:17</time>
			</trkpt>
			<trkpt lat="52.2245005611817" lon="7.72871377878611">
				<ele>57.3000030517578</ele>
				<time>2012-04-21T13:16:21</time>
			</trkpt>
			<trkpt lat="52.2246136330554" lon="7.72804272361819">
				<ele>52.4000015258789</ele>
				<time>2012-04-21T13:16:27</time>
			</trkpt>
			<trkpt lat="52.2246697918067" lon="7.7275934536082">
				<ele>55</ele>
				<time>2012-04-21T13:16:31</time>
			</trkpt>
			<trkpt lat="52.2246895311887" lon="7.72689314559822">
				<ele>56.6999969482422</ele>
				<time>2012-04-21T13:16:37</time>
			</trkpt>
			<trkpt lat="52.2246095678324" lon="7.72638075985734">
				<ele>50.3000030517578</ele>
				<time>2012-04-21T13:16:41</time>
			</trkpt>
			<trkpt lat="52.2245878587032" lon="7.7256660349739">
				<ele>52</ele>
				<time>2012-04-21T13:16:47</time>
			</trkpt>
			<trkpt lat="52.2246140521506" lon="7.72508240305607">
				<ele>53.1999969482422</ele>
				<time>2012-04-21T13:16:52</time>
			</trkpt>
			<trkpt lat="52.2246505553389" lon="7.72450983525042">
				<ele>51.0999984741211</ele>
				<time>2012-04-21T13:16:57</time>
			</trkpt>
			<trkpt lat="52.2247091029326" lon="7.72403106094126">
				<ele>49.3000030517578</ele>
				<time>2012-04-21T13:17:01</time>
			</trkpt>
			<trkpt lat="52.2249059938381" lon="7.72328448482577">
				<ele>51.0999984741211</ele>
				<time>2012-04-21T13:17:08</time>
			</trkpt>
			<trkpt lat="52.2249680618311" lon="7.72307309322778">
				<ele>51.3000030517578</ele>
				<time>2012-04-21T13:17:10</time>
			</trkpt>
			<trkpt lat="52.2252052277813" lon="7.72220271640245">
				<ele>50.4000015258789</ele>
				<time>2012-04-21T13:17:18</time>
			</trkpt>
			<trkpt lat="52.2253505699823" lon="7.721789237119">
				<ele>45.5</ele>
				<time>2012-04-21T13:17:22</time>
			</trkpt>
			<trkpt lat="52.2254534159342" lon="7.7214646898282">
				<ele>45.1999969482422</ele>
				<time>2012-04-21T13:17:25</time>
			</trkpt>
			<trkpt lat="52.2256347584093" lon="7.72081056610469">
				<ele>42.1999969482422</ele>
				<time>2012-04-21T13:17:31</time>
			</trkpt>
			<trkpt lat="52.2257751133779" lon="7.72036674433175">
				<ele>42.6999969482422</ele>
				<time>2012-04-21T13:17:35</time>
			</trkpt>
			<trkpt lat="52.2258935915793" lon="7.71995862946633">
				<ele>44</ele>
				<time>2012-04-21T13:17:39</time>
			</trkpt>
			<trkpt lat="52.2260295041392" lon="7.71946376190308">
				<ele>44.5</ele>
				<time>2012-04-21T13:17:44</time>
			</trkpt>
			<trkpt lat="52.2264020378256" lon="7.71877242252949">
				<ele>46.0999984741211</ele>
				<time>2012-04-21T13:17:52</time>
			</trkpt>
			<trkpt lat="52.2267396189759" lon="7.71834092215422">
				<ele>45.1999969482422</ele>
				<time>2012-04-21T13:17:58</time>
			</trkpt>
			<trkpt lat="52.2270848695675" lon="7.71802618169013">
				<ele>45.5</ele>
				<time>2012-04-21T13:18:03</time>
			</trkpt>
			<trkpt lat="52.227424504284" lon="7.71774983034257">
				<ele>46.5</ele>
				<time>2012-04-21T13:18:08</time>
			</trkpt>
			<trkpt lat="52.2276970837752" lon="7.7175044082177">
				<ele>43.5</ele>
				<time>2012-04-21T13:18:12</time>
			</trkpt>
			<trkpt lat="52.2278351337204" lon="7.71738119424108">
				<ele>43.8000030517578</ele>
				<time>2012-04-21T13:18:14</time>
			</trkpt>
			<trkpt lat="52.2283605952302" lon="7.71674911492291">
				<ele>48.9000015258789</ele>
				<time>2012-04-21T13:18:23</time>
			</trkpt>
			<trkpt lat="52.228589924101" lon="7.71629305557135">
				<ele>50</ele>
				<time>2012-04-21T13:18:28</time>
			</trkpt>
			<trkpt lat="52.2288374417016" lon="7.71584068425718">
				<ele>51.6999969482422</ele>
				<time>2012-04-21T13:18:33</time>
			</trkpt>
			<trkpt lat="52.2291533975417" lon="7.71525613033">
				<ele>45.1999969482422</ele>
				<time>2012-04-21T13:18:39</time>
			</trkpt>
			<trkpt lat="52.2293695668245" lon="7.71485053003553">
				<ele>42.3000030517578</ele>
				<time>2012-04-21T13:18:43</time>
			</trkpt>
			<trkpt lat="52.2294490272666" lon="7.71467191167894">
				<ele>41.6999969482422</ele>
				<time>2012-04-21T13:18:45</time>
			</trkpt>
			<trkpt lat="52.2298418032492" lon="7.71395752207163">
				<ele>38.5999984741211</ele>
				<time>2012-04-21T13:18:53</time>
			</trkpt>
			<trkpt lat="52.2300129198024" lon="7.71356382407966">
				<ele>36</ele>
				<time>2012-04-21T13:18:57</time>
			</trkpt>
			<trkpt lat="52.2301622434074" lon="7.71319929511073">
				<ele>38.4000015258789</ele>
				<time>2012-04-21T13:19:01</time>
			</trkpt>
			<trkpt lat="52.2304516286144" lon="7.71210067906204">
				<ele>44.4000015258789</ele>
				<time>2012-04-21T13:19:09</time>
			</trkpt>
			<trkpt lat="52.2305302927757" lon="7.7117744553906">
				<ele>44.1999969482422</ele>
				<time>2012-04-21T13:19:12</time>
			</trkpt>
			<trkpt lat="52.2307264712194" lon="7.71124748513821">
				<ele>42.5999984741211</ele>
				<time>2012-04-21T13:19:17</time>
			</trkpt>
			<trkpt lat="52.2309081489707" lon="7.71046763286713">
				<ele>45.8000030517578</ele>
				<time>2012-04-21T13:19:24</time>
			</trkpt>
			<trkpt lat="52.2310997173677" lon="7.70990470425012">
				<ele>49.9000015258789</ele>
				<time>2012-04-21T13:19:29</time>
			</trkpt>
			<trkpt lat="52.2311565885807" lon="7.70967696794095">
				<ele>50.8000030517578</ele>
				<time>2012-04-21T13:19:31</time>
			</trkpt>
			<trkpt lat="52.2313628672177" lon="7.70899409428957">
				<ele>52.6999969482422</ele>
				<time>2012-04-21T13:19:37</time>
			</trkpt>
			<trkpt lat="52.2315566568191" lon="7.70826704800847">
				<ele>52.8000030517578</ele>
				<time>2012-04-21T13:19:43</time>
			</trkpt>
			<trkpt lat="52.231654305991" lon="7.7079217135978">
				<ele>52.0999984741211</ele>
				<time>2012-04-21T13:19:46</time>
			</trkpt>
			<trkpt lat="52.2318392526845" lon="7.70727446303489">
				<ele>51.5999984741211</ele>
				<time>2012-04-21T13:19:52</time>
			</trkpt>
			<trkpt lat="52.2320899973179" lon="7.70646460355046">
				<ele>50.4000015258789</ele>
				<time>2012-04-21T13:19:59</time>
			</trkpt>
			<trkpt lat="52.2322170669699" lon="7.70609932021024">
				<ele>47.5999984741211</ele>
				<time>2012-04-21T13:20:02</time>
			</trkpt>
			<trkpt lat="52.2323397361229" lon="7.70565298386636">
				<ele>44.5999984741211</ele>
				<time>2012-04-21T13:20:06</time>
			</trkpt>
			<trkpt lat="52.2324831504861" lon="7.70523682237389">
				<ele>46.0999984741211</ele>
				<time>2012-04-21T13:20:10</time>
			</trkpt>
			<trkpt lat="52.2327342303956" lon="7.70457942970815">
				<ele>41.9000015258789</ele>
				<time>2012-04-21T13:20:16</time>
			</trkpt>
			<trkpt lat="52.2329126392046" lon="7.70401834510984">
				<ele>41</ele>
				<time>2012-04-21T13:20:21</time>
			</trkpt>
			<trkpt lat="52.232980993625" lon="7.70322449506047">
				<ele>46.0999984741211</ele>
				<time>2012-04-21T13:20:28</time>
			</trkpt>
			<trkpt lat="52.2330322070534" lon="7.70249912516">
				<ele>49.5999984741211</ele>
				<time>2012-04-21T13:20:34</time>
			</trkpt>
			<trkpt lat="52.2330724401886" lon="7.70194692537906">
				<ele>49.0999984741211</ele>
				<time>2012-04-21T13:20:39</time>
			</trkpt>
			<trkpt lat="52.2328630183379" lon="7.7014993317497">
				<ele>45.5</ele>
				<time>2012-04-21T13:20:44</time>
			</trkpt>
			<trkpt lat="52.232437972028" lon="7.70083003678145">
				<ele>44.3000030517578</ele>
				<time>2012-04-21T13:20:52</time>
			</trkpt>
			<trkpt lat="52.2323244391496" lon="7.70019544289233">
				<ele>43.9000015258789</ele>
				<time>2012-04-21T13:20:58</time>
			</trkpt>
			<trkpt lat="52.2322959406788" lon="7.70013450645627">
				<ele>45.1999969482422</ele>
				<time>2012-04-21T13:21:00</time>
			</trkpt>
			<trkpt lat="52.2321414622033" lon="7.69897419960024">
				<ele>47.9000015258789</ele>
				<time>2012-04-21T13:21:09</time>
			</trkpt>
			<trkpt lat="52.2321104491616" lon="7.69864420407237">
				<ele>48.5999984741211</ele>
				<time>2012-04-21T13:21:13</time>
			</trkpt>
			<trkpt lat="52.2320765024538" lon="7.69814036787273">
				<ele>53.5999984741211</ele>
				<time>2012-04-21T13:21:18</time>
			</trkpt>
			<trkpt lat="52.2320205532501" lon="7.69735766575457">
				<ele>55.9000015258789</ele>
				<time>2012-04-21T13:21:24</time>
			</trkpt>
			<trkpt lat="52.2319892049322" lon="7.69660639577331">
				<ele>54</ele>
				<time>2012-04-21T13:21:29</time>
			</trkpt>
			<trkpt lat="52.2320100758711" lon="7.69614555873694">
				<ele>50.3000030517578</ele>
				<time>2012-04-21T13:21:33</time>
			</trkpt>
			<trkpt lat="52.2320270911346" lon="7.69580114633562">
				<ele>49.6999969482422</ele>
				<time>2012-04-21T13:21:36</time>
			</trkpt>
			<trkpt lat="52.2320907097796" lon="7.69478408620478">
				<ele>47.1999969482422</ele>
				<time>2012-04-21T13:21:45</time>
			</trkpt>
			<trkpt lat="52.2321135504658" lon="7.69458224997641">
				<ele>47.9000015258789</ele>
				<time>2012-04-21T13:21:47</time>
			</trkpt>
			<trkpt lat="52.2321622074137" lon="7.69402443432034">
				<ele>49.3000030517578</ele>
				<time>2012-04-21T13:21:52</time>
			</trkpt>
			<trkpt lat="52.2322165221462" lon="7.69337441772939">
				<ele>46.1999969482422</ele>
				<time>2012-04-21T13:21:57</time>
			</trkpt>
			<trkpt lat="52.23240230703" lon="7.69289832562925">
				<ele>47.5</ele>
				<time>2012-04-21T13:22:01</time>
			</trkpt>
			<trkpt lat="52.2321393667275" lon="7.69197237678588">
				<ele>54.5999984741211</ele>
				<time>2012-04-21T13:22:09</time>
			</trkpt>
			<trkpt lat="52.2321681585649" lon="7.69147398882331">
				<ele>52.4000015258789</ele>
				<time>2012-04-21T13:22:15</time>
			</trkpt>
			<trkpt lat="52.2321999678875" lon="7.69124901854218">
				<ele>53</ele>
				<time>2012-04-21T13:22:19</time>
			</trkpt>
			<trkpt lat="52.2322306875626" lon="7.69100577571214">
				<ele>54.1999969482422</ele>
				<time>2012-04-21T13:22:22</time>
			</trkpt>
			<trkpt lat="52.2321847966427" lon="7.69067393616558">
				<ele>62.3000030517578</ele>
				<time>2012-04-21T13:22:27</time>
			</trkpt>
			<trkpt lat="52.2321235249305" lon="7.69009298645676">
				<ele>60.9000015258789</ele>
				<time>2012-04-21T13:22:33</time>
			</trkpt>
			<trkpt lat="52.232223730583" lon="7.68940558657766">
				<ele>56.3000030517578</ele>
				<time>2012-04-21T13:22:39</time>
			</trkpt>
			<trkpt lat="52.2324016783873" lon="7.68877317198337">
				<ele>56.0999984741211</ele>
				<time>2012-04-21T13:22:45</time>
			</trkpt>
			<trkpt lat="52.2324451385552" lon="7.68867560663045">
				<ele>59</ele>
				<time>2012-04-21T13:22:46</time>
			</trkpt>
			<trkpt lat="52.2327199811602" lon="7.6878115162325">
				<ele>58.1999969482422</ele>
				<time>2012-04-21T13:22:54</time>
			</trkpt>
			<trkpt lat="52.2327858210096" lon="7.68756450154603">
				<ele>52.3000030517578</ele>
				<time>2012-04-21T13:22:56</time>
			</trkpt>
			<trkpt lat="52.2331247851739" lon="7.68676537089766">
				<ele>52</ele>
				<time>2012-04-21T13:23:04</time>
			</trkpt>
			<trkpt lat="52.2334313113729" lon="7.68630713225127">
				<ele>57.6999969482422</ele>
				<time>2012-04-21T13:23:09</time>
			</trkpt>
			<trkpt lat="52.2337882128099" lon="7.68574110233009">
				<ele>52.9000015258789</ele>
				<time>2012-04-21T13:23:16</time>
			</trkpt>
			<trkpt lat="52.2338312538827" lon="7.68564881757618">
				<ele>53.1999969482422</ele>
				<time>2012-04-21T13:23:17</time>
			</trkpt>
			<trkpt lat="52.2341342177728" lon="7.68483283930243">
				<ele>53.1999969482422</ele>
				<time>2012-04-21T13:23:26</time>
			</trkpt>
			<trkpt lat="52.2343002632747" lon="7.68456059508741">
				<ele>55.5</ele>
				<time>2012-04-21T13:23:30</time>
			</trkpt>
			<trkpt lat="52.2344929632286" lon="7.68392222934187">
				<ele>51.9000015258789</ele>
				<time>2012-04-21T13:23:36</time>
			</trkpt>
			<trkpt lat="52.2345805122072" lon="7.68335661851585">
				<ele>51.9000015258789</ele>
				<time>2012-04-21T13:23:40</time>
			</trkpt>
			<trkpt lat="52.2346897703151" lon="7.68293341622472">
				<ele>50.1999969482422</ele>
				<time>2012-04-21T13:23:44</time>
			</trkpt>
			<trkpt lat="52.2347971844042" lon="7.68264256418467">
				<ele>49.3000030517578</ele>
				<time>2012-04-21T13:23:47</time>
			</trkpt>
			<trkpt lat="52.2350473003948" lon="7.6821365486902">
				<ele>47.3000030517578</ele>
				<time>2012-04-21T13:23:52</time>
			</trkpt>
			<trkpt lat="52.2353540780509" lon="7.68153405749023">
				<ele>41.5</ele>
				<time>2012-04-21T13:24:00</time>
			</trkpt>
			<trkpt lat="52.2355771624038" lon="7.68121386878908">
				<ele>43.5</ele>
				<time>2012-04-21T13:24:03</time>
			</trkpt>
			<trkpt lat="52.2360851476455" lon="7.68069360405922">
				<ele>39.1999969482422</ele>
				<time>2012-04-21T13:24:10</time>
			</trkpt>
			<trkpt lat="52.2362353513504" lon="7.68056762405455">
				<ele>41.5</ele>
				<time>2012-04-21T13:24:12</time>
			</trkpt>
			<trkpt lat="52.2366011795143" lon="7.68026327715039">
				<ele>41.8000030517578</ele>
				<time>2012-04-21T13:24:18</time>
			</trkpt>
			<trkpt lat="52.2369507886956" lon="7.67995255999982">
				<ele>39.8000030517578</ele>
				<time>2012-04-21T13:24:23</time>
			</trkpt>
			<trkpt lat="52.237131586347" lon="7.67977679149032">
				<ele>40.1999969482422</ele>
				<time>2012-04-21T13:24:27</time>
			</trkpt>
			<trkpt lat="52.2378043598051" lon="7.67902895808935">
				<ele>45</ele>
				<time>2012-04-21T13:24:37</time>
			</trkpt>
			<trkpt lat="52.2380740894491" lon="7.67864992842793">
				<ele>48.6999969482422</ele>
				<time>2012-04-21T13:24:41</time>
			</trkpt>
			<trkpt lat="52.2381147416795" lon="7.67846284434914">
				<ele>50.8000030517578</ele>
				<time>2012-04-21T13:24:43</time>
			</trkpt>
			<trkpt lat="52.2381618060658" lon="7.67768802121997">
				<ele>48.5</ele>
				<time>2012-04-21T13:24:51</time>
			</trkpt>
			<trkpt lat="52.2380530927817" lon="7.67684119754254">
				<ele>54.3000030517578</ele>
				<time>2012-04-21T13:24:56</time>
			</trkpt>
			<trkpt lat="52.2379906056935" lon="7.67656166107177">
				<ele>55.4000015258789</ele>
				<time>2012-04-21T13:24:59</time>
			</trkpt>
			<trkpt lat="52.2376809781904" lon="7.67598129809618">
				<ele>56.9000015258789</ele>
				<time>2012-04-21T13:25:07</time>
			</trkpt>
			<trkpt lat="52.2376075527186" lon="7.67590904609084">
				<ele>58.1999969482422</ele>
				<time>2012-04-21T13:25:08</time>
			</trkpt>
			<trkpt lat="52.2368906066308" lon="7.6753169484508">
				<ele>66.1999969482422</ele>
				<time>2012-04-21T13:25:17</time>
			</trkpt>
			<trkpt lat="52.2366549913327" lon="7.67506490462243">
				<ele>66.5999984741211</ele>
				<time>2012-04-21T13:25:21</time>
			</trkpt>
			<trkpt lat="52.2365462780485" lon="7.67480774783313">
				<ele>67.1999969482422</ele>
				<time>2012-04-21T13:25:24</time>
			</trkpt>
			<trkpt lat="52.2364277998472" lon="7.67412269488692">
				<ele>61.5</ele>
				<time>2012-04-21T13:25:31</time>
			</trkpt>
			<trkpt lat="52.2363633430118" lon="7.67370888032734">
				<ele>59.5</ele>
				<time>2012-04-21T13:25:36</time>
			</trkpt>
			<trkpt lat="52.2362945694963" lon="7.67336262390732">
				<ele>56.5999984741211</ele>
				<time>2012-04-21T13:25:40</time>
			</trkpt>
			<trkpt lat="52.2362573957557" lon="7.67287991010367">
				<ele>50.4000015258789</ele>
				<time>2012-04-21T13:25:46</time>
			</trkpt>
			<trkpt lat="52.2363394126782" lon="7.67260305584192">
				<ele>49</ele>
				<time>2012-04-21T13:25:50</time>
			</trkpt>
			<trkpt lat="52.2366725514198" lon="7.67257036641955">
				<ele>46.4000015258789</ele>
				<time>2012-04-21T13:25:55</time>
			</trkpt>
			<trkpt lat="52.237176513348" lon="7.67241605558216">
				<ele>41.9000015258789</ele>
				<time>2012-04-21T13:26:02</time>
			</trkpt>
			<trkpt lat="52.2374880686889" lon="7.67232963816046">
				<ele>40.8000030517578</ele>
				<time>2012-04-21T13:26:06</time>
			</trkpt>
			<trkpt lat="52.2379414458314" lon="7.67218429595947">
				<ele>40.0999984741211</ele>
				<time>2012-04-21T13:26:11</time>
			</trkpt>
			<trkpt lat="52.2384824138621" lon="7.67212109640955">
				<ele>35.1999969482422</ele>
				<time>2012-04-21T13:26:17</time>
			</trkpt>
			<trkpt lat="52.2388292151058" lon="7.67202487216114">
				<ele>34.5</ele>
				<time>2012-04-21T13:26:21</time>
			</trkpt>
			<trkpt lat="52.2391641978661" lon="7.6718299929124">
				<ele>37.5</ele>
				<time>2012-04-21T13:26:26</time>
			</trkpt>
			<trkpt lat="52.2392699355746" lon="7.67137686722695">
				<ele>40.6999969482422</ele>
				<time>2012-04-21T13:26:30</time>
			</trkpt>
			<trkpt lat="52.2394848056624" lon="7.67090689391612">
				<ele>42</ele>
				<time>2012-04-21T13:26:36</time>
			</trkpt>
			<trkpt lat="52.2395650623853" lon="7.67061227001964">
				<ele>42.6999969482422</ele>
				<time>2012-04-21T13:26:39</time>
			</trkpt>
			<trkpt lat="52.2397933016086" lon="7.66941851936995">
				<ele>47.4000015258789</ele>
				<time>2012-04-21T13:26:48</time>
			</trkpt>
			<trkpt lat="52.2398046171779" lon="7.66935942695259">
				<ele>48.6999969482422</ele>
				<time>2012-04-21T13:26:49</time>
			</trkpt>
			<trkpt lat="52.2399037331829" lon="7.66829878092526">
				<ele>49.4000015258789</ele>
				<time>2012-04-21T13:26:57</time>
			</trkpt>
			<trkpt lat="52.2400655458236" lon="7.66728088260411">
				<ele>50.1999969482422</ele>
				<time>2012-04-21T13:27:03</time>
			</trkpt>
			<trkpt lat="52.2401410248617" lon="7.66703403555571">
				<ele>49.3000030517578</ele>
				<time>2012-04-21T13:27:05</time>
			</trkpt>
			<trkpt lat="52.2403066931779" lon="7.6664819195938">
				<ele>52.3000030517578</ele>
				<time>2012-04-21T13:27:10</time>
			</trkpt>
			<trkpt lat="52.2402828047539" lon="7.66601487994908">
				<ele>52.8000030517578</ele>
				<time>2012-04-21T13:27:15</time>
			</trkpt>
			<trkpt lat="52.2401743429268" lon="7.66569117084859">
				<ele>53.3000030517578</ele>
				<time>2012-04-21T13:27:21</time>
			</trkpt>
			<trkpt lat="52.2400191938991" lon="7.6656771730703">
				<ele>53.8000030517578</ele>
				<time>2012-04-21T13:27:24</time>
			</trkpt>
			<trkpt lat="52.2394027887399" lon="7.6655128039491">
				<ele>50.6999969482422</ele>
				<time>2012-04-21T13:27:32</time>
			</trkpt>
			<trkpt lat="52.2391847754384" lon="7.66523737461089">
				<ele>52.1999969482422</ele>
				<time>2012-04-21T13:27:36</time>
			</trkpt>
			<trkpt lat="52.2388849966715" lon="7.66487393528937">
				<ele>55.0999984741211</ele>
				<time>2012-04-21T13:27:41</time>
			</trkpt>
			<trkpt lat="52.2385589406381" lon="7.66483060084997">
				<ele>64.4000015258789</ele>
				<time>2012-04-21T13:27:46</time>
			</trkpt>
			<trkpt lat="52.2383492673302" lon="7.66486890614747">
				<ele>66.4000015258789</ele>
				<time>2012-04-21T13:27:49</time>
			</trkpt>
			<trkpt lat="52.2378409468124" lon="7.66465055756985">
				<ele>69.0999984741211</ele>
				<time>2012-04-21T13:27:58</time>
			</trkpt>
			<trkpt lat="52.2374182474355" lon="7.66431301832913">
				<ele>66.9000015258789</ele>
				<time>2012-04-21T13:28:03</time>
			</trkpt>
			<trkpt lat="52.2370595438892" lon="7.66421495006202">
				<ele>61.3000030517578</ele>
				<time>2012-04-21T13:28:08</time>
			</trkpt>
			<trkpt lat="52.236827742357" lon="7.66421687789975">
				<ele>61.4000015258789</ele>
				<time>2012-04-21T13:28:11</time>
			</trkpt>
			<trkpt lat="52.2365062544609" lon="7.66420807690142">
				<ele>62</ele>
				<time>2012-04-21T13:28:15</time>
			</trkpt>
			<trkpt lat="52.2360407654682" lon="7.66409785487471">
				<ele>59.5</ele>
				<time>2012-04-21T13:28:21</time>
			</trkpt>
			<trkpt lat="52.235782393303" lon="7.66370692291079">
				<ele>62.0999984741211</ele>
				<time>2012-04-21T13:28:26</time>
			</trkpt>
			<trkpt lat="52.235477166299" lon="7.66307828017293">
				<ele>55.8000030517578</ele>
				<time>2012-04-21T13:28:33</time>
			</trkpt>
			<trkpt lat="52.2354392800967" lon="7.66296856106041">
				<ele>53.9000015258789</ele>
				<time>2012-04-21T13:28:34</time>
			</trkpt>
			<trkpt lat="52.2352127172539" lon="7.66254896298764">
				<ele>54.1999969482422</ele>
				<time>2012-04-21T13:28:39</time>
			</trkpt>
			<trkpt lat="52.2348280717174" lon="7.66206557863174">
				<ele>52.3000030517578</ele>
				<time>2012-04-21T13:28:45</time>
			</trkpt>
			<trkpt lat="52.2343774606029" lon="7.66142126173494">
				<ele>58.0999984741211</ele>
				<time>2012-04-21T13:28:53</time>
			</trkpt>
			<trkpt lat="52.2342746565605" lon="7.66117047519205">
				<ele>61.3000030517578</ele>
				<time>2012-04-21T13:28:57</time>
			</trkpt>
			<trkpt lat="52.233953629669" lon="7.6606827322465">
				<ele>63.3000030517578</ele>
				<time>2012-04-21T13:29:02</time>
			</trkpt>
			<trkpt lat="52.2335718339796" lon="7.6600886229497">
				<ele>60.6999969482422</ele>
				<time>2012-04-21T13:29:09</time>
			</trkpt>
			<trkpt lat="52.2331715981031" lon="7.65970833600281">
				<ele>57.3000030517578</ele>
				<time>2012-04-21T13:29:14</time>
			</trkpt>
			<trkpt lat="52.2328560194487" lon="7.65940826386927">
				<ele>57.9000015258789</ele>
				<time>2012-04-21T13:29:19</time>
			</trkpt>
			<trkpt lat="52.2327754274497" lon="7.6593666058105">
				<ele>57.1999969482422</ele>
				<time>2012-04-21T13:29:20</time>
			</trkpt>
			<trkpt lat="52.2324400255943" lon="7.65908329748331">
				<ele>56.8000030517578</ele>
				<time>2012-04-21T13:29:25</time>
			</trkpt>
			<trkpt lat="52.2318978840972" lon="7.65842665918885">
				<ele>55.0999984741211</ele>
				<time>2012-04-21T13:29:34</time>
			</trkpt>
			<trkpt lat="52.2317712754498" lon="7.65819431283293">
				<ele>57.8000030517578</ele>
				<time>2012-04-21T13:29:37</time>
			</trkpt>
			<trkpt lat="52.2315771924818" lon="7.65781184659121">
				<ele>60.4000015258789</ele>
				<time>2012-04-21T13:29:42</time>
			</trkpt>
			<trkpt lat="52.231442914393" lon="7.65756458044765">
				<ele>57.5</ele>
				<time>2012-04-21T13:29:45</time>
			</trkpt>
			<trkpt lat="52.2312075086424" lon="7.6574135385525">
				<ele>59.5999984741211</ele>
				<time>2012-04-21T13:29:50</time>
			</trkpt>
			<trkpt lat="52.2308281437049" lon="7.65698840842364">
				<ele>61.8000030517578</ele>
				<time>2012-04-21T13:29:55</time>
			</trkpt>
			<trkpt lat="52.229989324745" lon="7.65637099743602">
				<ele>60.5</ele>
				<time>2012-04-21T13:30:04</time>
			</trkpt>
			<trkpt lat="52.2296713991577" lon="7.65619581565974">
				<ele>62.5999984741211</ele>
				<time>2012-04-21T13:30:09</time>
			</trkpt>
			<trkpt lat="52.2294190619627" lon="7.6561721786928">
				<ele>64</ele>
				<time>2012-04-21T13:30:12</time>
			</trkpt>
			<trkpt lat="52.2289159801344" lon="7.65617108904538">
				<ele>72.9000015258789</ele>
				<time>2012-04-21T13:30:17</time>
			</trkpt>
			<trkpt lat="52.2285515349845" lon="7.65589096584139">
				<ele>81.1000061035156</ele>
				<time>2012-04-21T13:30:25</time>
			</trkpt>
			<trkpt lat="52.2280549072216" lon="7.65565937385676">
				<ele>75.5999984741211</ele>
				<time>2012-04-21T13:30:30</time>
			</trkpt>
			<trkpt lat="52.2276958683992" lon="7.65535703860936">
				<ele>72</ele>
				<time>2012-04-21T13:30:35</time>
			</trkpt>
			<trkpt lat="52.2274752567077" lon="7.65518479049919">
				<ele>71.5</ele>
				<time>2012-04-21T13:30:38</time>
			</trkpt>
			<trkpt lat="52.2273782361785" lon="7.6550077647042">
				<ele>71.5999984741211</ele>
				<time>2012-04-21T13:30:41</time>
			</trkpt>
			<trkpt lat="52.2269875137622" lon="7.65471565537868">
				<ele>71.9000015258789</ele>
				<time>2012-04-21T13:30:47</time>
			</trkpt>
			<trkpt lat="52.2265832126627" lon="7.65440644697068">
				<ele>72.0999984741211</ele>
				<time>2012-04-21T13:30:53</time>
			</trkpt>
			<trkpt lat="52.2261900175849" lon="7.65414451249657">
				<ele>72.1999969482422</ele>
				<time>2012-04-21T13:30:59</time>
			</trkpt>
			<trkpt lat="52.2257459443549" lon="7.65368334018407">
				<ele>68.5999984741211</ele>
				<time>2012-04-21T13:31:05</time>
			</trkpt>
			<trkpt lat="52.2253598319853" lon="7.65335124918041">
				<ele>63.0999984741211</ele>
				<time>2012-04-21T13:31:10</time>
			</trkpt>
			<trkpt lat="52.2250216641018" lon="7.65304271132467">
				<ele>57.6999969482422</ele>
				<time>2012-04-21T13:31:15</time>
			</trkpt>
			<trkpt lat="52.2248409083599" lon="7.65283802524922">
				<ele>56.6999969482422</ele>
				<time>2012-04-21T13:31:18</time>
			</trkpt>
			<trkpt lat="52.224467033569" lon="7.65248891898212">
				<ele>55.5</ele>
				<time>2012-04-21T13:31:23</time>
			</trkpt>
			<trkpt lat="52.2242192645112" lon="7.6522861607444">
				<ele>52</ele>
				<time>2012-04-21T13:31:26</time>
			</trkpt>
			<trkpt lat="52.2238840722034" lon="7.65196370892939">
				<ele>53</ele>
				<time>2012-04-21T13:31:31</time>
			</trkpt>
			<trkpt lat="52.2235114546979" lon="7.65152432956514">
				<ele>55.5</ele>
				<time>2012-04-21T13:31:38</time>
			</trkpt>
			<trkpt lat="52.223149524119" lon="7.65125912614879">
				<ele>57.0999984741211</ele>
				<time>2012-04-21T13:31:43</time>
			</trkpt>
			<trkpt lat="52.2227057442555" lon="7.65083516948638">
				<ele>61.0999984741211</ele>
				<time>2012-04-21T13:31:50</time>
			</trkpt>
			<trkpt lat="52.2226400301347" lon="7.65077037737486">
				<ele>61.5999984741211</ele>
				<time>2012-04-21T13:31:51</time>
			</trkpt>
			<trkpt lat="52.2221646504963" lon="7.65029068105635">
				<ele>64.3000030517578</ele>
				<time>2012-04-21T13:32:00</time>
			</trkpt>
			<trkpt lat="52.2220602958018" lon="7.65017467551646">
				<ele>64.9000015258789</ele>
				<time>2012-04-21T13:32:02</time>
			</trkpt>
			<trkpt lat="52.2216914501528" lon="7.64983889647541">
				<ele>68.5999984741211</ele>
				<time>2012-04-21T13:32:08</time>
			</trkpt>
			<trkpt lat="52.2213083971778" lon="7.64944871888277">
				<ele>68.0999984741211</ele>
				<time>2012-04-21T13:32:13</time>
			</trkpt>
			<trkpt lat="52.2208595881725" lon="7.64902719297227">
				<ele>65.5</ele>
				<time>2012-04-21T13:32:19</time>
			</trkpt>
			<trkpt lat="52.2204686142991" lon="7.64872209169683">
				<ele>63.0999984741211</ele>
				<time>2012-04-21T13:32:24</time>
			</trkpt>
			<trkpt lat="52.2202930972466" lon="7.64833216556129">
				<ele>57.3000030517578</ele>
				<time>2012-04-21T13:32:30</time>
			</trkpt>
			<trkpt lat="52.220276962083" lon="7.64791315422174">
				<ele>54</ele>
				<time>2012-04-21T13:32:34</time>
			</trkpt>
			<trkpt lat="52.2203288460637" lon="7.6477066241276">
				<ele>53.1999969482422</ele>
				<time>2012-04-21T13:32:36</time>
			</trkpt>
			<trkpt lat="52.2204009723405" lon="7.64727302827653">
				<ele>50.5999984741211</ele>
				<time>2012-04-21T13:32:41</time>
			</trkpt>
			<trkpt lat="52.220539776657" lon="7.64668453485486">
				<ele>42.5999984741211</ele>
				<time>2012-04-21T13:32:50</time>
			</trkpt>
			<trkpt lat="52.220353572678" lon="7.64665570110795">
				<ele>45.8000030517578</ele>
				<time>2012-04-21T13:32:55</time>
			</trkpt>
			<trkpt lat="52.2201959928984" lon="7.64663617127356">
				<ele>41.5999984741211</ele>
				<time>2012-04-21T13:32:57</time>
			</trkpt>
			<trkpt lat="52.2197094653288" lon="7.64674689621445">
				<ele>45.8000030517578</ele>
				<time>2012-04-21T13:33:04</time>
			</trkpt>
			<trkpt lat="52.2192827007288" lon="7.6468273624849">
				<ele>53.5</ele>
				<time>2012-04-21T13:33:09</time>
			</trkpt>
			<trkpt lat="52.218863018837" lon="7.64683566056904">
				<ele>56</ele>
				<time>2012-04-21T13:33:14</time>
			</trkpt>
			<trkpt lat="52.2187378770227" lon="7.64683691785452">
				<ele>56.5</ele>
				<time>2012-04-21T13:33:16</time>
			</trkpt>
			<trkpt lat="52.2181729786584" lon="7.6468344871026">
				<ele>51.4000015258789</ele>
				<time>2012-04-21T13:33:25</time>
			</trkpt>
			<trkpt lat="52.2178924782688" lon="7.64673650265452">
				<ele>51</ele>
				<time>2012-04-21T13:33:29</time>
			</trkpt>
			<trkpt lat="52.2176654544214" lon="7.64662125148591">
				<ele>50.0999984741211</ele>
				<time>2012-04-21T13:33:32</time>
			</trkpt>
			<trkpt lat="52.217163587969" lon="7.64630039223251">
				<ele>49.8000030517578</ele>
				<time>2012-04-21T13:33:40</time>
			</trkpt>
			<trkpt lat="52.2167678364108" lon="7.646024208523">
				<ele>45.5</ele>
				<time>2012-04-21T13:33:45</time>
			</trkpt>
			<trkpt lat="52.21666142815" lon="7.64591423795339">
				<ele>46.4000015258789</ele>
				<time>2012-04-21T13:33:47</time>
			</trkpt>
			<trkpt lat="52.216140828144" lon="7.64549941756543">
				<ele>44.4000015258789</ele>
				<time>2012-04-21T13:33:55</time>
			</trkpt>
			<trkpt lat="52.2158332542071" lon="7.64527142979917">
				<ele>45.3000030517578</ele>
				<time>2012-04-21T13:34:00</time>
			</trkpt>
			<trkpt lat="52.2155635664726" lon="7.64509658329901">
				<ele>44.4000015258789</ele>
				<time>2012-04-21T13:34:04</time>
			</trkpt>
			<trkpt lat="52.2151902365053" lon="7.64481713064727">
				<ele>39.6999969482422</ele>
				<time>2012-04-21T13:34:10</time>
			</trkpt>
			<trkpt lat="52.2150034038836" lon="7.64468352311071">
				<ele>40.5999984741211</ele>
				<time>2012-04-21T13:34:13</time>
			</trkpt>
			<trkpt lat="52.2145170439521" lon="7.64435478486833">
				<ele>37</ele>
				<time>2012-04-21T13:34:19</time>
			</trkpt>
			<trkpt lat="52.2140124533812" lon="7.64400584623929">
				<ele>31.0999984741211</ele>
				<time>2012-04-21T13:34:26</time>
			</trkpt>
			<trkpt lat="52.2137461603174" lon="7.6438084524196">
				<ele>30</ele>
				<time>2012-04-21T13:34:30</time>
			</trkpt>
			<trkpt lat="52.2133654123658" lon="7.64364626259324">
				<ele>30.5999984741211</ele>
				<time>2012-04-21T13:34:36</time>
			</trkpt>
			<trkpt lat="52.213106830653" lon="7.64356336557087">
				<ele>30.3000030517578</ele>
				<time>2012-04-21T13:34:40</time>
			</trkpt>
			<trkpt lat="52.2129267454634" lon="7.64352028258857">
				<ele>31.8000030517578</ele>
				<time>2012-04-21T13:34:43</time>
			</trkpt>
			<trkpt lat="52.2124497313539" lon="7.64342623763498">
				<ele>34.9000015258789</ele>
				<time>2012-04-21T13:34:50</time>
			</trkpt>
			<trkpt lat="52.2121944604928" lon="7.64336588793215">
				<ele>35.5</ele>
				<time>2012-04-21T13:34:54</time>
			</trkpt>
			<trkpt lat="52.2117705038304" lon="7.64333185740527">
				<ele>35.8000030517578</ele>
				<time>2012-04-21T13:35:00</time>
			</trkpt>
			<trkpt lat="52.2114985110724" lon="7.64327041805502">
				<ele>38.3000030517578</ele>
				<time>2012-04-21T13:35:04</time>
			</trkpt>
			<trkpt lat="52.2111527156571" lon="7.64318978414651">
				<ele>39.3000030517578</ele>
				<time>2012-04-21T13:35:09</time>
			</trkpt>
			<trkpt lat="52.210950334605" lon="7.64310864732381">
				<ele>38.5</ele>
				<time>2012-04-21T13:35:12</time>
			</trkpt>
			<trkpt lat="52.2104813252131" lon="7.64305173420128">
				<ele>40.9000015258789</ele>
				<time>2012-04-21T13:35:21</time>
			</trkpt>
			<trkpt lat="52.2103848914171" lon="7.64274093323168">
				<ele>38.5</ele>
				<time>2012-04-21T13:35:26</time>
			</trkpt>
			<trkpt lat="52.210549973" lon="7.64219745063003">
				<ele>33</ele>
				<time>2012-04-21T13:35:32</time>
			</trkpt>
			<trkpt lat="52.2106273379663" lon="7.64189276844975">
				<ele>26.9000015258789</ele>
				<time>2012-04-21T13:35:35</time>
			</trkpt>
			<trkpt lat="52.2107373504454" lon="7.64112263918635">
				<ele>27.4000015258789</ele>
				<time>2012-04-21T13:35:41</time>
			</trkpt>
			<trkpt lat="52.2108586365843" lon="7.64052668587085">
				<ele>24.4000015258789</ele>
				<time>2012-04-21T13:35:46</time>
			</trkpt>
			<trkpt lat="52.211025646005" lon="7.63993576169725">
				<ele>21.9000015258789</ele>
				<time>2012-04-21T13:35:51</time>
			</trkpt>
			<trkpt lat="52.2111278214047" lon="7.6395516190749">
				<ele>18.0999984741211</ele>
				<time>2012-04-21T13:35:54</time>
			</trkpt>
			<trkpt lat="52.2113055177519" lon="7.6388089824539">
				<ele>19.9000015258789</ele>
				<time>2012-04-21T13:36:01</time>
			</trkpt>
			<trkpt lat="52.2114268038908" lon="7.63823540881987">
				<ele>18.4000015258789</ele>
				<time>2012-04-21T13:36:06</time>
			</trkpt>
			<trkpt lat="52.2115742415676" lon="7.6375863980573">
				<ele>19</ele>
				<time>2012-04-21T13:36:12</time>
			</trkpt>
			<trkpt lat="52.2116536181906" lon="7.63715548441525">
				<ele>21.3000030517578</ele>
				<time>2012-04-21T13:36:16</time>
			</trkpt>
			<trkpt lat="52.2116953181589" lon="7.63692556881126">
				<ele>22.3000030517578</ele>
				<time>2012-04-21T13:36:18</time>
			</trkpt>
			<trkpt lat="52.2118244832868" lon="7.63642298989709">
				<ele>26.4000015258789</ele>
				<time>2012-04-21T13:36:23</time>
			</trkpt>
			<trkpt lat="52.2119393153602" lon="7.6356972847205">
				<ele>30.5</ele>
				<time>2012-04-21T13:36:30</time>
			</trkpt>
			<trkpt lat="52.2120863758514" lon="7.63498817571219">
				<ele>25</ele>
				<time>2012-04-21T13:36:37</time>
			</trkpt>
			<trkpt lat="52.2120832745472" lon="7.63490653597529">
				<ele>25.1999969482422</ele>
				<time>2012-04-21T13:36:38</time>
			</trkpt>
			<trkpt lat="52.2117961524541" lon="7.63482137583907">
				<ele>33.0999984741211</ele>
				<time>2012-04-21T13:36:44</time>
			</trkpt>
			<trkpt lat="52.2115557175616" lon="7.63490762562271">
				<ele>37.5</ele>
				<time>2012-04-21T13:36:49</time>
			</trkpt>
			<trkpt lat="52.211185446989" lon="7.63488843106444">
				<ele>42</ele>
				<time>2012-04-21T13:36:56</time>
			</trkpt>
			<trkpt lat="52.2107621608788" lon="7.63481047936495">
				<ele>40.9000015258789</ele>
				<time>2012-04-21T13:37:02</time>
			</trkpt>
			<trkpt lat="52.2103014914805" lon="7.6347112376314">
				<ele>41.0999984741211</ele>
				<time>2012-04-21T13:37:08</time>
			</trkpt>
			<trkpt lat="52.2099978989476" lon="7.6346232276481">
				<ele>43.0999984741211</ele>
				<time>2012-04-21T13:37:12</time>
			</trkpt>
			<trkpt lat="52.2096395306775" lon="7.6345196273249">
				<ele>40.5</ele>
				<time>2012-04-21T13:37:17</time>
			</trkpt>
			<trkpt lat="52.2093564738074" lon="7.63444628567215">
				<ele>40.4000015258789</ele>
				<time>2012-04-21T13:37:21</time>
			</trkpt>
			<trkpt lat="52.2089526337126" lon="7.63433941640671">
				<ele>38.0999984741211</ele>
				<time>2012-04-21T13:37:27</time>
			</trkpt>
			<trkpt lat="52.2087373864392" lon="7.63430194929953">
				<ele>41.9000015258789</ele>
				<time>2012-04-21T13:37:30</time>
			</trkpt>
			<trkpt lat="52.2084954847137" lon="7.63420497067984">
				<ele>46.3000030517578</ele>
				<time>2012-04-21T13:37:34</time>
			</trkpt>
			<trkpt lat="52.2079143673668" lon="7.63409399428185">
				<ele>47.5999984741211</ele>
				<time>2012-04-21T13:37:42</time>
			</trkpt>
			<trkpt lat="52.2077238467077" lon="7.63408854604478">
				<ele>48.9000015258789</ele>
				<time>2012-04-21T13:37:44</time>
			</trkpt>
			<trkpt lat="52.2073713876793" lon="7.63401956298168">
				<ele>52</ele>
				<time>2012-04-21T13:37:51</time>
			</trkpt>
			<trkpt lat="52.2071870696286" lon="7.63391721994396">
				<ele>54.5</ele>
				<time>2012-04-21T13:37:57</time>
			</trkpt>
			<trkpt lat="52.2070228681455" lon="7.63388939202543">
				<ele>63.6999969482422</ele>
				<time>2012-04-21T13:38:02</time>
			</trkpt>
			<trkpt lat="52.2069998598212" lon="7.63387681917067">
				<ele>66.9000015258789</ele>
				<time>2012-04-21T13:38:04</time>
			</trkpt>
			<trkpt lat="52.2054726770634" lon="7.63336619362946">
				<ele>64.3000030517578</ele>
				<time>2012-04-21T13:38:18</time>
			</trkpt>
			<trkpt lat="52.2052135505268" lon="7.63325940818305">
				<ele>62.9000015258789</ele>
				<time>2012-04-21T13:38:21</time>
			</trkpt>
			<trkpt lat="52.2049029591048" lon="7.63316938654299">
				<ele>59.8000030517578</ele>
				<time>2012-04-21T13:38:25</time>
			</trkpt>
			<trkpt lat="52.2045514220858" lon="7.63311297633465">
				<ele>57.9000015258789</ele>
				<time>2012-04-21T13:38:29</time>
			</trkpt>
			<trkpt lat="52.2038174607346" lon="7.63298749924417">
				<ele>54</ele>
				<time>2012-04-21T13:38:38</time>
			</trkpt>
			<trkpt lat="52.2035794146845" lon="7.6328768581223">
				<ele>56.1999969482422</ele>
				<time>2012-04-21T13:38:42</time>
			</trkpt>
			<trkpt lat="52.2031758679563" lon="7.63279496692832">
				<ele>53.5999984741211</ele>
				<time>2012-04-21T13:38:48</time>
			</trkpt>
			<trkpt lat="52.2027183836812" lon="7.6326717529517">
				<ele>51</ele>
				<time>2012-04-21T13:38:54</time>
			</trkpt>
			<trkpt lat="52.2025543079266" lon="7.6326424162906">
				<ele>51.4000015258789</ele>
				<time>2012-04-21T13:38:56</time>
			</trkpt>
			<trkpt lat="52.2022548225263" lon="7.63254451566155">
				<ele>51.0999984741211</ele>
				<time>2012-04-21T13:39:00</time>
			</trkpt>
			<trkpt lat="52.2016625572482" lon="7.63235709630664">
				<ele>47.4000015258789</ele>
				<time>2012-04-21T13:39:08</time>
			</trkpt>
			<trkpt lat="52.2013125289718" lon="7.63224268332835">
				<ele>48.9000015258789</ele>
				<time>2012-04-21T13:39:13</time>
			</trkpt>
			<trkpt lat="52.2010415420422" lon="7.63215073385055">
				<ele>51.0999984741211</ele>
				<time>2012-04-21T13:39:17</time>
			</trkpt>
			<trkpt lat="52.2007998498643" lon="7.63214360923286">
				<ele>50.6999969482422</ele>
				<time>2012-04-21T13:39:20</time>
			</trkpt>
			<trkpt lat="52.2003876278663" lon="7.63200145215507">
				<ele>52.5</ele>
				<time>2012-04-21T13:39:27</time>
			</trkpt>
			<trkpt lat="52.2000132920707" lon="7.63190254569764">
				<ele>54.5</ele>
				<time>2012-04-21T13:39:32</time>
			</trkpt>
			<trkpt lat="52.1994726174066" lon="7.63176617213304">
				<ele>51.6999969482422</ele>
				<time>2012-04-21T13:39:39</time>
			</trkpt>
			<trkpt lat="52.199352253277" lon="7.63175217435475">
				<ele>50.5999984741211</ele>
				<time>2012-04-21T13:39:41</time>
			</trkpt>
			<trkpt lat="52.1988175297642" lon="7.63158889488096">
				<ele>51</ele>
				<time>2012-04-21T13:39:48</time>
			</trkpt>
			<trkpt lat="52.1984895458931" lon="7.63151111081953">
				<ele>57.8000030517578</ele>
				<time>2012-04-21T13:39:53</time>
			</trkpt>
			<trkpt lat="52.1981932037065" lon="7.63144145720418">
				<ele>58</ele>
				<time>2012-04-21T13:39:57</time>
			</trkpt>
			<trkpt lat="52.1977822809035" lon="7.63133777306195">
				<ele>60.6999969482422</ele>
				<time>2012-04-21T13:40:03</time>
			</trkpt>
			<trkpt lat="52.1972917300204" lon="7.63117072173174">
				<ele>61.1999969482422</ele>
				<time>2012-04-21T13:40:09</time>
			</trkpt>
			<trkpt lat="52.1969481977189" lon="7.63112269342656">
				<ele>60.0999984741211</ele>
				<time>2012-04-21T13:40:13</time>
			</trkpt>
			<trkpt lat="52.1965139732251" lon="7.63118706644292">
				<ele>60.5999984741211</ele>
				<time>2012-04-21T13:40:18</time>
			</trkpt>
			<trkpt lat="52.1964433976004" lon="7.6312089432102">
				<ele>60.3000030517578</ele>
				<time>2012-04-21T13:40:21</time>
			</trkpt>
			<trkpt lat="52.1959157567957" lon="7.63122914359684">
				<ele>61.6999969482422</ele>
				<time>2012-04-21T13:40:29</time>
			</trkpt>
			<trkpt lat="52.1957298880929" lon="7.63122344390269">
				<ele>62.4000015258789</ele>
				<time>2012-04-21T13:40:32</time>
			</trkpt>
			<trkpt lat="52.1953911334762" lon="7.63112948276813">
				<ele>63.5999984741211</ele>
				<time>2012-04-21T13:40:38</time>
			</trkpt>
			<trkpt lat="52.1949828509727" lon="7.63100802899118">
				<ele>62.3000030517578</ele>
				<time>2012-04-21T13:40:43</time>
			</trkpt>
			<trkpt lat="52.1947943000609" lon="7.63096746057983">
				<ele>62.8000030517578</ele>
				<time>2012-04-21T13:40:47</time>
			</trkpt>
			<trkpt lat="52.1945810644442" lon="7.6310033351254">
				<ele>62.3000030517578</ele>
				<time>2012-04-21T13:40:51</time>
			</trkpt>
			<trkpt lat="52.1943899989614" lon="7.6309293229204">
				<ele>69.3000030517578</ele>
				<time>2012-04-21T13:40:57</time>
			</trkpt>
			<trkpt lat="52.1939636953661" lon="7.63077576645429">
				<ele>72.5</ele>
				<time>2012-04-21T13:41:02</time>
			</trkpt>
			<trkpt lat="52.1931211883688" lon="7.63058298268135">
				<ele>71</ele>
				<time>2012-04-21T13:41:10</time>
			</trkpt>
			<trkpt lat="52.1925540268907" lon="7.63051223941858">
				<ele>67.9000015258789</ele>
				<time>2012-04-21T13:41:15</time>
			</trkpt>
			<trkpt lat="52.1921070199946" lon="7.63043261133845">
				<ele>66.1999969482422</ele>
				<time>2012-04-21T13:41:19</time>
			</trkpt>
			<trkpt lat="52.1918396791929" lon="7.63034041040356">
				<ele>65.8000030517578</ele>
				<time>2012-04-21T13:41:24</time>
			</trkpt>
			<trkpt lat="52.1916854521746" lon="7.63024477288838">
				<ele>67</ele>
				<time>2012-04-21T13:41:28</time>
			</trkpt>
			<trkpt lat="52.1915443428347" lon="7.63026975095983">
				<ele>67.4000015258789</ele>
				<time>2012-04-21T13:41:31</time>
			</trkpt>
			<trkpt lat="52.1913904510925" lon="7.63022214174981">
				<ele>66.8000030517578</ele>
				<time>2012-04-21T13:41:36</time>
			</trkpt>
			<trkpt lat="52.1907017520184" lon="7.63025466353412">
				<ele>72.0999984741211</ele>
				<time>2012-04-21T13:41:44</time>
			</trkpt>
			<trkpt lat="52.1900820360074" lon="7.6302694156837">
				<ele>72.1999969482422</ele>
				<time>2012-04-21T13:41:49</time>
			</trkpt>
			<trkpt lat="52.1895222506041" lon="7.6303436793458">
				<ele>73</ele>
				<time>2012-04-21T13:41:55</time>
			</trkpt>
			<trkpt lat="52.1892040316501" lon="7.6303434278887">
				<ele>70.0999984741211</ele>
				<time>2012-04-21T13:42:00</time>
			</trkpt>
			<trkpt lat="52.1890939772615" lon="7.63033244759555">
				<ele>64.6999969482422</ele>
				<time>2012-04-21T13:42:03</time>
			</trkpt>
			<trkpt lat="52.1889859764391" lon="7.63034585864062">
				<ele>65</ele>
				<time>2012-04-21T13:42:06</time>
			</trkpt>
			<trkpt lat="52.1883886401096" lon="7.63026840985532">
				<ele>65.6999969482422</ele>
				<time>2012-04-21T13:42:12</time>
			</trkpt>
			<trkpt lat="52.1878125519046" lon="7.63002131134982">
				<ele>65.0999984741211</ele>
				<time>2012-04-21T13:42:19</time>
			</trkpt>
			<trkpt lat="52.1873287065441" lon="7.62969676405902">
				<ele>60.5</ele>
				<time>2012-04-21T13:42:25</time>
			</trkpt>
			<trkpt lat="52.1871376829708" lon="7.62952661142464">
				<ele>59.3000030517578</ele>
				<time>2012-04-21T13:42:28</time>
			</trkpt>
			<trkpt lat="52.1868256666252" lon="7.62887022458727">
				<ele>56.0999984741211</ele>
				<time>2012-04-21T13:42:35</time>
			</trkpt>
			<trkpt lat="52.1867218148449" lon="7.62862253934855">
				<ele>56.5</ele>
				<time>2012-04-21T13:42:40</time>
			</trkpt>
			<trkpt lat="52.1866118442753" lon="7.62849479914422">
				<ele>57.5999984741211</ele>
				<time>2012-04-21T13:42:43</time>
			</trkpt>
			<trkpt lat="52.1865161229411" lon="7.62837468647177">
				<ele>62</ele>
				<time>2012-04-21T13:42:46</time>
			</trkpt>
			<trkpt lat="52.1849601064363" lon="7.62734882534261">
				<ele>55.4000015258789</ele>
				<time>2012-04-21T13:43:04</time>
			</trkpt>
			<trkpt lat="52.1847775066757" lon="7.62721831911022">
				<ele>54.9000015258789</ele>
				<time>2012-04-21T13:43:06</time>
			</trkpt>
			<trkpt lat="52.1842887579018" lon="7.62664164417202">
				<ele>50.5</ele>
				<time>2012-04-21T13:43:14</time>
			</trkpt>
			<trkpt lat="52.184103056837" lon="7.62643125840242">
				<ele>48.9000015258789</ele>
				<time>2012-04-21T13:43:17</time>
			</trkpt>
			<trkpt lat="52.1837526094654" lon="7.62601434253866">
				<ele>48.3000030517578</ele>
				<time>2012-04-21T13:43:23</time>
			</trkpt>
			<trkpt lat="52.1836044174174" lon="7.62576540001447">
				<ele>46</ele>
				<time>2012-04-21T13:43:26</time>
			</trkpt>
			<trkpt lat="52.1831315942595" lon="7.6251679379564">
				<ele>46.4000015258789</ele>
				<time>2012-04-21T13:43:35</time>
			</trkpt>
			<trkpt lat="52.1830871701726" lon="7.62511052191968">
				<ele>46.4000015258789</ele>
				<time>2012-04-21T13:43:36</time>
			</trkpt>
			<trkpt lat="52.1826713020468" lon="7.62478949502821">
				<ele>44.6999969482422</ele>
				<time>2012-04-21T13:43:45</time>
			</trkpt>
			<trkpt lat="52.1822942002231" lon="7.62465454638714">
				<ele>48.5999984741211</ele>
				<time>2012-04-21T13:43:50</time>
			</trkpt>
			<trkpt lat="52.1819311799967" lon="7.62446939014608">
				<ele>49.9000015258789</ele>
				<time>2012-04-21T13:43:55</time>
			</trkpt>
			<trkpt lat="52.181847193327" lon="7.6244184281748">
				<ele>51.0999984741211</ele>
				<time>2012-04-21T13:43:56</time>
			</trkpt>
			<trkpt lat="52.1814437723273" lon="7.62404115871305">
				<ele>50.5</ele>
				<time>2012-04-21T13:44:03</time>
			</trkpt>
			<trkpt lat="52.1809556521961" lon="7.62352508493478">
				<ele>48</ele>
				<time>2012-04-21T13:44:10</time>
			</trkpt>
			<trkpt lat="52.1808568295577" lon="7.62291840278322">
				<ele>46.3000030517578</ele>
				<time>2012-04-21T13:44:15</time>
			</trkpt>
			<trkpt lat="52.1808521776015" lon="7.62278663926536">
				<ele>43.4000015258789</ele>
				<time>2012-04-21T13:44:16</time>
			</trkpt>
			<trkpt lat="52.1807777043918" lon="7.6219938788634">
				<ele>38.1999969482422</ele>
				<time>2012-04-21T13:44:24</time>
			</trkpt>
			<trkpt lat="52.1807185281554" lon="7.62161116116459">
				<ele>33.6999969482422</ele>
				<time>2012-04-21T13:44:27</time>
			</trkpt>
			<trkpt lat="52.1804941446075" lon="7.62066392228717">
				<ele>36.6999969482422</ele>
				<time>2012-04-21T13:44:35</time>
			</trkpt>
			<trkpt lat="52.1804713458309" lon="7.62004164979571">
				<ele>31.9000015258789</ele>
				<time>2012-04-21T13:44:40</time>
			</trkpt>
			<trkpt lat="52.1804000158349" lon="7.61974392459506">
				<ele>35.4000015258789</ele>
				<time>2012-04-21T13:44:43</time>
			</trkpt>
			<trkpt lat="52.1802977985257" lon="7.61888712645287">
				<ele>34.6999969482422</ele>
				<time>2012-04-21T13:44:50</time>
			</trkpt>
			<trkpt lat="52.1802575653905" lon="7.61857548729295">
				<ele>35.0999984741211</ele>
				<time>2012-04-21T13:44:53</time>
			</trkpt>
			<trkpt lat="52.1802220680306" lon="7.61812814512068">
				<ele>35.4000015258789</ele>
				<time>2012-04-21T13:44:57</time>
			</trkpt>
			<trkpt lat="52.1802076092476" lon="7.61728257872874">
				<ele>30.0999984741211</ele>
				<time>2012-04-21T13:45:04</time>
			</trkpt>
			<trkpt lat="52.1801814158002" lon="7.6169547624957">
				<ele>32.5</ele>
				<time>2012-04-21T13:45:07</time>
			</trkpt>
			<trkpt lat="52.1801366983468" lon="7.61614180170709">
				<ele>31.5999984741211</ele>
				<time>2012-04-21T13:45:14</time>
			</trkpt>
			<trkpt lat="52.1800966328496" lon="7.61542229913884">
				<ele>28.9000015258789</ele>
				<time>2012-04-21T13:45:20</time>
			</trkpt>
			<trkpt lat="52.1800675476456" lon="7.61492986232752">
				<ele>30</ele>
				<time>2012-04-21T13:45:24</time>
			</trkpt>
			<trkpt lat="52.1800180944169" lon="7.61410516687447">
				<ele>24.6999969482422</ele>
				<time>2012-04-21T13:45:30</time>
			</trkpt>
			<trkpt lat="52.1799985645825" lon="7.61360929348284">
				<ele>23.9000015258789</ele>
				<time>2012-04-21T13:45:34</time>
			</trkpt>
			<trkpt lat="52.1799809206763" lon="7.61326823384279">
				<ele>22.5</ele>
				<time>2012-04-21T13:45:37</time>
			</trkpt>
			<trkpt lat="52.1799310483524" lon="7.61254101992362">
				<ele>22.5</ele>
				<time>2012-04-21T13:45:43</time>
			</trkpt>
			<trkpt lat="52.179915248465" lon="7.61192603968793">
				<ele>23.8000030517578</ele>
				<time>2012-04-21T13:45:48</time>
			</trkpt>
			<trkpt lat="52.1798632387558" lon="7.61121936143153">
				<ele>25.0999984741211</ele>
				<time>2012-04-21T13:45:54</time>
			</trkpt>
			<trkpt lat="52.1798407333458" lon="7.61071996764057">
				<ele>21.0999984741211</ele>
				<time>2012-04-21T13:45:58</time>
			</trkpt>
			<trkpt lat="52.1798887616509" lon="7.61026776396447">
				<ele>16.7999992370605</ele>
				<time>2012-04-21T13:46:02</time>
			</trkpt>
			<trkpt lat="52.1799533861244" lon="7.60942747817152">
				<ele>20.1999969482422</ele>
				<time>2012-04-21T13:46:09</time>
			</trkpt>
			<trkpt lat="52.1799932839835" lon="7.60900947266036">
				<ele>23.1999969482422</ele>
				<time>2012-04-21T13:46:13</time>
			</trkpt>
			<trkpt lat="52.1800705232212" lon="7.60814102367275">
				<ele>24.4000015258789</ele>
				<time>2012-04-21T13:46:20</time>
			</trkpt>
			<trkpt lat="52.1800527535865" lon="7.60791664012485">
				<ele>27.1999969482422</ele>
				<time>2012-04-21T13:46:23</time>
			</trkpt>
			<trkpt lat="52.179980166305" lon="7.60750408285075">
				<ele>32.3000030517578</ele>
				<time>2012-04-21T13:46:28</time>
			</trkpt>
			<trkpt lat="52.179939136889" lon="7.60722379200869">
				<ele>36.9000015258789</ele>
				<time>2012-04-21T13:46:31</time>
			</trkpt>
			<trkpt lat="52.1796724247301" lon="7.60617152788453">
				<ele>43</ele>
				<time>2012-04-21T13:46:40</time>
			</trkpt>
			<trkpt lat="52.1795315249378" lon="7.60603180155866">
				<ele>41.6999969482422</ele>
				<time>2012-04-21T13:46:42</time>
			</trkpt>
			<trkpt lat="52.1792431455591" lon="7.60580138304048">
				<ele>50.1999969482422</ele>
				<time>2012-04-21T13:46:50</time>
			</trkpt>
			<trkpt lat="52.1791895013789" lon="7.60583650321477">
				<ele>51.6999969482422</ele>
				<time>2012-04-21T13:46:52</time>
			</trkpt>
			<trkpt lat="52.1782745747382" lon="7.60595510714464">
				<ele>59.8000030517578</ele>
				<time>2012-04-21T13:47:00</time>
			</trkpt>
			<trkpt lat="52.1779506979996" lon="7.60599693284147">
				<ele>58.4000015258789</ele>
				<time>2012-04-21T13:47:04</time>
			</trkpt>
			<trkpt lat="52.1778047690654" lon="7.60593096726351">
				<ele>57.4000015258789</ele>
				<time>2012-04-21T13:47:09</time>
			</trkpt>
			<trkpt lat="52.1775483666474" lon="7.60606918484681">
				<ele>60</ele>
				<time>2012-04-21T13:47:15</time>
			</trkpt>
			<trkpt lat="52.1773391962537" lon="7.60603523813896">
				<ele>61.6999969482422</ele>
				<time>2012-04-21T13:47:19</time>
			</trkpt>
			<trkpt lat="52.1771555068457" lon="7.60599282570892">
				<ele>64.4000015258789</ele>
				<time>2012-04-21T13:47:23</time>
			</trkpt>
			<trkpt lat="52.1761509776601" lon="7.60543341749125">
				<ele>57.3000030517578</ele>
				<time>2012-04-21T13:47:35</time>
			</trkpt>
			<trkpt lat="52.1758229518795" lon="7.60529017076604">
				<ele>56.4000015258789</ele>
				<time>2012-04-21T13:47:40</time>
			</trkpt>
			<trkpt lat="52.1755931620041" lon="7.60510216467791">
				<ele>55.1999969482422</ele>
				<time>2012-04-21T13:47:44</time>
			</trkpt>
			<trkpt lat="52.1753638750428" lon="7.60498364456706">
				<ele>53.5999984741211</ele>
				<time>2012-04-21T13:47:48</time>
			</trkpt>
			<trkpt lat="52.1751939738655" lon="7.60471005924754">
				<ele>57.8000030517578</ele>
				<time>2012-04-21T13:47:53</time>
			</trkpt>
			<trkpt lat="52.1746803308392" lon="7.60457209312134">
				<ele>54.3000030517578</ele>
				<time>2012-04-21T13:48:01</time>
			</trkpt>
			<trkpt lat="52.1744519239777" lon="7.60473210365288">
				<ele>49.3000030517578</ele>
				<time>2012-04-21T13:48:05</time>
			</trkpt>
			<trkpt lat="52.1741749020779" lon="7.60504240170829">
				<ele>48.5</ele>
				<time>2012-04-21T13:48:10</time>
			</trkpt>
			<trkpt lat="52.1738875704372" lon="7.60551597923749">
				<ele>50.8000030517578</ele>
				<time>2012-04-21T13:48:16</time>
			</trkpt>
			<trkpt lat="52.1736944094786" lon="7.60585242883079">
				<ele>50</ele>
				<time>2012-04-21T13:48:20</time>
			</trkpt>
			<trkpt lat="52.1734903939554" lon="7.60626180098169">
				<ele>49.9000015258789</ele>
				<time>2012-04-21T13:48:25</time>
			</trkpt>
			<trkpt lat="52.1732464805731" lon="7.60665700771623">
				<ele>50</ele>
				<time>2012-04-21T13:48:30</time>
			</trkpt>
			<trkpt lat="52.1730901999885" lon="7.60685532354527">
				<ele>50.0999984741211</ele>
				<time>2012-04-21T13:48:32</time>
			</trkpt>
			<trkpt lat="52.1728759166339" lon="7.60727500543707">
				<ele>51.4000015258789</ele>
				<time>2012-04-21T13:48:37</time>
			</trkpt>
			<trkpt lat="52.1726277703905" lon="7.6077360101115">
				<ele>53.5999984741211</ele>
				<time>2012-04-21T13:48:42</time>
			</trkpt>
			<trkpt lat="52.1722606430316" lon="7.60840111412817">
				<ele>46.1999969482422</ele>
				<time>2012-04-21T13:48:50</time>
			</trkpt>
			<trkpt lat="52.1720956033582" lon="7.60879095644467">
				<ele>47.5999984741211</ele>
				<time>2012-04-21T13:48:54</time>
			</trkpt>
			<trkpt lat="52.171898419086" lon="7.60909153149241">
				<ele>51.1999969482422</ele>
				<time>2012-04-21T13:49:00</time>
			</trkpt>
			<trkpt lat="52.1718907077351" lon="7.60920024477654">
				<ele>50.8000030517578</ele>
				<time>2012-04-21T13:49:02</time>
			</trkpt>
			<trkpt lat="52.1716250852236" lon="7.60975294747167">
				<ele>51.5999984741211</ele>
				<time>2012-04-21T13:49:08</time>
			</trkpt>
			<trkpt lat="52.171459626455" lon="7.61010264047199">
				<ele>54.3000030517578</ele>
				<time>2012-04-21T13:49:14</time>
			</trkpt>
			<trkpt lat="52.1710210014621" lon="7.6107031200152">
				<ele>52.1999969482422</ele>
				<time>2012-04-21T13:49:19</time>
			</trkpt>
			<trkpt lat="52.1707198815906" lon="7.61138658039981">
				<ele>54.8000030517578</ele>
				<time>2012-04-21T13:49:26</time>
			</trkpt>
			<trkpt lat="52.1705307858551" lon="7.61177499779278">
				<ele>53.5999984741211</ele>
				<time>2012-04-21T13:49:30</time>
			</trkpt>
			<trkpt lat="52.1702293307075" lon="7.61234370992297">
				<ele>50.0999984741211</ele>
				<time>2012-04-21T13:49:36</time>
			</trkpt>
			<trkpt lat="52.170025860008" lon="7.61269893497938">
				<ele>50.1999969482422</ele>
				<time>2012-04-21T13:49:40</time>
			</trkpt>
			<trkpt lat="52.1698155161479" lon="7.61304183863812">
				<ele>49</ele>
				<time>2012-04-21T13:49:44</time>
			</trkpt>
			<trkpt lat="52.1695176233092" lon="7.61359873228484">
				<ele>51.9000015258789</ele>
				<time>2012-04-21T13:49:50</time>
			</trkpt>
			<trkpt lat="52.1694317088017" lon="7.61373125017398">
				<ele>52.9000015258789</ele>
				<time>2012-04-21T13:49:52</time>
			</trkpt>
			<trkpt lat="52.1691970155129" lon="7.61417733506077">
				<ele>52.1999969482422</ele>
				<time>2012-04-21T13:49:59</time>
			</trkpt>
			<trkpt lat="52.1690067463109" lon="7.61408773251587">
				<ele>53.3000030517578</ele>
				<time>2012-04-21T13:50:05</time>
			</trkpt>
			<trkpt lat="52.1688476996982" lon="7.61366947554761">
				<ele>48.6999969482422</ele>
				<time>2012-04-21T13:50:09</time>
			</trkpt>
			<trkpt lat="52.1686059237012" lon="7.61314770207518">
				<ele>46.5999984741211</ele>
				<time>2012-04-21T13:50:15</time>
			</trkpt>
			<trkpt lat="52.1685686242321" lon="7.61298676953429">
				<ele>51</ele>
				<time>2012-04-21T13:50:17</time>
			</trkpt>
			<trkpt lat="52.168280202944" lon="7.61223088950628">
				<ele>56.1999969482422</ele>
				<time>2012-04-21T13:50:26</time>
			</trkpt>
			<trkpt lat="52.1681470983216" lon="7.61193752289527">
				<ele>58</ele>
				<time>2012-04-21T13:50:29</time>
			</trkpt>
			<trkpt lat="52.1679596789667" lon="7.61183417402917">
				<ele>59.5999984741211</ele>
				<time>2012-04-21T13:50:33</time>
			</trkpt>
			<trkpt lat="52.1677082637811" lon="7.61192536913567">
				<ele>58.8000030517578</ele>
				<time>2012-04-21T13:50:37</time>
			</trkpt>
			<trkpt lat="52.1670405613744" lon="7.61223700829559">
				<ele>56.3000030517578</ele>
				<time>2012-04-21T13:50:45</time>
			</trkpt>
			<trkpt lat="52.1665246552342" lon="7.61230842211061">
				<ele>59.8000030517578</ele>
				<time>2012-04-21T13:50:50</time>
			</trkpt>
			<trkpt lat="52.1661801590139" lon="7.61237430386954">
				<ele>56.4000015258789</ele>
				<time>2012-04-21T13:50:54</time>
			</trkpt>
			<trkpt lat="52.1656583855414" lon="7.61249139905685">
				<ele>47.4000015258789</ele>
				<time>2012-04-21T13:51:00</time>
			</trkpt>
			<trkpt lat="52.1654172800967" lon="7.6125679258328">
				<ele>42.9000015258789</ele>
				<time>2012-04-21T13:51:03</time>
			</trkpt>
			<trkpt lat="52.1650714427719" lon="7.61273933575266">
				<ele>43.5</ele>
				<time>2012-04-21T13:51:08</time>
			</trkpt>
			<trkpt lat="52.1646750625709" lon="7.61272483506018">
				<ele>47.5</ele>
				<time>2012-04-21T13:51:14</time>
			</trkpt>
			<trkpt lat="52.1643376071492" lon="7.61258628220075">
				<ele>48.8000030517578</ele>
				<time>2012-04-21T13:51:18</time>
			</trkpt>
			<trkpt lat="52.1639357787111" lon="7.61247631163114">
				<ele>44.5999984741211</ele>
				<time>2012-04-21T13:51:24</time>
			</trkpt>
			<trkpt lat="52.1634896519148" lon="7.61227028445118">
				<ele>46.4000015258789</ele>
				<time>2012-04-21T13:51:30</time>
			</trkpt>
			<trkpt lat="52.163252192598" lon="7.61209761724585">
				<ele>43.8000030517578</ele>
				<time>2012-04-21T13:51:33</time>
			</trkpt>
			<trkpt lat="52.1630560560638" lon="7.61193676852399">
				<ele>45.5999984741211</ele>
				<time>2012-04-21T13:51:38</time>
			</trkpt>
			<trkpt lat="52.1630034596214" lon="7.61167642661148">
				<ele>48.5999984741211</ele>
				<time>2012-04-21T13:51:42</time>
			</trkpt>
			<trkpt lat="52.1627463866511" lon="7.61129974388295">
				<ele>45.5999984741211</ele>
				<time>2012-04-21T13:51:48</time>
			</trkpt>
			<trkpt lat="52.1627077460775" lon="7.61026005261355">
				<ele>35.6999969482422</ele>
				<time>2012-04-21T13:51:56</time>
			</trkpt>
			<trkpt lat="52.162750200417" lon="7.60965278372877">
				<ele>38.5</ele>
				<time>2012-04-21T13:52:01</time>
			</trkpt>
			<trkpt lat="52.1627480630317" lon="7.60904945433848">
				<ele>39.5999984741211</ele>
				<time>2012-04-21T13:52:06</time>
			</trkpt>
			<trkpt lat="52.162706404973" lon="7.60834562592917">
				<ele>40</ele>
				<time>2012-04-21T13:52:11</time>
			</trkpt>
			<trkpt lat="52.1626328537726" lon="7.60781949386709">
				<ele>40.5999984741211</ele>
				<time>2012-04-21T13:52:16</time>
			</trkpt>
			<trkpt lat="52.1626240946838" lon="7.60767675005608">
				<ele>40.5999984741211</ele>
				<time>2012-04-21T13:52:17</time>
			</trkpt>
			<trkpt lat="52.1628923574948" lon="7.60695540346914">
				<ele>32</ele>
				<time>2012-04-21T13:52:24</time>
			</trkpt>
			<trkpt lat="52.1631379891673" lon="7.60662431829386">
				<ele>29.3000030517578</ele>
				<time>2012-04-21T13:52:28</time>
			</trkpt>
			<trkpt lat="52.1635295497739" lon="7.6059795823019">
				<ele>31.4000015258789</ele>
				<time>2012-04-21T13:52:36</time>
			</trkpt>
			<trkpt lat="52.1638262272367" lon="7.60577808134966">
				<ele>30.5</ele>
				<time>2012-04-21T13:52:40</time>
			</trkpt>
			<trkpt lat="52.1641104994828" lon="7.60556392372363">
				<ele>32.8000030517578</ele>
				<time>2012-04-21T13:52:44</time>
			</trkpt>
			<trkpt lat="52.1645101905355" lon="7.60515522212498">
				<ele>35</ele>
				<time>2012-04-21T13:52:50</time>
			</trkpt>
			<trkpt lat="52.1646572929361" lon="7.60461433791332">
				<ele>32.9000015258789</ele>
				<time>2012-04-21T13:52:55</time>
			</trkpt>
			<trkpt lat="52.1648292895892" lon="7.60391998105459">
				<ele>25.5999984741211</ele>
				<time>2012-04-21T13:53:01</time>
			</trkpt>
			<trkpt lat="52.1649622265735" lon="7.60346760974042">
				<ele>30.0999984741211</ele>
				<time>2012-04-21T13:53:05</time>
			</trkpt>
			<trkpt lat="52.1649949998149" lon="7.60308749043159">
				<ele>31.3000030517578</ele>
				<time>2012-04-21T13:53:08</time>
			</trkpt>
			<trkpt lat="52.1649623103926" lon="7.6024431735348">
				<ele>32.5999984741211</ele>
				<time>2012-04-21T13:53:14</time>
			</trkpt>
			<trkpt lat="52.164745428648" lon="7.6021807361465">
				<ele>38.1999969482422</ele>
				<time>2012-04-21T13:53:19</time>
			</trkpt>
			<trkpt lat="52.1646152576917" lon="7.60217092931979">
				<ele>40.5</ele>
				<time>2012-04-21T13:53:22</time>
			</trkpt>
			<trkpt lat="52.1641777223462" lon="7.60156952776723">
				<ele>45.5</ele>
				<time>2012-04-21T13:53:32</time>
			</trkpt>
			<trkpt lat="52.163873375442" lon="7.60135847144537">
				<ele>42.0999984741211</ele>
				<time>2012-04-21T13:53:35</time>
			</trkpt>
			<trkpt lat="52.1636054479072" lon="7.60116987862401">
				<ele>48.5</ele>
				<time>2012-04-21T13:53:39</time>
			</trkpt>
			<trkpt lat="52.1634877240771" lon="7.60114724748544">
				<ele>50.3000030517578</ele>
				<time>2012-04-21T13:53:43</time>
			</trkpt>
			<trkpt lat="52.1633190382758" lon="7.60083862581067">
				<ele>51</ele>
				<time>2012-04-21T13:53:49</time>
			</trkpt>
			<trkpt lat="52.1631996380651" lon="7.60067232885175">
				<ele>49.5</ele>
				<time>2012-04-21T13:53:54</time>
			</trkpt>
			<trkpt lat="52.162842652809" lon="7.60040335357897">
				<ele>49.5</ele>
				<time>2012-04-21T13:53:58</time>
			</trkpt>
			<trkpt lat="52.1620728588218" lon="7.59996137582473">
				<ele>53.5999984741211</ele>
				<time>2012-04-21T13:54:06</time>
			</trkpt>
			<trkpt lat="52.1619164944181" lon="7.59987101890855">
				<ele>53.6999969482422</ele>
				<time>2012-04-21T13:54:08</time>
			</trkpt>
			<trkpt lat="52.1612920845413" lon="7.59931982495598">
				<ele>50</ele>
				<time>2012-04-21T13:54:17</time>
			</trkpt>
			<trkpt lat="52.1610477520639" lon="7.59898840450458">
				<ele>50.1999969482422</ele>
				<time>2012-04-21T13:54:22</time>
			</trkpt>
			<trkpt lat="52.1609370690325" lon="7.59856126271896">
				<ele>51</ele>
				<time>2012-04-21T13:54:26</time>
			</trkpt>
			<trkpt lat="52.1609036671484" lon="7.59811601602249">
				<ele>52</ele>
				<time>2012-04-21T13:54:30</time>
			</trkpt>
			<trkpt lat="52.1608689241597" lon="7.59763271548561">
				<ele>53</ele>
				<time>2012-04-21T13:54:35</time>
			</trkpt>
			<trkpt lat="52.1608812455574" lon="7.59728335776142">
				<ele>54</ele>
				<time>2012-04-21T13:54:38</time>
			</trkpt>
			<trkpt lat="52.1603808040285" lon="7.59648581967465">
				<ele>54.1999969482422</ele>
				<time>2012-04-21T13:54:47</time>
			</trkpt>
			<trkpt lat="52.160197240349" lon="7.59631809779219">
				<ele>52.0999984741211</ele>
				<time>2012-04-21T13:54:51</time>
			</trkpt>
			<trkpt lat="52.1601143014172" lon="7.59609572590105">
				<ele>52.8000030517578</ele>
				<time>2012-04-21T13:54:55</time>
			</trkpt>
			<trkpt lat="52.1599744493627" lon="7.59583521635048">
				<ele>46</ele>
				<time>2012-04-21T13:55:01</time>
			</trkpt>
			<trkpt lat="52.1599912550786" lon="7.59548066184632">
				<ele>46.0999984741211</ele>
				<time>2012-04-21T13:55:07</time>
			</trkpt>
			<trkpt lat="52.1600894909838" lon="7.59503172711245">
				<ele>46.3000030517578</ele>
				<time>2012-04-21T13:55:12</time>
			</trkpt>
			<trkpt lat="52.160126958091" lon="7.59488579817824">
				<ele>46.1999969482422</ele>
				<time>2012-04-21T13:55:14</time>
			</trkpt>
			<trkpt lat="52.1603149222696" lon="7.59415573441199">
				<ele>49</ele>
				<time>2012-04-21T13:55:22</time>
			</trkpt>
			<trkpt lat="52.1604479011634" lon="7.59375407361201">
				<ele>52.4000015258789</ele>
				<time>2012-04-21T13:55:26</time>
			</trkpt>
			<trkpt lat="52.1605622303227" lon="7.59335367009751">
				<ele>51.6999969482422</ele>
				<time>2012-04-21T13:55:30</time>
			</trkpt>
			<trkpt lat="52.1607426926979" lon="7.59252444841675">
				<ele>45.3000030517578</ele>
				<time>2012-04-21T13:55:37</time>
			</trkpt>
			<trkpt lat="52.1607157867888" lon="7.59208934382311">
				<ele>44.9000015258789</ele>
				<time>2012-04-21T13:55:41</time>
			</trkpt>
			<trkpt lat="52.1605594642946" lon="7.5917357113283">
				<ele>45.1999969482422</ele>
				<time>2012-04-21T13:55:45</time>
			</trkpt>
			<trkpt lat="52.1602317318806" lon="7.59139020927957">
				<ele>44.8000030517578</ele>
				<time>2012-04-21T13:55:51</time>
			</trkpt>
			<trkpt lat="52.1598918037975" lon="7.5910522509437">
				<ele>42.5999984741211</ele>
				<time>2012-04-21T13:55:57</time>
			</trkpt>
			<trkpt lat="52.1596164163688" lon="7.5907739717584">
				<ele>42</ele>
				<time>2012-04-21T13:56:02</time>
			</trkpt>
			<trkpt lat="52.1595055237898" lon="7.59065687657109">
				<ele>42.1999969482422</ele>
				<time>2012-04-21T13:56:04</time>
			</trkpt>
			<trkpt lat="52.159250923481" lon="7.59043551050833">
				<ele>41.0999984741211</ele>
				<time>2012-04-21T13:56:09</time>
			</trkpt>
			<trkpt lat="52.1587329637745" lon="7.59002395906261">
				<ele>40.5999984741211</ele>
				<time>2012-04-21T13:56:17</time>
			</trkpt>
			<trkpt lat="52.1583833965027" lon="7.58982706815711">
				<ele>37</ele>
				<time>2012-04-21T13:56:22</time>
			</trkpt>
			<trkpt lat="52.1580360504353" lon="7.58961073123625">
				<ele>36.0999984741211</ele>
				<time>2012-04-21T13:56:28</time>
			</trkpt>
			<trkpt lat="52.1578539116794" lon="7.58944652975312">
				<ele>33.8000030517578</ele>
				<time>2012-04-21T13:56:32</time>
			</trkpt>
			<trkpt lat="52.1577779297271" lon="7.58915056475214">
				<ele>36.8000030517578</ele>
				<time>2012-04-21T13:56:37</time>
			</trkpt>
			<trkpt lat="52.1577916760483" lon="7.58886935190073">
				<ele>36.9000015258789</ele>
				<time>2012-04-21T13:56:40</time>
			</trkpt>
			<trkpt lat="52.157858102631" lon="7.58799771778992">
				<ele>35.0999984741211</ele>
				<time>2012-04-21T13:56:48</time>
			</trkpt>
			<trkpt lat="52.1578682866433" lon="7.58780929260663">
				<ele>34.9000015258789</ele>
				<time>2012-04-21T13:56:50</time>
			</trkpt>
			<trkpt lat="52.157966564458" lon="7.58733672090581">
				<ele>36.1999969482422</ele>
				<time>2012-04-21T13:56:55</time>
			</trkpt>
			<trkpt lat="52.1580324881265" lon="7.58664680645576">
				<ele>40.9000015258789</ele>
				<time>2012-04-21T13:57:03</time>
			</trkpt>
			<trkpt lat="52.1581233898663" lon="7.58631295525244">
				<ele>43.4000015258789</ele>
				<time>2012-04-21T13:57:07</time>
			</trkpt>
			<trkpt lat="52.1583411517107" lon="7.58573686704746">
				<ele>45.5999984741211</ele>
				<time>2012-04-21T13:57:14</time>
			</trkpt>
			<trkpt lat="52.1585209016243" lon="7.58533679880908">
				<ele>43.1999969482422</ele>
				<time>2012-04-21T13:57:18</time>
			</trkpt>
			<trkpt lat="52.1586318780222" lon="7.58503203280976">
				<ele>43.3000030517578</ele>
				<time>2012-04-21T13:57:22</time>
			</trkpt>
			<trkpt lat="52.1589001827428" lon="7.58431051858476">
				<ele>44.8000030517578</ele>
				<time>2012-04-21T13:57:28</time>
			</trkpt>
			<trkpt lat="52.1590431361014" lon="7.58400533349028">
				<ele>41</ele>
				<time>2012-04-21T13:57:31</time>
			</trkpt>
			<trkpt lat="52.1592026437187" lon="7.58333486505559">
				<ele>46.9000015258789</ele>
				<time>2012-04-21T13:57:38</time>
			</trkpt>
			<trkpt lat="52.1593703656012" lon="7.58267571219018">
				<ele>46.0999984741211</ele>
				<time>2012-04-21T13:57:44</time>
			</trkpt>
			<trkpt lat="52.1594455931821" lon="7.5823274441134">
				<ele>42.9000015258789</ele>
				<time>2012-04-21T13:57:47</time>
			</trkpt>
			<trkpt lat="52.1595377522075" lon="7.58185420186034">
				<ele>42.6999969482422</ele>
				<time>2012-04-21T13:57:52</time>
			</trkpt>
			<trkpt lat="52.1597082820275" lon="7.58110293187907">
				<ele>45.8000030517578</ele>
				<time>2012-04-21T13:57:59</time>
			</trkpt>
			<trkpt lat="52.1597825875992" lon="7.58060295135489">
				<ele>44.5999984741211</ele>
				<time>2012-04-21T13:58:04</time>
			</trkpt>
			<trkpt lat="52.1598180430496" lon="7.58016390726676">
				<ele>43.5</ele>
				<time>2012-04-21T13:58:08</time>
			</trkpt>
			<trkpt lat="52.1598032489905" lon="7.57992703468313">
				<ele>40.8000030517578</ele>
				<time>2012-04-21T13:58:10</time>
			</trkpt>
			<trkpt lat="52.1599482559153" lon="7.57900410332492">
				<ele>42.4000015258789</ele>
				<time>2012-04-21T13:58:18</time>
			</trkpt>
			<trkpt lat="52.1601080568993" lon="7.57844528184047">
				<ele>42.0999984741211</ele>
				<time>2012-04-21T13:58:23</time>
			</trkpt>
			<trkpt lat="52.1603518864626" lon="7.57791663520744">
				<ele>43.1999969482422</ele>
				<time>2012-04-21T13:58:28</time>
			</trkpt>
			<trkpt lat="52.1606336860472" lon="7.57745102048626">
				<ele>46.1999969482422</ele>
				<time>2012-04-21T13:58:33</time>
			</trkpt>
			<trkpt lat="52.1609122166896" lon="7.57704407908728">
				<ele>46.5</ele>
				<time>2012-04-21T13:58:38</time>
			</trkpt>
			<trkpt lat="52.1611866821089" lon="7.57664116100182">
				<ele>45</ele>
				<time>2012-04-21T13:58:43</time>
			</trkpt>
			<trkpt lat="52.1614549868295" lon="7.5763382390212">
				<ele>42.4000015258789</ele>
				<time>2012-04-21T13:58:47</time>
			</trkpt>
			<trkpt lat="52.1616781550014" lon="7.57603204809835">
				<ele>41</ele>
				<time>2012-04-21T13:58:51</time>
			</trkpt>
			<trkpt lat="52.1620780975112" lon="7.57552636788001">
				<ele>36.9000015258789</ele>
				<time>2012-04-21T13:58:58</time>
			</trkpt>
			<trkpt lat="52.1624676883706" lon="7.57485707291176">
				<ele>38.5999984741211</ele>
				<time>2012-04-21T13:59:05</time>
			</trkpt>
			<trkpt lat="52.1626730030888" lon="7.57445474155953">
				<ele>39.1999969482422</ele>
				<time>2012-04-21T13:59:09</time>
			</trkpt>
			<trkpt lat="52.1628177166471" lon="7.57409381680896">
				<ele>45.5</ele>
				<time>2012-04-21T13:59:13</time>
			</trkpt>
			<trkpt lat="52.1629169164711" lon="7.57309251465609">
				<ele>42.6999969482422</ele>
				<time>2012-04-21T13:59:20</time>
			</trkpt>
			<trkpt lat="52.1629392961526" lon="7.57263318636229">
				<ele>40.8000030517578</ele>
				<time>2012-04-21T13:59:23</time>
			</trkpt>
			<trkpt lat="52.1629369911292" lon="7.57206698880305">
				<ele>40.6999969482422</ele>
				<time>2012-04-21T13:59:28</time>
			</trkpt>
			<trkpt lat="52.1629920183235" lon="7.57129023783614">
				<ele>43.1999969482422</ele>
				<time>2012-04-21T13:59:35</time>
			</trkpt>
			<trkpt lat="52.1630944451803" lon="7.57079277188291">
				<ele>43.4000015258789</ele>
				<time>2012-04-21T13:59:39</time>
			</trkpt>
			<trkpt lat="52.1633226844037" lon="7.57040753961314">
				<ele>42.0999984741211</ele>
				<time>2012-04-21T13:59:44</time>
			</trkpt>
			<trkpt lat="52.1631328342968" lon="7.57009120658745">
				<ele>42</ele>
				<time>2012-04-21T13:59:49</time>
			</trkpt>
			<trkpt lat="52.1629493963459" lon="7.56986422464956">
				<ele>40.6999969482422</ele>
				<time>2012-04-21T13:59:53</time>
			</trkpt>
			<trkpt lat="52.1628482267746" lon="7.56944504567196">
				<ele>41.3000030517578</ele>
				<time>2012-04-21T13:59:58</time>
			</trkpt>
			<trkpt lat="52.1627193131039" lon="7.56903986447264">
				<ele>43.0999984741211</ele>
				<time>2012-04-21T14:00:02</time>
			</trkpt>
			<trkpt lat="52.1626735898221" lon="7.56819563918521">
				<ele>39.8000030517578</ele>
				<time>2012-04-21T14:00:09</time>
			</trkpt>
			<trkpt lat="52.1626769844928" lon="7.56805549376418">
				<ele>41.8000030517578</ele>
				<time>2012-04-21T14:00:11</time>
			</trkpt>
			<trkpt lat="52.1625580033773" lon="7.56726675667573">
				<ele>51.8000030517578</ele>
				<time>2012-04-21T14:00:19</time>
			</trkpt>
			<trkpt lat="52.1622881899142" lon="7.56666686386575">
				<ele>40.3000030517578</ele>
				<time>2012-04-21T14:00:25</time>
			</trkpt>
			<trkpt lat="52.1622009762117" lon="7.56614433602203">
				<ele>40.8000030517578</ele>
				<time>2012-04-21T14:00:30</time>
			</trkpt>
			<trkpt lat="52.16219506697" lon="7.56569498219301">
				<ele>41.8000030517578</ele>
				<time>2012-04-21T14:00:34</time>
			</trkpt>
			<trkpt lat="52.1621972043553" lon="7.5652670860361">
				<ele>40.4000015258789</ele>
				<time>2012-04-21T14:00:38</time>
			</trkpt>
			<trkpt lat="52.1621885290855" lon="7.56455311552395">
				<ele>35.8000030517578</ele>
				<time>2012-04-21T14:00:45</time>
			</trkpt>
			<trkpt lat="52.1621650178471" lon="7.56419721991528">
				<ele>35.6999969482422</ele>
				<time>2012-04-21T14:00:48</time>
			</trkpt>
			<trkpt lat="52.1620784746969" lon="7.56368676201213">
				<ele>37.1999969482422</ele>
				<time>2012-04-21T14:00:53</time>
			</trkpt>
			<trkpt lat="52.1619607927763" lon="7.56290137768496">
				<ele>36.3000030517578</ele>
				<time>2012-04-21T14:01:00</time>
			</trkpt>
			<trkpt lat="52.1619343478718" lon="7.56283323281218">
				<ele>37.1999969482422</ele>
				<time>2012-04-21T14:01:01</time>
			</trkpt>
			<trkpt lat="52.161702169154" lon="7.56234238856245">
				<ele>40.9000015258789</ele>
				<time>2012-04-21T14:01:07</time>
			</trkpt>
			<trkpt lat="52.1614373848328" lon="7.56170536392141">
				<ele>43.9000015258789</ele>
				<time>2012-04-21T14:01:14</time>
			</trkpt>
			<trkpt lat="52.1612428827697" lon="7.56132641807903">
				<ele>43.4000015258789</ele>
				<time>2012-04-21T14:01:19</time>
			</trkpt>
			<trkpt lat="52.161166942727" lon="7.56110748276819">
				<ele>45.5999984741211</ele>
				<time>2012-04-21T14:01:23</time>
			</trkpt>
			<trkpt lat="52.1610471234211" lon="7.56064480171312">
				<ele>43.6999969482422</ele>
				<time>2012-04-21T14:01:27</time>
			</trkpt>
			<trkpt lat="52.160852537539" lon="7.56005429663468">
				<ele>45.6999969482422</ele>
				<time>2012-04-21T14:01:32</time>
			</trkpt>
			<trkpt lat="52.1605390962699" lon="7.55927964114357">
				<ele>44.3000030517578</ele>
				<time>2012-04-21T14:01:39</time>
			</trkpt>
			<trkpt lat="52.1603759844342" lon="7.55895350129116">
				<ele>42.5999984741211</ele>
				<time>2012-04-21T14:01:44</time>
			</trkpt>
			<trkpt lat="52.1602767427006" lon="7.5587873719703">
				<ele>44.4000015258789</ele>
				<time>2012-04-21T14:01:46</time>
			</trkpt>
			<trkpt lat="52.1599125070983" lon="7.55799486302543">
				<ele>42</ele>
				<time>2012-04-21T14:01:55</time>
			</trkpt>
			<trkpt lat="52.1597651532406" lon="7.55767635070491">
				<ele>44.0999984741211</ele>
				<time>2012-04-21T14:01:59</time>
			</trkpt>
			<trkpt lat="52.1596310008803" lon="7.55741558969725">
				<ele>46</ele>
				<time>2012-04-21T14:02:03</time>
			</trkpt>
			<trkpt lat="52.1595445834586" lon="7.55747870542813">
				<ele>47.9000015258789</ele>
				<time>2012-04-21T14:02:06</time>
			</trkpt>
			<trkpt lat="52.1600084379801" lon="7.55716505461145">
				<ele>45</ele>
				<time>2012-04-21T14:02:14</time>
			</trkpt>
			<trkpt lat="52.1601331606993" lon="7.5569534953754">
				<ele>43.6999969482422</ele>
				<time>2012-04-21T14:02:16</time>
			</trkpt>
			<trkpt lat="52.1605232125634" lon="7.55614925176609">
				<ele>41.8000030517578</ele>
				<time>2012-04-21T14:02:25</time>
			</trkpt>
			<trkpt lat="52.1606082888806" lon="7.55599720404256">
				<ele>42.8000030517578</ele>
				<time>2012-04-21T14:02:27</time>
			</trkpt>
			<trkpt lat="52.1610129252562" lon="7.55524048582423">
				<ele>41</ele>
				<time>2012-04-21T14:02:35</time>
			</trkpt>
			<trkpt lat="52.1612060862148" lon="7.55485835485864">
				<ele>40.1999969482422</ele>
				<time>2012-04-21T14:02:39</time>
			</trkpt>
			<trkpt lat="52.1614200762028" lon="7.55447153002727">
				<ele>38</ele>
				<time>2012-04-21T14:02:43</time>
			</trkpt>
			<trkpt lat="52.1615746804068" lon="7.55415377207804">
				<ele>32.8000030517578</ele>
				<time>2012-04-21T14:02:46</time>
			</trkpt>
			<trkpt lat="52.1620456176364" lon="7.55339168944168">
				<ele>28</ele>
				<time>2012-04-21T14:02:55</time>
			</trkpt>
			<trkpt lat="52.16217256156" lon="7.55316018127608">
				<ele>32.5999984741211</ele>
				<time>2012-04-21T14:02:58</time>
			</trkpt>
			<trkpt lat="52.1622801851967" lon="7.55290822126675">
				<ele>34.0999984741211</ele>
				<time>2012-04-21T14:03:01</time>
			</trkpt>
			<trkpt lat="52.1625558240825" lon="7.55241234787512">
				<ele>41.5999984741211</ele>
				<time>2012-04-21T14:03:08</time>
			</trkpt>
			<trkpt lat="52.1629261784741" lon="7.55173768848884">
				<ele>50.1999969482422</ele>
				<time>2012-04-21T14:03:15</time>
			</trkpt>
			<trkpt lat="52.1629939461613" lon="7.55165982060838">
				<ele>50.3000030517578</ele>
				<time>2012-04-21T14:03:16</time>
			</trkpt>
			<trkpt lat="52.1632813197115" lon="7.55116403103578">
				<ele>49.8000030517578</ele>
				<time>2012-04-21T14:03:21</time>
			</trkpt>
			<trkpt lat="52.1636207029709" lon="7.55062742159474">
				<ele>52.6999969482422</ele>
				<time>2012-04-21T14:03:28</time>
			</trkpt>
			<trkpt lat="52.1639190987238" lon="7.55012995564151">
				<ele>51.1999969482422</ele>
				<time>2012-04-21T14:03:33</time>
			</trkpt>
			<trkpt lat="52.1642599907258" lon="7.54956057295906">
				<ele>51.1999969482422</ele>
				<time>2012-04-21T14:03:39</time>
			</trkpt>
			<trkpt lat="52.1645670617485" lon="7.54902488552737">
				<ele>47.8000030517578</ele>
				<time>2012-04-21T14:03:44</time>
			</trkpt>
			<trkpt lat="52.1647038544083" lon="7.5487313512783">
				<ele>46.3000030517578</ele>
				<time>2012-04-21T14:03:47</time>
			</trkpt>
			<trkpt lat="52.1649786131942" lon="7.54826925695645">
				<ele>49.8000030517578</ele>
				<time>2012-04-21T14:03:52</time>
			</trkpt>
			<trkpt lat="52.1653511887902" lon="7.5474640913378">
				<ele>47.1999969482422</ele>
				<time>2012-04-21T14:04:00</time>
			</trkpt>
			<trkpt lat="52.1656271210426" lon="7.54701037891912">
				<ele>44.8000030517578</ele>
				<time>2012-04-21T14:04:05</time>
			</trkpt>
			<trkpt lat="52.1658371715361" lon="7.54659849219727">
				<ele>48.1999969482422</ele>
				<time>2012-04-21T14:04:09</time>
			</trkpt>
			<trkpt lat="52.1659709467107" lon="7.54626296461331">
				<ele>47.3000030517578</ele>
				<time>2012-04-21T14:04:12</time>
			</trkpt>
			<trkpt lat="52.166296751287" lon="7.54547322169649">
				<ele>46.4000015258789</ele>
				<time>2012-04-21T14:04:19</time>
			</trkpt>
			<trkpt lat="52.1663856832796" lon="7.54528588616061">
				<ele>46.6999969482422</ele>
				<time>2012-04-21T14:04:21</time>
			</trkpt>
			<trkpt lat="52.1667483682299" lon="7.54458733835029">
				<ele>45.5999984741211</ele>
				<time>2012-04-21T14:04:29</time>
			</trkpt>
			<trkpt lat="52.1668995777631" lon="7.54420562647986">
				<ele>48.8000030517578</ele>
				<time>2012-04-21T14:04:33</time>
			</trkpt>
			<trkpt lat="52.1671115560943" lon="7.54366566427755">
				<ele>51.9000015258789</ele>
				<time>2012-04-21T14:04:39</time>
			</trkpt>
			<trkpt lat="52.1672016196439" lon="7.54338386469292">
				<ele>48.5</ele>
				<time>2012-04-21T14:04:41</time>
			</trkpt>
			<trkpt lat="52.167425206911" lon="7.54263963551032">
				<ele>45.9000015258789</ele>
				<time>2012-04-21T14:04:48</time>
			</trkpt>
			<trkpt lat="52.1675828286001" lon="7.54222540185558">
				<ele>43.5999984741211</ele>
				<time>2012-04-21T14:04:54</time>
			</trkpt>
			<trkpt lat="52.1676154342034" lon="7.54214158282386">
				<ele>43.9000015258789</ele>
				<time>2012-04-21T14:04:56</time>
			</trkpt>
			<trkpt lat="52.167634000119" lon="7.54203060642587">
				<ele>43.5999984741211</ele>
				<time>2012-04-21T14:05:05</time>
			</trkpt>
			<trkpt lat="52.1676177811363" lon="7.54212289117979">
				<ele>48.5</ele>
				<time>2012-04-21T14:05:21</time>
			</trkpt>
			<trkpt lat="52.1676376881564" lon="7.54215474241184">
				<ele>48.0999984741211</ele>
				<time>2012-04-21T14:05:25</time>
			</trkpt>
			<trkpt lat="52.1677107364425" lon="7.5418496411364">
				<ele>56.9000015258789</ele>
				<time>2012-04-21T14:06:16</time>
			</trkpt>
			<trkpt lat="52.1677058330292" lon="7.54145476967799">
				<ele>56.0999984741211</ele>
				<time>2012-04-21T14:06:20</time>
			</trkpt>
			<trkpt lat="52.1676596906522" lon="7.54097473808335">
				<ele>56.9000015258789</ele>
				<time>2012-04-21T14:06:25</time>
			</trkpt>
			<trkpt lat="52.1675677411744" lon="7.54025867209541">
				<ele>62.5999984741211</ele>
				<time>2012-04-21T14:06:31</time>
			</trkpt>
			<trkpt lat="52.1675428050125" lon="7.54016990774082">
				<ele>64.4000015258789</ele>
				<time>2012-04-21T14:06:32</time>
			</trkpt>
			<trkpt lat="52.167367036503" lon="7.53919349984037">
				<ele>64.4000015258789</ele>
				<time>2012-04-21T14:06:41</time>
			</trkpt>
			<trkpt lat="52.1672975086162" lon="7.53881648183571">
				<ele>63.5999984741211</ele>
				<time>2012-04-21T14:06:45</time>
			</trkpt>
			<trkpt lat="52.1672760928535" lon="7.53844943829583">
				<ele>62.0999984741211</ele>
				<time>2012-04-21T14:06:49</time>
			</trkpt>
			<trkpt lat="52.1672531683484" lon="7.53794702701973">
				<ele>64.9000015258789</ele>
				<time>2012-04-21T14:06:54</time>
			</trkpt>
			<trkpt lat="52.1672096243614" lon="7.5373182166438">
				<ele>64.1999969482422</ele>
				<time>2012-04-21T14:07:00</time>
			</trkpt>
			<trkpt lat="52.1671788627768" lon="7.53687506542312">
				<ele>64.6999969482422</ele>
				<time>2012-04-21T14:07:04</time>
			</trkpt>
			<trkpt lat="52.1672258852536" lon="7.53618909046756">
				<ele>63.5</ele>
				<time>2012-04-21T14:07:10</time>
			</trkpt>
			<trkpt lat="52.1672132704893" lon="7.53561082296775">
				<ele>62.5</ele>
				<time>2012-04-21T14:07:15</time>
			</trkpt>
			<trkpt lat="52.1672275616342" lon="7.53510640003489">
				<ele>57</ele>
				<time>2012-04-21T14:07:19</time>
			</trkpt>
			<trkpt lat="52.1672801161671" lon="7.53426091746197">
				<ele>54.6999969482422</ele>
				<time>2012-04-21T14:07:26</time>
			</trkpt>
			<trkpt lat="52.1673357300946" lon="7.53383176401959">
				<ele>51.4000015258789</ele>
				<time>2012-04-21T14:07:29</time>
			</trkpt>
			<trkpt lat="52.1673905896509" lon="7.53347310238288">
				<ele>50.3000030517578</ele>
				<time>2012-04-21T14:07:32</time>
			</trkpt>
			<trkpt lat="52.1675293101484" lon="7.53266156651781">
				<ele>44.5</ele>
				<time>2012-04-21T14:07:39</time>
			</trkpt>
			<trkpt lat="52.1676692879313" lon="7.53205345944272">
				<ele>43</ele>
				<time>2012-04-21T14:07:45</time>
			</trkpt>
			<trkpt lat="52.1675810684004" lon="7.53180309199498">
				<ele>41.9000015258789</ele>
				<time>2012-04-21T14:07:51</time>
			</trkpt>
			<trkpt lat="52.1675218502545" lon="7.53178565763638">
				<ele>42.6999969482422</ele>
				<time>2012-04-21T14:07:52</time>
			</trkpt>
			<trkpt lat="52.1672397992128" lon="7.53149572760568">
				<ele>41</ele>
				<time>2012-04-21T14:07:58</time>
			</trkpt>
			<trkpt lat="52.1668897709364" lon="7.53122557886646">
				<ele>48.6999969482422</ele>
				<time>2012-04-21T14:08:04</time>
			</trkpt>
			<trkpt lat="52.1663619624937" lon="7.53110890277431">
				<ele>49.6999969482422</ele>
				<time>2012-04-21T14:08:10</time>
			</trkpt>
			<trkpt lat="52.1662406763548" lon="7.53100203350888">
				<ele>46.5999984741211</ele>
				<time>2012-04-21T14:08:14</time>
			</trkpt>
			<trkpt lat="52.1660862816983" lon="7.53086029552625">
				<ele>53</ele>
				<time>2012-04-21T14:08:18</time>
			</trkpt>
			<trkpt lat="52.1658351179698" lon="7.53079743125246">
				<ele>57.9000015258789</ele>
				<time>2012-04-21T14:08:24</time>
			</trkpt>
			<trkpt lat="52.1656443877631" lon="7.53077756614194">
				<ele>56.8000030517578</ele>
				<time>2012-04-21T14:08:29</time>
			</trkpt>
			<trkpt lat="52.1652540425324" lon="7.53064647317634">
				<ele>44.5</ele>
				<time>2012-04-21T14:08:36</time>
			</trkpt>
			<trkpt lat="52.1651753364617" lon="7.53052996472226">
				<ele>49.3000030517578</ele>
				<time>2012-04-21T14:08:41</time>
			</trkpt>
			<trkpt lat="52.165135312874" lon="7.530455281965">
				<ele>43.8000030517578</ele>
				<time>2012-04-21T14:08:44</time>
			</trkpt>
			<trkpt lat="52.1650079498553" lon="7.53039761447118">
				<ele>44.5</ele>
				<time>2012-04-21T14:08:50</time>
			</trkpt>
			<trkpt lat="52.1649693931007" lon="7.5304101035069">
				<ele>43.8000030517578</ele>
				<time>2012-04-21T14:08:54</time>
			</trkpt>
			<trkpt lat="52.1649397211635" lon="7.53037674353228">
				<ele>41.9000015258789</ele>
				<time>2012-04-21T14:09:00</time>
			</trkpt>
			<trkpt lat="52.1649033856133" lon="7.53035285510824">
				<ele>40.9000015258789</ele>
				<time>2012-04-21T14:09:07</time>
			</trkpt>
		</trkseg>
	</trk>
</gpx>